<?xml version="1.0" encoding="UTF-8" standalone="no" ?>
<gpx xmlns="http://www.topografix.com/GPX/1/1" xmlns:xsi="http://www.w3.org/2001/XMLSchema-instance" xsi:schemaLocation="http://www.topografix.com/GPX/1/1 http://www.topografix.com/GPX/1/1/gpx.xsd" version="1.1" creator="VisuGPX - https://www.visugpx.com">
  <metadata>
    <name>VTT - Jouques</name>
    <desc><![CDATA[Aucune difficulté]]></desc>
  </metadata>
  <trk>
    <name><![CDATA[VTT - Jouques]]></name>
    <trkseg>
      <trkpt lat="43.63691" lon="5.63794">
        <ele>270.20001220703</ele>
        <time>2013-06-01T07:16:37.000Z</time>
      </trkpt>
      <trkpt lat="43.6369" lon="5.63794">
        <ele>270.20001220703</ele>
        <time>2013-06-01T07:16:54.000Z</time>
      </trkpt>
      <trkpt lat="43.63693" lon="5.63789">
        <ele>270.60000610352</ele>
        <time>2013-06-01T07:17:05.000Z</time>
      </trkpt>
      <trkpt lat="43.63693" lon="5.63788">
        <ele>270.60000610352</ele>
        <time>2013-06-01T07:17:20.000Z</time>
      </trkpt>
      <trkpt lat="43.63692" lon="5.63785">
        <ele>270.60000610352</ele>
        <time>2013-06-01T07:17:41.000Z</time>
      </trkpt>
      <trkpt lat="43.6369" lon="5.63785">
        <ele>270.20001220703</ele>
        <time>2013-06-01T07:18:03.000Z</time>
      </trkpt>
      <trkpt lat="43.63689" lon="5.63782">
        <ele>270</ele>
        <time>2013-06-01T07:18:30.000Z</time>
      </trkpt>
      <trkpt lat="43.63687" lon="5.63783">
        <ele>269.79998779297</ele>
        <time>2013-06-01T07:18:53.000Z</time>
      </trkpt>
      <trkpt lat="43.6369" lon="5.63784">
        <ele>270.20001220703</ele>
        <time>2013-06-01T07:19:26.000Z</time>
      </trkpt>
      <trkpt lat="43.6369" lon="5.63784">
        <ele>270.39999389648</ele>
        <time>2013-06-01T07:19:44.000Z</time>
      </trkpt>
      <trkpt lat="43.63693" lon="5.63784">
        <ele>270.79998779297</ele>
        <time>2013-06-01T07:20:04.000Z</time>
      </trkpt>
      <trkpt lat="43.63693" lon="5.63781">
        <ele>270.79998779297</ele>
        <time>2013-06-01T07:20:07.000Z</time>
      </trkpt>
      <trkpt lat="43.63693" lon="5.63779">
        <ele>270.79998779297</ele>
        <time>2013-06-01T07:20:08.000Z</time>
      </trkpt>
      <trkpt lat="43.63681" lon="5.63755">
        <ele>269</ele>
        <time>2013-06-01T07:20:15.000Z</time>
      </trkpt>
      <trkpt lat="43.63668" lon="5.63719">
        <ele>269</ele>
        <time>2013-06-01T07:20:23.000Z</time>
      </trkpt>
      <trkpt lat="43.63663" lon="5.63655">
        <ele>270.79998779297</ele>
        <time>2013-06-01T07:20:35.000Z</time>
      </trkpt>
      <trkpt lat="43.63669" lon="5.63594">
        <ele>267.79998779297</ele>
        <time>2013-06-01T07:20:46.000Z</time>
      </trkpt>
      <trkpt lat="43.6368" lon="5.63541">
        <ele>265.20001220703</ele>
        <time>2013-06-01T07:20:56.000Z</time>
      </trkpt>
      <trkpt lat="43.63696" lon="5.63486">
        <ele>263.39999389648</ele>
        <time>2013-06-01T07:21:07.000Z</time>
      </trkpt>
      <trkpt lat="43.63715" lon="5.63415">
        <ele>261.79998779297</ele>
        <time>2013-06-01T07:21:21.000Z</time>
      </trkpt>
      <trkpt lat="43.63729" lon="5.63355">
        <ele>258</ele>
        <time>2013-06-01T07:21:33.000Z</time>
      </trkpt>
      <trkpt lat="43.63706" lon="5.63316">
        <ele>258.60000610352</ele>
        <time>2013-06-01T07:21:42.000Z</time>
      </trkpt>
      <trkpt lat="43.63664" lon="5.63256">
        <ele>261</ele>
        <time>2013-06-01T07:21:56.000Z</time>
      </trkpt>
      <trkpt lat="43.6366" lon="5.63252">
        <ele>260.79998779297</ele>
        <time>2013-06-01T07:21:57.000Z</time>
      </trkpt>
      <trkpt lat="43.63601" lon="5.63202">
        <ele>259.79998779297</ele>
        <time>2013-06-01T07:22:10.000Z</time>
      </trkpt>
      <trkpt lat="43.63543" lon="5.63154">
        <ele>257.79998779297</ele>
        <time>2013-06-01T07:22:22.000Z</time>
      </trkpt>
      <trkpt lat="43.63532" lon="5.63145">
        <ele>257.39999389648</ele>
        <time>2013-06-01T07:22:24.000Z</time>
      </trkpt>
      <trkpt lat="43.63527" lon="5.63139">
        <ele>257.20001220703</ele>
        <time>2013-06-01T07:22:25.000Z</time>
      </trkpt>
      <trkpt lat="43.63523" lon="5.63132">
        <ele>257</ele>
        <time>2013-06-01T07:22:26.000Z</time>
      </trkpt>
      <trkpt lat="43.63519" lon="5.63124">
        <ele>257</ele>
        <time>2013-06-01T07:22:27.000Z</time>
      </trkpt>
      <trkpt lat="43.63516" lon="5.63116">
        <ele>257</ele>
        <time>2013-06-01T07:22:28.000Z</time>
      </trkpt>
      <trkpt lat="43.63514" lon="5.63106">
        <ele>257</ele>
        <time>2013-06-01T07:22:29.000Z</time>
      </trkpt>
      <trkpt lat="43.63513" lon="5.63097">
        <ele>257</ele>
        <time>2013-06-01T07:22:30.000Z</time>
      </trkpt>
      <trkpt lat="43.63512" lon="5.63086">
        <ele>257</ele>
        <time>2013-06-01T07:22:31.000Z</time>
      </trkpt>
      <trkpt lat="43.63512" lon="5.63077">
        <ele>256.79998779297</ele>
        <time>2013-06-01T07:22:32.000Z</time>
      </trkpt>
      <trkpt lat="43.63511" lon="5.63067">
        <ele>256.39999389648</ele>
        <time>2013-06-01T07:22:33.000Z</time>
      </trkpt>
      <trkpt lat="43.63516" lon="5.62971">
        <ele>254.60000610352</ele>
        <time>2013-06-01T07:22:44.000Z</time>
      </trkpt>
      <trkpt lat="43.63521" lon="5.62886">
        <ele>255</ele>
        <time>2013-06-01T07:22:56.000Z</time>
      </trkpt>
      <trkpt lat="43.63524" lon="5.62853">
        <ele>254.39999389648</ele>
        <time>2013-06-01T07:23:02.000Z</time>
      </trkpt>
      <trkpt lat="43.63525" lon="5.62842">
        <ele>254.19999694824</ele>
        <time>2013-06-01T07:23:04.000Z</time>
      </trkpt>
      <trkpt lat="43.63525" lon="5.62836">
        <ele>254.19999694824</ele>
        <time>2013-06-01T07:23:05.000Z</time>
      </trkpt>
      <trkpt lat="43.63527" lon="5.62795">
        <ele>253.39999389648</ele>
        <time>2013-06-01T07:23:12.000Z</time>
      </trkpt>
      <trkpt lat="43.63529" lon="5.62729">
        <ele>252.39999389648</ele>
        <time>2013-06-01T07:23:23.000Z</time>
      </trkpt>
      <trkpt lat="43.63535" lon="5.62642">
        <ele>251.80000305176</ele>
        <time>2013-06-01T07:23:34.000Z</time>
      </trkpt>
      <trkpt lat="43.63536" lon="5.62629">
        <ele>251.39999389648</ele>
        <time>2013-06-01T07:23:36.000Z</time>
      </trkpt>
      <trkpt lat="43.63534" lon="5.62624">
        <ele>251.19999694824</ele>
        <time>2013-06-01T07:23:37.000Z</time>
      </trkpt>
      <trkpt lat="43.63531" lon="5.6262">
        <ele>250.80000305176</ele>
        <time>2013-06-01T07:23:38.000Z</time>
      </trkpt>
      <trkpt lat="43.63528" lon="5.62616">
        <ele>250.39999389648</ele>
        <time>2013-06-01T07:23:39.000Z</time>
      </trkpt>
      <trkpt lat="43.63525" lon="5.62611">
        <ele>250</ele>
        <time>2013-06-01T07:23:40.000Z</time>
      </trkpt>
      <trkpt lat="43.63523" lon="5.62606">
        <ele>249.60000610352</ele>
        <time>2013-06-01T07:23:41.000Z</time>
      </trkpt>
      <trkpt lat="43.63523" lon="5.62599">
        <ele>249.39999389648</ele>
        <time>2013-06-01T07:23:42.000Z</time>
      </trkpt>
      <trkpt lat="43.63523" lon="5.62593">
        <ele>249.19999694824</ele>
        <time>2013-06-01T07:23:43.000Z</time>
      </trkpt>
      <trkpt lat="43.63523" lon="5.62586">
        <ele>249</ele>
        <time>2013-06-01T07:23:44.000Z</time>
      </trkpt>
      <trkpt lat="43.63524" lon="5.62579">
        <ele>248.80000305176</ele>
        <time>2013-06-01T07:23:45.000Z</time>
      </trkpt>
      <trkpt lat="43.63532" lon="5.62495">
        <ele>248.19999694824</ele>
        <time>2013-06-01T07:23:57.000Z</time>
      </trkpt>
      <trkpt lat="43.6354" lon="5.62423">
        <ele>245.60000610352</ele>
        <time>2013-06-01T07:24:06.000Z</time>
      </trkpt>
      <trkpt lat="43.63543" lon="5.62409">
        <ele>246</ele>
        <time>2013-06-01T07:24:08.000Z</time>
      </trkpt>
      <trkpt lat="43.63548" lon="5.62397">
        <ele>246.80000305176</ele>
        <time>2013-06-01T07:24:10.000Z</time>
      </trkpt>
      <trkpt lat="43.6355" lon="5.62391">
        <ele>247.19999694824</ele>
        <time>2013-06-01T07:24:11.000Z</time>
      </trkpt>
      <trkpt lat="43.63552" lon="5.62385">
        <ele>247.60000610352</ele>
        <time>2013-06-01T07:24:12.000Z</time>
      </trkpt>
      <trkpt lat="43.63554" lon="5.62379">
        <ele>248</ele>
        <time>2013-06-01T07:24:13.000Z</time>
      </trkpt>
      <trkpt lat="43.63556" lon="5.62374">
        <ele>248.39999389648</ele>
        <time>2013-06-01T07:24:14.000Z</time>
      </trkpt>
      <trkpt lat="43.63566" lon="5.62346">
        <ele>250.19999694824</ele>
        <time>2013-06-01T07:24:19.000Z</time>
      </trkpt>
      <trkpt lat="43.63568" lon="5.62341">
        <ele>250.39999389648</ele>
        <time>2013-06-01T07:24:20.000Z</time>
      </trkpt>
      <trkpt lat="43.6357" lon="5.62335">
        <ele>250.80000305176</ele>
        <time>2013-06-01T07:24:21.000Z</time>
      </trkpt>
      <trkpt lat="43.63572" lon="5.6233">
        <ele>250.80000305176</ele>
        <time>2013-06-01T07:24:22.000Z</time>
      </trkpt>
      <trkpt lat="43.63574" lon="5.62325">
        <ele>250.80000305176</ele>
        <time>2013-06-01T07:24:23.000Z</time>
      </trkpt>
      <trkpt lat="43.63584" lon="5.62304">
        <ele>250.60000610352</ele>
        <time>2013-06-01T07:24:27.000Z</time>
      </trkpt>
      <trkpt lat="43.63596" lon="5.62271">
        <ele>249.60000610352</ele>
        <time>2013-06-01T07:24:35.000Z</time>
      </trkpt>
      <trkpt lat="43.63595" lon="5.62267">
        <ele>249.60000610352</ele>
        <time>2013-06-01T07:24:36.000Z</time>
      </trkpt>
      <trkpt lat="43.63593" lon="5.62264">
        <ele>249.60000610352</ele>
        <time>2013-06-01T07:24:37.000Z</time>
      </trkpt>
      <trkpt lat="43.63591" lon="5.62262">
        <ele>249.80000305176</ele>
        <time>2013-06-01T07:24:38.000Z</time>
      </trkpt>
      <trkpt lat="43.63588" lon="5.62261">
        <ele>249.80000305176</ele>
        <time>2013-06-01T07:24:39.000Z</time>
      </trkpt>
      <trkpt lat="43.63586" lon="5.62261">
        <ele>250</ele>
        <time>2013-06-01T07:24:40.000Z</time>
      </trkpt>
      <trkpt lat="43.63584" lon="5.62261">
        <ele>250</ele>
        <time>2013-06-01T07:24:41.000Z</time>
      </trkpt>
      <trkpt lat="43.63582" lon="5.62261">
        <ele>250.19999694824</ele>
        <time>2013-06-01T07:24:42.000Z</time>
      </trkpt>
      <trkpt lat="43.6358" lon="5.62262">
        <ele>250.19999694824</ele>
        <time>2013-06-01T07:24:43.000Z</time>
      </trkpt>
      <trkpt lat="43.63578" lon="5.62262">
        <ele>250.39999389648</ele>
        <time>2013-06-01T07:24:44.000Z</time>
      </trkpt>
      <trkpt lat="43.63574" lon="5.62262">
        <ele>250.60000610352</ele>
        <time>2013-06-01T07:24:45.000Z</time>
      </trkpt>
      <trkpt lat="43.63571" lon="5.62262">
        <ele>251</ele>
        <time>2013-06-01T07:24:46.000Z</time>
      </trkpt>
      <trkpt lat="43.63567" lon="5.62261">
        <ele>251.19999694824</ele>
        <time>2013-06-01T07:24:47.000Z</time>
      </trkpt>
      <trkpt lat="43.63564" lon="5.62261">
        <ele>251.39999389648</ele>
        <time>2013-06-01T07:24:48.000Z</time>
      </trkpt>
      <trkpt lat="43.63536" lon="5.62259">
        <ele>253.60000610352</ele>
        <time>2013-06-01T07:24:56.000Z</time>
      </trkpt>
      <trkpt lat="43.63499" lon="5.62257">
        <ele>256.39999389648</ele>
        <time>2013-06-01T07:25:07.000Z</time>
      </trkpt>
      <trkpt lat="43.63482" lon="5.62239">
        <ele>257</ele>
        <time>2013-06-01T07:25:14.000Z</time>
      </trkpt>
      <trkpt lat="43.63471" lon="5.62191">
        <ele>256</ele>
        <time>2013-06-01T07:25:23.000Z</time>
      </trkpt>
      <trkpt lat="43.63468" lon="5.62187">
        <ele>256.20001220703</ele>
        <time>2013-06-01T07:25:24.000Z</time>
      </trkpt>
      <trkpt lat="43.63464" lon="5.62185">
        <ele>256.39999389648</ele>
        <time>2013-06-01T07:25:25.000Z</time>
      </trkpt>
      <trkpt lat="43.63448" lon="5.62176">
        <ele>257.39999389648</ele>
        <time>2013-06-01T07:25:29.000Z</time>
      </trkpt>
      <trkpt lat="43.63445" lon="5.62173">
        <ele>257.60000610352</ele>
        <time>2013-06-01T07:25:30.000Z</time>
      </trkpt>
      <trkpt lat="43.63442" lon="5.62169">
        <ele>257.79998779297</ele>
        <time>2013-06-01T07:25:31.000Z</time>
      </trkpt>
      <trkpt lat="43.63439" lon="5.62164">
        <ele>258</ele>
        <time>2013-06-01T07:25:32.000Z</time>
      </trkpt>
      <trkpt lat="43.63437" lon="5.6216">
        <ele>257.79998779297</ele>
        <time>2013-06-01T07:25:33.000Z</time>
      </trkpt>
      <trkpt lat="43.63415" lon="5.62123">
        <ele>257.79998779297</ele>
        <time>2013-06-01T07:25:42.000Z</time>
      </trkpt>
      <trkpt lat="43.63412" lon="5.62121">
        <ele>257.79998779297</ele>
        <time>2013-06-01T07:25:43.000Z</time>
      </trkpt>
      <trkpt lat="43.63408" lon="5.6212">
        <ele>257.60000610352</ele>
        <time>2013-06-01T07:25:44.000Z</time>
      </trkpt>
      <trkpt lat="43.63386" lon="5.6211">
        <ele>257.39999389648</ele>
        <time>2013-06-01T07:25:48.000Z</time>
      </trkpt>
      <trkpt lat="43.63374" lon="5.62104">
        <ele>257.20001220703</ele>
        <time>2013-06-01T07:25:50.000Z</time>
      </trkpt>
      <trkpt lat="43.63369" lon="5.62099">
        <ele>257</ele>
        <time>2013-06-01T07:25:51.000Z</time>
      </trkpt>
      <trkpt lat="43.63365" lon="5.62094">
        <ele>256.79998779297</ele>
        <time>2013-06-01T07:25:52.000Z</time>
      </trkpt>
      <trkpt lat="43.63361" lon="5.62089">
        <ele>256.79998779297</ele>
        <time>2013-06-01T07:25:53.000Z</time>
      </trkpt>
      <trkpt lat="43.63358" lon="5.62083">
        <ele>256.60000610352</ele>
        <time>2013-06-01T07:25:54.000Z</time>
      </trkpt>
      <trkpt lat="43.63355" lon="5.62076">
        <ele>256.39999389648</ele>
        <time>2013-06-01T07:25:55.000Z</time>
      </trkpt>
      <trkpt lat="43.63353" lon="5.62069">
        <ele>256.20001220703</ele>
        <time>2013-06-01T07:25:56.000Z</time>
      </trkpt>
      <trkpt lat="43.63352" lon="5.62061">
        <ele>256</ele>
        <time>2013-06-01T07:25:57.000Z</time>
      </trkpt>
      <trkpt lat="43.63351" lon="5.62054">
        <ele>255.60000610352</ele>
        <time>2013-06-01T07:25:58.000Z</time>
      </trkpt>
      <trkpt lat="43.63349" lon="5.62035">
        <ele>255.19999694824</ele>
        <time>2013-06-01T07:26:01.000Z</time>
      </trkpt>
      <trkpt lat="43.63342" lon="5.6201">
        <ele>254.60000610352</ele>
        <time>2013-06-01T07:26:05.000Z</time>
      </trkpt>
      <trkpt lat="43.63303" lon="5.61938">
        <ele>253.19999694824</ele>
        <time>2013-06-01T07:26:15.000Z</time>
      </trkpt>
      <trkpt lat="43.6327" lon="5.61877">
        <ele>253.60000610352</ele>
        <time>2013-06-01T07:26:25.000Z</time>
      </trkpt>
      <trkpt lat="43.63268" lon="5.61871">
        <ele>253.60000610352</ele>
        <time>2013-06-01T07:26:26.000Z</time>
      </trkpt>
      <trkpt lat="43.63266" lon="5.61865">
        <ele>253.60000610352</ele>
        <time>2013-06-01T07:26:27.000Z</time>
      </trkpt>
      <trkpt lat="43.63261" lon="5.61854">
        <ele>253.39999389648</ele>
        <time>2013-06-01T07:26:29.000Z</time>
      </trkpt>
      <trkpt lat="43.63242" lon="5.61819">
        <ele>253</ele>
        <time>2013-06-01T07:26:36.000Z</time>
      </trkpt>
      <trkpt lat="43.63228" lon="5.61769">
        <ele>252.80000305176</ele>
        <time>2013-06-01T07:26:44.000Z</time>
      </trkpt>
      <trkpt lat="43.63226" lon="5.61764">
        <ele>252.80000305176</ele>
        <time>2013-06-01T07:26:45.000Z</time>
      </trkpt>
      <trkpt lat="43.63224" lon="5.61759">
        <ele>253</ele>
        <time>2013-06-01T07:26:46.000Z</time>
      </trkpt>
      <trkpt lat="43.6322" lon="5.61755">
        <ele>253</ele>
        <time>2013-06-01T07:26:47.000Z</time>
      </trkpt>
      <trkpt lat="43.63217" lon="5.61753">
        <ele>253.19999694824</ele>
        <time>2013-06-01T07:26:48.000Z</time>
      </trkpt>
      <trkpt lat="43.63213" lon="5.61751">
        <ele>253.19999694824</ele>
        <time>2013-06-01T07:26:49.000Z</time>
      </trkpt>
      <trkpt lat="43.63182" lon="5.61746">
        <ele>254.39999389648</ele>
        <time>2013-06-01T07:26:58.000Z</time>
      </trkpt>
      <trkpt lat="43.63168" lon="5.61736">
        <ele>255.39999389648</ele>
        <time>2013-06-01T07:27:04.000Z</time>
      </trkpt>
      <trkpt lat="43.63168" lon="5.61733">
        <ele>255.39999389648</ele>
        <time>2013-06-01T07:27:05.000Z</time>
      </trkpt>
      <trkpt lat="43.6317" lon="5.6173">
        <ele>255.39999389648</ele>
        <time>2013-06-01T07:27:06.000Z</time>
      </trkpt>
      <trkpt lat="43.63175" lon="5.61717">
        <ele>255.60000610352</ele>
        <time>2013-06-01T07:27:10.000Z</time>
      </trkpt>
      <trkpt lat="43.63175" lon="5.61713">
        <ele>255.80000305176</ele>
        <time>2013-06-01T07:27:11.000Z</time>
      </trkpt>
      <trkpt lat="43.63174" lon="5.61709">
        <ele>256</ele>
        <time>2013-06-01T07:27:12.000Z</time>
      </trkpt>
      <trkpt lat="43.63151" lon="5.61675">
        <ele>259.20001220703</ele>
        <time>2013-06-01T07:27:24.000Z</time>
      </trkpt>
      <trkpt lat="43.63127" lon="5.61642">
        <ele>261.39999389648</ele>
        <time>2013-06-01T07:27:35.000Z</time>
      </trkpt>
      <trkpt lat="43.63101" lon="5.61612">
        <ele>263.20001220703</ele>
        <time>2013-06-01T07:27:46.000Z</time>
      </trkpt>
      <trkpt lat="43.63066" lon="5.61584">
        <ele>265.39999389648</ele>
        <time>2013-06-01T07:27:57.000Z</time>
      </trkpt>
      <trkpt lat="43.63041" lon="5.61545">
        <ele>265.60000610352</ele>
        <time>2013-06-01T07:28:09.000Z</time>
      </trkpt>
      <trkpt lat="43.63031" lon="5.61499">
        <ele>264.39999389648</ele>
        <time>2013-06-01T07:28:19.000Z</time>
      </trkpt>
      <trkpt lat="43.6303" lon="5.61488">
        <ele>264.39999389648</ele>
        <time>2013-06-01T07:28:21.000Z</time>
      </trkpt>
      <trkpt lat="43.63024" lon="5.61462">
        <ele>264.20001220703</ele>
        <time>2013-06-01T07:28:25.000Z</time>
      </trkpt>
      <trkpt lat="43.63024" lon="5.61454">
        <ele>264</ele>
        <time>2013-06-01T07:28:26.000Z</time>
      </trkpt>
      <trkpt lat="43.6302" lon="5.614">
        <ele>262.60000610352</ele>
        <time>2013-06-01T07:28:34.000Z</time>
      </trkpt>
      <trkpt lat="43.63018" lon="5.61395">
        <ele>262.39999389648</ele>
        <time>2013-06-01T07:28:35.000Z</time>
      </trkpt>
      <trkpt lat="43.63016" lon="5.61389">
        <ele>262.39999389648</ele>
        <time>2013-06-01T07:28:36.000Z</time>
      </trkpt>
      <trkpt lat="43.63013" lon="5.61384">
        <ele>262.20001220703</ele>
        <time>2013-06-01T07:28:37.000Z</time>
      </trkpt>
      <trkpt lat="43.63009" lon="5.61378">
        <ele>262</ele>
        <time>2013-06-01T07:28:38.000Z</time>
      </trkpt>
      <trkpt lat="43.63006" lon="5.61373">
        <ele>261.60000610352</ele>
        <time>2013-06-01T07:28:39.000Z</time>
      </trkpt>
      <trkpt lat="43.63003" lon="5.61366">
        <ele>261.20001220703</ele>
        <time>2013-06-01T07:28:40.000Z</time>
      </trkpt>
      <trkpt lat="43.63001" lon="5.61359">
        <ele>260.79998779297</ele>
        <time>2013-06-01T07:28:41.000Z</time>
      </trkpt>
      <trkpt lat="43.62999" lon="5.61351">
        <ele>260.20001220703</ele>
        <time>2013-06-01T07:28:42.000Z</time>
      </trkpt>
      <trkpt lat="43.62995" lon="5.61334">
        <ele>259.60000610352</ele>
        <time>2013-06-01T07:28:44.000Z</time>
      </trkpt>
      <trkpt lat="43.62995" lon="5.61326">
        <ele>259.60000610352</ele>
        <time>2013-06-01T07:28:45.000Z</time>
      </trkpt>
      <trkpt lat="43.62993" lon="5.61308">
        <ele>259.79998779297</ele>
        <time>2013-06-01T07:28:47.000Z</time>
      </trkpt>
      <trkpt lat="43.62992" lon="5.61301">
        <ele>260</ele>
        <time>2013-06-01T07:28:48.000Z</time>
      </trkpt>
      <trkpt lat="43.62988" lon="5.61294">
        <ele>260.20001220703</ele>
        <time>2013-06-01T07:28:49.000Z</time>
      </trkpt>
      <trkpt lat="43.62985" lon="5.61287">
        <ele>260.39999389648</ele>
        <time>2013-06-01T07:28:50.000Z</time>
      </trkpt>
      <trkpt lat="43.62982" lon="5.6128">
        <ele>260.60000610352</ele>
        <time>2013-06-01T07:28:51.000Z</time>
      </trkpt>
      <trkpt lat="43.6298" lon="5.61272">
        <ele>260.60000610352</ele>
        <time>2013-06-01T07:28:52.000Z</time>
      </trkpt>
      <trkpt lat="43.62978" lon="5.61265">
        <ele>260.60000610352</ele>
        <time>2013-06-01T07:28:53.000Z</time>
      </trkpt>
      <trkpt lat="43.62977" lon="5.61257">
        <ele>260.60000610352</ele>
        <time>2013-06-01T07:28:54.000Z</time>
      </trkpt>
      <trkpt lat="43.6297" lon="5.61215">
        <ele>262.39999389648</ele>
        <time>2013-06-01T07:29:00.000Z</time>
      </trkpt>
      <trkpt lat="43.62968" lon="5.61208">
        <ele>262.60000610352</ele>
        <time>2013-06-01T07:29:01.000Z</time>
      </trkpt>
      <trkpt lat="43.62966" lon="5.61203">
        <ele>262.79998779297</ele>
        <time>2013-06-01T07:29:02.000Z</time>
      </trkpt>
      <trkpt lat="43.62962" lon="5.61199">
        <ele>262.79998779297</ele>
        <time>2013-06-01T07:29:03.000Z</time>
      </trkpt>
      <trkpt lat="43.62959" lon="5.61196">
        <ele>262.79998779297</ele>
        <time>2013-06-01T07:29:04.000Z</time>
      </trkpt>
      <trkpt lat="43.62955" lon="5.61194">
        <ele>262.79998779297</ele>
        <time>2013-06-01T07:29:05.000Z</time>
      </trkpt>
      <trkpt lat="43.62922" lon="5.61167">
        <ele>261.20001220703</ele>
        <time>2013-06-01T07:29:16.000Z</time>
      </trkpt>
      <trkpt lat="43.6289" lon="5.61117">
        <ele>263.20001220703</ele>
        <time>2013-06-01T07:29:30.000Z</time>
      </trkpt>
      <trkpt lat="43.62883" lon="5.61075">
        <ele>265</ele>
        <time>2013-06-01T07:29:40.000Z</time>
      </trkpt>
      <trkpt lat="43.62885" lon="5.61028">
        <ele>268.39999389648</ele>
        <time>2013-06-01T07:29:51.000Z</time>
      </trkpt>
      <trkpt lat="43.62891" lon="5.6098">
        <ele>272</ele>
        <time>2013-06-01T07:30:03.000Z</time>
      </trkpt>
      <trkpt lat="43.62892" lon="5.6094">
        <ele>274.39999389648</ele>
        <time>2013-06-01T07:30:13.000Z</time>
      </trkpt>
      <trkpt lat="43.62882" lon="5.60914">
        <ele>275.79998779297</ele>
        <time>2013-06-01T07:30:22.000Z</time>
      </trkpt>
      <trkpt lat="43.62862" lon="5.60882">
        <ele>276.79998779297</ele>
        <time>2013-06-01T07:30:34.000Z</time>
      </trkpt>
      <trkpt lat="43.62852" lon="5.60852">
        <ele>277.79998779297</ele>
        <time>2013-06-01T07:30:44.000Z</time>
      </trkpt>
      <trkpt lat="43.62854" lon="5.60801">
        <ele>277.60000610352</ele>
        <time>2013-06-01T07:30:54.000Z</time>
      </trkpt>
      <trkpt lat="43.62854" lon="5.60774">
        <ele>276.39999389648</ele>
        <time>2013-06-01T07:30:58.000Z</time>
      </trkpt>
      <trkpt lat="43.62853" lon="5.60767">
        <ele>276</ele>
        <time>2013-06-01T07:30:59.000Z</time>
      </trkpt>
      <trkpt lat="43.62852" lon="5.60761">
        <ele>275.79998779297</ele>
        <time>2013-06-01T07:31:00.000Z</time>
      </trkpt>
      <trkpt lat="43.62846" lon="5.60742">
        <ele>274.79998779297</ele>
        <time>2013-06-01T07:31:03.000Z</time>
      </trkpt>
      <trkpt lat="43.62845" lon="5.60735">
        <ele>274.60000610352</ele>
        <time>2013-06-01T07:31:04.000Z</time>
      </trkpt>
      <trkpt lat="43.62846" lon="5.60728">
        <ele>274.20001220703</ele>
        <time>2013-06-01T07:31:05.000Z</time>
      </trkpt>
      <trkpt lat="43.62846" lon="5.60708">
        <ele>273.39999389648</ele>
        <time>2013-06-01T07:31:08.000Z</time>
      </trkpt>
      <trkpt lat="43.62844" lon="5.60702">
        <ele>273.20001220703</ele>
        <time>2013-06-01T07:31:09.000Z</time>
      </trkpt>
      <trkpt lat="43.6284" lon="5.60697">
        <ele>273</ele>
        <time>2013-06-01T07:31:10.000Z</time>
      </trkpt>
      <trkpt lat="43.62827" lon="5.60684">
        <ele>272.60000610352</ele>
        <time>2013-06-01T07:31:13.000Z</time>
      </trkpt>
      <trkpt lat="43.62805" lon="5.60654">
        <ele>272.60000610352</ele>
        <time>2013-06-01T07:31:19.000Z</time>
      </trkpt>
      <trkpt lat="43.6279" lon="5.6064">
        <ele>273</ele>
        <time>2013-06-01T07:31:23.000Z</time>
      </trkpt>
      <trkpt lat="43.62752" lon="5.60607">
        <ele>274.39999389648</ele>
        <time>2013-06-01T07:31:35.000Z</time>
      </trkpt>
      <trkpt lat="43.62728" lon="5.60572">
        <ele>275.79998779297</ele>
        <time>2013-06-01T07:31:45.000Z</time>
      </trkpt>
      <trkpt lat="43.62703" lon="5.60538">
        <ele>276.79998779297</ele>
        <time>2013-06-01T07:31:56.000Z</time>
      </trkpt>
      <trkpt lat="43.62684" lon="5.60525">
        <ele>277.39999389648</ele>
        <time>2013-06-01T07:32:02.000Z</time>
      </trkpt>
      <trkpt lat="43.62682" lon="5.60521">
        <ele>277.60000610352</ele>
        <time>2013-06-01T07:32:03.000Z</time>
      </trkpt>
      <trkpt lat="43.6268" lon="5.60517">
        <ele>277.60000610352</ele>
        <time>2013-06-01T07:32:04.000Z</time>
      </trkpt>
      <trkpt lat="43.62678" lon="5.60513">
        <ele>277.60000610352</ele>
        <time>2013-06-01T07:32:05.000Z</time>
      </trkpt>
      <trkpt lat="43.62675" lon="5.60509">
        <ele>277.60000610352</ele>
        <time>2013-06-01T07:32:06.000Z</time>
      </trkpt>
      <trkpt lat="43.62657" lon="5.60469">
        <ele>279.79998779297</ele>
        <time>2013-06-01T07:32:16.000Z</time>
      </trkpt>
      <trkpt lat="43.62641" lon="5.60424">
        <ele>282</ele>
        <time>2013-06-01T07:32:27.000Z</time>
      </trkpt>
      <trkpt lat="43.62637" lon="5.6038">
        <ele>284.60000610352</ele>
        <time>2013-06-01T07:32:38.000Z</time>
      </trkpt>
      <trkpt lat="43.62621" lon="5.60349">
        <ele>287</ele>
        <time>2013-06-01T07:32:47.000Z</time>
      </trkpt>
      <trkpt lat="43.6261" lon="5.60309">
        <ele>289.39999389648</ele>
        <time>2013-06-01T07:32:57.000Z</time>
      </trkpt>
      <trkpt lat="43.62593" lon="5.60284">
        <ele>291</ele>
        <time>2013-06-01T07:33:06.000Z</time>
      </trkpt>
      <trkpt lat="43.62563" lon="5.60271">
        <ele>292.60000610352</ele>
        <time>2013-06-01T07:33:18.000Z</time>
      </trkpt>
      <trkpt lat="43.62539" lon="5.60244">
        <ele>294.20001220703</ele>
        <time>2013-06-01T07:33:29.000Z</time>
      </trkpt>
      <trkpt lat="43.62515" lon="5.60211">
        <ele>295.79998779297</ele>
        <time>2013-06-01T07:33:41.000Z</time>
      </trkpt>
      <trkpt lat="43.62495" lon="5.60178">
        <ele>296.60000610352</ele>
        <time>2013-06-01T07:33:53.000Z</time>
      </trkpt>
      <trkpt lat="43.62488" lon="5.6015">
        <ele>297.20001220703</ele>
        <time>2013-06-01T07:34:04.000Z</time>
      </trkpt>
      <trkpt lat="43.62488" lon="5.6014">
        <ele>297.60000610352</ele>
        <time>2013-06-01T07:34:09.000Z</time>
      </trkpt>
      <trkpt lat="43.62488" lon="5.60137">
        <ele>297.60000610352</ele>
        <time>2013-06-01T07:34:10.000Z</time>
      </trkpt>
      <trkpt lat="43.62488" lon="5.60135">
        <ele>297.60000610352</ele>
        <time>2013-06-01T07:34:11.000Z</time>
      </trkpt>
      <trkpt lat="43.62488" lon="5.60132">
        <ele>297.79998779297</ele>
        <time>2013-06-01T07:34:12.000Z</time>
      </trkpt>
      <trkpt lat="43.62488" lon="5.6013">
        <ele>297.79998779297</ele>
        <time>2013-06-01T07:34:13.000Z</time>
      </trkpt>
      <trkpt lat="43.62489" lon="5.60127">
        <ele>298</ele>
        <time>2013-06-01T07:34:14.000Z</time>
      </trkpt>
      <trkpt lat="43.6249" lon="5.60125">
        <ele>298</ele>
        <time>2013-06-01T07:34:15.000Z</time>
      </trkpt>
      <trkpt lat="43.6249" lon="5.60122">
        <ele>298.20001220703</ele>
        <time>2013-06-01T07:34:16.000Z</time>
      </trkpt>
      <trkpt lat="43.62491" lon="5.60119">
        <ele>298.20001220703</ele>
        <time>2013-06-01T07:34:17.000Z</time>
      </trkpt>
      <trkpt lat="43.62491" lon="5.60117">
        <ele>298.39999389648</ele>
        <time>2013-06-01T07:34:18.000Z</time>
      </trkpt>
      <trkpt lat="43.62492" lon="5.60113">
        <ele>298.39999389648</ele>
        <time>2013-06-01T07:34:19.000Z</time>
      </trkpt>
      <trkpt lat="43.62494" lon="5.6008">
        <ele>299.39999389648</ele>
        <time>2013-06-01T07:34:28.000Z</time>
      </trkpt>
      <trkpt lat="43.62489" lon="5.60061">
        <ele>298.60000610352</ele>
        <time>2013-06-01T07:34:32.000Z</time>
      </trkpt>
      <trkpt lat="43.62489" lon="5.60049">
        <ele>298.20001220703</ele>
        <time>2013-06-01T07:34:35.000Z</time>
      </trkpt>
      <trkpt lat="43.62484" lon="5.60005">
        <ele>296.79998779297</ele>
        <time>2013-06-01T07:34:45.000Z</time>
      </trkpt>
      <trkpt lat="43.62496" lon="5.59962">
        <ele>297.20001220703</ele>
        <time>2013-06-01T07:34:54.000Z</time>
      </trkpt>
      <trkpt lat="43.62496" lon="5.59957">
        <ele>297</ele>
        <time>2013-06-01T07:34:55.000Z</time>
      </trkpt>
      <trkpt lat="43.62495" lon="5.59939">
        <ele>296.79998779297</ele>
        <time>2013-06-01T07:34:58.000Z</time>
      </trkpt>
      <trkpt lat="43.62501" lon="5.59888">
        <ele>296.60000610352</ele>
        <time>2013-06-01T07:35:08.000Z</time>
      </trkpt>
      <trkpt lat="43.62514" lon="5.59856">
        <ele>297</ele>
        <time>2013-06-01T07:35:18.000Z</time>
      </trkpt>
      <trkpt lat="43.62513" lon="5.59853">
        <ele>296.79998779297</ele>
        <time>2013-06-01T07:35:19.000Z</time>
      </trkpt>
      <trkpt lat="43.62513" lon="5.59849">
        <ele>296.79998779297</ele>
        <time>2013-06-01T07:35:20.000Z</time>
      </trkpt>
      <trkpt lat="43.62512" lon="5.59845">
        <ele>296.79998779297</ele>
        <time>2013-06-01T07:35:21.000Z</time>
      </trkpt>
      <trkpt lat="43.62511" lon="5.59842">
        <ele>296.60000610352</ele>
        <time>2013-06-01T07:35:22.000Z</time>
      </trkpt>
      <trkpt lat="43.62509" lon="5.59838">
        <ele>296.60000610352</ele>
        <time>2013-06-01T07:35:23.000Z</time>
      </trkpt>
      <trkpt lat="43.62507" lon="5.59835">
        <ele>296.39999389648</ele>
        <time>2013-06-01T07:35:24.000Z</time>
      </trkpt>
      <trkpt lat="43.62504" lon="5.59832">
        <ele>296.20001220703</ele>
        <time>2013-06-01T07:35:25.000Z</time>
      </trkpt>
      <trkpt lat="43.62501" lon="5.59831">
        <ele>296</ele>
        <time>2013-06-01T07:35:26.000Z</time>
      </trkpt>
      <trkpt lat="43.62497" lon="5.5983">
        <ele>295.60000610352</ele>
        <time>2013-06-01T07:35:27.000Z</time>
      </trkpt>
      <trkpt lat="43.62493" lon="5.5983">
        <ele>295.20001220703</ele>
        <time>2013-06-01T07:35:28.000Z</time>
      </trkpt>
      <trkpt lat="43.62479" lon="5.59824">
        <ele>293.79998779297</ele>
        <time>2013-06-01T07:35:33.000Z</time>
      </trkpt>
      <trkpt lat="43.62459" lon="5.598">
        <ele>291.60000610352</ele>
        <time>2013-06-01T07:35:42.000Z</time>
      </trkpt>
      <trkpt lat="43.62456" lon="5.59797">
        <ele>291.20001220703</ele>
        <time>2013-06-01T07:35:43.000Z</time>
      </trkpt>
      <trkpt lat="43.62431" lon="5.5977">
        <ele>288.60000610352</ele>
        <time>2013-06-01T07:35:51.000Z</time>
      </trkpt>
      <trkpt lat="43.62424" lon="5.59758">
        <ele>287.60000610352</ele>
        <time>2013-06-01T07:35:59.000Z</time>
      </trkpt>
      <trkpt lat="43.62423" lon="5.59759">
        <ele>287.60000610352</ele>
        <time>2013-06-01T07:36:14.000Z</time>
      </trkpt>
      <trkpt lat="43.62422" lon="5.59757">
        <ele>287.39999389648</ele>
        <time>2013-06-01T07:36:15.000Z</time>
      </trkpt>
      <trkpt lat="43.62421" lon="5.59756">
        <ele>287.39999389648</ele>
        <time>2013-06-01T07:36:16.000Z</time>
      </trkpt>
      <trkpt lat="43.62419" lon="5.59755">
        <ele>287.20001220703</ele>
        <time>2013-06-01T07:36:17.000Z</time>
      </trkpt>
      <trkpt lat="43.62417" lon="5.59752">
        <ele>287</ele>
        <time>2013-06-01T07:36:18.000Z</time>
      </trkpt>
      <trkpt lat="43.62415" lon="5.5975">
        <ele>287</ele>
        <time>2013-06-01T07:36:19.000Z</time>
      </trkpt>
      <trkpt lat="43.62396" lon="5.59727">
        <ele>289.79998779297</ele>
        <time>2013-06-01T07:36:28.000Z</time>
      </trkpt>
      <trkpt lat="43.62374" lon="5.59705">
        <ele>291.79998779297</ele>
        <time>2013-06-01T07:36:37.000Z</time>
      </trkpt>
      <trkpt lat="43.6234" lon="5.59682">
        <ele>293.39999389648</ele>
        <time>2013-06-01T07:36:48.000Z</time>
      </trkpt>
      <trkpt lat="43.62313" lon="5.59668">
        <ele>293</ele>
        <time>2013-06-01T07:36:57.000Z</time>
      </trkpt>
      <trkpt lat="43.62312" lon="5.59668">
        <ele>293</ele>
        <time>2013-06-01T07:36:58.000Z</time>
      </trkpt>
      <trkpt lat="43.62311" lon="5.59666">
        <ele>293</ele>
        <time>2013-06-01T07:36:59.000Z</time>
      </trkpt>
      <trkpt lat="43.6231" lon="5.59664">
        <ele>293.60000610352</ele>
        <time>2013-06-01T07:37:00.000Z</time>
      </trkpt>
      <trkpt lat="43.62311" lon="5.59661">
        <ele>294</ele>
        <time>2013-06-01T07:37:01.000Z</time>
      </trkpt>
      <trkpt lat="43.62313" lon="5.59658">
        <ele>294.60000610352</ele>
        <time>2013-06-01T07:37:02.000Z</time>
      </trkpt>
      <trkpt lat="43.62315" lon="5.59656">
        <ele>295</ele>
        <time>2013-06-01T07:37:03.000Z</time>
      </trkpt>
      <trkpt lat="43.62317" lon="5.59656">
        <ele>295.20001220703</ele>
        <time>2013-06-01T07:37:04.000Z</time>
      </trkpt>
      <trkpt lat="43.62319" lon="5.59656">
        <ele>295</ele>
        <time>2013-06-01T07:37:05.000Z</time>
      </trkpt>
      <trkpt lat="43.62322" lon="5.59658">
        <ele>294.60000610352</ele>
        <time>2013-06-01T07:37:06.000Z</time>
      </trkpt>
      <trkpt lat="43.62329" lon="5.59661">
        <ele>294</ele>
        <time>2013-06-01T07:37:08.000Z</time>
      </trkpt>
      <trkpt lat="43.62334" lon="5.59661">
        <ele>294</ele>
        <time>2013-06-01T07:37:09.000Z</time>
      </trkpt>
      <trkpt lat="43.6234" lon="5.5966">
        <ele>294</ele>
        <time>2013-06-01T07:37:10.000Z</time>
      </trkpt>
      <trkpt lat="43.62355" lon="5.59656">
        <ele>294</ele>
        <time>2013-06-01T07:37:13.000Z</time>
      </trkpt>
      <trkpt lat="43.6236" lon="5.59656">
        <ele>293.79998779297</ele>
        <time>2013-06-01T07:37:14.000Z</time>
      </trkpt>
      <trkpt lat="43.62365" lon="5.59658">
        <ele>293.20001220703</ele>
        <time>2013-06-01T07:37:15.000Z</time>
      </trkpt>
      <trkpt lat="43.62413" lon="5.59687">
        <ele>289.39999389648</ele>
        <time>2013-06-01T07:37:26.000Z</time>
      </trkpt>
      <trkpt lat="43.6242" lon="5.59691">
        <ele>289.20001220703</ele>
        <time>2013-06-01T07:37:28.000Z</time>
      </trkpt>
      <trkpt lat="43.62424" lon="5.59691">
        <ele>289.39999389648</ele>
        <time>2013-06-01T07:37:29.000Z</time>
      </trkpt>
      <trkpt lat="43.62428" lon="5.59687">
        <ele>289.60000610352</ele>
        <time>2013-06-01T07:37:30.000Z</time>
      </trkpt>
      <trkpt lat="43.62431" lon="5.59682">
        <ele>289.79998779297</ele>
        <time>2013-06-01T07:37:31.000Z</time>
      </trkpt>
      <trkpt lat="43.62434" lon="5.59677">
        <ele>290</ele>
        <time>2013-06-01T07:37:32.000Z</time>
      </trkpt>
      <trkpt lat="43.62438" lon="5.59672">
        <ele>290.39999389648</ele>
        <time>2013-06-01T07:37:33.000Z</time>
      </trkpt>
      <trkpt lat="43.62442" lon="5.59667">
        <ele>290.60000610352</ele>
        <time>2013-06-01T07:37:34.000Z</time>
      </trkpt>
      <trkpt lat="43.62446" lon="5.59662">
        <ele>290.60000610352</ele>
        <time>2013-06-01T07:37:35.000Z</time>
      </trkpt>
      <trkpt lat="43.6246" lon="5.59644">
        <ele>290.39999389648</ele>
        <time>2013-06-01T07:37:39.000Z</time>
      </trkpt>
      <trkpt lat="43.62477" lon="5.59613">
        <ele>288</ele>
        <time>2013-06-01T07:37:47.000Z</time>
      </trkpt>
      <trkpt lat="43.62479" lon="5.59608">
        <ele>287.39999389648</ele>
        <time>2013-06-01T07:37:48.000Z</time>
      </trkpt>
      <trkpt lat="43.62492" lon="5.59566">
        <ele>284</ele>
        <time>2013-06-01T07:37:57.000Z</time>
      </trkpt>
      <trkpt lat="43.62512" lon="5.59543">
        <ele>283</ele>
        <time>2013-06-01T07:38:05.000Z</time>
      </trkpt>
      <trkpt lat="43.62522" lon="5.59523">
        <ele>282.79998779297</ele>
        <time>2013-06-01T07:38:09.000Z</time>
      </trkpt>
      <trkpt lat="43.62526" lon="5.59519">
        <ele>282.39999389648</ele>
        <time>2013-06-01T07:38:10.000Z</time>
      </trkpt>
      <trkpt lat="43.6253" lon="5.59515">
        <ele>282.20001220703</ele>
        <time>2013-06-01T07:38:11.000Z</time>
      </trkpt>
      <trkpt lat="43.62544" lon="5.59509">
        <ele>281.20001220703</ele>
        <time>2013-06-01T07:38:14.000Z</time>
      </trkpt>
      <trkpt lat="43.62547" lon="5.59505">
        <ele>280.79998779297</ele>
        <time>2013-06-01T07:38:15.000Z</time>
      </trkpt>
      <trkpt lat="43.62548" lon="5.595">
        <ele>280.39999389648</ele>
        <time>2013-06-01T07:38:16.000Z</time>
      </trkpt>
      <trkpt lat="43.62549" lon="5.59495">
        <ele>281.20001220703</ele>
        <time>2013-06-01T07:38:17.000Z</time>
      </trkpt>
      <trkpt lat="43.62549" lon="5.59491">
        <ele>282.20001220703</ele>
        <time>2013-06-01T07:38:18.000Z</time>
      </trkpt>
      <trkpt lat="43.62548" lon="5.59488">
        <ele>282.79998779297</ele>
        <time>2013-06-01T07:38:19.000Z</time>
      </trkpt>
      <trkpt lat="43.62549" lon="5.59485">
        <ele>283.39999389648</ele>
        <time>2013-06-01T07:38:20.000Z</time>
      </trkpt>
      <trkpt lat="43.62549" lon="5.59483">
        <ele>283.79998779297</ele>
        <time>2013-06-01T07:38:21.000Z</time>
      </trkpt>
      <trkpt lat="43.62549" lon="5.5948">
        <ele>284.20001220703</ele>
        <time>2013-06-01T07:38:22.000Z</time>
      </trkpt>
      <trkpt lat="43.62552" lon="5.59473">
        <ele>285.20001220703</ele>
        <time>2013-06-01T07:38:25.000Z</time>
      </trkpt>
      <trkpt lat="43.62554" lon="5.59473">
        <ele>285.20001220703</ele>
        <time>2013-06-01T07:38:26.000Z</time>
      </trkpt>
      <trkpt lat="43.62556" lon="5.59472">
        <ele>285.20001220703</ele>
        <time>2013-06-01T07:38:27.000Z</time>
      </trkpt>
      <trkpt lat="43.62558" lon="5.5947">
        <ele>285.39999389648</ele>
        <time>2013-06-01T07:38:28.000Z</time>
      </trkpt>
      <trkpt lat="43.6256" lon="5.59469">
        <ele>285.60000610352</ele>
        <time>2013-06-01T07:38:29.000Z</time>
      </trkpt>
      <trkpt lat="43.62573" lon="5.59456">
        <ele>286.79998779297</ele>
        <time>2013-06-01T07:38:37.000Z</time>
      </trkpt>
      <trkpt lat="43.62576" lon="5.59452">
        <ele>287.20001220703</ele>
        <time>2013-06-01T07:38:39.000Z</time>
      </trkpt>
      <trkpt lat="43.62587" lon="5.59445">
        <ele>287.39999389648</ele>
        <time>2013-06-01T07:38:46.000Z</time>
      </trkpt>
      <trkpt lat="43.62602" lon="5.59436">
        <ele>287.79998779297</ele>
        <time>2013-06-01T07:38:56.000Z</time>
      </trkpt>
      <trkpt lat="43.62603" lon="5.59435">
        <ele>287.79998779297</ele>
        <time>2013-06-01T07:38:57.000Z</time>
      </trkpt>
      <trkpt lat="43.62621" lon="5.59426">
        <ele>287.39999389648</ele>
        <time>2013-06-01T07:39:07.000Z</time>
      </trkpt>
      <trkpt lat="43.62645" lon="5.59425">
        <ele>285.20001220703</ele>
        <time>2013-06-01T07:39:16.000Z</time>
      </trkpt>
      <trkpt lat="43.62646" lon="5.59423">
        <ele>285.39999389648</ele>
        <time>2013-06-01T07:39:17.000Z</time>
      </trkpt>
      <trkpt lat="43.62646" lon="5.59422">
        <ele>285.60000610352</ele>
        <time>2013-06-01T07:39:18.000Z</time>
      </trkpt>
      <trkpt lat="43.62648" lon="5.59419">
        <ele>285.60000610352</ele>
        <time>2013-06-01T07:39:27.000Z</time>
      </trkpt>
      <trkpt lat="43.62647" lon="5.5942">
        <ele>285.60000610352</ele>
        <time>2013-06-01T07:39:50.000Z</time>
      </trkpt>
      <trkpt lat="43.62647" lon="5.59421">
        <ele>285.39999389648</ele>
        <time>2013-06-01T07:40:17.000Z</time>
      </trkpt>
      <trkpt lat="43.62645" lon="5.59418">
        <ele>286</ele>
        <time>2013-06-01T07:40:40.000Z</time>
      </trkpt>
      <trkpt lat="43.62647" lon="5.59417">
        <ele>286</ele>
        <time>2013-06-01T07:40:54.000Z</time>
      </trkpt>
      <trkpt lat="43.62656" lon="5.59403">
        <ele>286.79998779297</ele>
        <time>2013-06-01T07:41:02.000Z</time>
      </trkpt>
      <trkpt lat="43.62672" lon="5.59363">
        <ele>289.60000610352</ele>
        <time>2013-06-01T07:41:13.000Z</time>
      </trkpt>
      <trkpt lat="43.62683" lon="5.59353">
        <ele>289.79998779297</ele>
        <time>2013-06-01T07:41:17.000Z</time>
      </trkpt>
      <trkpt lat="43.62722" lon="5.59329">
        <ele>288.20001220703</ele>
        <time>2013-06-01T07:41:26.000Z</time>
      </trkpt>
      <trkpt lat="43.6273" lon="5.59323">
        <ele>287.60000610352</ele>
        <time>2013-06-01T07:41:28.000Z</time>
      </trkpt>
      <trkpt lat="43.62733" lon="5.5932">
        <ele>287.39999389648</ele>
        <time>2013-06-01T07:41:29.000Z</time>
      </trkpt>
      <trkpt lat="43.62737" lon="5.59316">
        <ele>287.20001220703</ele>
        <time>2013-06-01T07:41:30.000Z</time>
      </trkpt>
      <trkpt lat="43.6274" lon="5.59313">
        <ele>287</ele>
        <time>2013-06-01T07:41:31.000Z</time>
      </trkpt>
      <trkpt lat="43.62744" lon="5.59311">
        <ele>286.60000610352</ele>
        <time>2013-06-01T07:41:32.000Z</time>
      </trkpt>
      <trkpt lat="43.62748" lon="5.59309">
        <ele>286.39999389648</ele>
        <time>2013-06-01T07:41:33.000Z</time>
      </trkpt>
      <trkpt lat="43.6275" lon="5.59304">
        <ele>286.20001220703</ele>
        <time>2013-06-01T07:41:34.000Z</time>
      </trkpt>
      <trkpt lat="43.62752" lon="5.593">
        <ele>286.20001220703</ele>
        <time>2013-06-01T07:41:35.000Z</time>
      </trkpt>
      <trkpt lat="43.62758" lon="5.59288">
        <ele>286.20001220703</ele>
        <time>2013-06-01T07:41:38.000Z</time>
      </trkpt>
      <trkpt lat="43.62757" lon="5.59286">
        <ele>286.20001220703</ele>
        <time>2013-06-01T07:41:44.000Z</time>
      </trkpt>
      <trkpt lat="43.62757" lon="5.59282">
        <ele>286.60000610352</ele>
        <time>2013-06-01T07:41:58.000Z</time>
      </trkpt>
      <trkpt lat="43.62758" lon="5.59276">
        <ele>286.60000610352</ele>
        <time>2013-06-01T07:42:04.000Z</time>
      </trkpt>
      <trkpt lat="43.62759" lon="5.59274">
        <ele>286.60000610352</ele>
        <time>2013-06-01T07:42:05.000Z</time>
      </trkpt>
      <trkpt lat="43.6276" lon="5.59273">
        <ele>286.39999389648</ele>
        <time>2013-06-01T07:42:06.000Z</time>
      </trkpt>
      <trkpt lat="43.62762" lon="5.59273">
        <ele>286.20001220703</ele>
        <time>2013-06-01T07:42:07.000Z</time>
      </trkpt>
      <trkpt lat="43.62764" lon="5.59272">
        <ele>286</ele>
        <time>2013-06-01T07:42:08.000Z</time>
      </trkpt>
      <trkpt lat="43.62765" lon="5.5927">
        <ele>286</ele>
        <time>2013-06-01T07:42:09.000Z</time>
      </trkpt>
      <trkpt lat="43.62767" lon="5.59268">
        <ele>285.79998779297</ele>
        <time>2013-06-01T07:42:10.000Z</time>
      </trkpt>
      <trkpt lat="43.62769" lon="5.59264">
        <ele>285.60000610352</ele>
        <time>2013-06-01T07:42:11.000Z</time>
      </trkpt>
      <trkpt lat="43.6277" lon="5.59261">
        <ele>285.60000610352</ele>
        <time>2013-06-01T07:42:12.000Z</time>
      </trkpt>
      <trkpt lat="43.62772" lon="5.59257">
        <ele>285.60000610352</ele>
        <time>2013-06-01T07:42:21.000Z</time>
      </trkpt>
      <trkpt lat="43.62772" lon="5.59256">
        <ele>285.39999389648</ele>
        <time>2013-06-01T07:42:22.000Z</time>
      </trkpt>
      <trkpt lat="43.62777" lon="5.59247">
        <ele>285</ele>
        <time>2013-06-01T07:42:29.000Z</time>
      </trkpt>
      <trkpt lat="43.62765" lon="5.59217">
        <ele>285.39999389648</ele>
        <time>2013-06-01T07:42:37.000Z</time>
      </trkpt>
      <trkpt lat="43.62762" lon="5.59211">
        <ele>285.39999389648</ele>
        <time>2013-06-01T07:42:39.000Z</time>
      </trkpt>
      <trkpt lat="43.62763" lon="5.59208">
        <ele>285.39999389648</ele>
        <time>2013-06-01T07:42:40.000Z</time>
      </trkpt>
      <trkpt lat="43.62765" lon="5.59205">
        <ele>285</ele>
        <time>2013-06-01T07:42:42.000Z</time>
      </trkpt>
      <trkpt lat="43.62767" lon="5.59199">
        <ele>284.60000610352</ele>
        <time>2013-06-01T07:42:49.000Z</time>
      </trkpt>
      <trkpt lat="43.62764" lon="5.59199">
        <ele>284.79998779297</ele>
        <time>2013-06-01T07:42:50.000Z</time>
      </trkpt>
      <trkpt lat="43.62762" lon="5.59199">
        <ele>285</ele>
        <time>2013-06-01T07:42:51.000Z</time>
      </trkpt>
      <trkpt lat="43.6276" lon="5.59199">
        <ele>285.20001220703</ele>
        <time>2013-06-01T07:42:52.000Z</time>
      </trkpt>
      <trkpt lat="43.62758" lon="5.59197">
        <ele>285.20001220703</ele>
        <time>2013-06-01T07:42:53.000Z</time>
      </trkpt>
      <trkpt lat="43.62753" lon="5.59195">
        <ele>285.39999389648</ele>
        <time>2013-06-01T07:43:01.000Z</time>
      </trkpt>
      <trkpt lat="43.62741" lon="5.59179">
        <ele>285.79998779297</ele>
        <time>2013-06-01T07:43:09.000Z</time>
      </trkpt>
      <trkpt lat="43.6274" lon="5.59175">
        <ele>285.79998779297</ele>
        <time>2013-06-01T07:43:10.000Z</time>
      </trkpt>
      <trkpt lat="43.62737" lon="5.59165">
        <ele>286</ele>
        <time>2013-06-01T07:43:12.000Z</time>
      </trkpt>
      <trkpt lat="43.62733" lon="5.5916">
        <ele>286.60000610352</ele>
        <time>2013-06-01T07:43:13.000Z</time>
      </trkpt>
      <trkpt lat="43.6273" lon="5.59156">
        <ele>287.20001220703</ele>
        <time>2013-06-01T07:43:14.000Z</time>
      </trkpt>
      <trkpt lat="43.62727" lon="5.59152">
        <ele>287.60000610352</ele>
        <time>2013-06-01T07:43:15.000Z</time>
      </trkpt>
      <trkpt lat="43.62726" lon="5.59147">
        <ele>288</ele>
        <time>2013-06-01T07:43:16.000Z</time>
      </trkpt>
      <trkpt lat="43.62725" lon="5.59144">
        <ele>288.20001220703</ele>
        <time>2013-06-01T07:43:17.000Z</time>
      </trkpt>
      <trkpt lat="43.62724" lon="5.59142">
        <ele>288.39999389648</ele>
        <time>2013-06-01T07:43:18.000Z</time>
      </trkpt>
      <trkpt lat="43.62722" lon="5.59141">
        <ele>288.60000610352</ele>
        <time>2013-06-01T07:43:19.000Z</time>
      </trkpt>
      <trkpt lat="43.62719" lon="5.59141">
        <ele>288.79998779297</ele>
        <time>2013-06-01T07:43:20.000Z</time>
      </trkpt>
      <trkpt lat="43.62715" lon="5.5914">
        <ele>289.20001220703</ele>
        <time>2013-06-01T07:43:22.000Z</time>
      </trkpt>
      <trkpt lat="43.6271" lon="5.59134">
        <ele>289.79998779297</ele>
        <time>2013-06-01T07:43:25.000Z</time>
      </trkpt>
      <trkpt lat="43.62693" lon="5.59108">
        <ele>290.60000610352</ele>
        <time>2013-06-01T07:43:33.000Z</time>
      </trkpt>
      <trkpt lat="43.62687" lon="5.591">
        <ele>290.60000610352</ele>
        <time>2013-06-01T07:43:36.000Z</time>
      </trkpt>
      <trkpt lat="43.62665" lon="5.59082">
        <ele>290.20001220703</ele>
        <time>2013-06-01T07:43:47.000Z</time>
      </trkpt>
      <trkpt lat="43.62655" lon="5.59087">
        <ele>291</ele>
        <time>2013-06-01T07:43:51.000Z</time>
      </trkpt>
      <trkpt lat="43.62654" lon="5.59088">
        <ele>291.20001220703</ele>
        <time>2013-06-01T07:43:52.000Z</time>
      </trkpt>
      <trkpt lat="43.6265" lon="5.59088">
        <ele>291.39999389648</ele>
        <time>2013-06-01T07:44:00.000Z</time>
      </trkpt>
      <trkpt lat="43.62647" lon="5.59087">
        <ele>291.60000610352</ele>
        <time>2013-06-01T07:44:13.000Z</time>
      </trkpt>
      <trkpt lat="43.62645" lon="5.59087">
        <ele>291.79998779297</ele>
        <time>2013-06-01T07:44:17.000Z</time>
      </trkpt>
      <trkpt lat="43.62644" lon="5.59086">
        <ele>291.79998779297</ele>
        <time>2013-06-01T07:44:18.000Z</time>
      </trkpt>
      <trkpt lat="43.62642" lon="5.59087">
        <ele>292</ele>
        <time>2013-06-01T07:44:19.000Z</time>
      </trkpt>
      <trkpt lat="43.6264" lon="5.59088">
        <ele>292.20001220703</ele>
        <time>2013-06-01T07:44:20.000Z</time>
      </trkpt>
      <trkpt lat="43.62639" lon="5.5909">
        <ele>292.39999389648</ele>
        <time>2013-06-01T07:44:21.000Z</time>
      </trkpt>
      <trkpt lat="43.62638" lon="5.59093">
        <ele>292.60000610352</ele>
        <time>2013-06-01T07:44:22.000Z</time>
      </trkpt>
      <trkpt lat="43.62636" lon="5.59096">
        <ele>293</ele>
        <time>2013-06-01T07:44:23.000Z</time>
      </trkpt>
      <trkpt lat="43.62633" lon="5.59098">
        <ele>293.39999389648</ele>
        <time>2013-06-01T07:44:24.000Z</time>
      </trkpt>
      <trkpt lat="43.62631" lon="5.59101">
        <ele>293.79998779297</ele>
        <time>2013-06-01T07:44:25.000Z</time>
      </trkpt>
      <trkpt lat="43.62628" lon="5.59103">
        <ele>294</ele>
        <time>2013-06-01T07:44:26.000Z</time>
      </trkpt>
      <trkpt lat="43.62626" lon="5.59106">
        <ele>294.39999389648</ele>
        <time>2013-06-01T07:44:27.000Z</time>
      </trkpt>
      <trkpt lat="43.62623" lon="5.59108">
        <ele>294.79998779297</ele>
        <time>2013-06-01T07:44:28.000Z</time>
      </trkpt>
      <trkpt lat="43.62605" lon="5.59112">
        <ele>296.39999389648</ele>
        <time>2013-06-01T07:44:37.000Z</time>
      </trkpt>
      <trkpt lat="43.62583" lon="5.59118">
        <ele>298.39999389648</ele>
        <time>2013-06-01T07:44:46.000Z</time>
      </trkpt>
      <trkpt lat="43.62563" lon="5.59112">
        <ele>298.79998779297</ele>
        <time>2013-06-01T07:44:53.000Z</time>
      </trkpt>
      <trkpt lat="43.62538" lon="5.59115">
        <ele>300.20001220703</ele>
        <time>2013-06-01T07:45:01.000Z</time>
      </trkpt>
      <trkpt lat="43.62536" lon="5.59114">
        <ele>300.20001220703</ele>
        <time>2013-06-01T07:45:02.000Z</time>
      </trkpt>
      <trkpt lat="43.62516" lon="5.59105">
        <ele>300.60000610352</ele>
        <time>2013-06-01T07:45:10.000Z</time>
      </trkpt>
      <trkpt lat="43.62511" lon="5.59106">
        <ele>300.79998779297</ele>
        <time>2013-06-01T07:45:12.000Z</time>
      </trkpt>
      <trkpt lat="43.62509" lon="5.59106">
        <ele>300.79998779297</ele>
        <time>2013-06-01T07:45:13.000Z</time>
      </trkpt>
      <trkpt lat="43.62507" lon="5.59103">
        <ele>300.79998779297</ele>
        <time>2013-06-01T07:45:14.000Z</time>
      </trkpt>
      <trkpt lat="43.6249" lon="5.59084">
        <ele>301</ele>
        <time>2013-06-01T07:45:21.000Z</time>
      </trkpt>
      <trkpt lat="43.62487" lon="5.59082">
        <ele>301.39999389648</ele>
        <time>2013-06-01T07:45:22.000Z</time>
      </trkpt>
      <trkpt lat="43.62485" lon="5.5908">
        <ele>301.60000610352</ele>
        <time>2013-06-01T07:45:23.000Z</time>
      </trkpt>
      <trkpt lat="43.62483" lon="5.59077">
        <ele>302</ele>
        <time>2013-06-01T07:45:24.000Z</time>
      </trkpt>
      <trkpt lat="43.62482" lon="5.59074">
        <ele>302.20001220703</ele>
        <time>2013-06-01T07:45:25.000Z</time>
      </trkpt>
      <trkpt lat="43.62481" lon="5.5907">
        <ele>302.39999389648</ele>
        <time>2013-06-01T07:45:26.000Z</time>
      </trkpt>
      <trkpt lat="43.6248" lon="5.59066">
        <ele>302.60000610352</ele>
        <time>2013-06-01T07:45:27.000Z</time>
      </trkpt>
      <trkpt lat="43.62478" lon="5.59064">
        <ele>303</ele>
        <time>2013-06-01T07:45:28.000Z</time>
      </trkpt>
      <trkpt lat="43.62474" lon="5.59063">
        <ele>303.20001220703</ele>
        <time>2013-06-01T07:45:29.000Z</time>
      </trkpt>
      <trkpt lat="43.62471" lon="5.59062">
        <ele>303.60000610352</ele>
        <time>2013-06-01T07:45:30.000Z</time>
      </trkpt>
      <trkpt lat="43.62468" lon="5.5906">
        <ele>303.79998779297</ele>
        <time>2013-06-01T07:45:31.000Z</time>
      </trkpt>
      <trkpt lat="43.62466" lon="5.59057">
        <ele>304</ele>
        <time>2013-06-01T07:45:32.000Z</time>
      </trkpt>
      <trkpt lat="43.62464" lon="5.59055">
        <ele>304.20001220703</ele>
        <time>2013-06-01T07:45:33.000Z</time>
      </trkpt>
      <trkpt lat="43.62447" lon="5.5903">
        <ele>305.20001220703</ele>
        <time>2013-06-01T07:45:43.000Z</time>
      </trkpt>
      <trkpt lat="43.62431" lon="5.59023">
        <ele>305.60000610352</ele>
        <time>2013-06-01T07:45:50.000Z</time>
      </trkpt>
      <trkpt lat="43.6242" lon="5.59013">
        <ele>305.39999389648</ele>
        <time>2013-06-01T07:45:56.000Z</time>
      </trkpt>
      <trkpt lat="43.62418" lon="5.59011">
        <ele>305.39999389648</ele>
        <time>2013-06-01T07:45:57.000Z</time>
      </trkpt>
      <trkpt lat="43.62416" lon="5.59008">
        <ele>305.39999389648</ele>
        <time>2013-06-01T07:45:58.000Z</time>
      </trkpt>
      <trkpt lat="43.62414" lon="5.59006">
        <ele>305.39999389648</ele>
        <time>2013-06-01T07:45:59.000Z</time>
      </trkpt>
      <trkpt lat="43.62411" lon="5.59005">
        <ele>305.39999389648</ele>
        <time>2013-06-01T07:46:00.000Z</time>
      </trkpt>
      <trkpt lat="43.62408" lon="5.59004">
        <ele>305.60000610352</ele>
        <time>2013-06-01T07:46:01.000Z</time>
      </trkpt>
      <trkpt lat="43.62382" lon="5.59006">
        <ele>307</ele>
        <time>2013-06-01T07:46:12.000Z</time>
      </trkpt>
      <trkpt lat="43.6237" lon="5.59003">
        <ele>307.39999389648</ele>
        <time>2013-06-01T07:46:18.000Z</time>
      </trkpt>
      <trkpt lat="43.62369" lon="5.59001">
        <ele>307.20001220703</ele>
        <time>2013-06-01T07:46:19.000Z</time>
      </trkpt>
      <trkpt lat="43.62369" lon="5.58975">
        <ele>308.20001220703</ele>
        <time>2013-06-01T07:46:26.000Z</time>
      </trkpt>
      <trkpt lat="43.62385" lon="5.58927">
        <ele>310.60000610352</ele>
        <time>2013-06-01T07:46:39.000Z</time>
      </trkpt>
      <trkpt lat="43.62386" lon="5.58924">
        <ele>310.79998779297</ele>
        <time>2013-06-01T07:46:40.000Z</time>
      </trkpt>
      <trkpt lat="43.62385" lon="5.58921">
        <ele>310.79998779297</ele>
        <time>2013-06-01T07:46:41.000Z</time>
      </trkpt>
      <trkpt lat="43.62385" lon="5.5892">
        <ele>311</ele>
        <time>2013-06-01T07:46:48.000Z</time>
      </trkpt>
      <trkpt lat="43.62384" lon="5.58918">
        <ele>311</ele>
        <time>2013-06-01T07:47:01.000Z</time>
      </trkpt>
      <trkpt lat="43.62381" lon="5.58914">
        <ele>311.39999389648</ele>
        <time>2013-06-01T07:47:12.000Z</time>
      </trkpt>
      <trkpt lat="43.6238" lon="5.58912">
        <ele>311.60000610352</ele>
        <time>2013-06-01T07:47:15.000Z</time>
      </trkpt>
      <trkpt lat="43.6238" lon="5.58911">
        <ele>311.60000610352</ele>
        <time>2013-06-01T07:47:16.000Z</time>
      </trkpt>
      <trkpt lat="43.62379" lon="5.58909">
        <ele>311.79998779297</ele>
        <time>2013-06-01T07:47:18.000Z</time>
      </trkpt>
      <trkpt lat="43.62378" lon="5.58909">
        <ele>312</ele>
        <time>2013-06-01T07:47:19.000Z</time>
      </trkpt>
      <trkpt lat="43.62377" lon="5.58907">
        <ele>312.20001220703</ele>
        <time>2013-06-01T07:47:20.000Z</time>
      </trkpt>
      <trkpt lat="43.62378" lon="5.58905">
        <ele>312.39999389648</ele>
        <time>2013-06-01T07:47:21.000Z</time>
      </trkpt>
      <trkpt lat="43.62379" lon="5.58903">
        <ele>312.79998779297</ele>
        <time>2013-06-01T07:47:22.000Z</time>
      </trkpt>
      <trkpt lat="43.62381" lon="5.58901">
        <ele>313</ele>
        <time>2013-06-01T07:47:23.000Z</time>
      </trkpt>
      <trkpt lat="43.62383" lon="5.589">
        <ele>313.20001220703</ele>
        <time>2013-06-01T07:47:24.000Z</time>
      </trkpt>
      <trkpt lat="43.62387" lon="5.58899">
        <ele>313.20001220703</ele>
        <time>2013-06-01T07:47:26.000Z</time>
      </trkpt>
      <trkpt lat="43.62389" lon="5.589">
        <ele>313.20001220703</ele>
        <time>2013-06-01T07:47:27.000Z</time>
      </trkpt>
      <trkpt lat="43.6239" lon="5.58901">
        <ele>313.20001220703</ele>
        <time>2013-06-01T07:47:28.000Z</time>
      </trkpt>
      <trkpt lat="43.62392" lon="5.58902">
        <ele>313</ele>
        <time>2013-06-01T07:47:29.000Z</time>
      </trkpt>
      <trkpt lat="43.62394" lon="5.58904">
        <ele>312.79998779297</ele>
        <time>2013-06-01T07:47:30.000Z</time>
      </trkpt>
      <trkpt lat="43.62413" lon="5.58924">
        <ele>311.20001220703</ele>
        <time>2013-06-01T07:47:39.000Z</time>
      </trkpt>
      <trkpt lat="43.62432" lon="5.58943">
        <ele>309.79998779297</ele>
        <time>2013-06-01T07:47:47.000Z</time>
      </trkpt>
      <trkpt lat="43.62435" lon="5.58942">
        <ele>309.79998779297</ele>
        <time>2013-06-01T07:47:48.000Z</time>
      </trkpt>
      <trkpt lat="43.62438" lon="5.58941">
        <ele>309.79998779297</ele>
        <time>2013-06-01T07:47:49.000Z</time>
      </trkpt>
      <trkpt lat="43.62443" lon="5.58939">
        <ele>310</ele>
        <time>2013-06-01T07:47:51.000Z</time>
      </trkpt>
      <trkpt lat="43.62447" lon="5.5894">
        <ele>310</ele>
        <time>2013-06-01T07:47:52.000Z</time>
      </trkpt>
      <trkpt lat="43.62451" lon="5.58939">
        <ele>310</ele>
        <time>2013-06-01T07:47:53.000Z</time>
      </trkpt>
      <trkpt lat="43.62454" lon="5.5894">
        <ele>310</ele>
        <time>2013-06-01T07:47:54.000Z</time>
      </trkpt>
      <trkpt lat="43.62457" lon="5.58943">
        <ele>309.79998779297</ele>
        <time>2013-06-01T07:47:55.000Z</time>
      </trkpt>
      <trkpt lat="43.62461" lon="5.58945">
        <ele>309.39999389648</ele>
        <time>2013-06-01T07:47:56.000Z</time>
      </trkpt>
      <trkpt lat="43.62465" lon="5.58947">
        <ele>309.39999389648</ele>
        <time>2013-06-01T07:47:57.000Z</time>
      </trkpt>
      <trkpt lat="43.62469" lon="5.58949">
        <ele>309.20001220703</ele>
        <time>2013-06-01T07:47:58.000Z</time>
      </trkpt>
      <trkpt lat="43.62473" lon="5.58951">
        <ele>309</ele>
        <time>2013-06-01T07:47:59.000Z</time>
      </trkpt>
      <trkpt lat="43.62477" lon="5.58953">
        <ele>308.79998779297</ele>
        <time>2013-06-01T07:48:00.000Z</time>
      </trkpt>
      <trkpt lat="43.62492" lon="5.5896">
        <ele>308.20001220703</ele>
        <time>2013-06-01T07:48:04.000Z</time>
      </trkpt>
      <trkpt lat="43.62496" lon="5.58964">
        <ele>308</ele>
        <time>2013-06-01T07:48:05.000Z</time>
      </trkpt>
      <trkpt lat="43.62501" lon="5.58969">
        <ele>307.39999389648</ele>
        <time>2013-06-01T07:48:06.000Z</time>
      </trkpt>
      <trkpt lat="43.62505" lon="5.58973">
        <ele>306.79998779297</ele>
        <time>2013-06-01T07:48:07.000Z</time>
      </trkpt>
      <trkpt lat="43.6251" lon="5.58977">
        <ele>306.20001220703</ele>
        <time>2013-06-01T07:48:08.000Z</time>
      </trkpt>
      <trkpt lat="43.62515" lon="5.5898">
        <ele>305.60000610352</ele>
        <time>2013-06-01T07:48:09.000Z</time>
      </trkpt>
      <trkpt lat="43.62521" lon="5.5898">
        <ele>305.20001220703</ele>
        <time>2013-06-01T07:48:10.000Z</time>
      </trkpt>
      <trkpt lat="43.62527" lon="5.58979">
        <ele>305</ele>
        <time>2013-06-01T07:48:11.000Z</time>
      </trkpt>
      <trkpt lat="43.62532" lon="5.58978">
        <ele>304.79998779297</ele>
        <time>2013-06-01T07:48:12.000Z</time>
      </trkpt>
      <trkpt lat="43.62537" lon="5.58975">
        <ele>304.60000610352</ele>
        <time>2013-06-01T07:48:13.000Z</time>
      </trkpt>
      <trkpt lat="43.62542" lon="5.58972">
        <ele>304.60000610352</ele>
        <time>2013-06-01T07:48:14.000Z</time>
      </trkpt>
      <trkpt lat="43.62548" lon="5.5897">
        <ele>304.39999389648</ele>
        <time>2013-06-01T07:48:15.000Z</time>
      </trkpt>
      <trkpt lat="43.62554" lon="5.58967">
        <ele>304.20001220703</ele>
        <time>2013-06-01T07:48:16.000Z</time>
      </trkpt>
      <trkpt lat="43.62558" lon="5.58962">
        <ele>304.20001220703</ele>
        <time>2013-06-01T07:48:17.000Z</time>
      </trkpt>
      <trkpt lat="43.62562" lon="5.58957">
        <ele>304.39999389648</ele>
        <time>2013-06-01T07:48:18.000Z</time>
      </trkpt>
      <trkpt lat="43.62565" lon="5.58952">
        <ele>304.60000610352</ele>
        <time>2013-06-01T07:48:19.000Z</time>
      </trkpt>
      <trkpt lat="43.62568" lon="5.58949">
        <ele>304.60000610352</ele>
        <time>2013-06-01T07:48:20.000Z</time>
      </trkpt>
      <trkpt lat="43.62571" lon="5.58947">
        <ele>304.60000610352</ele>
        <time>2013-06-01T07:48:21.000Z</time>
      </trkpt>
      <trkpt lat="43.62575" lon="5.58947">
        <ele>304.39999389648</ele>
        <time>2013-06-01T07:48:22.000Z</time>
      </trkpt>
      <trkpt lat="43.62578" lon="5.58944">
        <ele>304.20001220703</ele>
        <time>2013-06-01T07:48:23.000Z</time>
      </trkpt>
      <trkpt lat="43.62581" lon="5.5894">
        <ele>304.39999389648</ele>
        <time>2013-06-01T07:48:24.000Z</time>
      </trkpt>
      <trkpt lat="43.62583" lon="5.58937">
        <ele>304.39999389648</ele>
        <time>2013-06-01T07:48:25.000Z</time>
      </trkpt>
      <trkpt lat="43.62604" lon="5.58923">
        <ele>304.39999389648</ele>
        <time>2013-06-01T07:48:31.000Z</time>
      </trkpt>
      <trkpt lat="43.62607" lon="5.58919">
        <ele>304.60000610352</ele>
        <time>2013-06-01T07:48:32.000Z</time>
      </trkpt>
      <trkpt lat="43.62611" lon="5.58916">
        <ele>304.60000610352</ele>
        <time>2013-06-01T07:48:33.000Z</time>
      </trkpt>
      <trkpt lat="43.62619" lon="5.58911">
        <ele>304.60000610352</ele>
        <time>2013-06-01T07:48:35.000Z</time>
      </trkpt>
      <trkpt lat="43.62624" lon="5.58911">
        <ele>304.39999389648</ele>
        <time>2013-06-01T07:48:36.000Z</time>
      </trkpt>
      <trkpt lat="43.62644" lon="5.58914">
        <ele>303.20001220703</ele>
        <time>2013-06-01T07:48:40.000Z</time>
      </trkpt>
      <trkpt lat="43.62649" lon="5.58917">
        <ele>302.60000610352</ele>
        <time>2013-06-01T07:48:41.000Z</time>
      </trkpt>
      <trkpt lat="43.62654" lon="5.58921">
        <ele>302.20001220703</ele>
        <time>2013-06-01T07:48:42.000Z</time>
      </trkpt>
      <trkpt lat="43.62659" lon="5.58926">
        <ele>301.60000610352</ele>
        <time>2013-06-01T07:48:43.000Z</time>
      </trkpt>
      <trkpt lat="43.62663" lon="5.5893">
        <ele>301</ele>
        <time>2013-06-01T07:48:44.000Z</time>
      </trkpt>
      <trkpt lat="43.62676" lon="5.58943">
        <ele>299.60000610352</ele>
        <time>2013-06-01T07:48:47.000Z</time>
      </trkpt>
      <trkpt lat="43.6268" lon="5.58945">
        <ele>299.39999389648</ele>
        <time>2013-06-01T07:48:48.000Z</time>
      </trkpt>
      <trkpt lat="43.62684" lon="5.58946">
        <ele>299.20001220703</ele>
        <time>2013-06-01T07:48:49.000Z</time>
      </trkpt>
      <trkpt lat="43.62692" lon="5.58949">
        <ele>298.79998779297</ele>
        <time>2013-06-01T07:48:51.000Z</time>
      </trkpt>
      <trkpt lat="43.62697" lon="5.58949">
        <ele>298.79998779297</ele>
        <time>2013-06-01T07:48:52.000Z</time>
      </trkpt>
      <trkpt lat="43.62701" lon="5.58948">
        <ele>298.79998779297</ele>
        <time>2013-06-01T07:48:53.000Z</time>
      </trkpt>
      <trkpt lat="43.62705" lon="5.58949">
        <ele>298.60000610352</ele>
        <time>2013-06-01T07:48:54.000Z</time>
      </trkpt>
      <trkpt lat="43.62709" lon="5.5895">
        <ele>298.39999389648</ele>
        <time>2013-06-01T07:48:55.000Z</time>
      </trkpt>
      <trkpt lat="43.62713" lon="5.58952">
        <ele>298.20001220703</ele>
        <time>2013-06-01T07:48:56.000Z</time>
      </trkpt>
      <trkpt lat="43.62724" lon="5.58962">
        <ele>297.39999389648</ele>
        <time>2013-06-01T07:49:01.000Z</time>
      </trkpt>
      <trkpt lat="43.62729" lon="5.58965">
        <ele>297.20001220703</ele>
        <time>2013-06-01T07:49:10.000Z</time>
      </trkpt>
      <trkpt lat="43.62734" lon="5.58971">
        <ele>296.79998779297</ele>
        <time>2013-06-01T07:49:18.000Z</time>
      </trkpt>
      <trkpt lat="43.62752" lon="5.58991">
        <ele>295.39999389648</ele>
        <time>2013-06-01T07:49:25.000Z</time>
      </trkpt>
      <trkpt lat="43.62765" lon="5.59009">
        <ele>294.20001220703</ele>
        <time>2013-06-01T07:49:29.000Z</time>
      </trkpt>
      <trkpt lat="43.62768" lon="5.59014">
        <ele>294</ele>
        <time>2013-06-01T07:49:30.000Z</time>
      </trkpt>
      <trkpt lat="43.62776" lon="5.59023">
        <ele>293.39999389648</ele>
        <time>2013-06-01T07:49:32.000Z</time>
      </trkpt>
      <trkpt lat="43.6278" lon="5.59025">
        <ele>293.20001220703</ele>
        <time>2013-06-01T07:49:33.000Z</time>
      </trkpt>
      <trkpt lat="43.62782" lon="5.59024">
        <ele>293.20001220703</ele>
        <time>2013-06-01T07:49:34.000Z</time>
      </trkpt>
      <trkpt lat="43.62783" lon="5.59023">
        <ele>293.39999389648</ele>
        <time>2013-06-01T07:49:35.000Z</time>
      </trkpt>
      <trkpt lat="43.62784" lon="5.59023">
        <ele>293.39999389648</ele>
        <time>2013-06-01T07:49:36.000Z</time>
      </trkpt>
      <trkpt lat="43.62785" lon="5.59025">
        <ele>293.20001220703</ele>
        <time>2013-06-01T07:49:37.000Z</time>
      </trkpt>
      <trkpt lat="43.62787" lon="5.59029">
        <ele>293</ele>
        <time>2013-06-01T07:49:38.000Z</time>
      </trkpt>
      <trkpt lat="43.62789" lon="5.59033">
        <ele>292.79998779297</ele>
        <time>2013-06-01T07:49:39.000Z</time>
      </trkpt>
      <trkpt lat="43.62792" lon="5.59038">
        <ele>292.60000610352</ele>
        <time>2013-06-01T07:49:40.000Z</time>
      </trkpt>
      <trkpt lat="43.62796" lon="5.59043">
        <ele>292.39999389648</ele>
        <time>2013-06-01T07:49:41.000Z</time>
      </trkpt>
      <trkpt lat="43.628" lon="5.59049">
        <ele>292</ele>
        <time>2013-06-01T07:49:42.000Z</time>
      </trkpt>
      <trkpt lat="43.62803" lon="5.59055">
        <ele>291.79998779297</ele>
        <time>2013-06-01T07:49:43.000Z</time>
      </trkpt>
      <trkpt lat="43.62809" lon="5.59066">
        <ele>291.39999389648</ele>
        <time>2013-06-01T07:49:45.000Z</time>
      </trkpt>
      <trkpt lat="43.62812" lon="5.5907">
        <ele>291.20001220703</ele>
        <time>2013-06-01T07:49:46.000Z</time>
      </trkpt>
      <trkpt lat="43.62815" lon="5.59073">
        <ele>291.20001220703</ele>
        <time>2013-06-01T07:49:47.000Z</time>
      </trkpt>
      <trkpt lat="43.62818" lon="5.59073">
        <ele>291.20001220703</ele>
        <time>2013-06-01T07:49:48.000Z</time>
      </trkpt>
      <trkpt lat="43.62822" lon="5.59072">
        <ele>291.20001220703</ele>
        <time>2013-06-01T07:49:49.000Z</time>
      </trkpt>
      <trkpt lat="43.62826" lon="5.59072">
        <ele>291.20001220703</ele>
        <time>2013-06-01T07:49:50.000Z</time>
      </trkpt>
      <trkpt lat="43.6283" lon="5.59075">
        <ele>291.20001220703</ele>
        <time>2013-06-01T07:49:51.000Z</time>
      </trkpt>
      <trkpt lat="43.62834" lon="5.59077">
        <ele>291</ele>
        <time>2013-06-01T07:49:52.000Z</time>
      </trkpt>
      <trkpt lat="43.62839" lon="5.59078">
        <ele>290.79998779297</ele>
        <time>2013-06-01T07:49:53.000Z</time>
      </trkpt>
      <trkpt lat="43.62844" lon="5.59078">
        <ele>290.39999389648</ele>
        <time>2013-06-01T07:49:54.000Z</time>
      </trkpt>
      <trkpt lat="43.62848" lon="5.59075">
        <ele>290.20001220703</ele>
        <time>2013-06-01T07:49:55.000Z</time>
      </trkpt>
      <trkpt lat="43.62853" lon="5.59073">
        <ele>290</ele>
        <time>2013-06-01T07:49:56.000Z</time>
      </trkpt>
      <trkpt lat="43.62858" lon="5.59071">
        <ele>289.79998779297</ele>
        <time>2013-06-01T07:49:57.000Z</time>
      </trkpt>
      <trkpt lat="43.62863" lon="5.59068">
        <ele>289.60000610352</ele>
        <time>2013-06-01T07:49:58.000Z</time>
      </trkpt>
      <trkpt lat="43.62867" lon="5.59065">
        <ele>289.39999389648</ele>
        <time>2013-06-01T07:49:59.000Z</time>
      </trkpt>
      <trkpt lat="43.62872" lon="5.59062">
        <ele>289.20001220703</ele>
        <time>2013-06-01T07:50:00.000Z</time>
      </trkpt>
      <trkpt lat="43.62876" lon="5.59061">
        <ele>289</ele>
        <time>2013-06-01T07:50:01.000Z</time>
      </trkpt>
      <trkpt lat="43.6288" lon="5.59062">
        <ele>288.79998779297</ele>
        <time>2013-06-01T07:50:02.000Z</time>
      </trkpt>
      <trkpt lat="43.62885" lon="5.59063">
        <ele>288.39999389648</ele>
        <time>2013-06-01T07:50:03.000Z</time>
      </trkpt>
      <trkpt lat="43.62889" lon="5.59065">
        <ele>288</ele>
        <time>2013-06-01T07:50:04.000Z</time>
      </trkpt>
      <trkpt lat="43.62894" lon="5.59067">
        <ele>287.79998779297</ele>
        <time>2013-06-01T07:50:05.000Z</time>
      </trkpt>
      <trkpt lat="43.62899" lon="5.5907">
        <ele>287.39999389648</ele>
        <time>2013-06-01T07:50:06.000Z</time>
      </trkpt>
      <trkpt lat="43.62903" lon="5.59073">
        <ele>287</ele>
        <time>2013-06-01T07:50:07.000Z</time>
      </trkpt>
      <trkpt lat="43.62906" lon="5.59077">
        <ele>286.60000610352</ele>
        <time>2013-06-01T07:50:08.000Z</time>
      </trkpt>
      <trkpt lat="43.62911" lon="5.5908">
        <ele>286.39999389648</ele>
        <time>2013-06-01T07:50:09.000Z</time>
      </trkpt>
      <trkpt lat="43.62915" lon="5.59083">
        <ele>286</ele>
        <time>2013-06-01T07:50:10.000Z</time>
      </trkpt>
      <trkpt lat="43.62919" lon="5.59086">
        <ele>285.60000610352</ele>
        <time>2013-06-01T07:50:11.000Z</time>
      </trkpt>
      <trkpt lat="43.62924" lon="5.59088">
        <ele>285.20001220703</ele>
        <time>2013-06-01T07:50:12.000Z</time>
      </trkpt>
      <trkpt lat="43.62929" lon="5.59091">
        <ele>284.79998779297</ele>
        <time>2013-06-01T07:50:13.000Z</time>
      </trkpt>
      <trkpt lat="43.62933" lon="5.59094">
        <ele>284.39999389648</ele>
        <time>2013-06-01T07:50:14.000Z</time>
      </trkpt>
      <trkpt lat="43.62938" lon="5.59097">
        <ele>284</ele>
        <time>2013-06-01T07:50:15.000Z</time>
      </trkpt>
      <trkpt lat="43.62942" lon="5.591">
        <ele>283.60000610352</ele>
        <time>2013-06-01T07:50:16.000Z</time>
      </trkpt>
      <trkpt lat="43.62948" lon="5.59103">
        <ele>283</ele>
        <time>2013-06-01T07:50:17.000Z</time>
      </trkpt>
      <trkpt lat="43.62953" lon="5.59106">
        <ele>282.60000610352</ele>
        <time>2013-06-01T07:50:18.000Z</time>
      </trkpt>
      <trkpt lat="43.62957" lon="5.59107">
        <ele>282.20001220703</ele>
        <time>2013-06-01T07:50:19.000Z</time>
      </trkpt>
      <trkpt lat="43.6296" lon="5.59107">
        <ele>282</ele>
        <time>2013-06-01T07:50:20.000Z</time>
      </trkpt>
      <trkpt lat="43.62961" lon="5.59105">
        <ele>282</ele>
        <time>2013-06-01T07:50:21.000Z</time>
      </trkpt>
      <trkpt lat="43.62962" lon="5.59103">
        <ele>282</ele>
        <time>2013-06-01T07:50:22.000Z</time>
      </trkpt>
      <trkpt lat="43.62965" lon="5.59104">
        <ele>281.79998779297</ele>
        <time>2013-06-01T07:50:23.000Z</time>
      </trkpt>
      <trkpt lat="43.62969" lon="5.59104">
        <ele>281.60000610352</ele>
        <time>2013-06-01T07:50:24.000Z</time>
      </trkpt>
      <trkpt lat="43.62973" lon="5.59103">
        <ele>281.39999389648</ele>
        <time>2013-06-01T07:50:25.000Z</time>
      </trkpt>
      <trkpt lat="43.62977" lon="5.591">
        <ele>281.39999389648</ele>
        <time>2013-06-01T07:50:26.000Z</time>
      </trkpt>
      <trkpt lat="43.6298" lon="5.59096">
        <ele>281.39999389648</ele>
        <time>2013-06-01T07:50:27.000Z</time>
      </trkpt>
      <trkpt lat="43.63003" lon="5.59063">
        <ele>280.20001220703</ele>
        <time>2013-06-01T07:50:36.000Z</time>
      </trkpt>
      <trkpt lat="43.63012" lon="5.59054">
        <ele>279.20001220703</ele>
        <time>2013-06-01T07:50:38.000Z</time>
      </trkpt>
      <trkpt lat="43.63016" lon="5.59049">
        <ele>278.60000610352</ele>
        <time>2013-06-01T07:50:39.000Z</time>
      </trkpt>
      <trkpt lat="43.63035" lon="5.59032">
        <ele>276.79998779297</ele>
        <time>2013-06-01T07:50:43.000Z</time>
      </trkpt>
      <trkpt lat="43.63036" lon="5.59028">
        <ele>276.79998779297</ele>
        <time>2013-06-01T07:50:44.000Z</time>
      </trkpt>
      <trkpt lat="43.63035" lon="5.59025">
        <ele>276.79998779297</ele>
        <time>2013-06-01T07:50:45.000Z</time>
      </trkpt>
      <trkpt lat="43.63034" lon="5.59023">
        <ele>277</ele>
        <time>2013-06-01T07:50:46.000Z</time>
      </trkpt>
      <trkpt lat="43.63033" lon="5.59021">
        <ele>277</ele>
        <time>2013-06-01T07:50:47.000Z</time>
      </trkpt>
      <trkpt lat="43.6303" lon="5.59019">
        <ele>277.20001220703</ele>
        <time>2013-06-01T07:50:48.000Z</time>
      </trkpt>
      <trkpt lat="43.63016" lon="5.59015">
        <ele>278.20001220703</ele>
        <time>2013-06-01T07:50:52.000Z</time>
      </trkpt>
      <trkpt lat="43.63013" lon="5.59013">
        <ele>278.39999389648</ele>
        <time>2013-06-01T07:50:53.000Z</time>
      </trkpt>
      <trkpt lat="43.63011" lon="5.5901">
        <ele>278.39999389648</ele>
        <time>2013-06-01T07:50:54.000Z</time>
      </trkpt>
      <trkpt lat="43.6301" lon="5.59006">
        <ele>278.39999389648</ele>
        <time>2013-06-01T07:50:55.000Z</time>
      </trkpt>
      <trkpt lat="43.63011" lon="5.59001">
        <ele>278.20001220703</ele>
        <time>2013-06-01T07:50:56.000Z</time>
      </trkpt>
      <trkpt lat="43.63014" lon="5.58998">
        <ele>278</ele>
        <time>2013-06-01T07:50:57.000Z</time>
      </trkpt>
      <trkpt lat="43.63017" lon="5.58995">
        <ele>277.39999389648</ele>
        <time>2013-06-01T07:50:58.000Z</time>
      </trkpt>
      <trkpt lat="43.6302" lon="5.58993">
        <ele>277.20001220703</ele>
        <time>2013-06-01T07:50:59.000Z</time>
      </trkpt>
      <trkpt lat="43.63024" lon="5.58991">
        <ele>276.79998779297</ele>
        <time>2013-06-01T07:51:00.000Z</time>
      </trkpt>
      <trkpt lat="43.63028" lon="5.5899">
        <ele>276.60000610352</ele>
        <time>2013-06-01T07:51:01.000Z</time>
      </trkpt>
      <trkpt lat="43.63032" lon="5.58991">
        <ele>276.39999389648</ele>
        <time>2013-06-01T07:51:02.000Z</time>
      </trkpt>
      <trkpt lat="43.63036" lon="5.58991">
        <ele>276.20001220703</ele>
        <time>2013-06-01T07:51:03.000Z</time>
      </trkpt>
      <trkpt lat="43.6304" lon="5.5899">
        <ele>275.79998779297</ele>
        <time>2013-06-01T07:51:04.000Z</time>
      </trkpt>
      <trkpt lat="43.63044" lon="5.58986">
        <ele>275.39999389648</ele>
        <time>2013-06-01T07:51:05.000Z</time>
      </trkpt>
      <trkpt lat="43.63048" lon="5.58982">
        <ele>275</ele>
        <time>2013-06-01T07:51:06.000Z</time>
      </trkpt>
      <trkpt lat="43.63052" lon="5.58979">
        <ele>274.39999389648</ele>
        <time>2013-06-01T07:51:07.000Z</time>
      </trkpt>
      <trkpt lat="43.63057" lon="5.58976">
        <ele>274</ele>
        <time>2013-06-01T07:51:08.000Z</time>
      </trkpt>
      <trkpt lat="43.63062" lon="5.58974">
        <ele>273.60000610352</ele>
        <time>2013-06-01T07:51:09.000Z</time>
      </trkpt>
      <trkpt lat="43.63067" lon="5.58969">
        <ele>273.20001220703</ele>
        <time>2013-06-01T07:51:10.000Z</time>
      </trkpt>
      <trkpt lat="43.63072" lon="5.58964">
        <ele>272.60000610352</ele>
        <time>2013-06-01T07:51:11.000Z</time>
      </trkpt>
      <trkpt lat="43.63077" lon="5.58957">
        <ele>272</ele>
        <time>2013-06-01T07:51:12.000Z</time>
      </trkpt>
      <trkpt lat="43.63088" lon="5.58943">
        <ele>271.20001220703</ele>
        <time>2013-06-01T07:51:14.000Z</time>
      </trkpt>
      <trkpt lat="43.63091" lon="5.58934">
        <ele>270.79998779297</ele>
        <time>2013-06-01T07:51:15.000Z</time>
      </trkpt>
      <trkpt lat="43.63093" lon="5.58925">
        <ele>270.39999389648</ele>
        <time>2013-06-01T07:51:16.000Z</time>
      </trkpt>
      <trkpt lat="43.63095" lon="5.58915">
        <ele>270</ele>
        <time>2013-06-01T07:51:17.000Z</time>
      </trkpt>
      <trkpt lat="43.63094" lon="5.58905">
        <ele>269.39999389648</ele>
        <time>2013-06-01T07:51:18.000Z</time>
      </trkpt>
      <trkpt lat="43.63093" lon="5.58896">
        <ele>269</ele>
        <time>2013-06-01T07:51:19.000Z</time>
      </trkpt>
      <trkpt lat="43.63093" lon="5.58888">
        <ele>268.60000610352</ele>
        <time>2013-06-01T07:51:20.000Z</time>
      </trkpt>
      <trkpt lat="43.63095" lon="5.5888">
        <ele>268.20001220703</ele>
        <time>2013-06-01T07:51:21.000Z</time>
      </trkpt>
      <trkpt lat="43.63098" lon="5.58875">
        <ele>268</ele>
        <time>2013-06-01T07:51:22.000Z</time>
      </trkpt>
      <trkpt lat="43.63102" lon="5.5887">
        <ele>267.79998779297</ele>
        <time>2013-06-01T07:51:23.000Z</time>
      </trkpt>
      <trkpt lat="43.63105" lon="5.58864">
        <ele>267.60000610352</ele>
        <time>2013-06-01T07:51:24.000Z</time>
      </trkpt>
      <trkpt lat="43.63109" lon="5.58859">
        <ele>267.39999389648</ele>
        <time>2013-06-01T07:51:25.000Z</time>
      </trkpt>
      <trkpt lat="43.63114" lon="5.58854">
        <ele>267.20001220703</ele>
        <time>2013-06-01T07:51:26.000Z</time>
      </trkpt>
      <trkpt lat="43.63119" lon="5.5885">
        <ele>267.20001220703</ele>
        <time>2013-06-01T07:51:27.000Z</time>
      </trkpt>
      <trkpt lat="43.63124" lon="5.58848">
        <ele>267</ele>
        <time>2013-06-01T07:51:28.000Z</time>
      </trkpt>
      <trkpt lat="43.63129" lon="5.58845">
        <ele>267</ele>
        <time>2013-06-01T07:51:29.000Z</time>
      </trkpt>
      <trkpt lat="43.63134" lon="5.58841">
        <ele>266.79998779297</ele>
        <time>2013-06-01T07:51:30.000Z</time>
      </trkpt>
      <trkpt lat="43.63138" lon="5.58836">
        <ele>266.60000610352</ele>
        <time>2013-06-01T07:51:31.000Z</time>
      </trkpt>
      <trkpt lat="43.63165" lon="5.588">
        <ele>264.60000610352</ele>
        <time>2013-06-01T07:51:38.000Z</time>
      </trkpt>
      <trkpt lat="43.63169" lon="5.58796">
        <ele>264.20001220703</ele>
        <time>2013-06-01T07:51:39.000Z</time>
      </trkpt>
      <trkpt lat="43.63174" lon="5.58795">
        <ele>264</ele>
        <time>2013-06-01T07:51:40.000Z</time>
      </trkpt>
      <trkpt lat="43.63179" lon="5.58797">
        <ele>264</ele>
        <time>2013-06-01T07:51:41.000Z</time>
      </trkpt>
      <trkpt lat="43.63183" lon="5.58801">
        <ele>264</ele>
        <time>2013-06-01T07:51:42.000Z</time>
      </trkpt>
      <trkpt lat="43.63186" lon="5.58805">
        <ele>264.20001220703</ele>
        <time>2013-06-01T07:51:43.000Z</time>
      </trkpt>
      <trkpt lat="43.63189" lon="5.58811">
        <ele>264.60000610352</ele>
        <time>2013-06-01T07:51:44.000Z</time>
      </trkpt>
      <trkpt lat="43.63193" lon="5.58816">
        <ele>264.79998779297</ele>
        <time>2013-06-01T07:51:45.000Z</time>
      </trkpt>
      <trkpt lat="43.63208" lon="5.58831">
        <ele>265.20001220703</ele>
        <time>2013-06-01T07:51:49.000Z</time>
      </trkpt>
      <trkpt lat="43.63212" lon="5.58834">
        <ele>265.20001220703</ele>
        <time>2013-06-01T07:51:50.000Z</time>
      </trkpt>
      <trkpt lat="43.63215" lon="5.58838">
        <ele>265.20001220703</ele>
        <time>2013-06-01T07:51:51.000Z</time>
      </trkpt>
      <trkpt lat="43.63217" lon="5.58842">
        <ele>265.39999389648</ele>
        <time>2013-06-01T07:51:52.000Z</time>
      </trkpt>
      <trkpt lat="43.63221" lon="5.58846">
        <ele>265.20001220703</ele>
        <time>2013-06-01T07:51:53.000Z</time>
      </trkpt>
      <trkpt lat="43.63225" lon="5.58848">
        <ele>265.20001220703</ele>
        <time>2013-06-01T07:51:54.000Z</time>
      </trkpt>
      <trkpt lat="43.6323" lon="5.58847">
        <ele>264.79998779297</ele>
        <time>2013-06-01T07:51:55.000Z</time>
      </trkpt>
      <trkpt lat="43.63235" lon="5.58843">
        <ele>264.60000610352</ele>
        <time>2013-06-01T07:51:56.000Z</time>
      </trkpt>
      <trkpt lat="43.63239" lon="5.58839">
        <ele>264.39999389648</ele>
        <time>2013-06-01T07:51:57.000Z</time>
      </trkpt>
      <trkpt lat="43.63244" lon="5.58836">
        <ele>264.20001220703</ele>
        <time>2013-06-01T07:51:58.000Z</time>
      </trkpt>
      <trkpt lat="43.63248" lon="5.58833">
        <ele>264</ele>
        <time>2013-06-01T07:51:59.000Z</time>
      </trkpt>
      <trkpt lat="43.63251" lon="5.5883">
        <ele>263.60000610352</ele>
        <time>2013-06-01T07:52:00.000Z</time>
      </trkpt>
      <trkpt lat="43.63255" lon="5.58826">
        <ele>263.20001220703</ele>
        <time>2013-06-01T07:52:01.000Z</time>
      </trkpt>
      <trkpt lat="43.63258" lon="5.58821">
        <ele>262.79998779297</ele>
        <time>2013-06-01T07:52:02.000Z</time>
      </trkpt>
      <trkpt lat="43.63261" lon="5.58816">
        <ele>262.39999389648</ele>
        <time>2013-06-01T07:52:03.000Z</time>
      </trkpt>
      <trkpt lat="43.63264" lon="5.58809">
        <ele>261.79998779297</ele>
        <time>2013-06-01T07:52:04.000Z</time>
      </trkpt>
      <trkpt lat="43.63268" lon="5.58802">
        <ele>261.20001220703</ele>
        <time>2013-06-01T07:52:05.000Z</time>
      </trkpt>
      <trkpt lat="43.63272" lon="5.58795">
        <ele>260.60000610352</ele>
        <time>2013-06-01T07:52:06.000Z</time>
      </trkpt>
      <trkpt lat="43.63276" lon="5.58788">
        <ele>260</ele>
        <time>2013-06-01T07:52:07.000Z</time>
      </trkpt>
      <trkpt lat="43.6328" lon="5.58781">
        <ele>259.39999389648</ele>
        <time>2013-06-01T07:52:08.000Z</time>
      </trkpt>
      <trkpt lat="43.63284" lon="5.58777">
        <ele>258.79998779297</ele>
        <time>2013-06-01T07:52:09.000Z</time>
      </trkpt>
      <trkpt lat="43.63287" lon="5.58773">
        <ele>258.39999389648</ele>
        <time>2013-06-01T07:52:10.000Z</time>
      </trkpt>
      <trkpt lat="43.63288" lon="5.58769">
        <ele>258.20001220703</ele>
        <time>2013-06-01T07:52:11.000Z</time>
      </trkpt>
      <trkpt lat="43.63288" lon="5.58765">
        <ele>258</ele>
        <time>2013-06-01T07:52:12.000Z</time>
      </trkpt>
      <trkpt lat="43.63288" lon="5.58763">
        <ele>257.79998779297</ele>
        <time>2013-06-01T07:52:13.000Z</time>
      </trkpt>
      <trkpt lat="43.63286" lon="5.58763">
        <ele>258</ele>
        <time>2013-06-01T07:52:27.000Z</time>
      </trkpt>
      <trkpt lat="43.63285" lon="5.58761">
        <ele>257.79998779297</ele>
        <time>2013-06-01T07:52:48.000Z</time>
      </trkpt>
      <trkpt lat="43.63287" lon="5.58762">
        <ele>257.79998779297</ele>
        <time>2013-06-01T07:53:06.000Z</time>
      </trkpt>
      <trkpt lat="43.63289" lon="5.58763">
        <ele>257.79998779297</ele>
        <time>2013-06-01T07:53:26.000Z</time>
      </trkpt>
      <trkpt lat="43.63289" lon="5.58766">
        <ele>258</ele>
        <time>2013-06-01T07:53:45.000Z</time>
      </trkpt>
      <trkpt lat="43.6329" lon="5.58763">
        <ele>257.79998779297</ele>
        <time>2013-06-01T07:53:54.000Z</time>
      </trkpt>
      <trkpt lat="43.63291" lon="5.58761">
        <ele>257.60000610352</ele>
        <time>2013-06-01T07:53:55.000Z</time>
      </trkpt>
      <trkpt lat="43.63293" lon="5.58759">
        <ele>257.39999389648</ele>
        <time>2013-06-01T07:53:57.000Z</time>
      </trkpt>
      <trkpt lat="43.63295" lon="5.5876">
        <ele>257.39999389648</ele>
        <time>2013-06-01T07:53:58.000Z</time>
      </trkpt>
      <trkpt lat="43.633" lon="5.58765">
        <ele>257.39999389648</ele>
        <time>2013-06-01T07:54:04.000Z</time>
      </trkpt>
      <trkpt lat="43.63302" lon="5.58765">
        <ele>257.39999389648</ele>
        <time>2013-06-01T07:54:05.000Z</time>
      </trkpt>
      <trkpt lat="43.63303" lon="5.58765">
        <ele>257.20001220703</ele>
        <time>2013-06-01T07:54:06.000Z</time>
      </trkpt>
      <trkpt lat="43.63326" lon="5.58756">
        <ele>255.60000610352</ele>
        <time>2013-06-01T07:54:16.000Z</time>
      </trkpt>
      <trkpt lat="43.6336" lon="5.58746">
        <ele>254.39999389648</ele>
        <time>2013-06-01T07:54:26.000Z</time>
      </trkpt>
      <trkpt lat="43.63364" lon="5.58746">
        <ele>254.39999389648</ele>
        <time>2013-06-01T07:54:27.000Z</time>
      </trkpt>
      <trkpt lat="43.63378" lon="5.58747">
        <ele>254</ele>
        <time>2013-06-01T07:54:30.000Z</time>
      </trkpt>
      <trkpt lat="43.63383" lon="5.58746">
        <ele>254</ele>
        <time>2013-06-01T07:54:31.000Z</time>
      </trkpt>
      <trkpt lat="43.634" lon="5.58728">
        <ele>254.80000305176</ele>
        <time>2013-06-01T07:54:38.000Z</time>
      </trkpt>
      <trkpt lat="43.6341" lon="5.58693">
        <ele>257.39999389648</ele>
        <time>2013-06-01T07:54:46.000Z</time>
      </trkpt>
      <trkpt lat="43.6341" lon="5.58687">
        <ele>258</ele>
        <time>2013-06-01T07:54:48.000Z</time>
      </trkpt>
      <trkpt lat="43.63409" lon="5.58685">
        <ele>258.20001220703</ele>
        <time>2013-06-01T07:54:49.000Z</time>
      </trkpt>
      <trkpt lat="43.63408" lon="5.58683">
        <ele>258.20001220703</ele>
        <time>2013-06-01T07:54:50.000Z</time>
      </trkpt>
      <trkpt lat="43.63406" lon="5.58682">
        <ele>258.20001220703</ele>
        <time>2013-06-01T07:54:51.000Z</time>
      </trkpt>
      <trkpt lat="43.63404" lon="5.5868">
        <ele>258.39999389648</ele>
        <time>2013-06-01T07:54:52.000Z</time>
      </trkpt>
      <trkpt lat="43.63402" lon="5.58678">
        <ele>258.39999389648</ele>
        <time>2013-06-01T07:54:53.000Z</time>
      </trkpt>
      <trkpt lat="43.634" lon="5.58676">
        <ele>258.39999389648</ele>
        <time>2013-06-01T07:54:54.000Z</time>
      </trkpt>
      <trkpt lat="43.63373" lon="5.58648">
        <ele>259.20001220703</ele>
        <time>2013-06-01T07:55:08.000Z</time>
      </trkpt>
      <trkpt lat="43.63346" lon="5.58633">
        <ele>258.79998779297</ele>
        <time>2013-06-01T07:55:17.000Z</time>
      </trkpt>
      <trkpt lat="43.63325" lon="5.58614">
        <ele>259.60000610352</ele>
        <time>2013-06-01T07:55:26.000Z</time>
      </trkpt>
      <trkpt lat="43.63317" lon="5.58568">
        <ele>262.39999389648</ele>
        <time>2013-06-01T07:55:38.000Z</time>
      </trkpt>
      <trkpt lat="43.63296" lon="5.58543">
        <ele>264.39999389648</ele>
        <time>2013-06-01T07:55:49.000Z</time>
      </trkpt>
      <trkpt lat="43.63271" lon="5.58538">
        <ele>265.60000610352</ele>
        <time>2013-06-01T07:55:59.000Z</time>
      </trkpt>
      <trkpt lat="43.63242" lon="5.58549">
        <ele>266.60000610352</ele>
        <time>2013-06-01T07:56:10.000Z</time>
      </trkpt>
      <trkpt lat="43.63221" lon="5.58546">
        <ele>267.39999389648</ele>
        <time>2013-06-01T07:56:17.000Z</time>
      </trkpt>
      <trkpt lat="43.63209" lon="5.58511">
        <ele>269.39999389648</ele>
        <time>2013-06-01T07:56:26.000Z</time>
      </trkpt>
      <trkpt lat="43.632" lon="5.58471">
        <ele>272.60000610352</ele>
        <time>2013-06-01T07:56:37.000Z</time>
      </trkpt>
      <trkpt lat="43.63219" lon="5.58449">
        <ele>272.60000610352</ele>
        <time>2013-06-01T07:56:45.000Z</time>
      </trkpt>
      <trkpt lat="43.63221" lon="5.58443">
        <ele>272.79998779297</ele>
        <time>2013-06-01T07:56:47.000Z</time>
      </trkpt>
      <trkpt lat="43.63221" lon="5.58441">
        <ele>273</ele>
        <time>2013-06-01T07:56:48.000Z</time>
      </trkpt>
      <trkpt lat="43.63219" lon="5.58439">
        <ele>273.39999389648</ele>
        <time>2013-06-01T07:56:49.000Z</time>
      </trkpt>
      <trkpt lat="43.63205" lon="5.58431">
        <ele>275.20001220703</ele>
        <time>2013-06-01T07:56:59.000Z</time>
      </trkpt>
      <trkpt lat="43.63198" lon="5.58422">
        <ele>276.60000610352</ele>
        <time>2013-06-01T07:57:05.000Z</time>
      </trkpt>
      <trkpt lat="43.63197" lon="5.58419">
        <ele>276.79998779297</ele>
        <time>2013-06-01T07:57:06.000Z</time>
      </trkpt>
      <trkpt lat="43.63197" lon="5.58416">
        <ele>277</ele>
        <time>2013-06-01T07:57:07.000Z</time>
      </trkpt>
      <trkpt lat="43.63197" lon="5.58413">
        <ele>277.39999389648</ele>
        <time>2013-06-01T07:57:08.000Z</time>
      </trkpt>
      <trkpt lat="43.63196" lon="5.5841">
        <ele>277.60000610352</ele>
        <time>2013-06-01T07:57:09.000Z</time>
      </trkpt>
      <trkpt lat="43.63191" lon="5.58378">
        <ele>281.20001220703</ele>
        <time>2013-06-01T07:57:20.000Z</time>
      </trkpt>
      <trkpt lat="43.63194" lon="5.5834">
        <ele>284.60000610352</ele>
        <time>2013-06-01T07:57:33.000Z</time>
      </trkpt>
      <trkpt lat="43.6319" lon="5.58309">
        <ele>287.20001220703</ele>
        <time>2013-06-01T07:57:45.000Z</time>
      </trkpt>
      <trkpt lat="43.63184" lon="5.58285">
        <ele>289</ele>
        <time>2013-06-01T07:57:54.000Z</time>
      </trkpt>
      <trkpt lat="43.63183" lon="5.58283">
        <ele>289.20001220703</ele>
        <time>2013-06-01T07:57:55.000Z</time>
      </trkpt>
      <trkpt lat="43.63178" lon="5.5828">
        <ele>289.60000610352</ele>
        <time>2013-06-01T07:57:57.000Z</time>
      </trkpt>
      <trkpt lat="43.63176" lon="5.5828">
        <ele>289.60000610352</ele>
        <time>2013-06-01T07:57:58.000Z</time>
      </trkpt>
      <trkpt lat="43.63148" lon="5.5828">
        <ele>290.79998779297</ele>
        <time>2013-06-01T07:58:09.000Z</time>
      </trkpt>
      <trkpt lat="43.6312" lon="5.58271">
        <ele>292.79998779297</ele>
        <time>2013-06-01T07:58:20.000Z</time>
      </trkpt>
      <trkpt lat="43.63092" lon="5.58273">
        <ele>294</ele>
        <time>2013-06-01T07:58:33.000Z</time>
      </trkpt>
      <trkpt lat="43.63064" lon="5.58272">
        <ele>295.20001220703</ele>
        <time>2013-06-01T07:58:45.000Z</time>
      </trkpt>
      <trkpt lat="43.63038" lon="5.58268">
        <ele>296.60000610352</ele>
        <time>2013-06-01T07:58:56.000Z</time>
      </trkpt>
      <trkpt lat="43.63007" lon="5.58266">
        <ele>297.79998779297</ele>
        <time>2013-06-01T07:59:08.000Z</time>
      </trkpt>
      <trkpt lat="43.62975" lon="5.58257">
        <ele>297.79998779297</ele>
        <time>2013-06-01T07:59:17.000Z</time>
      </trkpt>
      <trkpt lat="43.62947" lon="5.58247">
        <ele>297</ele>
        <time>2013-06-01T07:59:24.000Z</time>
      </trkpt>
      <trkpt lat="43.62943" lon="5.58245">
        <ele>297</ele>
        <time>2013-06-01T07:59:25.000Z</time>
      </trkpt>
      <trkpt lat="43.62922" lon="5.58236">
        <ele>296.60000610352</ele>
        <time>2013-06-01T07:59:30.000Z</time>
      </trkpt>
      <trkpt lat="43.62914" lon="5.58231">
        <ele>296.79998779297</ele>
        <time>2013-06-01T07:59:32.000Z</time>
      </trkpt>
      <trkpt lat="43.62896" lon="5.58212">
        <ele>298.20001220703</ele>
        <time>2013-06-01T07:59:37.000Z</time>
      </trkpt>
      <trkpt lat="43.62893" lon="5.58209">
        <ele>298.20001220703</ele>
        <time>2013-06-01T07:59:38.000Z</time>
      </trkpt>
      <trkpt lat="43.6289" lon="5.58205">
        <ele>298.39999389648</ele>
        <time>2013-06-01T07:59:39.000Z</time>
      </trkpt>
      <trkpt lat="43.62861" lon="5.58158">
        <ele>299.20001220703</ele>
        <time>2013-06-01T07:59:51.000Z</time>
      </trkpt>
      <trkpt lat="43.62832" lon="5.58107">
        <ele>299.60000610352</ele>
        <time>2013-06-01T08:00:03.000Z</time>
      </trkpt>
      <trkpt lat="43.6283" lon="5.58085">
        <ele>301.79998779297</ele>
        <time>2013-06-01T08:00:07.000Z</time>
      </trkpt>
      <trkpt lat="43.62831" lon="5.58063">
        <ele>302.20001220703</ele>
        <time>2013-06-01T08:00:11.000Z</time>
      </trkpt>
      <trkpt lat="43.6283" lon="5.58046">
        <ele>302.39999389648</ele>
        <time>2013-06-01T08:00:14.000Z</time>
      </trkpt>
      <trkpt lat="43.6283" lon="5.58003">
        <ele>302.79998779297</ele>
        <time>2013-06-01T08:00:23.000Z</time>
      </trkpt>
      <trkpt lat="43.62838" lon="5.57933">
        <ele>307.20001220703</ele>
        <time>2013-06-01T08:00:37.000Z</time>
      </trkpt>
      <trkpt lat="43.62825" lon="5.57891">
        <ele>307.60000610352</ele>
        <time>2013-06-01T08:00:48.000Z</time>
      </trkpt>
      <trkpt lat="43.62803" lon="5.57879">
        <ele>306.79998779297</ele>
        <time>2013-06-01T08:00:56.000Z</time>
      </trkpt>
      <trkpt lat="43.62772" lon="5.57881">
        <ele>304.79998779297</ele>
        <time>2013-06-01T08:01:07.000Z</time>
      </trkpt>
      <trkpt lat="43.62747" lon="5.57875">
        <ele>303.60000610352</ele>
        <time>2013-06-01T08:01:17.000Z</time>
      </trkpt>
      <trkpt lat="43.62725" lon="5.57876">
        <ele>305.39999389648</ele>
        <time>2013-06-01T08:01:26.000Z</time>
      </trkpt>
      <trkpt lat="43.62708" lon="5.57882">
        <ele>307</ele>
        <time>2013-06-01T08:01:34.000Z</time>
      </trkpt>
      <trkpt lat="43.62699" lon="5.57879">
        <ele>307.79998779297</ele>
        <time>2013-06-01T08:01:38.000Z</time>
      </trkpt>
      <trkpt lat="43.62697" lon="5.57877">
        <ele>307.79998779297</ele>
        <time>2013-06-01T08:01:39.000Z</time>
      </trkpt>
      <trkpt lat="43.62695" lon="5.57874">
        <ele>308</ele>
        <time>2013-06-01T08:01:40.000Z</time>
      </trkpt>
      <trkpt lat="43.62694" lon="5.57872">
        <ele>308.20001220703</ele>
        <time>2013-06-01T08:01:41.000Z</time>
      </trkpt>
      <trkpt lat="43.62692" lon="5.57869">
        <ele>308.20001220703</ele>
        <time>2013-06-01T08:01:42.000Z</time>
      </trkpt>
      <trkpt lat="43.62691" lon="5.57866">
        <ele>308.39999389648</ele>
        <time>2013-06-01T08:01:43.000Z</time>
      </trkpt>
      <trkpt lat="43.62675" lon="5.57844">
        <ele>309.39999389648</ele>
        <time>2013-06-01T08:01:53.000Z</time>
      </trkpt>
      <trkpt lat="43.62672" lon="5.57839">
        <ele>309.60000610352</ele>
        <time>2013-06-01T08:01:55.000Z</time>
      </trkpt>
      <trkpt lat="43.62671" lon="5.57837">
        <ele>309.60000610352</ele>
        <time>2013-06-01T08:01:56.000Z</time>
      </trkpt>
      <trkpt lat="43.62646" lon="5.57821">
        <ele>312</ele>
        <time>2013-06-01T08:02:07.000Z</time>
      </trkpt>
      <trkpt lat="43.62619" lon="5.57805">
        <ele>314.60000610352</ele>
        <time>2013-06-01T08:02:19.000Z</time>
      </trkpt>
      <trkpt lat="43.62591" lon="5.57787">
        <ele>317.79998779297</ele>
        <time>2013-06-01T08:02:31.000Z</time>
      </trkpt>
      <trkpt lat="43.62567" lon="5.57796">
        <ele>318</ele>
        <time>2013-06-01T08:02:40.000Z</time>
      </trkpt>
      <trkpt lat="43.62551" lon="5.57809">
        <ele>317.79998779297</ele>
        <time>2013-06-01T08:02:49.000Z</time>
      </trkpt>
      <trkpt lat="43.62532" lon="5.57817">
        <ele>318.20001220703</ele>
        <time>2013-06-01T08:02:58.000Z</time>
      </trkpt>
      <trkpt lat="43.62511" lon="5.57823">
        <ele>318.79998779297</ele>
        <time>2013-06-01T08:03:08.000Z</time>
      </trkpt>
      <trkpt lat="43.62487" lon="5.57819">
        <ele>320.20001220703</ele>
        <time>2013-06-01T08:03:19.000Z</time>
      </trkpt>
      <trkpt lat="43.62458" lon="5.57819">
        <ele>322.20001220703</ele>
        <time>2013-06-01T08:03:32.000Z</time>
      </trkpt>
      <trkpt lat="43.62442" lon="5.57815">
        <ele>323.39999389648</ele>
        <time>2013-06-01T08:03:39.000Z</time>
      </trkpt>
      <trkpt lat="43.62432" lon="5.578">
        <ele>324.79998779297</ele>
        <time>2013-06-01T08:03:50.000Z</time>
      </trkpt>
      <trkpt lat="43.62432" lon="5.57797">
        <ele>325</ele>
        <time>2013-06-01T08:03:59.000Z</time>
      </trkpt>
      <trkpt lat="43.62433" lon="5.57798">
        <ele>324.79998779297</ele>
        <time>2013-06-01T08:04:31.000Z</time>
      </trkpt>
      <trkpt lat="43.62434" lon="5.57794">
        <ele>325</ele>
        <time>2013-06-01T08:04:53.000Z</time>
      </trkpt>
      <trkpt lat="43.62432" lon="5.57793">
        <ele>325.20001220703</ele>
        <time>2013-06-01T08:05:03.000Z</time>
      </trkpt>
      <trkpt lat="43.62431" lon="5.57794">
        <ele>325.20001220703</ele>
        <time>2013-06-01T08:05:23.000Z</time>
      </trkpt>
      <trkpt lat="43.62426" lon="5.57785">
        <ele>326.20001220703</ele>
        <time>2013-06-01T08:05:30.000Z</time>
      </trkpt>
      <trkpt lat="43.62425" lon="5.57784">
        <ele>326.20001220703</ele>
        <time>2013-06-01T08:05:31.000Z</time>
      </trkpt>
      <trkpt lat="43.62424" lon="5.57782">
        <ele>326.39999389648</ele>
        <time>2013-06-01T08:05:32.000Z</time>
      </trkpt>
      <trkpt lat="43.62423" lon="5.57781">
        <ele>326.60000610352</ele>
        <time>2013-06-01T08:05:33.000Z</time>
      </trkpt>
      <trkpt lat="43.62422" lon="5.57779">
        <ele>326.79998779297</ele>
        <time>2013-06-01T08:05:34.000Z</time>
      </trkpt>
      <trkpt lat="43.6242" lon="5.57778">
        <ele>327</ele>
        <time>2013-06-01T08:05:35.000Z</time>
      </trkpt>
      <trkpt lat="43.62419" lon="5.57777">
        <ele>327.20001220703</ele>
        <time>2013-06-01T08:05:36.000Z</time>
      </trkpt>
      <trkpt lat="43.62418" lon="5.57776">
        <ele>327.20001220703</ele>
        <time>2013-06-01T08:05:37.000Z</time>
      </trkpt>
      <trkpt lat="43.62396" lon="5.57766">
        <ele>330</ele>
        <time>2013-06-01T08:05:50.000Z</time>
      </trkpt>
      <trkpt lat="43.6237" lon="5.5776">
        <ele>333.20001220703</ele>
        <time>2013-06-01T08:06:04.000Z</time>
      </trkpt>
      <trkpt lat="43.62345" lon="5.57758">
        <ele>336</ele>
        <time>2013-06-01T08:06:17.000Z</time>
      </trkpt>
      <trkpt lat="43.62334" lon="5.57757">
        <ele>337.20001220703</ele>
        <time>2013-06-01T08:06:23.000Z</time>
      </trkpt>
      <trkpt lat="43.62332" lon="5.57758">
        <ele>337.39999389648</ele>
        <time>2013-06-01T08:06:24.000Z</time>
      </trkpt>
      <trkpt lat="43.62331" lon="5.57758">
        <ele>337.39999389648</ele>
        <time>2013-06-01T08:06:25.000Z</time>
      </trkpt>
      <trkpt lat="43.62329" lon="5.57757">
        <ele>337.60000610352</ele>
        <time>2013-06-01T08:06:26.000Z</time>
      </trkpt>
      <trkpt lat="43.62327" lon="5.57757">
        <ele>337.79998779297</ele>
        <time>2013-06-01T08:06:27.000Z</time>
      </trkpt>
      <trkpt lat="43.62325" lon="5.57756">
        <ele>338.20001220703</ele>
        <time>2013-06-01T08:06:28.000Z</time>
      </trkpt>
      <trkpt lat="43.62323" lon="5.57755">
        <ele>338.39999389648</ele>
        <time>2013-06-01T08:06:29.000Z</time>
      </trkpt>
      <trkpt lat="43.62303" lon="5.57754">
        <ele>340.20001220703</ele>
        <time>2013-06-01T08:06:40.000Z</time>
      </trkpt>
      <trkpt lat="43.62283" lon="5.57762">
        <ele>341</ele>
        <time>2013-06-01T08:06:51.000Z</time>
      </trkpt>
      <trkpt lat="43.62264" lon="5.57756">
        <ele>343.20001220703</ele>
        <time>2013-06-01T08:07:03.000Z</time>
      </trkpt>
      <trkpt lat="43.62263" lon="5.57755">
        <ele>343.39999389648</ele>
        <time>2013-06-01T08:07:04.000Z</time>
      </trkpt>
      <trkpt lat="43.62263" lon="5.57753">
        <ele>343.60000610352</ele>
        <time>2013-06-01T08:07:05.000Z</time>
      </trkpt>
      <trkpt lat="43.62262" lon="5.57751">
        <ele>343.79998779297</ele>
        <time>2013-06-01T08:07:06.000Z</time>
      </trkpt>
      <trkpt lat="43.62262" lon="5.57749">
        <ele>344</ele>
        <time>2013-06-01T08:07:07.000Z</time>
      </trkpt>
      <trkpt lat="43.62261" lon="5.57747">
        <ele>344.20001220703</ele>
        <time>2013-06-01T08:07:08.000Z</time>
      </trkpt>
      <trkpt lat="43.62261" lon="5.57745">
        <ele>344.39999389648</ele>
        <time>2013-06-01T08:07:09.000Z</time>
      </trkpt>
      <trkpt lat="43.62262" lon="5.57728">
        <ele>345.79998779297</ele>
        <time>2013-06-01T08:07:17.000Z</time>
      </trkpt>
      <trkpt lat="43.62274" lon="5.57702">
        <ele>346.79998779297</ele>
        <time>2013-06-01T08:07:30.000Z</time>
      </trkpt>
      <trkpt lat="43.62287" lon="5.57673">
        <ele>347.60000610352</ele>
        <time>2013-06-01T08:07:43.000Z</time>
      </trkpt>
      <trkpt lat="43.62291" lon="5.57639">
        <ele>347.39999389648</ele>
        <time>2013-06-01T08:07:56.000Z</time>
      </trkpt>
      <trkpt lat="43.62289" lon="5.57632">
        <ele>347.79998779297</ele>
        <time>2013-06-01T08:07:59.000Z</time>
      </trkpt>
      <trkpt lat="43.62278" lon="5.57624">
        <ele>349.60000610352</ele>
        <time>2013-06-01T08:08:05.000Z</time>
      </trkpt>
      <trkpt lat="43.62276" lon="5.57625">
        <ele>349.79998779297</ele>
        <time>2013-06-01T08:08:06.000Z</time>
      </trkpt>
      <trkpt lat="43.6225" lon="5.57639">
        <ele>353.60000610352</ele>
        <time>2013-06-01T08:08:19.000Z</time>
      </trkpt>
      <trkpt lat="43.62229" lon="5.57626">
        <ele>356.39999389648</ele>
        <time>2013-06-01T08:08:31.000Z</time>
      </trkpt>
      <trkpt lat="43.62227" lon="5.57602">
        <ele>358</ele>
        <time>2013-06-01T08:08:41.000Z</time>
      </trkpt>
      <trkpt lat="43.62227" lon="5.57598">
        <ele>358.20001220703</ele>
        <time>2013-06-01T08:08:43.000Z</time>
      </trkpt>
      <trkpt lat="43.62226" lon="5.57597">
        <ele>358.60000610352</ele>
        <time>2013-06-01T08:08:44.000Z</time>
      </trkpt>
      <trkpt lat="43.62224" lon="5.57596">
        <ele>358.79998779297</ele>
        <time>2013-06-01T08:08:45.000Z</time>
      </trkpt>
      <trkpt lat="43.62223" lon="5.57595">
        <ele>359.20001220703</ele>
        <time>2013-06-01T08:08:46.000Z</time>
      </trkpt>
      <trkpt lat="43.62221" lon="5.57595">
        <ele>359.39999389648</ele>
        <time>2013-06-01T08:08:47.000Z</time>
      </trkpt>
      <trkpt lat="43.6222" lon="5.57596">
        <ele>359.60000610352</ele>
        <time>2013-06-01T08:08:48.000Z</time>
      </trkpt>
      <trkpt lat="43.62218" lon="5.57598">
        <ele>359.60000610352</ele>
        <time>2013-06-01T08:08:49.000Z</time>
      </trkpt>
      <trkpt lat="43.62202" lon="5.57621">
        <ele>360.20001220703</ele>
        <time>2013-06-01T08:09:01.000Z</time>
      </trkpt>
      <trkpt lat="43.62185" lon="5.57627">
        <ele>361.79998779297</ele>
        <time>2013-06-01T08:09:12.000Z</time>
      </trkpt>
      <trkpt lat="43.62166" lon="5.57624">
        <ele>364.60000610352</ele>
        <time>2013-06-01T08:09:23.000Z</time>
      </trkpt>
      <trkpt lat="43.62142" lon="5.57614">
        <ele>369</ele>
        <time>2013-06-01T08:09:36.000Z</time>
      </trkpt>
      <trkpt lat="43.62121" lon="5.57606">
        <ele>372.39999389648</ele>
        <time>2013-06-01T08:09:46.000Z</time>
      </trkpt>
      <trkpt lat="43.62107" lon="5.57621">
        <ele>372.39999389648</ele>
        <time>2013-06-01T08:09:54.000Z</time>
      </trkpt>
      <trkpt lat="43.62107" lon="5.57653">
        <ele>368.39999389648</ele>
        <time>2013-06-01T08:10:04.000Z</time>
      </trkpt>
      <trkpt lat="43.62089" lon="5.5767">
        <ele>368.60000610352</ele>
        <time>2013-06-01T08:10:15.000Z</time>
      </trkpt>
      <trkpt lat="43.62087" lon="5.57668">
        <ele>369.20001220703</ele>
        <time>2013-06-01T08:10:16.000Z</time>
      </trkpt>
      <trkpt lat="43.62086" lon="5.57666">
        <ele>369.60000610352</ele>
        <time>2013-06-01T08:10:17.000Z</time>
      </trkpt>
      <trkpt lat="43.62085" lon="5.57662">
        <ele>370.20001220703</ele>
        <time>2013-06-01T08:10:18.000Z</time>
      </trkpt>
      <trkpt lat="43.62084" lon="5.57659">
        <ele>370.79998779297</ele>
        <time>2013-06-01T08:10:19.000Z</time>
      </trkpt>
      <trkpt lat="43.62084" lon="5.57655">
        <ele>371.20001220703</ele>
        <time>2013-06-01T08:10:20.000Z</time>
      </trkpt>
      <trkpt lat="43.62085" lon="5.57651">
        <ele>371.60000610352</ele>
        <time>2013-06-01T08:10:21.000Z</time>
      </trkpt>
      <trkpt lat="43.62086" lon="5.57647">
        <ele>372</ele>
        <time>2013-06-01T08:10:22.000Z</time>
      </trkpt>
      <trkpt lat="43.62087" lon="5.57643">
        <ele>372.20001220703</ele>
        <time>2013-06-01T08:10:23.000Z</time>
      </trkpt>
      <trkpt lat="43.62087" lon="5.57603">
        <ele>377.20001220703</ele>
        <time>2013-06-01T08:10:34.000Z</time>
      </trkpt>
      <trkpt lat="43.62098" lon="5.57576">
        <ele>378.60000610352</ele>
        <time>2013-06-01T08:10:42.000Z</time>
      </trkpt>
      <trkpt lat="43.62131" lon="5.57574">
        <ele>374.60000610352</ele>
        <time>2013-06-01T08:10:53.000Z</time>
      </trkpt>
      <trkpt lat="43.62156" lon="5.57556">
        <ele>371.79998779297</ele>
        <time>2013-06-01T08:11:04.000Z</time>
      </trkpt>
      <trkpt lat="43.62157" lon="5.57553">
        <ele>371.60000610352</ele>
        <time>2013-06-01T08:11:05.000Z</time>
      </trkpt>
      <trkpt lat="43.62157" lon="5.57539">
        <ele>372</ele>
        <time>2013-06-01T08:11:10.000Z</time>
      </trkpt>
      <trkpt lat="43.62143" lon="5.57526">
        <ele>374.60000610352</ele>
        <time>2013-06-01T08:11:20.000Z</time>
      </trkpt>
      <trkpt lat="43.62139" lon="5.57521">
        <ele>375.60000610352</ele>
        <time>2013-06-01T08:11:24.000Z</time>
      </trkpt>
      <trkpt lat="43.62137" lon="5.5752">
        <ele>375.79998779297</ele>
        <time>2013-06-01T08:11:25.000Z</time>
      </trkpt>
      <trkpt lat="43.62135" lon="5.57519">
        <ele>376.20001220703</ele>
        <time>2013-06-01T08:11:26.000Z</time>
      </trkpt>
      <trkpt lat="43.62134" lon="5.57519">
        <ele>376.39999389648</ele>
        <time>2013-06-01T08:11:27.000Z</time>
      </trkpt>
      <trkpt lat="43.62132" lon="5.57519">
        <ele>376.79998779297</ele>
        <time>2013-06-01T08:11:28.000Z</time>
      </trkpt>
      <trkpt lat="43.62112" lon="5.57514">
        <ele>380.60000610352</ele>
        <time>2013-06-01T08:11:40.000Z</time>
      </trkpt>
      <trkpt lat="43.62089" lon="5.57508">
        <ele>385.20001220703</ele>
        <time>2013-06-01T08:11:54.000Z</time>
      </trkpt>
      <trkpt lat="43.62068" lon="5.57502">
        <ele>388.79998779297</ele>
        <time>2013-06-01T08:12:08.000Z</time>
      </trkpt>
      <trkpt lat="43.6205" lon="5.57495">
        <ele>391</ele>
        <time>2013-06-01T08:12:19.000Z</time>
      </trkpt>
      <trkpt lat="43.62039" lon="5.57483">
        <ele>392</ele>
        <time>2013-06-01T08:12:28.000Z</time>
      </trkpt>
      <trkpt lat="43.62027" lon="5.57458">
        <ele>392.39999389648</ele>
        <time>2013-06-01T08:12:40.000Z</time>
      </trkpt>
      <trkpt lat="43.62025" lon="5.57454">
        <ele>392.60000610352</ele>
        <time>2013-06-01T08:12:42.000Z</time>
      </trkpt>
      <trkpt lat="43.62023" lon="5.57453">
        <ele>392.79998779297</ele>
        <time>2013-06-01T08:12:43.000Z</time>
      </trkpt>
      <trkpt lat="43.62021" lon="5.57451">
        <ele>393</ele>
        <time>2013-06-01T08:12:44.000Z</time>
      </trkpt>
      <trkpt lat="43.62003" lon="5.57433">
        <ele>395</ele>
        <time>2013-06-01T08:12:57.000Z</time>
      </trkpt>
      <trkpt lat="43.61983" lon="5.57412">
        <ele>397.60000610352</ele>
        <time>2013-06-01T08:13:11.000Z</time>
      </trkpt>
      <trkpt lat="43.61969" lon="5.57385">
        <ele>400.20001220703</ele>
        <time>2013-06-01T08:13:24.000Z</time>
      </trkpt>
      <trkpt lat="43.61956" lon="5.57353">
        <ele>403</ele>
        <time>2013-06-01T08:13:38.000Z</time>
      </trkpt>
      <trkpt lat="43.6195" lon="5.57341">
        <ele>404.20001220703</ele>
        <time>2013-06-01T08:13:44.000Z</time>
      </trkpt>
      <trkpt lat="43.61949" lon="5.57339">
        <ele>404.39999389648</ele>
        <time>2013-06-01T08:13:45.000Z</time>
      </trkpt>
      <trkpt lat="43.61948" lon="5.57337">
        <ele>404.60000610352</ele>
        <time>2013-06-01T08:13:46.000Z</time>
      </trkpt>
      <trkpt lat="43.61938" lon="5.5731">
        <ele>408</ele>
        <time>2013-06-01T08:13:59.000Z</time>
      </trkpt>
      <trkpt lat="43.61929" lon="5.57291">
        <ele>410.60000610352</ele>
        <time>2013-06-01T08:14:09.000Z</time>
      </trkpt>
      <trkpt lat="43.61914" lon="5.57292">
        <ele>412.60000610352</ele>
        <time>2013-06-01T08:14:19.000Z</time>
      </trkpt>
      <trkpt lat="43.61899" lon="5.57312">
        <ele>413.39999389648</ele>
        <time>2013-06-01T08:14:30.000Z</time>
      </trkpt>
      <trkpt lat="43.61883" lon="5.57332">
        <ele>414.39999389648</ele>
        <time>2013-06-01T08:14:41.000Z</time>
      </trkpt>
      <trkpt lat="43.61867" lon="5.57346">
        <ele>416</ele>
        <time>2013-06-01T08:14:51.000Z</time>
      </trkpt>
      <trkpt lat="43.61844" lon="5.57356">
        <ele>418.60000610352</ele>
        <time>2013-06-01T08:15:03.000Z</time>
      </trkpt>
      <trkpt lat="43.61821" lon="5.5735">
        <ele>420.60000610352</ele>
        <time>2013-06-01T08:15:14.000Z</time>
      </trkpt>
      <trkpt lat="43.61811" lon="5.57331">
        <ele>422</ele>
        <time>2013-06-01T08:15:23.000Z</time>
      </trkpt>
      <trkpt lat="43.6181" lon="5.57307">
        <ele>423.20001220703</ele>
        <time>2013-06-01T08:15:33.000Z</time>
      </trkpt>
      <trkpt lat="43.618" lon="5.57284">
        <ele>425</ele>
        <time>2013-06-01T08:15:46.000Z</time>
      </trkpt>
      <trkpt lat="43.61789" lon="5.57265">
        <ele>426.79998779297</ele>
        <time>2013-06-01T08:15:56.000Z</time>
      </trkpt>
      <trkpt lat="43.61776" lon="5.57239">
        <ele>428.60000610352</ele>
        <time>2013-06-01T08:16:08.000Z</time>
      </trkpt>
      <trkpt lat="43.61758" lon="5.57213">
        <ele>429.39999389648</ele>
        <time>2013-06-01T08:16:19.000Z</time>
      </trkpt>
      <trkpt lat="43.61732" lon="5.57178">
        <ele>432</ele>
        <time>2013-06-01T08:16:31.000Z</time>
      </trkpt>
      <trkpt lat="43.61723" lon="5.57145">
        <ele>432.39999389648</ele>
        <time>2013-06-01T08:16:39.000Z</time>
      </trkpt>
      <trkpt lat="43.61713" lon="5.57105">
        <ele>432.79998779297</ele>
        <time>2013-06-01T08:16:48.000Z</time>
      </trkpt>
      <trkpt lat="43.61698" lon="5.57081">
        <ele>434.39999389648</ele>
        <time>2013-06-01T08:16:54.000Z</time>
      </trkpt>
      <trkpt lat="43.61695" lon="5.57077">
        <ele>434.79998779297</ele>
        <time>2013-06-01T08:16:55.000Z</time>
      </trkpt>
      <trkpt lat="43.61658" lon="5.57036">
        <ele>437</ele>
        <time>2013-06-01T08:17:06.000Z</time>
      </trkpt>
      <trkpt lat="43.61623" lon="5.57007">
        <ele>437.39999389648</ele>
        <time>2013-06-01T08:17:16.000Z</time>
      </trkpt>
      <trkpt lat="43.61618" lon="5.57006">
        <ele>437.60000610352</ele>
        <time>2013-06-01T08:17:17.000Z</time>
      </trkpt>
      <trkpt lat="43.61614" lon="5.57005">
        <ele>438</ele>
        <time>2013-06-01T08:17:18.000Z</time>
      </trkpt>
      <trkpt lat="43.6161" lon="5.57005">
        <ele>438.20001220703</ele>
        <time>2013-06-01T08:17:19.000Z</time>
      </trkpt>
      <trkpt lat="43.61605" lon="5.57006">
        <ele>438.60000610352</ele>
        <time>2013-06-01T08:17:20.000Z</time>
      </trkpt>
      <trkpt lat="43.61601" lon="5.57007">
        <ele>439</ele>
        <time>2013-06-01T08:17:21.000Z</time>
      </trkpt>
      <trkpt lat="43.61596" lon="5.57008">
        <ele>439.39999389648</ele>
        <time>2013-06-01T08:17:22.000Z</time>
      </trkpt>
      <trkpt lat="43.61591" lon="5.57009">
        <ele>439.79998779297</ele>
        <time>2013-06-01T08:17:23.000Z</time>
      </trkpt>
      <trkpt lat="43.61587" lon="5.5701">
        <ele>440</ele>
        <time>2013-06-01T08:17:24.000Z</time>
      </trkpt>
      <trkpt lat="43.61582" lon="5.57009">
        <ele>440.20001220703</ele>
        <time>2013-06-01T08:17:25.000Z</time>
      </trkpt>
      <trkpt lat="43.61579" lon="5.57007">
        <ele>440.39999389648</ele>
        <time>2013-06-01T08:17:26.000Z</time>
      </trkpt>
      <trkpt lat="43.61576" lon="5.57003">
        <ele>440.39999389648</ele>
        <time>2013-06-01T08:17:27.000Z</time>
      </trkpt>
      <trkpt lat="43.61575" lon="5.56997">
        <ele>440.39999389648</ele>
        <time>2013-06-01T08:17:28.000Z</time>
      </trkpt>
      <trkpt lat="43.61573" lon="5.56992">
        <ele>440.39999389648</ele>
        <time>2013-06-01T08:17:29.000Z</time>
      </trkpt>
      <trkpt lat="43.61572" lon="5.56986">
        <ele>440.60000610352</ele>
        <time>2013-06-01T08:17:30.000Z</time>
      </trkpt>
      <trkpt lat="43.61572" lon="5.5698">
        <ele>440.60000610352</ele>
        <time>2013-06-01T08:17:31.000Z</time>
      </trkpt>
      <trkpt lat="43.61571" lon="5.56962">
        <ele>441</ele>
        <time>2013-06-01T08:17:34.000Z</time>
      </trkpt>
      <trkpt lat="43.6157" lon="5.5695">
        <ele>441.20001220703</ele>
        <time>2013-06-01T08:17:36.000Z</time>
      </trkpt>
      <trkpt lat="43.61569" lon="5.56945">
        <ele>441.20001220703</ele>
        <time>2013-06-01T08:17:37.000Z</time>
      </trkpt>
      <trkpt lat="43.61568" lon="5.56939">
        <ele>441.39999389648</ele>
        <time>2013-06-01T08:17:38.000Z</time>
      </trkpt>
      <trkpt lat="43.61563" lon="5.56918">
        <ele>441.79998779297</ele>
        <time>2013-06-01T08:17:42.000Z</time>
      </trkpt>
      <trkpt lat="43.6156" lon="5.56914">
        <ele>442</ele>
        <time>2013-06-01T08:17:43.000Z</time>
      </trkpt>
      <trkpt lat="43.61557" lon="5.56911">
        <ele>442.20001220703</ele>
        <time>2013-06-01T08:17:44.000Z</time>
      </trkpt>
      <trkpt lat="43.61554" lon="5.56909">
        <ele>442.39999389648</ele>
        <time>2013-06-01T08:17:45.000Z</time>
      </trkpt>
      <trkpt lat="43.6155" lon="5.56908">
        <ele>442.60000610352</ele>
        <time>2013-06-01T08:17:46.000Z</time>
      </trkpt>
      <trkpt lat="43.61547" lon="5.56908">
        <ele>442.60000610352</ele>
        <time>2013-06-01T08:17:47.000Z</time>
      </trkpt>
      <trkpt lat="43.61544" lon="5.5691">
        <ele>442.79998779297</ele>
        <time>2013-06-01T08:17:48.000Z</time>
      </trkpt>
      <trkpt lat="43.61541" lon="5.56913">
        <ele>443</ele>
        <time>2013-06-01T08:17:49.000Z</time>
      </trkpt>
      <trkpt lat="43.61538" lon="5.56917">
        <ele>443</ele>
        <time>2013-06-01T08:17:50.000Z</time>
      </trkpt>
      <trkpt lat="43.61537" lon="5.56922">
        <ele>443</ele>
        <time>2013-06-01T08:17:51.000Z</time>
      </trkpt>
      <trkpt lat="43.61536" lon="5.56928">
        <ele>443</ele>
        <time>2013-06-01T08:17:52.000Z</time>
      </trkpt>
      <trkpt lat="43.61535" lon="5.56934">
        <ele>443</ele>
        <time>2013-06-01T08:17:53.000Z</time>
      </trkpt>
      <trkpt lat="43.61535" lon="5.5694">
        <ele>443</ele>
        <time>2013-06-01T08:17:54.000Z</time>
      </trkpt>
      <trkpt lat="43.61533" lon="5.56945">
        <ele>443</ele>
        <time>2013-06-01T08:17:55.000Z</time>
      </trkpt>
      <trkpt lat="43.61532" lon="5.56951">
        <ele>443</ele>
        <time>2013-06-01T08:17:56.000Z</time>
      </trkpt>
      <trkpt lat="43.6153" lon="5.56956">
        <ele>443</ele>
        <time>2013-06-01T08:17:57.000Z</time>
      </trkpt>
      <trkpt lat="43.61528" lon="5.5696">
        <ele>443</ele>
        <time>2013-06-01T08:17:58.000Z</time>
      </trkpt>
      <trkpt lat="43.61525" lon="5.56965">
        <ele>443.20001220703</ele>
        <time>2013-06-01T08:17:59.000Z</time>
      </trkpt>
      <trkpt lat="43.61522" lon="5.56969">
        <ele>443.20001220703</ele>
        <time>2013-06-01T08:18:00.000Z</time>
      </trkpt>
      <trkpt lat="43.61519" lon="5.56973">
        <ele>443.39999389648</ele>
        <time>2013-06-01T08:18:01.000Z</time>
      </trkpt>
      <trkpt lat="43.61515" lon="5.56976">
        <ele>443.39999389648</ele>
        <time>2013-06-01T08:18:02.000Z</time>
      </trkpt>
      <trkpt lat="43.61512" lon="5.56978">
        <ele>443.60000610352</ele>
        <time>2013-06-01T08:18:03.000Z</time>
      </trkpt>
      <trkpt lat="43.61507" lon="5.56981">
        <ele>443.79998779297</ele>
        <time>2013-06-01T08:18:04.000Z</time>
      </trkpt>
      <trkpt lat="43.61503" lon="5.56982">
        <ele>444</ele>
        <time>2013-06-01T08:18:05.000Z</time>
      </trkpt>
      <trkpt lat="43.61499" lon="5.56983">
        <ele>444.20001220703</ele>
        <time>2013-06-01T08:18:06.000Z</time>
      </trkpt>
      <trkpt lat="43.61485" lon="5.56985">
        <ele>444.39999389648</ele>
        <time>2013-06-01T08:18:09.000Z</time>
      </trkpt>
      <trkpt lat="43.61453" lon="5.56983">
        <ele>445.20001220703</ele>
        <time>2013-06-01T08:18:19.000Z</time>
      </trkpt>
      <trkpt lat="43.61416" lon="5.56982">
        <ele>446</ele>
        <time>2013-06-01T08:18:31.000Z</time>
      </trkpt>
      <trkpt lat="43.61387" lon="5.56981">
        <ele>446.79998779297</ele>
        <time>2013-06-01T08:18:41.000Z</time>
      </trkpt>
      <trkpt lat="43.61356" lon="5.56967">
        <ele>449</ele>
        <time>2013-06-01T08:18:52.000Z</time>
      </trkpt>
      <trkpt lat="43.61343" lon="5.56961">
        <ele>450.20001220703</ele>
        <time>2013-06-01T08:18:57.000Z</time>
      </trkpt>
      <trkpt lat="43.61341" lon="5.56961">
        <ele>450.20001220703</ele>
        <time>2013-06-01T08:18:58.000Z</time>
      </trkpt>
      <trkpt lat="43.61338" lon="5.5696">
        <ele>450.39999389648</ele>
        <time>2013-06-01T08:18:59.000Z</time>
      </trkpt>
      <trkpt lat="43.61336" lon="5.5696">
        <ele>450.60000610352</ele>
        <time>2013-06-01T08:19:00.000Z</time>
      </trkpt>
      <trkpt lat="43.61333" lon="5.5696">
        <ele>450.79998779297</ele>
        <time>2013-06-01T08:19:01.000Z</time>
      </trkpt>
      <trkpt lat="43.61328" lon="5.5696">
        <ele>450.39999389648</ele>
        <time>2013-06-01T08:19:03.000Z</time>
      </trkpt>
      <trkpt lat="43.61292" lon="5.56981">
        <ele>446</ele>
        <time>2013-06-01T08:19:16.000Z</time>
      </trkpt>
      <trkpt lat="43.61255" lon="5.56973">
        <ele>444.60000610352</ele>
        <time>2013-06-01T08:19:27.000Z</time>
      </trkpt>
      <trkpt lat="43.61251" lon="5.5697">
        <ele>444.39999389648</ele>
        <time>2013-06-01T08:19:28.000Z</time>
      </trkpt>
      <trkpt lat="43.61248" lon="5.56967">
        <ele>444.39999389648</ele>
        <time>2013-06-01T08:19:29.000Z</time>
      </trkpt>
      <trkpt lat="43.61233" lon="5.56952">
        <ele>444.79998779297</ele>
        <time>2013-06-01T08:19:33.000Z</time>
      </trkpt>
      <trkpt lat="43.6123" lon="5.56948">
        <ele>444.79998779297</ele>
        <time>2013-06-01T08:19:34.000Z</time>
      </trkpt>
      <trkpt lat="43.61226" lon="5.56944">
        <ele>445</ele>
        <time>2013-06-01T08:19:35.000Z</time>
      </trkpt>
      <trkpt lat="43.61222" lon="5.5694">
        <ele>444.79998779297</ele>
        <time>2013-06-01T08:19:36.000Z</time>
      </trkpt>
      <trkpt lat="43.61217" lon="5.56937">
        <ele>444.79998779297</ele>
        <time>2013-06-01T08:19:37.000Z</time>
      </trkpt>
      <trkpt lat="43.61212" lon="5.56935">
        <ele>444.79998779297</ele>
        <time>2013-06-01T08:19:38.000Z</time>
      </trkpt>
      <trkpt lat="43.61207" lon="5.56933">
        <ele>444.60000610352</ele>
        <time>2013-06-01T08:19:39.000Z</time>
      </trkpt>
      <trkpt lat="43.61202" lon="5.56933">
        <ele>444.39999389648</ele>
        <time>2013-06-01T08:19:40.000Z</time>
      </trkpt>
      <trkpt lat="43.61197" lon="5.56933">
        <ele>444.20001220703</ele>
        <time>2013-06-01T08:19:41.000Z</time>
      </trkpt>
      <trkpt lat="43.61192" lon="5.56933">
        <ele>444</ele>
        <time>2013-06-01T08:19:42.000Z</time>
      </trkpt>
      <trkpt lat="43.6117" lon="5.56937">
        <ele>443.20001220703</ele>
        <time>2013-06-01T08:19:47.000Z</time>
      </trkpt>
      <trkpt lat="43.61154" lon="5.56949">
        <ele>444.39999389648</ele>
        <time>2013-06-01T08:19:51.000Z</time>
      </trkpt>
      <trkpt lat="43.6115" lon="5.56952">
        <ele>444.79998779297</ele>
        <time>2013-06-01T08:19:52.000Z</time>
      </trkpt>
      <trkpt lat="43.61146" lon="5.56955">
        <ele>445.20001220703</ele>
        <time>2013-06-01T08:19:53.000Z</time>
      </trkpt>
      <trkpt lat="43.61143" lon="5.56958">
        <ele>445.60000610352</ele>
        <time>2013-06-01T08:19:54.000Z</time>
      </trkpt>
      <trkpt lat="43.6114" lon="5.56961">
        <ele>445.79998779297</ele>
        <time>2013-06-01T08:19:55.000Z</time>
      </trkpt>
      <trkpt lat="43.61116" lon="5.57008">
        <ele>449.39999389648</ele>
        <time>2013-06-01T08:20:07.000Z</time>
      </trkpt>
      <trkpt lat="43.61098" lon="5.57048">
        <ele>448.79998779297</ele>
        <time>2013-06-01T08:20:17.000Z</time>
      </trkpt>
      <trkpt lat="43.61075" lon="5.57046">
        <ele>450</ele>
        <time>2013-06-01T08:20:24.000Z</time>
      </trkpt>
      <trkpt lat="43.61058" lon="5.57029">
        <ele>450</ele>
        <time>2013-06-01T08:20:29.000Z</time>
      </trkpt>
      <trkpt lat="43.61054" lon="5.57026">
        <ele>450</ele>
        <time>2013-06-01T08:20:30.000Z</time>
      </trkpt>
      <trkpt lat="43.61037" lon="5.57008">
        <ele>449.60000610352</ele>
        <time>2013-06-01T08:20:35.000Z</time>
      </trkpt>
      <trkpt lat="43.61033" lon="5.57004">
        <ele>449.39999389648</ele>
        <time>2013-06-01T08:20:36.000Z</time>
      </trkpt>
      <trkpt lat="43.61028" lon="5.57002">
        <ele>449.20001220703</ele>
        <time>2013-06-01T08:20:37.000Z</time>
      </trkpt>
      <trkpt lat="43.61023" lon="5.57">
        <ele>448.79998779297</ele>
        <time>2013-06-01T08:20:38.000Z</time>
      </trkpt>
      <trkpt lat="43.61017" lon="5.57">
        <ele>448.39999389648</ele>
        <time>2013-06-01T08:20:39.000Z</time>
      </trkpt>
      <trkpt lat="43.61012" lon="5.57001">
        <ele>447.79998779297</ele>
        <time>2013-06-01T08:20:40.000Z</time>
      </trkpt>
      <trkpt lat="43.61006" lon="5.57003">
        <ele>447.39999389648</ele>
        <time>2013-06-01T08:20:41.000Z</time>
      </trkpt>
      <trkpt lat="43.6099" lon="5.57007">
        <ele>447</ele>
        <time>2013-06-01T08:20:44.000Z</time>
      </trkpt>
      <trkpt lat="43.60982" lon="5.57008">
        <ele>447.20001220703</ele>
        <time>2013-06-01T08:20:46.000Z</time>
      </trkpt>
      <trkpt lat="43.60941" lon="5.56995">
        <ele>449</ele>
        <time>2013-06-01T08:20:57.000Z</time>
      </trkpt>
      <trkpt lat="43.60906" lon="5.5697">
        <ele>451.39999389648</ele>
        <time>2013-06-01T08:21:08.000Z</time>
      </trkpt>
      <trkpt lat="43.60893" lon="5.56958">
        <ele>452.79998779297</ele>
        <time>2013-06-01T08:21:16.000Z</time>
      </trkpt>
      <trkpt lat="43.60892" lon="5.56957">
        <ele>453</ele>
        <time>2013-06-01T08:21:17.000Z</time>
      </trkpt>
      <trkpt lat="43.6089" lon="5.56956">
        <ele>453.20001220703</ele>
        <time>2013-06-01T08:21:18.000Z</time>
      </trkpt>
      <trkpt lat="43.60889" lon="5.56955">
        <ele>453.39999389648</ele>
        <time>2013-06-01T08:21:19.000Z</time>
      </trkpt>
      <trkpt lat="43.60887" lon="5.56954">
        <ele>453.60000610352</ele>
        <time>2013-06-01T08:21:20.000Z</time>
      </trkpt>
      <trkpt lat="43.60885" lon="5.56953">
        <ele>453.79998779297</ele>
        <time>2013-06-01T08:21:21.000Z</time>
      </trkpt>
      <trkpt lat="43.60884" lon="5.56952">
        <ele>454</ele>
        <time>2013-06-01T08:21:22.000Z</time>
      </trkpt>
      <trkpt lat="43.60867" lon="5.56939">
        <ele>456.60000610352</ele>
        <time>2013-06-01T08:21:33.000Z</time>
      </trkpt>
      <trkpt lat="43.60852" lon="5.56924">
        <ele>460.39999389648</ele>
        <time>2013-06-01T08:21:45.000Z</time>
      </trkpt>
      <trkpt lat="43.60844" lon="5.56917">
        <ele>462.60000610352</ele>
        <time>2013-06-01T08:21:52.000Z</time>
      </trkpt>
      <trkpt lat="43.60834" lon="5.5691">
        <ele>463</ele>
        <time>2013-06-01T08:21:59.000Z</time>
      </trkpt>
      <trkpt lat="43.60828" lon="5.56906">
        <ele>463</ele>
        <time>2013-06-01T08:22:04.000Z</time>
      </trkpt>
      <trkpt lat="43.60821" lon="5.56902">
        <ele>463</ele>
        <time>2013-06-01T08:22:09.000Z</time>
      </trkpt>
      <trkpt lat="43.60803" lon="5.56891">
        <ele>463.20001220703</ele>
        <time>2013-06-01T08:22:21.000Z</time>
      </trkpt>
      <trkpt lat="43.60791" lon="5.5688">
        <ele>463.39999389648</ele>
        <time>2013-06-01T08:22:31.000Z</time>
      </trkpt>
      <trkpt lat="43.60789" lon="5.56879">
        <ele>463.39999389648</ele>
        <time>2013-06-01T08:22:32.000Z</time>
      </trkpt>
      <trkpt lat="43.60771" lon="5.56869">
        <ele>464.60000610352</ele>
        <time>2013-06-01T08:22:45.000Z</time>
      </trkpt>
      <trkpt lat="43.60768" lon="5.56869">
        <ele>464.79998779297</ele>
        <time>2013-06-01T08:22:47.000Z</time>
      </trkpt>
      <trkpt lat="43.60744" lon="5.56868">
        <ele>467</ele>
        <time>2013-06-01T08:23:00.000Z</time>
      </trkpt>
      <trkpt lat="43.60723" lon="5.56871">
        <ele>467.79998779297</ele>
        <time>2013-06-01T08:23:10.000Z</time>
      </trkpt>
      <trkpt lat="43.60698" lon="5.56875">
        <ele>469.20001220703</ele>
        <time>2013-06-01T08:23:23.000Z</time>
      </trkpt>
      <trkpt lat="43.60685" lon="5.56881">
        <ele>470.39999389648</ele>
        <time>2013-06-01T08:23:30.000Z</time>
      </trkpt>
      <trkpt lat="43.6067" lon="5.56904">
        <ele>475.20001220703</ele>
        <time>2013-06-01T08:23:41.000Z</time>
      </trkpt>
      <trkpt lat="43.60653" lon="5.56932">
        <ele>478.79998779297</ele>
        <time>2013-06-01T08:23:53.000Z</time>
      </trkpt>
      <trkpt lat="43.60644" lon="5.56942">
        <ele>479.60000610352</ele>
        <time>2013-06-01T08:23:58.000Z</time>
      </trkpt>
      <trkpt lat="43.60642" lon="5.56945">
        <ele>479.60000610352</ele>
        <time>2013-06-01T08:23:59.000Z</time>
      </trkpt>
      <trkpt lat="43.60626" lon="5.56966">
        <ele>481.79998779297</ele>
        <time>2013-06-01T08:24:09.000Z</time>
      </trkpt>
      <trkpt lat="43.60605" lon="5.5699">
        <ele>485.39999389648</ele>
        <time>2013-06-01T08:24:20.000Z</time>
      </trkpt>
      <trkpt lat="43.60582" lon="5.57018">
        <ele>488.60000610352</ele>
        <time>2013-06-01T08:24:32.000Z</time>
      </trkpt>
      <trkpt lat="43.6056" lon="5.5704">
        <ele>489</ele>
        <time>2013-06-01T08:24:43.000Z</time>
      </trkpt>
      <trkpt lat="43.60536" lon="5.57061">
        <ele>490.39999389648</ele>
        <time>2013-06-01T08:24:54.000Z</time>
      </trkpt>
      <trkpt lat="43.60512" lon="5.57078">
        <ele>492.60000610352</ele>
        <time>2013-06-01T08:25:05.000Z</time>
      </trkpt>
      <trkpt lat="43.60484" lon="5.57095">
        <ele>492.60000610352</ele>
        <time>2013-06-01T08:25:16.000Z</time>
      </trkpt>
      <trkpt lat="43.60456" lon="5.57111">
        <ele>491.39999389648</ele>
        <time>2013-06-01T08:25:27.000Z</time>
      </trkpt>
      <trkpt lat="43.60424" lon="5.57125">
        <ele>491.20001220703</ele>
        <time>2013-06-01T08:25:38.000Z</time>
      </trkpt>
      <trkpt lat="43.60366" lon="5.5715">
        <ele>489.39999389648</ele>
        <time>2013-06-01T08:25:52.000Z</time>
      </trkpt>
      <trkpt lat="43.60354" lon="5.57155">
        <ele>489.60000610352</ele>
        <time>2013-06-01T08:25:55.000Z</time>
      </trkpt>
      <trkpt lat="43.60305" lon="5.5718">
        <ele>491.20001220703</ele>
        <time>2013-06-01T08:26:09.000Z</time>
      </trkpt>
      <trkpt lat="43.60279" lon="5.57191">
        <ele>492.20001220703</ele>
        <time>2013-06-01T08:26:19.000Z</time>
      </trkpt>
      <trkpt lat="43.60245" lon="5.57207">
        <ele>495</ele>
        <time>2013-06-01T08:26:33.000Z</time>
      </trkpt>
      <trkpt lat="43.60221" lon="5.57219">
        <ele>498.20001220703</ele>
        <time>2013-06-01T08:26:45.000Z</time>
      </trkpt>
      <trkpt lat="43.60207" lon="5.57225">
        <ele>500</ele>
        <time>2013-06-01T08:26:52.000Z</time>
      </trkpt>
      <trkpt lat="43.60205" lon="5.57224">
        <ele>500.39999389648</ele>
        <time>2013-06-01T08:26:53.000Z</time>
      </trkpt>
      <trkpt lat="43.60187" lon="5.57231">
        <ele>502.79998779297</ele>
        <time>2013-06-01T08:27:04.000Z</time>
      </trkpt>
      <trkpt lat="43.60171" lon="5.5724">
        <ele>505.20001220703</ele>
        <time>2013-06-01T08:27:14.000Z</time>
      </trkpt>
      <trkpt lat="43.60149" lon="5.57245">
        <ele>506.20001220703</ele>
        <time>2013-06-01T08:27:27.000Z</time>
      </trkpt>
      <trkpt lat="43.60138" lon="5.57244">
        <ele>506.60000610352</ele>
        <time>2013-06-01T08:27:33.000Z</time>
      </trkpt>
      <trkpt lat="43.6012" lon="5.57226">
        <ele>507.20001220703</ele>
        <time>2013-06-01T08:27:45.000Z</time>
      </trkpt>
      <trkpt lat="43.60105" lon="5.57203">
        <ele>508.39999389648</ele>
        <time>2013-06-01T08:27:55.000Z</time>
      </trkpt>
      <trkpt lat="43.60084" lon="5.57171">
        <ele>510.79998779297</ele>
        <time>2013-06-01T08:28:06.000Z</time>
      </trkpt>
      <trkpt lat="43.60055" lon="5.5716">
        <ele>511.39999389648</ele>
        <time>2013-06-01T08:28:18.000Z</time>
      </trkpt>
      <trkpt lat="43.6003" lon="5.57156">
        <ele>512</ele>
        <time>2013-06-01T08:28:29.000Z</time>
      </trkpt>
      <trkpt lat="43.60017" lon="5.5715">
        <ele>512.40002441406</ele>
        <time>2013-06-01T08:28:36.000Z</time>
      </trkpt>
      <trkpt lat="43.60016" lon="5.57149">
        <ele>512.40002441406</ele>
        <time>2013-06-01T08:28:37.000Z</time>
      </trkpt>
      <trkpt lat="43.60014" lon="5.57148">
        <ele>512.40002441406</ele>
        <time>2013-06-01T08:28:38.000Z</time>
      </trkpt>
      <trkpt lat="43.60012" lon="5.57147">
        <ele>512.40002441406</ele>
        <time>2013-06-01T08:28:39.000Z</time>
      </trkpt>
      <trkpt lat="43.6001" lon="5.57146">
        <ele>512.40002441406</ele>
        <time>2013-06-01T08:28:40.000Z</time>
      </trkpt>
      <trkpt lat="43.59991" lon="5.57131">
        <ele>514</ele>
        <time>2013-06-01T08:28:51.000Z</time>
      </trkpt>
      <trkpt lat="43.59985" lon="5.57121">
        <ele>515</ele>
        <time>2013-06-01T08:29:01.000Z</time>
      </trkpt>
      <trkpt lat="43.59986" lon="5.57121">
        <ele>514.79998779297</ele>
        <time>2013-06-01T08:29:20.000Z</time>
      </trkpt>
      <trkpt lat="43.59984" lon="5.57121">
        <ele>515.40002441406</ele>
        <time>2013-06-01T08:29:42.000Z</time>
      </trkpt>
      <trkpt lat="43.59983" lon="5.57122">
        <ele>515.59997558594</ele>
        <time>2013-06-01T08:29:59.000Z</time>
      </trkpt>
      <trkpt lat="43.59985" lon="5.57122">
        <ele>515.20001220703</ele>
        <time>2013-06-01T08:30:26.000Z</time>
      </trkpt>
      <trkpt lat="43.59982" lon="5.57117">
        <ele>515.79998779297</ele>
        <time>2013-06-01T08:30:35.000Z</time>
      </trkpt>
      <trkpt lat="43.59969" lon="5.57087">
        <ele>518.40002441406</ele>
        <time>2013-06-01T08:30:47.000Z</time>
      </trkpt>
      <trkpt lat="43.5996" lon="5.57055">
        <ele>523.20001220703</ele>
        <time>2013-06-01T08:30:58.000Z</time>
      </trkpt>
      <trkpt lat="43.59961" lon="5.57035">
        <ele>524.40002441406</ele>
        <time>2013-06-01T08:31:06.000Z</time>
      </trkpt>
      <trkpt lat="43.59962" lon="5.57031">
        <ele>524.59997558594</ele>
        <time>2013-06-01T08:31:22.000Z</time>
      </trkpt>
      <trkpt lat="43.59963" lon="5.57028">
        <ele>524.59997558594</ele>
        <time>2013-06-01T08:31:23.000Z</time>
      </trkpt>
      <trkpt lat="43.59964" lon="5.57024">
        <ele>524.59997558594</ele>
        <time>2013-06-01T08:31:24.000Z</time>
      </trkpt>
      <trkpt lat="43.59989" lon="5.56968">
        <ele>525</ele>
        <time>2013-06-01T08:31:37.000Z</time>
      </trkpt>
      <trkpt lat="43.60003" lon="5.56941">
        <ele>526.59997558594</ele>
        <time>2013-06-01T08:31:44.000Z</time>
      </trkpt>
      <trkpt lat="43.60004" lon="5.56937">
        <ele>526.79998779297</ele>
        <time>2013-06-01T08:31:45.000Z</time>
      </trkpt>
      <trkpt lat="43.60027" lon="5.56905">
        <ele>525.79998779297</ele>
        <time>2013-06-01T08:31:55.000Z</time>
      </trkpt>
      <trkpt lat="43.60052" lon="5.56876">
        <ele>524.20001220703</ele>
        <time>2013-06-01T08:32:05.000Z</time>
      </trkpt>
      <trkpt lat="43.60069" lon="5.56847">
        <ele>525.59997558594</ele>
        <time>2013-06-01T08:32:15.000Z</time>
      </trkpt>
      <trkpt lat="43.60081" lon="5.5682">
        <ele>526.79998779297</ele>
        <time>2013-06-01T08:32:25.000Z</time>
      </trkpt>
      <trkpt lat="43.60082" lon="5.56817">
        <ele>526.79998779297</ele>
        <time>2013-06-01T08:32:33.000Z</time>
      </trkpt>
      <trkpt lat="43.60083" lon="5.56817">
        <ele>526.59997558594</ele>
        <time>2013-06-01T08:32:48.000Z</time>
      </trkpt>
      <trkpt lat="43.60085" lon="5.56818">
        <ele>526.20001220703</ele>
        <time>2013-06-01T08:33:03.000Z</time>
      </trkpt>
      <trkpt lat="43.60086" lon="5.56818">
        <ele>526.20001220703</ele>
        <time>2013-06-01T08:33:16.000Z</time>
      </trkpt>
      <trkpt lat="43.60086" lon="5.5682">
        <ele>526</ele>
        <time>2013-06-01T08:33:29.000Z</time>
      </trkpt>
      <trkpt lat="43.60084" lon="5.56819">
        <ele>526.40002441406</ele>
        <time>2013-06-01T08:33:45.000Z</time>
      </trkpt>
      <trkpt lat="43.60085" lon="5.5682">
        <ele>526.20001220703</ele>
        <time>2013-06-01T08:34:07.000Z</time>
      </trkpt>
      <trkpt lat="43.60082" lon="5.56816">
        <ele>526.79998779297</ele>
        <time>2013-06-01T08:34:30.000Z</time>
      </trkpt>
      <trkpt lat="43.6008" lon="5.56811">
        <ele>527.40002441406</ele>
        <time>2013-06-01T08:34:56.000Z</time>
      </trkpt>
      <trkpt lat="43.60079" lon="5.56816">
        <ele>527.20001220703</ele>
        <time>2013-06-01T08:35:21.000Z</time>
      </trkpt>
      <trkpt lat="43.60081" lon="5.56817">
        <ele>527</ele>
        <time>2013-06-01T08:35:46.000Z</time>
      </trkpt>
      <trkpt lat="43.60082" lon="5.56815">
        <ele>526.79998779297</ele>
        <time>2013-06-01T08:36:07.000Z</time>
      </trkpt>
      <trkpt lat="43.60082" lon="5.56816">
        <ele>526.79998779297</ele>
        <time>2013-06-01T08:36:19.000Z</time>
      </trkpt>
      <trkpt lat="43.60086" lon="5.56808">
        <ele>526.59997558594</ele>
        <time>2013-06-01T08:36:38.000Z</time>
      </trkpt>
      <trkpt lat="43.60087" lon="5.56803">
        <ele>526.79998779297</ele>
        <time>2013-06-01T08:36:40.000Z</time>
      </trkpt>
      <trkpt lat="43.60088" lon="5.56801">
        <ele>526.59997558594</ele>
        <time>2013-06-01T08:36:41.000Z</time>
      </trkpt>
      <trkpt lat="43.60089" lon="5.56798">
        <ele>526.59997558594</ele>
        <time>2013-06-01T08:36:42.000Z</time>
      </trkpt>
      <trkpt lat="43.601" lon="5.56769">
        <ele>526.40002441406</ele>
        <time>2013-06-01T08:36:54.000Z</time>
      </trkpt>
      <trkpt lat="43.60112" lon="5.56735">
        <ele>525.79998779297</ele>
        <time>2013-06-01T08:37:06.000Z</time>
      </trkpt>
      <trkpt lat="43.60121" lon="5.56704">
        <ele>524.79998779297</ele>
        <time>2013-06-01T08:37:14.000Z</time>
      </trkpt>
      <trkpt lat="43.60119" lon="5.56681">
        <ele>524.79998779297</ele>
        <time>2013-06-01T08:37:20.000Z</time>
      </trkpt>
      <trkpt lat="43.60117" lon="5.56679">
        <ele>525</ele>
        <time>2013-06-01T08:37:21.000Z</time>
      </trkpt>
      <trkpt lat="43.60114" lon="5.56677">
        <ele>525.20001220703</ele>
        <time>2013-06-01T08:37:22.000Z</time>
      </trkpt>
      <trkpt lat="43.60111" lon="5.56677">
        <ele>525.40002441406</ele>
        <time>2013-06-01T08:37:23.000Z</time>
      </trkpt>
      <trkpt lat="43.60109" lon="5.56677">
        <ele>525.59997558594</ele>
        <time>2013-06-01T08:37:24.000Z</time>
      </trkpt>
      <trkpt lat="43.60106" lon="5.56678">
        <ele>525.79998779297</ele>
        <time>2013-06-01T08:37:25.000Z</time>
      </trkpt>
      <trkpt lat="43.60103" lon="5.5668">
        <ele>526</ele>
        <time>2013-06-01T08:37:26.000Z</time>
      </trkpt>
      <trkpt lat="43.60083" lon="5.56702">
        <ele>528.20001220703</ele>
        <time>2013-06-01T08:37:36.000Z</time>
      </trkpt>
      <trkpt lat="43.60069" lon="5.56725">
        <ele>529.40002441406</ele>
        <time>2013-06-01T08:37:45.000Z</time>
      </trkpt>
      <trkpt lat="43.60047" lon="5.56754">
        <ele>531.59997558594</ele>
        <time>2013-06-01T08:37:58.000Z</time>
      </trkpt>
      <trkpt lat="43.60019" lon="5.5678">
        <ele>533.20001220703</ele>
        <time>2013-06-01T08:38:11.000Z</time>
      </trkpt>
      <trkpt lat="43.5999" lon="5.56789">
        <ele>535.59997558594</ele>
        <time>2013-06-01T08:38:23.000Z</time>
      </trkpt>
      <trkpt lat="43.59966" lon="5.56779">
        <ele>537</ele>
        <time>2013-06-01T08:38:34.000Z</time>
      </trkpt>
      <trkpt lat="43.59933" lon="5.56767">
        <ele>538.79998779297</ele>
        <time>2013-06-01T08:38:46.000Z</time>
      </trkpt>
      <trkpt lat="43.59907" lon="5.5674">
        <ele>539.20001220703</ele>
        <time>2013-06-01T08:38:57.000Z</time>
      </trkpt>
      <trkpt lat="43.59904" lon="5.56703">
        <ele>538.59997558594</ele>
        <time>2013-06-01T08:39:04.000Z</time>
      </trkpt>
      <trkpt lat="43.59904" lon="5.56698">
        <ele>538.40002441406</ele>
        <time>2013-06-01T08:39:05.000Z</time>
      </trkpt>
      <trkpt lat="43.59908" lon="5.56636">
        <ele>537</ele>
        <time>2013-06-01T08:39:16.000Z</time>
      </trkpt>
      <trkpt lat="43.59909" lon="5.5663">
        <ele>537</ele>
        <time>2013-06-01T08:39:17.000Z</time>
      </trkpt>
      <trkpt lat="43.59909" lon="5.56625">
        <ele>536.79998779297</ele>
        <time>2013-06-01T08:39:18.000Z</time>
      </trkpt>
      <trkpt lat="43.59914" lon="5.56556">
        <ele>536.20001220703</ele>
        <time>2013-06-01T08:39:31.000Z</time>
      </trkpt>
      <trkpt lat="43.59925" lon="5.56485">
        <ele>535.79998779297</ele>
        <time>2013-06-01T08:39:44.000Z</time>
      </trkpt>
      <trkpt lat="43.59928" lon="5.56468">
        <ele>535.59997558594</ele>
        <time>2013-06-01T08:39:47.000Z</time>
      </trkpt>
      <trkpt lat="43.5993" lon="5.56439">
        <ele>535.40002441406</ele>
        <time>2013-06-01T08:39:52.000Z</time>
      </trkpt>
      <trkpt lat="43.59934" lon="5.56393">
        <ele>535</ele>
        <time>2013-06-01T08:40:00.000Z</time>
      </trkpt>
      <trkpt lat="43.59933" lon="5.56376">
        <ele>535</ele>
        <time>2013-06-01T08:40:03.000Z</time>
      </trkpt>
      <trkpt lat="43.5992" lon="5.56297">
        <ele>535.20001220703</ele>
        <time>2013-06-01T08:40:17.000Z</time>
      </trkpt>
      <trkpt lat="43.59919" lon="5.56286">
        <ele>535.20001220703</ele>
        <time>2013-06-01T08:40:19.000Z</time>
      </trkpt>
      <trkpt lat="43.5992" lon="5.5628">
        <ele>535</ele>
        <time>2013-06-01T08:40:20.000Z</time>
      </trkpt>
      <trkpt lat="43.59922" lon="5.56275">
        <ele>534.79998779297</ele>
        <time>2013-06-01T08:40:21.000Z</time>
      </trkpt>
      <trkpt lat="43.59924" lon="5.56269">
        <ele>534.59997558594</ele>
        <time>2013-06-01T08:40:22.000Z</time>
      </trkpt>
      <trkpt lat="43.59926" lon="5.56265">
        <ele>534.40002441406</ele>
        <time>2013-06-01T08:40:23.000Z</time>
      </trkpt>
      <trkpt lat="43.59929" lon="5.5626">
        <ele>534.20001220703</ele>
        <time>2013-06-01T08:40:24.000Z</time>
      </trkpt>
      <trkpt lat="43.59932" lon="5.56256">
        <ele>533.79998779297</ele>
        <time>2013-06-01T08:40:25.000Z</time>
      </trkpt>
      <trkpt lat="43.59935" lon="5.56253">
        <ele>533.59997558594</ele>
        <time>2013-06-01T08:40:26.000Z</time>
      </trkpt>
      <trkpt lat="43.59939" lon="5.5625">
        <ele>533.40002441406</ele>
        <time>2013-06-01T08:40:27.000Z</time>
      </trkpt>
      <trkpt lat="43.59956" lon="5.56227">
        <ele>531</ele>
        <time>2013-06-01T08:40:35.000Z</time>
      </trkpt>
      <trkpt lat="43.59954" lon="5.56197">
        <ele>529.79998779297</ele>
        <time>2013-06-01T08:40:44.000Z</time>
      </trkpt>
      <trkpt lat="43.59953" lon="5.56194">
        <ele>529.79998779297</ele>
        <time>2013-06-01T08:40:45.000Z</time>
      </trkpt>
      <trkpt lat="43.59954" lon="5.56181">
        <ele>529.20001220703</ele>
        <time>2013-06-01T08:40:49.000Z</time>
      </trkpt>
      <trkpt lat="43.59955" lon="5.56159">
        <ele>527.59997558594</ele>
        <time>2013-06-01T08:40:56.000Z</time>
      </trkpt>
      <trkpt lat="43.59943" lon="5.56128">
        <ele>524.20001220703</ele>
        <time>2013-06-01T08:41:05.000Z</time>
      </trkpt>
      <trkpt lat="43.59939" lon="5.56128">
        <ele>524.20001220703</ele>
        <time>2013-06-01T08:41:06.000Z</time>
      </trkpt>
      <trkpt lat="43.59921" lon="5.56125">
        <ele>524</ele>
        <time>2013-06-01T08:41:10.000Z</time>
      </trkpt>
      <trkpt lat="43.59901" lon="5.56129">
        <ele>523.40002441406</ele>
        <time>2013-06-01T08:41:13.000Z</time>
      </trkpt>
      <trkpt lat="43.59897" lon="5.5613">
        <ele>523.20001220703</ele>
        <time>2013-06-01T08:41:14.000Z</time>
      </trkpt>
      <trkpt lat="43.59889" lon="5.56127">
        <ele>522.20001220703</ele>
        <time>2013-06-01T08:41:17.000Z</time>
      </trkpt>
      <trkpt lat="43.59883" lon="5.56124">
        <ele>521.40002441406</ele>
        <time>2013-06-01T08:41:19.000Z</time>
      </trkpt>
      <trkpt lat="43.59873" lon="5.56123">
        <ele>520.59997558594</ele>
        <time>2013-06-01T08:41:21.000Z</time>
      </trkpt>
      <trkpt lat="43.59864" lon="5.56124">
        <ele>519.79998779297</ele>
        <time>2013-06-01T08:41:23.000Z</time>
      </trkpt>
      <trkpt lat="43.59842" lon="5.56136">
        <ele>520.40002441406</ele>
        <time>2013-06-01T08:41:30.000Z</time>
      </trkpt>
      <trkpt lat="43.59835" lon="5.5614">
        <ele>520.59997558594</ele>
        <time>2013-06-01T08:41:33.000Z</time>
      </trkpt>
      <trkpt lat="43.59817" lon="5.56143">
        <ele>521.79998779297</ele>
        <time>2013-06-01T08:41:42.000Z</time>
      </trkpt>
      <trkpt lat="43.59815" lon="5.56143">
        <ele>522</ele>
        <time>2013-06-01T08:41:52.000Z</time>
      </trkpt>
      <trkpt lat="43.59812" lon="5.56144">
        <ele>522.40002441406</ele>
        <time>2013-06-01T08:42:08.000Z</time>
      </trkpt>
      <trkpt lat="43.59811" lon="5.56144">
        <ele>522.40002441406</ele>
        <time>2013-06-01T08:42:09.000Z</time>
      </trkpt>
      <trkpt lat="43.59803" lon="5.56147">
        <ele>523.20001220703</ele>
        <time>2013-06-01T08:42:17.000Z</time>
      </trkpt>
      <trkpt lat="43.59803" lon="5.56141">
        <ele>522.40002441406</ele>
        <time>2013-06-01T08:42:21.000Z</time>
      </trkpt>
      <trkpt lat="43.59803" lon="5.56131">
        <ele>521.20001220703</ele>
        <time>2013-06-01T08:42:25.000Z</time>
      </trkpt>
      <trkpt lat="43.59798" lon="5.56112">
        <ele>519.20001220703</ele>
        <time>2013-06-01T08:42:32.000Z</time>
      </trkpt>
      <trkpt lat="43.59795" lon="5.56092">
        <ele>517.40002441406</ele>
        <time>2013-06-01T08:42:39.000Z</time>
      </trkpt>
      <trkpt lat="43.59796" lon="5.56083">
        <ele>516.20001220703</ele>
        <time>2013-06-01T08:42:42.000Z</time>
      </trkpt>
      <trkpt lat="43.59793" lon="5.56057">
        <ele>515.79998779297</ele>
        <time>2013-06-01T08:42:49.000Z</time>
      </trkpt>
      <trkpt lat="43.59791" lon="5.56054">
        <ele>516</ele>
        <time>2013-06-01T08:42:50.000Z</time>
      </trkpt>
      <trkpt lat="43.59787" lon="5.56053">
        <ele>516.59997558594</ele>
        <time>2013-06-01T08:42:52.000Z</time>
      </trkpt>
      <trkpt lat="43.59775" lon="5.5605">
        <ele>518.20001220703</ele>
        <time>2013-06-01T08:42:59.000Z</time>
      </trkpt>
      <trkpt lat="43.59766" lon="5.56036">
        <ele>519.40002441406</ele>
        <time>2013-06-01T08:43:05.000Z</time>
      </trkpt>
      <trkpt lat="43.59759" lon="5.56032">
        <ele>520.40002441406</ele>
        <time>2013-06-01T08:43:08.000Z</time>
      </trkpt>
      <trkpt lat="43.59757" lon="5.56015">
        <ele>520.20001220703</ele>
        <time>2013-06-01T08:43:13.000Z</time>
      </trkpt>
      <trkpt lat="43.59755" lon="5.56009">
        <ele>520.40002441406</ele>
        <time>2013-06-01T08:43:15.000Z</time>
      </trkpt>
      <trkpt lat="43.59752" lon="5.55991">
        <ele>520</ele>
        <time>2013-06-01T08:43:19.000Z</time>
      </trkpt>
      <trkpt lat="43.59738" lon="5.55982">
        <ele>519.20001220703</ele>
        <time>2013-06-01T08:43:25.000Z</time>
      </trkpt>
      <trkpt lat="43.5972" lon="5.5597">
        <ele>518</ele>
        <time>2013-06-01T08:43:31.000Z</time>
      </trkpt>
      <trkpt lat="43.59708" lon="5.55962">
        <ele>517.40002441406</ele>
        <time>2013-06-01T08:43:34.000Z</time>
      </trkpt>
      <trkpt lat="43.59695" lon="5.55945">
        <ele>516.40002441406</ele>
        <time>2013-06-01T08:43:38.000Z</time>
      </trkpt>
      <trkpt lat="43.59679" lon="5.55912">
        <ele>515.20001220703</ele>
        <time>2013-06-01T08:43:45.000Z</time>
      </trkpt>
      <trkpt lat="43.59673" lon="5.55904">
        <ele>514.59997558594</ele>
        <time>2013-06-01T08:43:47.000Z</time>
      </trkpt>
      <trkpt lat="43.5965" lon="5.55882">
        <ele>512.20001220703</ele>
        <time>2013-06-01T08:43:56.000Z</time>
      </trkpt>
      <trkpt lat="43.59629" lon="5.5588">
        <ele>511.60000610352</ele>
        <time>2013-06-01T08:44:03.000Z</time>
      </trkpt>
      <trkpt lat="43.59625" lon="5.5588">
        <ele>511.39999389648</ele>
        <time>2013-06-01T08:44:06.000Z</time>
      </trkpt>
      <trkpt lat="43.59606" lon="5.55875">
        <ele>510.39999389648</ele>
        <time>2013-06-01T08:44:15.000Z</time>
      </trkpt>
      <trkpt lat="43.59578" lon="5.55868">
        <ele>509</ele>
        <time>2013-06-01T08:44:26.000Z</time>
      </trkpt>
      <trkpt lat="43.59539" lon="5.5586">
        <ele>507.20001220703</ele>
        <time>2013-06-01T08:44:36.000Z</time>
      </trkpt>
      <trkpt lat="43.59534" lon="5.55858">
        <ele>507</ele>
        <time>2013-06-01T08:44:37.000Z</time>
      </trkpt>
      <trkpt lat="43.59505" lon="5.5585">
        <ele>505.79998779297</ele>
        <time>2013-06-01T08:44:42.000Z</time>
      </trkpt>
      <trkpt lat="43.59493" lon="5.55848">
        <ele>505.60000610352</ele>
        <time>2013-06-01T08:44:44.000Z</time>
      </trkpt>
      <trkpt lat="43.59487" lon="5.55849">
        <ele>505.79998779297</ele>
        <time>2013-06-01T08:44:45.000Z</time>
      </trkpt>
      <trkpt lat="43.59481" lon="5.55851">
        <ele>505.79998779297</ele>
        <time>2013-06-01T08:44:46.000Z</time>
      </trkpt>
      <trkpt lat="43.59467" lon="5.55856">
        <ele>506</ele>
        <time>2013-06-01T08:44:51.000Z</time>
      </trkpt>
      <trkpt lat="43.59464" lon="5.55855">
        <ele>506</ele>
        <time>2013-06-01T08:44:59.000Z</time>
      </trkpt>
      <trkpt lat="43.59464" lon="5.55855">
        <ele>506</ele>
        <time>2013-06-01T08:45:15.000Z</time>
      </trkpt>
      <trkpt lat="43.59464" lon="5.55855">
        <ele>506</ele>
        <time>2013-06-01T08:45:29.000Z</time>
      </trkpt>
      <trkpt lat="43.59464" lon="5.55855">
        <ele>506</ele>
        <time>2013-06-01T08:45:46.000Z</time>
      </trkpt>
      <trkpt lat="43.59463" lon="5.55854">
        <ele>506</ele>
        <time>2013-06-01T08:46:04.000Z</time>
      </trkpt>
      <trkpt lat="43.59465" lon="5.55855">
        <ele>506</ele>
        <time>2013-06-01T08:46:12.000Z</time>
      </trkpt>
      <trkpt lat="43.59466" lon="5.55857">
        <ele>506</ele>
        <time>2013-06-01T08:46:36.000Z</time>
      </trkpt>
      <trkpt lat="43.59466" lon="5.55856">
        <ele>506</ele>
        <time>2013-06-01T08:46:45.000Z</time>
      </trkpt>
      <trkpt lat="43.59471" lon="5.55856">
        <ele>506</ele>
        <time>2013-06-01T08:46:49.000Z</time>
      </trkpt>
      <trkpt lat="43.59474" lon="5.55857">
        <ele>506</ele>
        <time>2013-06-01T08:46:50.000Z</time>
      </trkpt>
      <trkpt lat="43.59477" lon="5.55859">
        <ele>506.20001220703</ele>
        <time>2013-06-01T08:46:51.000Z</time>
      </trkpt>
      <trkpt lat="43.59479" lon="5.55861">
        <ele>506.20001220703</ele>
        <time>2013-06-01T08:46:52.000Z</time>
      </trkpt>
      <trkpt lat="43.59482" lon="5.55863">
        <ele>506.39999389648</ele>
        <time>2013-06-01T08:46:53.000Z</time>
      </trkpt>
      <trkpt lat="43.59484" lon="5.55866">
        <ele>506.39999389648</ele>
        <time>2013-06-01T08:46:54.000Z</time>
      </trkpt>
      <trkpt lat="43.59486" lon="5.55868">
        <ele>506.60000610352</ele>
        <time>2013-06-01T08:46:55.000Z</time>
      </trkpt>
      <trkpt lat="43.59488" lon="5.55871">
        <ele>506.60000610352</ele>
        <time>2013-06-01T08:46:56.000Z</time>
      </trkpt>
      <trkpt lat="43.5949" lon="5.55874">
        <ele>506.79998779297</ele>
        <time>2013-06-01T08:46:57.000Z</time>
      </trkpt>
      <trkpt lat="43.59492" lon="5.55877">
        <ele>507</ele>
        <time>2013-06-01T08:46:58.000Z</time>
      </trkpt>
      <trkpt lat="43.59509" lon="5.55904">
        <ele>508.79998779297</ele>
        <time>2013-06-01T08:47:06.000Z</time>
      </trkpt>
      <trkpt lat="43.59512" lon="5.55909">
        <ele>509.20001220703</ele>
        <time>2013-06-01T08:47:07.000Z</time>
      </trkpt>
      <trkpt lat="43.59527" lon="5.55934">
        <ele>510.39999389648</ele>
        <time>2013-06-01T08:47:11.000Z</time>
      </trkpt>
      <trkpt lat="43.59536" lon="5.55946">
        <ele>510.60000610352</ele>
        <time>2013-06-01T08:47:13.000Z</time>
      </trkpt>
      <trkpt lat="43.5954" lon="5.55952">
        <ele>510.60000610352</ele>
        <time>2013-06-01T08:47:14.000Z</time>
      </trkpt>
      <trkpt lat="43.59541" lon="5.55958">
        <ele>510.60000610352</ele>
        <time>2013-06-01T08:47:15.000Z</time>
      </trkpt>
      <trkpt lat="43.59541" lon="5.55965">
        <ele>510.39999389648</ele>
        <time>2013-06-01T08:47:16.000Z</time>
      </trkpt>
      <trkpt lat="43.59539" lon="5.55972">
        <ele>510.39999389648</ele>
        <time>2013-06-01T08:47:17.000Z</time>
      </trkpt>
      <trkpt lat="43.59537" lon="5.55978">
        <ele>510.20001220703</ele>
        <time>2013-06-01T08:47:18.000Z</time>
      </trkpt>
      <trkpt lat="43.59535" lon="5.56003">
        <ele>509.79998779297</ele>
        <time>2013-06-01T08:47:23.000Z</time>
      </trkpt>
      <trkpt lat="43.59528" lon="5.56022">
        <ele>510.39999389648</ele>
        <time>2013-06-01T08:47:28.000Z</time>
      </trkpt>
      <trkpt lat="43.59526" lon="5.56023">
        <ele>510.39999389648</ele>
        <time>2013-06-01T08:47:29.000Z</time>
      </trkpt>
      <trkpt lat="43.59524" lon="5.56021">
        <ele>510.20001220703</ele>
        <time>2013-06-01T08:47:30.000Z</time>
      </trkpt>
      <trkpt lat="43.59521" lon="5.56018">
        <ele>510.20001220703</ele>
        <time>2013-06-01T08:47:31.000Z</time>
      </trkpt>
      <trkpt lat="43.59519" lon="5.56015">
        <ele>510</ele>
        <time>2013-06-01T08:47:32.000Z</time>
      </trkpt>
      <trkpt lat="43.59516" lon="5.56012">
        <ele>509.79998779297</ele>
        <time>2013-06-01T08:47:33.000Z</time>
      </trkpt>
      <trkpt lat="43.59513" lon="5.5601">
        <ele>509.60000610352</ele>
        <time>2013-06-01T08:47:34.000Z</time>
      </trkpt>
      <trkpt lat="43.59511" lon="5.56008">
        <ele>509.39999389648</ele>
        <time>2013-06-01T08:47:35.000Z</time>
      </trkpt>
      <trkpt lat="43.59508" lon="5.56006">
        <ele>509.39999389648</ele>
        <time>2013-06-01T08:47:36.000Z</time>
      </trkpt>
      <trkpt lat="43.59498" lon="5.55999">
        <ele>508.79998779297</ele>
        <time>2013-06-01T08:47:39.000Z</time>
      </trkpt>
      <trkpt lat="43.59494" lon="5.55997">
        <ele>508.60000610352</ele>
        <time>2013-06-01T08:47:40.000Z</time>
      </trkpt>
      <trkpt lat="43.59476" lon="5.55989">
        <ele>507.79998779297</ele>
        <time>2013-06-01T08:47:44.000Z</time>
      </trkpt>
      <trkpt lat="43.59471" lon="5.55988">
        <ele>507.60000610352</ele>
        <time>2013-06-01T08:47:45.000Z</time>
      </trkpt>
      <trkpt lat="43.59466" lon="5.55988">
        <ele>507.39999389648</ele>
        <time>2013-06-01T08:47:46.000Z</time>
      </trkpt>
      <trkpt lat="43.59462" lon="5.55989">
        <ele>507.20001220703</ele>
        <time>2013-06-01T08:47:47.000Z</time>
      </trkpt>
      <trkpt lat="43.59457" lon="5.5599">
        <ele>507</ele>
        <time>2013-06-01T08:47:48.000Z</time>
      </trkpt>
      <trkpt lat="43.59453" lon="5.5599">
        <ele>506.79998779297</ele>
        <time>2013-06-01T08:47:49.000Z</time>
      </trkpt>
      <trkpt lat="43.59448" lon="5.5599">
        <ele>506.60000610352</ele>
        <time>2013-06-01T08:47:50.000Z</time>
      </trkpt>
      <trkpt lat="43.59426" lon="5.55987">
        <ele>505.60000610352</ele>
        <time>2013-06-01T08:47:54.000Z</time>
      </trkpt>
      <trkpt lat="43.59399" lon="5.55977">
        <ele>504.60000610352</ele>
        <time>2013-06-01T08:48:00.000Z</time>
      </trkpt>
      <trkpt lat="43.59388" lon="5.55973">
        <ele>504.20001220703</ele>
        <time>2013-06-01T08:48:02.000Z</time>
      </trkpt>
      <trkpt lat="43.59382" lon="5.55973">
        <ele>503.79998779297</ele>
        <time>2013-06-01T08:48:03.000Z</time>
      </trkpt>
      <trkpt lat="43.59376" lon="5.55974">
        <ele>503.60000610352</ele>
        <time>2013-06-01T08:48:04.000Z</time>
      </trkpt>
      <trkpt lat="43.5937" lon="5.55977">
        <ele>503</ele>
        <time>2013-06-01T08:48:05.000Z</time>
      </trkpt>
      <trkpt lat="43.59365" lon="5.5598">
        <ele>502.60000610352</ele>
        <time>2013-06-01T08:48:06.000Z</time>
      </trkpt>
      <trkpt lat="43.5936" lon="5.55985">
        <ele>502</ele>
        <time>2013-06-01T08:48:07.000Z</time>
      </trkpt>
      <trkpt lat="43.59356" lon="5.5599">
        <ele>501.20001220703</ele>
        <time>2013-06-01T08:48:08.000Z</time>
      </trkpt>
      <trkpt lat="43.59351" lon="5.55995">
        <ele>500.60000610352</ele>
        <time>2013-06-01T08:48:09.000Z</time>
      </trkpt>
      <trkpt lat="43.59347" lon="5.56001">
        <ele>500</ele>
        <time>2013-06-01T08:48:10.000Z</time>
      </trkpt>
      <trkpt lat="43.59343" lon="5.56005">
        <ele>500</ele>
        <time>2013-06-01T08:48:11.000Z</time>
      </trkpt>
      <trkpt lat="43.59339" lon="5.56007">
        <ele>499.60000610352</ele>
        <time>2013-06-01T08:48:12.000Z</time>
      </trkpt>
      <trkpt lat="43.59334" lon="5.56007">
        <ele>499.20001220703</ele>
        <time>2013-06-01T08:48:13.000Z</time>
      </trkpt>
      <trkpt lat="43.59323" lon="5.56004">
        <ele>499.20001220703</ele>
        <time>2013-06-01T08:48:16.000Z</time>
      </trkpt>
      <trkpt lat="43.5932" lon="5.56003">
        <ele>499.20001220703</ele>
        <time>2013-06-01T08:48:17.000Z</time>
      </trkpt>
      <trkpt lat="43.59318" lon="5.56003">
        <ele>499.20001220703</ele>
        <time>2013-06-01T08:48:18.000Z</time>
      </trkpt>
      <trkpt lat="43.59315" lon="5.56003">
        <ele>499.20001220703</ele>
        <time>2013-06-01T08:48:19.000Z</time>
      </trkpt>
      <trkpt lat="43.59311" lon="5.56005">
        <ele>499.20001220703</ele>
        <time>2013-06-01T08:48:20.000Z</time>
      </trkpt>
      <trkpt lat="43.59308" lon="5.56008">
        <ele>499.20001220703</ele>
        <time>2013-06-01T08:48:21.000Z</time>
      </trkpt>
      <trkpt lat="43.59304" lon="5.56013">
        <ele>499.20001220703</ele>
        <time>2013-06-01T08:48:22.000Z</time>
      </trkpt>
      <trkpt lat="43.59299" lon="5.56019">
        <ele>499.20001220703</ele>
        <time>2013-06-01T08:48:23.000Z</time>
      </trkpt>
      <trkpt lat="43.59293" lon="5.56024">
        <ele>499</ele>
        <time>2013-06-01T08:48:24.000Z</time>
      </trkpt>
      <trkpt lat="43.59275" lon="5.56037">
        <ele>498</ele>
        <time>2013-06-01T08:48:27.000Z</time>
      </trkpt>
      <trkpt lat="43.59263" lon="5.56045">
        <ele>497</ele>
        <time>2013-06-01T08:48:29.000Z</time>
      </trkpt>
      <trkpt lat="43.59259" lon="5.56049">
        <ele>496.39999389648</ele>
        <time>2013-06-01T08:48:30.000Z</time>
      </trkpt>
      <trkpt lat="43.59253" lon="5.56058">
        <ele>495.39999389648</ele>
        <time>2013-06-01T08:48:32.000Z</time>
      </trkpt>
      <trkpt lat="43.59249" lon="5.56066">
        <ele>494.20001220703</ele>
        <time>2013-06-01T08:48:36.000Z</time>
      </trkpt>
      <trkpt lat="43.59245" lon="5.56067">
        <ele>494.20001220703</ele>
        <time>2013-06-01T08:48:37.000Z</time>
      </trkpt>
      <trkpt lat="43.59241" lon="5.56067">
        <ele>493.79998779297</ele>
        <time>2013-06-01T08:48:38.000Z</time>
      </trkpt>
      <trkpt lat="43.59237" lon="5.56069">
        <ele>493.60000610352</ele>
        <time>2013-06-01T08:48:39.000Z</time>
      </trkpt>
      <trkpt lat="43.59233" lon="5.56071">
        <ele>493.20001220703</ele>
        <time>2013-06-01T08:48:40.000Z</time>
      </trkpt>
      <trkpt lat="43.59229" lon="5.56071">
        <ele>493</ele>
        <time>2013-06-01T08:48:41.000Z</time>
      </trkpt>
      <trkpt lat="43.59222" lon="5.56071">
        <ele>492.60000610352</ele>
        <time>2013-06-01T08:48:43.000Z</time>
      </trkpt>
      <trkpt lat="43.59219" lon="5.56073">
        <ele>492.39999389648</ele>
        <time>2013-06-01T08:48:44.000Z</time>
      </trkpt>
      <trkpt lat="43.59215" lon="5.56076">
        <ele>492</ele>
        <time>2013-06-01T08:48:45.000Z</time>
      </trkpt>
      <trkpt lat="43.59211" lon="5.56077">
        <ele>491.60000610352</ele>
        <time>2013-06-01T08:48:46.000Z</time>
      </trkpt>
      <trkpt lat="43.59207" lon="5.56075">
        <ele>491.60000610352</ele>
        <time>2013-06-01T08:48:47.000Z</time>
      </trkpt>
      <trkpt lat="43.59203" lon="5.56072">
        <ele>491.79998779297</ele>
        <time>2013-06-01T08:48:48.000Z</time>
      </trkpt>
      <trkpt lat="43.59197" lon="5.56072">
        <ele>491.39999389648</ele>
        <time>2013-06-01T08:48:49.000Z</time>
      </trkpt>
      <trkpt lat="43.59192" lon="5.56072">
        <ele>491.39999389648</ele>
        <time>2013-06-01T08:48:50.000Z</time>
      </trkpt>
      <trkpt lat="43.59187" lon="5.56068">
        <ele>491.39999389648</ele>
        <time>2013-06-01T08:48:51.000Z</time>
      </trkpt>
      <trkpt lat="43.59183" lon="5.56065">
        <ele>491.60000610352</ele>
        <time>2013-06-01T08:48:52.000Z</time>
      </trkpt>
      <trkpt lat="43.5918" lon="5.56065">
        <ele>491.39999389648</ele>
        <time>2013-06-01T08:48:53.000Z</time>
      </trkpt>
      <trkpt lat="43.59176" lon="5.56065">
        <ele>491.20001220703</ele>
        <time>2013-06-01T08:48:54.000Z</time>
      </trkpt>
      <trkpt lat="43.59171" lon="5.56067">
        <ele>490.79998779297</ele>
        <time>2013-06-01T08:48:55.000Z</time>
      </trkpt>
      <trkpt lat="43.59166" lon="5.56069">
        <ele>490.39999389648</ele>
        <time>2013-06-01T08:48:56.000Z</time>
      </trkpt>
      <trkpt lat="43.5916" lon="5.5607">
        <ele>489.79998779297</ele>
        <time>2013-06-01T08:48:57.000Z</time>
      </trkpt>
      <trkpt lat="43.59154" lon="5.56073">
        <ele>489</ele>
        <time>2013-06-01T08:48:58.000Z</time>
      </trkpt>
      <trkpt lat="43.59148" lon="5.56076">
        <ele>488</ele>
        <time>2013-06-01T08:48:59.000Z</time>
      </trkpt>
      <trkpt lat="43.59142" lon="5.56078">
        <ele>487.39999389648</ele>
        <time>2013-06-01T08:49:00.000Z</time>
      </trkpt>
      <trkpt lat="43.59136" lon="5.56079">
        <ele>486.79998779297</ele>
        <time>2013-06-01T08:49:01.000Z</time>
      </trkpt>
      <trkpt lat="43.5913" lon="5.56081">
        <ele>486</ele>
        <time>2013-06-01T08:49:02.000Z</time>
      </trkpt>
      <trkpt lat="43.59118" lon="5.56084">
        <ele>485</ele>
        <time>2013-06-01T08:49:04.000Z</time>
      </trkpt>
      <trkpt lat="43.59107" lon="5.56092">
        <ele>485.20001220703</ele>
        <time>2013-06-01T08:49:06.000Z</time>
      </trkpt>
      <trkpt lat="43.59101" lon="5.56094">
        <ele>484.79998779297</ele>
        <time>2013-06-01T08:49:07.000Z</time>
      </trkpt>
      <trkpt lat="43.59096" lon="5.56092">
        <ele>484.20001220703</ele>
        <time>2013-06-01T08:49:08.000Z</time>
      </trkpt>
      <trkpt lat="43.59092" lon="5.5609">
        <ele>483.60000610352</ele>
        <time>2013-06-01T08:49:09.000Z</time>
      </trkpt>
      <trkpt lat="43.59087" lon="5.56089">
        <ele>483</ele>
        <time>2013-06-01T08:49:10.000Z</time>
      </trkpt>
      <trkpt lat="43.59083" lon="5.56087">
        <ele>482.39999389648</ele>
        <time>2013-06-01T08:49:11.000Z</time>
      </trkpt>
      <trkpt lat="43.5908" lon="5.56083">
        <ele>482</ele>
        <time>2013-06-01T08:49:12.000Z</time>
      </trkpt>
      <trkpt lat="43.59077" lon="5.5608">
        <ele>482.39999389648</ele>
        <time>2013-06-01T08:49:13.000Z</time>
      </trkpt>
      <trkpt lat="43.59075" lon="5.56076">
        <ele>482.79998779297</ele>
        <time>2013-06-01T08:49:14.000Z</time>
      </trkpt>
      <trkpt lat="43.59072" lon="5.56071">
        <ele>483.20001220703</ele>
        <time>2013-06-01T08:49:15.000Z</time>
      </trkpt>
      <trkpt lat="43.5907" lon="5.56066">
        <ele>483.39999389648</ele>
        <time>2013-06-01T08:49:16.000Z</time>
      </trkpt>
      <trkpt lat="43.59067" lon="5.5606">
        <ele>483.60000610352</ele>
        <time>2013-06-01T08:49:17.000Z</time>
      </trkpt>
      <trkpt lat="43.59063" lon="5.56052">
        <ele>483.79998779297</ele>
        <time>2013-06-01T08:49:18.000Z</time>
      </trkpt>
      <trkpt lat="43.59059" lon="5.56045">
        <ele>483.79998779297</ele>
        <time>2013-06-01T08:49:19.000Z</time>
      </trkpt>
      <trkpt lat="43.59054" lon="5.56037">
        <ele>483.60000610352</ele>
        <time>2013-06-01T08:49:20.000Z</time>
      </trkpt>
      <trkpt lat="43.59048" lon="5.56031">
        <ele>483.20001220703</ele>
        <time>2013-06-01T08:49:21.000Z</time>
      </trkpt>
      <trkpt lat="43.59042" lon="5.56025">
        <ele>482.60000610352</ele>
        <time>2013-06-01T08:49:22.000Z</time>
      </trkpt>
      <trkpt lat="43.59037" lon="5.56019">
        <ele>482</ele>
        <time>2013-06-01T08:49:23.000Z</time>
      </trkpt>
      <trkpt lat="43.5903" lon="5.56015">
        <ele>481.20001220703</ele>
        <time>2013-06-01T08:49:24.000Z</time>
      </trkpt>
      <trkpt lat="43.59023" lon="5.56011">
        <ele>480</ele>
        <time>2013-06-01T08:49:25.000Z</time>
      </trkpt>
      <trkpt lat="43.59017" lon="5.56006">
        <ele>478.79998779297</ele>
        <time>2013-06-01T08:49:26.000Z</time>
      </trkpt>
      <trkpt lat="43.59011" lon="5.56">
        <ele>477.39999389648</ele>
        <time>2013-06-01T08:49:27.000Z</time>
      </trkpt>
      <trkpt lat="43.58998" lon="5.55991">
        <ele>477.20001220703</ele>
        <time>2013-06-01T08:49:29.000Z</time>
      </trkpt>
      <trkpt lat="43.58985" lon="5.55989">
        <ele>476.60000610352</ele>
        <time>2013-06-01T08:49:31.000Z</time>
      </trkpt>
      <trkpt lat="43.58972" lon="5.55992">
        <ele>475.60000610352</ele>
        <time>2013-06-01T08:49:33.000Z</time>
      </trkpt>
      <trkpt lat="43.58965" lon="5.55994">
        <ele>475</ele>
        <time>2013-06-01T08:49:34.000Z</time>
      </trkpt>
      <trkpt lat="43.58958" lon="5.55996">
        <ele>474.39999389648</ele>
        <time>2013-06-01T08:49:35.000Z</time>
      </trkpt>
      <trkpt lat="43.5895" lon="5.55995">
        <ele>474</ele>
        <time>2013-06-01T08:49:36.000Z</time>
      </trkpt>
      <trkpt lat="43.58942" lon="5.55995">
        <ele>473.60000610352</ele>
        <time>2013-06-01T08:49:37.000Z</time>
      </trkpt>
      <trkpt lat="43.58935" lon="5.55993">
        <ele>473.39999389648</ele>
        <time>2013-06-01T08:49:38.000Z</time>
      </trkpt>
      <trkpt lat="43.58929" lon="5.5599">
        <ele>473.39999389648</ele>
        <time>2013-06-01T08:49:39.000Z</time>
      </trkpt>
      <trkpt lat="43.58922" lon="5.55985">
        <ele>473.39999389648</ele>
        <time>2013-06-01T08:49:40.000Z</time>
      </trkpt>
      <trkpt lat="43.58915" lon="5.55981">
        <ele>473.20001220703</ele>
        <time>2013-06-01T08:49:41.000Z</time>
      </trkpt>
      <trkpt lat="43.58909" lon="5.55976">
        <ele>472.79998779297</ele>
        <time>2013-06-01T08:49:42.000Z</time>
      </trkpt>
      <trkpt lat="43.58903" lon="5.55971">
        <ele>472.60000610352</ele>
        <time>2013-06-01T08:49:43.000Z</time>
      </trkpt>
      <trkpt lat="43.58898" lon="5.55963">
        <ele>472.60000610352</ele>
        <time>2013-06-01T08:49:44.000Z</time>
      </trkpt>
      <trkpt lat="43.58894" lon="5.55958">
        <ele>472.60000610352</ele>
        <time>2013-06-01T08:49:45.000Z</time>
      </trkpt>
      <trkpt lat="43.58889" lon="5.55957">
        <ele>472.39999389648</ele>
        <time>2013-06-01T08:49:46.000Z</time>
      </trkpt>
      <trkpt lat="43.58883" lon="5.55956">
        <ele>472</ele>
        <time>2013-06-01T08:49:47.000Z</time>
      </trkpt>
      <trkpt lat="43.58878" lon="5.55957">
        <ele>471.39999389648</ele>
        <time>2013-06-01T08:49:48.000Z</time>
      </trkpt>
      <trkpt lat="43.58872" lon="5.55959">
        <ele>470.60000610352</ele>
        <time>2013-06-01T08:49:49.000Z</time>
      </trkpt>
      <trkpt lat="43.58866" lon="5.55963">
        <ele>469.60000610352</ele>
        <time>2013-06-01T08:49:50.000Z</time>
      </trkpt>
      <trkpt lat="43.58857" lon="5.55968">
        <ele>468.20001220703</ele>
        <time>2013-06-01T08:49:51.000Z</time>
      </trkpt>
      <trkpt lat="43.58851" lon="5.55974">
        <ele>466.79998779297</ele>
        <time>2013-06-01T08:49:52.000Z</time>
      </trkpt>
      <trkpt lat="43.58844" lon="5.55977">
        <ele>465.79998779297</ele>
        <time>2013-06-01T08:49:53.000Z</time>
      </trkpt>
      <trkpt lat="43.58837" lon="5.55978">
        <ele>464.79998779297</ele>
        <time>2013-06-01T08:49:54.000Z</time>
      </trkpt>
      <trkpt lat="43.5883" lon="5.55981">
        <ele>463.79998779297</ele>
        <time>2013-06-01T08:49:55.000Z</time>
      </trkpt>
      <trkpt lat="43.58825" lon="5.55984">
        <ele>463</ele>
        <time>2013-06-01T08:49:56.000Z</time>
      </trkpt>
      <trkpt lat="43.58819" lon="5.55985">
        <ele>462.60000610352</ele>
        <time>2013-06-01T08:49:57.000Z</time>
      </trkpt>
      <trkpt lat="43.58813" lon="5.55986">
        <ele>462</ele>
        <time>2013-06-01T08:49:58.000Z</time>
      </trkpt>
      <trkpt lat="43.58807" lon="5.55986">
        <ele>461.39999389648</ele>
        <time>2013-06-01T08:49:59.000Z</time>
      </trkpt>
      <trkpt lat="43.58802" lon="5.55983">
        <ele>461.39999389648</ele>
        <time>2013-06-01T08:50:00.000Z</time>
      </trkpt>
      <trkpt lat="43.58797" lon="5.55979">
        <ele>461.60000610352</ele>
        <time>2013-06-01T08:50:01.000Z</time>
      </trkpt>
      <trkpt lat="43.58791" lon="5.55977">
        <ele>461.39999389648</ele>
        <time>2013-06-01T08:50:02.000Z</time>
      </trkpt>
      <trkpt lat="43.58785" lon="5.55977">
        <ele>460.79998779297</ele>
        <time>2013-06-01T08:50:03.000Z</time>
      </trkpt>
      <trkpt lat="43.58778" lon="5.5598">
        <ele>459.79998779297</ele>
        <time>2013-06-01T08:50:04.000Z</time>
      </trkpt>
      <trkpt lat="43.58772" lon="5.55985">
        <ele>458.39999389648</ele>
        <time>2013-06-01T08:50:05.000Z</time>
      </trkpt>
      <trkpt lat="43.58767" lon="5.55992">
        <ele>457</ele>
        <time>2013-06-01T08:50:06.000Z</time>
      </trkpt>
      <trkpt lat="43.58763" lon="5.55999">
        <ele>455.39999389648</ele>
        <time>2013-06-01T08:50:07.000Z</time>
      </trkpt>
      <trkpt lat="43.5876" lon="5.56007">
        <ele>455.20001220703</ele>
        <time>2013-06-01T08:50:08.000Z</time>
      </trkpt>
      <trkpt lat="43.58757" lon="5.56014">
        <ele>455.20001220703</ele>
        <time>2013-06-01T08:50:09.000Z</time>
      </trkpt>
      <trkpt lat="43.58753" lon="5.5602">
        <ele>455.20001220703</ele>
        <time>2013-06-01T08:50:10.000Z</time>
      </trkpt>
      <trkpt lat="43.58748" lon="5.56027">
        <ele>455.20001220703</ele>
        <time>2013-06-01T08:50:11.000Z</time>
      </trkpt>
      <trkpt lat="43.58744" lon="5.56034">
        <ele>455.39999389648</ele>
        <time>2013-06-01T08:50:12.000Z</time>
      </trkpt>
      <trkpt lat="43.58738" lon="5.5604">
        <ele>455.60000610352</ele>
        <time>2013-06-01T08:50:13.000Z</time>
      </trkpt>
      <trkpt lat="43.58731" lon="5.56041">
        <ele>455.60000610352</ele>
        <time>2013-06-01T08:50:14.000Z</time>
      </trkpt>
      <trkpt lat="43.58724" lon="5.56041">
        <ele>455.60000610352</ele>
        <time>2013-06-01T08:50:15.000Z</time>
      </trkpt>
      <trkpt lat="43.58716" lon="5.56043">
        <ele>455.60000610352</ele>
        <time>2013-06-01T08:50:16.000Z</time>
      </trkpt>
      <trkpt lat="43.58701" lon="5.56043">
        <ele>455.39999389648</ele>
        <time>2013-06-01T08:50:18.000Z</time>
      </trkpt>
      <trkpt lat="43.58674" lon="5.56031">
        <ele>453.79998779297</ele>
        <time>2013-06-01T08:50:22.000Z</time>
      </trkpt>
      <trkpt lat="43.58671" lon="5.56023">
        <ele>452.79998779297</ele>
        <time>2013-06-01T08:50:23.000Z</time>
      </trkpt>
      <trkpt lat="43.5867" lon="5.56014">
        <ele>451.60000610352</ele>
        <time>2013-06-01T08:50:24.000Z</time>
      </trkpt>
      <trkpt lat="43.58663" lon="5.55953">
        <ele>450.39999389648</ele>
        <time>2013-06-01T08:50:30.000Z</time>
      </trkpt>
      <trkpt lat="43.58661" lon="5.55944">
        <ele>450.39999389648</ele>
        <time>2013-06-01T08:50:31.000Z</time>
      </trkpt>
      <trkpt lat="43.58656" lon="5.55923">
        <ele>449.79998779297</ele>
        <time>2013-06-01T08:50:33.000Z</time>
      </trkpt>
      <trkpt lat="43.58652" lon="5.55914">
        <ele>449.79998779297</ele>
        <time>2013-06-01T08:50:34.000Z</time>
      </trkpt>
      <trkpt lat="43.58648" lon="5.55906">
        <ele>450.79998779297</ele>
        <time>2013-06-01T08:50:35.000Z</time>
      </trkpt>
      <trkpt lat="43.58642" lon="5.55899">
        <ele>451.39999389648</ele>
        <time>2013-06-01T08:50:36.000Z</time>
      </trkpt>
      <trkpt lat="43.58636" lon="5.55892">
        <ele>451.79998779297</ele>
        <time>2013-06-01T08:50:37.000Z</time>
      </trkpt>
      <trkpt lat="43.58629" lon="5.55886">
        <ele>451.79998779297</ele>
        <time>2013-06-01T08:50:38.000Z</time>
      </trkpt>
      <trkpt lat="43.58622" lon="5.55882">
        <ele>451.60000610352</ele>
        <time>2013-06-01T08:50:39.000Z</time>
      </trkpt>
      <trkpt lat="43.58614" lon="5.55878">
        <ele>451.20001220703</ele>
        <time>2013-06-01T08:50:40.000Z</time>
      </trkpt>
      <trkpt lat="43.58606" lon="5.55874">
        <ele>450.79998779297</ele>
        <time>2013-06-01T08:50:41.000Z</time>
      </trkpt>
      <trkpt lat="43.58591" lon="5.5587">
        <ele>449.20001220703</ele>
        <time>2013-06-01T08:50:43.000Z</time>
      </trkpt>
      <trkpt lat="43.58585" lon="5.55869">
        <ele>448.39999389648</ele>
        <time>2013-06-01T08:50:44.000Z</time>
      </trkpt>
      <trkpt lat="43.58579" lon="5.5587">
        <ele>448.20001220703</ele>
        <time>2013-06-01T08:50:45.000Z</time>
      </trkpt>
      <trkpt lat="43.58573" lon="5.55873">
        <ele>447.79998779297</ele>
        <time>2013-06-01T08:50:46.000Z</time>
      </trkpt>
      <trkpt lat="43.58567" lon="5.55876">
        <ele>447.39999389648</ele>
        <time>2013-06-01T08:50:47.000Z</time>
      </trkpt>
      <trkpt lat="43.5856" lon="5.55878">
        <ele>447.20001220703</ele>
        <time>2013-06-01T08:50:48.000Z</time>
      </trkpt>
      <trkpt lat="43.58553" lon="5.5588">
        <ele>446.79998779297</ele>
        <time>2013-06-01T08:50:49.000Z</time>
      </trkpt>
      <trkpt lat="43.58546" lon="5.55885">
        <ele>446.20001220703</ele>
        <time>2013-06-01T08:50:50.000Z</time>
      </trkpt>
      <trkpt lat="43.58539" lon="5.55891">
        <ele>445</ele>
        <time>2013-06-01T08:50:51.000Z</time>
      </trkpt>
      <trkpt lat="43.58509" lon="5.55913">
        <ele>440</ele>
        <time>2013-06-01T08:50:55.000Z</time>
      </trkpt>
      <trkpt lat="43.58504" lon="5.55919">
        <ele>439.20001220703</ele>
        <time>2013-06-01T08:50:56.000Z</time>
      </trkpt>
      <trkpt lat="43.585" lon="5.55926">
        <ele>439.39999389648</ele>
        <time>2013-06-01T08:50:57.000Z</time>
      </trkpt>
      <trkpt lat="43.58496" lon="5.55933">
        <ele>439.39999389648</ele>
        <time>2013-06-01T08:50:58.000Z</time>
      </trkpt>
      <trkpt lat="43.58491" lon="5.55941">
        <ele>439.20001220703</ele>
        <time>2013-06-01T08:50:59.000Z</time>
      </trkpt>
      <trkpt lat="43.58485" lon="5.55948">
        <ele>439</ele>
        <time>2013-06-01T08:51:00.000Z</time>
      </trkpt>
      <trkpt lat="43.58479" lon="5.55955">
        <ele>438.60000610352</ele>
        <time>2013-06-01T08:51:01.000Z</time>
      </trkpt>
      <trkpt lat="43.58473" lon="5.55963">
        <ele>438</ele>
        <time>2013-06-01T08:51:02.000Z</time>
      </trkpt>
      <trkpt lat="43.58466" lon="5.55971">
        <ele>437.39999389648</ele>
        <time>2013-06-01T08:51:03.000Z</time>
      </trkpt>
      <trkpt lat="43.58459" lon="5.55977">
        <ele>436.60000610352</ele>
        <time>2013-06-01T08:51:04.000Z</time>
      </trkpt>
      <trkpt lat="43.58451" lon="5.5598">
        <ele>435.79998779297</ele>
        <time>2013-06-01T08:51:05.000Z</time>
      </trkpt>
      <trkpt lat="43.58443" lon="5.5598">
        <ele>434.60000610352</ele>
        <time>2013-06-01T08:51:06.000Z</time>
      </trkpt>
      <trkpt lat="43.58435" lon="5.55979">
        <ele>433.60000610352</ele>
        <time>2013-06-01T08:51:07.000Z</time>
      </trkpt>
      <trkpt lat="43.58427" lon="5.55976">
        <ele>432.79998779297</ele>
        <time>2013-06-01T08:51:08.000Z</time>
      </trkpt>
      <trkpt lat="43.5842" lon="5.5597">
        <ele>432</ele>
        <time>2013-06-01T08:51:09.000Z</time>
      </trkpt>
      <trkpt lat="43.58413" lon="5.55964">
        <ele>432</ele>
        <time>2013-06-01T08:51:10.000Z</time>
      </trkpt>
      <trkpt lat="43.58407" lon="5.55957">
        <ele>432.39999389648</ele>
        <time>2013-06-01T08:51:11.000Z</time>
      </trkpt>
      <trkpt lat="43.584" lon="5.5595">
        <ele>432.39999389648</ele>
        <time>2013-06-01T08:51:12.000Z</time>
      </trkpt>
      <trkpt lat="43.58393" lon="5.55944">
        <ele>432.20001220703</ele>
        <time>2013-06-01T08:51:13.000Z</time>
      </trkpt>
      <trkpt lat="43.58387" lon="5.55938">
        <ele>431.79998779297</ele>
        <time>2013-06-01T08:51:14.000Z</time>
      </trkpt>
      <trkpt lat="43.58383" lon="5.5593">
        <ele>431</ele>
        <time>2013-06-01T08:51:15.000Z</time>
      </trkpt>
      <trkpt lat="43.58379" lon="5.55921">
        <ele>430</ele>
        <time>2013-06-01T08:51:16.000Z</time>
      </trkpt>
      <trkpt lat="43.58373" lon="5.55913">
        <ele>429.39999389648</ele>
        <time>2013-06-01T08:51:17.000Z</time>
      </trkpt>
      <trkpt lat="43.58367" lon="5.55905">
        <ele>429.20001220703</ele>
        <time>2013-06-01T08:51:18.000Z</time>
      </trkpt>
      <trkpt lat="43.58361" lon="5.55898">
        <ele>428.60000610352</ele>
        <time>2013-06-01T08:51:19.000Z</time>
      </trkpt>
      <trkpt lat="43.58355" lon="5.55891">
        <ele>427.79998779297</ele>
        <time>2013-06-01T08:51:20.000Z</time>
      </trkpt>
      <trkpt lat="43.58349" lon="5.55884">
        <ele>426.79998779297</ele>
        <time>2013-06-01T08:51:21.000Z</time>
      </trkpt>
      <trkpt lat="43.58344" lon="5.55875">
        <ele>425.60000610352</ele>
        <time>2013-06-01T08:51:22.000Z</time>
      </trkpt>
      <trkpt lat="43.58339" lon="5.55868">
        <ele>424.20001220703</ele>
        <time>2013-06-01T08:51:23.000Z</time>
      </trkpt>
      <trkpt lat="43.58333" lon="5.5586">
        <ele>422.60000610352</ele>
        <time>2013-06-01T08:51:24.000Z</time>
      </trkpt>
      <trkpt lat="43.58328" lon="5.55852">
        <ele>422</ele>
        <time>2013-06-01T08:51:25.000Z</time>
      </trkpt>
      <trkpt lat="43.58325" lon="5.55842">
        <ele>421.20001220703</ele>
        <time>2013-06-01T08:51:26.000Z</time>
      </trkpt>
      <trkpt lat="43.58321" lon="5.5582">
        <ele>421.20001220703</ele>
        <time>2013-06-01T08:51:28.000Z</time>
      </trkpt>
      <trkpt lat="43.58316" lon="5.55785">
        <ele>422.60000610352</ele>
        <time>2013-06-01T08:51:31.000Z</time>
      </trkpt>
      <trkpt lat="43.5831" lon="5.55764">
        <ele>422.60000610352</ele>
        <time>2013-06-01T08:51:33.000Z</time>
      </trkpt>
      <trkpt lat="43.58306" lon="5.55754">
        <ele>422.20001220703</ele>
        <time>2013-06-01T08:51:34.000Z</time>
      </trkpt>
      <trkpt lat="43.58301" lon="5.55747">
        <ele>422</ele>
        <time>2013-06-01T08:51:35.000Z</time>
      </trkpt>
      <trkpt lat="43.58294" lon="5.55744">
        <ele>421.20001220703</ele>
        <time>2013-06-01T08:51:36.000Z</time>
      </trkpt>
      <trkpt lat="43.58287" lon="5.55745">
        <ele>419.60000610352</ele>
        <time>2013-06-01T08:51:37.000Z</time>
      </trkpt>
      <trkpt lat="43.58279" lon="5.55748">
        <ele>417.39999389648</ele>
        <time>2013-06-01T08:51:38.000Z</time>
      </trkpt>
      <trkpt lat="43.58272" lon="5.55751">
        <ele>415.39999389648</ele>
        <time>2013-06-01T08:51:39.000Z</time>
      </trkpt>
      <trkpt lat="43.58264" lon="5.55753">
        <ele>413.79998779297</ele>
        <time>2013-06-01T08:51:40.000Z</time>
      </trkpt>
      <trkpt lat="43.58255" lon="5.55754">
        <ele>412.20001220703</ele>
        <time>2013-06-01T08:51:41.000Z</time>
      </trkpt>
      <trkpt lat="43.58247" lon="5.55757">
        <ele>411.39999389648</ele>
        <time>2013-06-01T08:51:42.000Z</time>
      </trkpt>
      <trkpt lat="43.58239" lon="5.55761">
        <ele>411.39999389648</ele>
        <time>2013-06-01T08:51:43.000Z</time>
      </trkpt>
      <trkpt lat="43.58231" lon="5.55764">
        <ele>411.20001220703</ele>
        <time>2013-06-01T08:51:44.000Z</time>
      </trkpt>
      <trkpt lat="43.58223" lon="5.55764">
        <ele>410.79998779297</ele>
        <time>2013-06-01T08:51:45.000Z</time>
      </trkpt>
      <trkpt lat="43.58215" lon="5.55762">
        <ele>410.20001220703</ele>
        <time>2013-06-01T08:51:46.000Z</time>
      </trkpt>
      <trkpt lat="43.58207" lon="5.55758">
        <ele>409.60000610352</ele>
        <time>2013-06-01T08:51:47.000Z</time>
      </trkpt>
      <trkpt lat="43.58199" lon="5.55754">
        <ele>408.79998779297</ele>
        <time>2013-06-01T08:51:48.000Z</time>
      </trkpt>
      <trkpt lat="43.58192" lon="5.55748">
        <ele>408.20001220703</ele>
        <time>2013-06-01T08:51:49.000Z</time>
      </trkpt>
      <trkpt lat="43.58186" lon="5.55741">
        <ele>408.20001220703</ele>
        <time>2013-06-01T08:51:50.000Z</time>
      </trkpt>
      <trkpt lat="43.5818" lon="5.55733">
        <ele>408</ele>
        <time>2013-06-01T08:51:51.000Z</time>
      </trkpt>
      <trkpt lat="43.58175" lon="5.55724">
        <ele>407.39999389648</ele>
        <time>2013-06-01T08:51:52.000Z</time>
      </trkpt>
      <trkpt lat="43.58169" lon="5.55716">
        <ele>406.79998779297</ele>
        <time>2013-06-01T08:51:53.000Z</time>
      </trkpt>
      <trkpt lat="43.58166" lon="5.55707">
        <ele>406.39999389648</ele>
        <time>2013-06-01T08:51:54.000Z</time>
      </trkpt>
      <trkpt lat="43.58165" lon="5.55697">
        <ele>406.39999389648</ele>
        <time>2013-06-01T08:51:55.000Z</time>
      </trkpt>
      <trkpt lat="43.58157" lon="5.55626">
        <ele>403.39999389648</ele>
        <time>2013-06-01T08:52:01.000Z</time>
      </trkpt>
      <trkpt lat="43.58156" lon="5.55616">
        <ele>402.79998779297</ele>
        <time>2013-06-01T08:52:02.000Z</time>
      </trkpt>
      <trkpt lat="43.58154" lon="5.55607">
        <ele>402</ele>
        <time>2013-06-01T08:52:03.000Z</time>
      </trkpt>
      <trkpt lat="43.58151" lon="5.55598">
        <ele>401.20001220703</ele>
        <time>2013-06-01T08:52:04.000Z</time>
      </trkpt>
      <trkpt lat="43.58148" lon="5.55589">
        <ele>400.39999389648</ele>
        <time>2013-06-01T08:52:05.000Z</time>
      </trkpt>
      <trkpt lat="43.58147" lon="5.5558">
        <ele>400.39999389648</ele>
        <time>2013-06-01T08:52:06.000Z</time>
      </trkpt>
      <trkpt lat="43.58144" lon="5.55572">
        <ele>401.39999389648</ele>
        <time>2013-06-01T08:52:07.000Z</time>
      </trkpt>
      <trkpt lat="43.58139" lon="5.55566">
        <ele>401.79998779297</ele>
        <time>2013-06-01T08:52:08.000Z</time>
      </trkpt>
      <trkpt lat="43.58133" lon="5.55562">
        <ele>401.60000610352</ele>
        <time>2013-06-01T08:52:09.000Z</time>
      </trkpt>
      <trkpt lat="43.58127" lon="5.55559">
        <ele>401.20001220703</ele>
        <time>2013-06-01T08:52:10.000Z</time>
      </trkpt>
      <trkpt lat="43.5812" lon="5.55556">
        <ele>400.60000610352</ele>
        <time>2013-06-01T08:52:11.000Z</time>
      </trkpt>
      <trkpt lat="43.5809" lon="5.55547">
        <ele>397.20001220703</ele>
        <time>2013-06-01T08:52:15.000Z</time>
      </trkpt>
      <trkpt lat="43.58082" lon="5.55546">
        <ele>396</ele>
        <time>2013-06-01T08:52:16.000Z</time>
      </trkpt>
      <trkpt lat="43.58067" lon="5.55545">
        <ele>394.20001220703</ele>
        <time>2013-06-01T08:52:18.000Z</time>
      </trkpt>
      <trkpt lat="43.58034" lon="5.55545">
        <ele>390.39999389648</ele>
        <time>2013-06-01T08:52:24.000Z</time>
      </trkpt>
      <trkpt lat="43.5802" lon="5.55546">
        <ele>388.79998779297</ele>
        <time>2013-06-01T08:52:33.000Z</time>
      </trkpt>
      <trkpt lat="43.5802" lon="5.55549">
        <ele>388.79998779297</ele>
        <time>2013-06-01T08:52:49.000Z</time>
      </trkpt>
      <trkpt lat="43.58022" lon="5.55551">
        <ele>389.20001220703</ele>
        <time>2013-06-01T08:53:06.000Z</time>
      </trkpt>
      <trkpt lat="43.58021" lon="5.55553">
        <ele>389</ele>
        <time>2013-06-01T08:53:16.000Z</time>
      </trkpt>
      <trkpt lat="43.58022" lon="5.55557">
        <ele>389.20001220703</ele>
        <time>2013-06-01T08:53:42.000Z</time>
      </trkpt>
      <trkpt lat="43.5802" lon="5.55555">
        <ele>388.79998779297</ele>
        <time>2013-06-01T08:54:12.000Z</time>
      </trkpt>
      <trkpt lat="43.58019" lon="5.55556">
        <ele>388.79998779297</ele>
        <time>2013-06-01T08:54:30.000Z</time>
      </trkpt>
      <trkpt lat="43.58019" lon="5.5556">
        <ele>388.79998779297</ele>
        <time>2013-06-01T08:54:54.000Z</time>
      </trkpt>
      <trkpt lat="43.58018" lon="5.55561">
        <ele>388.79998779297</ele>
        <time>2013-06-01T08:55:17.000Z</time>
      </trkpt>
      <trkpt lat="43.58018" lon="5.55557">
        <ele>388.79998779297</ele>
        <time>2013-06-01T08:55:33.000Z</time>
      </trkpt>
      <trkpt lat="43.58017" lon="5.55558">
        <ele>388.60000610352</ele>
        <time>2013-06-01T08:55:41.000Z</time>
      </trkpt>
      <trkpt lat="43.58016" lon="5.55559">
        <ele>388.60000610352</ele>
        <time>2013-06-01T08:55:42.000Z</time>
      </trkpt>
      <trkpt lat="43.58014" lon="5.5556">
        <ele>388.39999389648</ele>
        <time>2013-06-01T08:55:43.000Z</time>
      </trkpt>
      <trkpt lat="43.58012" lon="5.55563">
        <ele>388.20001220703</ele>
        <time>2013-06-01T08:55:44.000Z</time>
      </trkpt>
      <trkpt lat="43.58011" lon="5.55565">
        <ele>388.20001220703</ele>
        <time>2013-06-01T08:55:45.000Z</time>
      </trkpt>
      <trkpt lat="43.58009" lon="5.55569">
        <ele>388</ele>
        <time>2013-06-01T08:55:46.000Z</time>
      </trkpt>
      <trkpt lat="43.58007" lon="5.55572">
        <ele>388</ele>
        <time>2013-06-01T08:55:47.000Z</time>
      </trkpt>
      <trkpt lat="43.57998" lon="5.55606">
        <ele>388.39999389648</ele>
        <time>2013-06-01T08:55:57.000Z</time>
      </trkpt>
      <trkpt lat="43.57995" lon="5.5565">
        <ele>389.20001220703</ele>
        <time>2013-06-01T08:56:09.000Z</time>
      </trkpt>
      <trkpt lat="43.57982" lon="5.55701">
        <ele>393.20001220703</ele>
        <time>2013-06-01T08:56:22.000Z</time>
      </trkpt>
      <trkpt lat="43.5796" lon="5.55754">
        <ele>398.60000610352</ele>
        <time>2013-06-01T08:56:35.000Z</time>
      </trkpt>
      <trkpt lat="43.57948" lon="5.55813">
        <ele>401</ele>
        <time>2013-06-01T08:56:48.000Z</time>
      </trkpt>
      <trkpt lat="43.57925" lon="5.55863">
        <ele>398.79998779297</ele>
        <time>2013-06-01T08:57:00.000Z</time>
      </trkpt>
      <trkpt lat="43.57893" lon="5.55911">
        <ele>399</ele>
        <time>2013-06-01T08:57:13.000Z</time>
      </trkpt>
      <trkpt lat="43.57852" lon="5.55953">
        <ele>397.60000610352</ele>
        <time>2013-06-01T08:57:27.000Z</time>
      </trkpt>
      <trkpt lat="43.57838" lon="5.55995">
        <ele>393.20001220703</ele>
        <time>2013-06-01T08:57:37.000Z</time>
      </trkpt>
      <trkpt lat="43.57845" lon="5.56056">
        <ele>398.20001220703</ele>
        <time>2013-06-01T08:57:49.000Z</time>
      </trkpt>
      <trkpt lat="43.57867" lon="5.56093">
        <ele>402.39999389648</ele>
        <time>2013-06-01T08:57:59.000Z</time>
      </trkpt>
      <trkpt lat="43.57899" lon="5.5611">
        <ele>404.20001220703</ele>
        <time>2013-06-01T08:58:09.000Z</time>
      </trkpt>
      <trkpt lat="43.57928" lon="5.5615">
        <ele>403.20001220703</ele>
        <time>2013-06-01T08:58:21.000Z</time>
      </trkpt>
      <trkpt lat="43.57954" lon="5.56187">
        <ele>403.60000610352</ele>
        <time>2013-06-01T08:58:32.000Z</time>
      </trkpt>
      <trkpt lat="43.57961" lon="5.56195">
        <ele>403.79998779297</ele>
        <time>2013-06-01T08:58:35.000Z</time>
      </trkpt>
      <trkpt lat="43.57991" lon="5.56217">
        <ele>403.60000610352</ele>
        <time>2013-06-01T08:58:46.000Z</time>
      </trkpt>
      <trkpt lat="43.58013" lon="5.5622">
        <ele>405</ele>
        <time>2013-06-01T08:58:55.000Z</time>
      </trkpt>
      <trkpt lat="43.58042" lon="5.56228">
        <ele>407.39999389648</ele>
        <time>2013-06-01T08:59:06.000Z</time>
      </trkpt>
      <trkpt lat="43.5805" lon="5.56238">
        <ele>406.60000610352</ele>
        <time>2013-06-01T08:59:10.000Z</time>
      </trkpt>
      <trkpt lat="43.58051" lon="5.56241">
        <ele>406.20001220703</ele>
        <time>2013-06-01T08:59:11.000Z</time>
      </trkpt>
      <trkpt lat="43.58053" lon="5.56245">
        <ele>405.60000610352</ele>
        <time>2013-06-01T08:59:12.000Z</time>
      </trkpt>
      <trkpt lat="43.58054" lon="5.5625">
        <ele>404.79998779297</ele>
        <time>2013-06-01T08:59:13.000Z</time>
      </trkpt>
      <trkpt lat="43.58056" lon="5.56254">
        <ele>405</ele>
        <time>2013-06-01T08:59:14.000Z</time>
      </trkpt>
      <trkpt lat="43.58058" lon="5.56258">
        <ele>405.39999389648</ele>
        <time>2013-06-01T08:59:15.000Z</time>
      </trkpt>
      <trkpt lat="43.5806" lon="5.56263">
        <ele>405.60000610352</ele>
        <time>2013-06-01T08:59:16.000Z</time>
      </trkpt>
      <trkpt lat="43.58091" lon="5.56294">
        <ele>407.79998779297</ele>
        <time>2013-06-01T08:59:26.000Z</time>
      </trkpt>
      <trkpt lat="43.58114" lon="5.56326">
        <ele>408.39999389648</ele>
        <time>2013-06-01T08:59:35.000Z</time>
      </trkpt>
      <trkpt lat="43.58125" lon="5.56338">
        <ele>408.39999389648</ele>
        <time>2013-06-01T08:59:39.000Z</time>
      </trkpt>
      <trkpt lat="43.58149" lon="5.56372">
        <ele>409.20001220703</ele>
        <time>2013-06-01T08:59:49.000Z</time>
      </trkpt>
      <trkpt lat="43.58158" lon="5.56396">
        <ele>408.79998779297</ele>
        <time>2013-06-01T08:59:56.000Z</time>
      </trkpt>
      <trkpt lat="43.58192" lon="5.5641">
        <ele>410.20001220703</ele>
        <time>2013-06-01T09:00:08.000Z</time>
      </trkpt>
      <trkpt lat="43.58216" lon="5.56411">
        <ele>412</ele>
        <time>2013-06-01T09:00:17.000Z</time>
      </trkpt>
      <trkpt lat="43.58243" lon="5.56405">
        <ele>415.20001220703</ele>
        <time>2013-06-01T09:00:27.000Z</time>
      </trkpt>
      <trkpt lat="43.58271" lon="5.56397">
        <ele>421</ele>
        <time>2013-06-01T09:00:39.000Z</time>
      </trkpt>
      <trkpt lat="43.58289" lon="5.56415">
        <ele>421.79998779297</ele>
        <time>2013-06-01T09:00:48.000Z</time>
      </trkpt>
      <trkpt lat="43.58296" lon="5.56428">
        <ele>423</ele>
        <time>2013-06-01T09:00:53.000Z</time>
      </trkpt>
      <trkpt lat="43.58305" lon="5.5646">
        <ele>424.60000610352</ele>
        <time>2013-06-01T09:01:04.000Z</time>
      </trkpt>
      <trkpt lat="43.58308" lon="5.56492">
        <ele>424.79998779297</ele>
        <time>2013-06-01T09:01:15.000Z</time>
      </trkpt>
      <trkpt lat="43.58309" lon="5.56498">
        <ele>424.79998779297</ele>
        <time>2013-06-01T09:01:17.000Z</time>
      </trkpt>
      <trkpt lat="43.58309" lon="5.56501">
        <ele>424.79998779297</ele>
        <time>2013-06-01T09:01:18.000Z</time>
      </trkpt>
      <trkpt lat="43.58309" lon="5.56504">
        <ele>425</ele>
        <time>2013-06-01T09:01:19.000Z</time>
      </trkpt>
      <trkpt lat="43.58309" lon="5.56508">
        <ele>425.20001220703</ele>
        <time>2013-06-01T09:01:20.000Z</time>
      </trkpt>
      <trkpt lat="43.58309" lon="5.56511">
        <ele>425.39999389648</ele>
        <time>2013-06-01T09:01:21.000Z</time>
      </trkpt>
      <trkpt lat="43.5831" lon="5.56546">
        <ele>427.60000610352</ele>
        <time>2013-06-01T09:01:33.000Z</time>
      </trkpt>
      <trkpt lat="43.58318" lon="5.5657">
        <ele>427.60000610352</ele>
        <time>2013-06-01T09:01:43.000Z</time>
      </trkpt>
      <trkpt lat="43.58331" lon="5.56588">
        <ele>426.20001220703</ele>
        <time>2013-06-01T09:01:53.000Z</time>
      </trkpt>
      <trkpt lat="43.58332" lon="5.56589">
        <ele>426</ele>
        <time>2013-06-01T09:01:54.000Z</time>
      </trkpt>
      <trkpt lat="43.58334" lon="5.5659">
        <ele>426</ele>
        <time>2013-06-01T09:01:55.000Z</time>
      </trkpt>
      <trkpt lat="43.58335" lon="5.5659">
        <ele>426.20001220703</ele>
        <time>2013-06-01T09:01:56.000Z</time>
      </trkpt>
      <trkpt lat="43.58336" lon="5.5659">
        <ele>426.39999389648</ele>
        <time>2013-06-01T09:01:57.000Z</time>
      </trkpt>
      <trkpt lat="43.58338" lon="5.5659">
        <ele>426.60000610352</ele>
        <time>2013-06-01T09:01:58.000Z</time>
      </trkpt>
      <trkpt lat="43.58339" lon="5.5659">
        <ele>426.79998779297</ele>
        <time>2013-06-01T09:01:59.000Z</time>
      </trkpt>
      <trkpt lat="43.5834" lon="5.5659">
        <ele>426.79998779297</ele>
        <time>2013-06-01T09:02:00.000Z</time>
      </trkpt>
      <trkpt lat="43.58343" lon="5.56589">
        <ele>427</ele>
        <time>2013-06-01T09:02:02.000Z</time>
      </trkpt>
      <trkpt lat="43.58344" lon="5.56589">
        <ele>427</ele>
        <time>2013-06-01T09:02:03.000Z</time>
      </trkpt>
      <trkpt lat="43.58346" lon="5.56588">
        <ele>427.20001220703</ele>
        <time>2013-06-01T09:02:04.000Z</time>
      </trkpt>
      <trkpt lat="43.58347" lon="5.56588">
        <ele>427.20001220703</ele>
        <time>2013-06-01T09:02:05.000Z</time>
      </trkpt>
      <trkpt lat="43.58349" lon="5.56587">
        <ele>427.39999389648</ele>
        <time>2013-06-01T09:02:06.000Z</time>
      </trkpt>
      <trkpt lat="43.58366" lon="5.56583">
        <ele>428.79998779297</ele>
        <time>2013-06-01T09:02:20.000Z</time>
      </trkpt>
      <trkpt lat="43.58382" lon="5.5658">
        <ele>430.79998779297</ele>
        <time>2013-06-01T09:02:33.000Z</time>
      </trkpt>
      <trkpt lat="43.58389" lon="5.56578">
        <ele>431.79998779297</ele>
        <time>2013-06-01T09:02:39.000Z</time>
      </trkpt>
      <trkpt lat="43.5839" lon="5.56577">
        <ele>432</ele>
        <time>2013-06-01T09:02:40.000Z</time>
      </trkpt>
      <trkpt lat="43.58392" lon="5.56577">
        <ele>432.20001220703</ele>
        <time>2013-06-01T09:02:41.000Z</time>
      </trkpt>
      <trkpt lat="43.58404" lon="5.56581">
        <ele>433.60000610352</ele>
        <time>2013-06-01T09:02:52.000Z</time>
      </trkpt>
      <trkpt lat="43.58405" lon="5.56583">
        <ele>433.60000610352</ele>
        <time>2013-06-01T09:02:53.000Z</time>
      </trkpt>
      <trkpt lat="43.58407" lon="5.56586">
        <ele>434</ele>
        <time>2013-06-01T09:02:55.000Z</time>
      </trkpt>
      <trkpt lat="43.58407" lon="5.56587">
        <ele>434</ele>
        <time>2013-06-01T09:02:56.000Z</time>
      </trkpt>
      <trkpt lat="43.58407" lon="5.56589">
        <ele>434.20001220703</ele>
        <time>2013-06-01T09:02:57.000Z</time>
      </trkpt>
      <trkpt lat="43.58406" lon="5.56592">
        <ele>434.39999389648</ele>
        <time>2013-06-01T09:02:59.000Z</time>
      </trkpt>
      <trkpt lat="43.58405" lon="5.56593">
        <ele>434.39999389648</ele>
        <time>2013-06-01T09:03:00.000Z</time>
      </trkpt>
      <trkpt lat="43.58404" lon="5.56594">
        <ele>434.39999389648</ele>
        <time>2013-06-01T09:03:01.000Z</time>
      </trkpt>
      <trkpt lat="43.58403" lon="5.56596">
        <ele>434.39999389648</ele>
        <time>2013-06-01T09:03:02.000Z</time>
      </trkpt>
      <trkpt lat="43.58402" lon="5.56598">
        <ele>434.39999389648</ele>
        <time>2013-06-01T09:03:03.000Z</time>
      </trkpt>
      <trkpt lat="43.58401" lon="5.56599">
        <ele>434.39999389648</ele>
        <time>2013-06-01T09:03:04.000Z</time>
      </trkpt>
      <trkpt lat="43.584" lon="5.566">
        <ele>434.39999389648</ele>
        <time>2013-06-01T09:03:05.000Z</time>
      </trkpt>
      <trkpt lat="43.5839" lon="5.56615">
        <ele>435</ele>
        <time>2013-06-01T09:03:17.000Z</time>
      </trkpt>
      <trkpt lat="43.58385" lon="5.56624">
        <ele>435.39999389648</ele>
        <time>2013-06-01T09:03:24.000Z</time>
      </trkpt>
      <trkpt lat="43.58377" lon="5.56642">
        <ele>437</ele>
        <time>2013-06-01T09:03:36.000Z</time>
      </trkpt>
      <trkpt lat="43.58371" lon="5.56661">
        <ele>439</ele>
        <time>2013-06-01T09:03:48.000Z</time>
      </trkpt>
      <trkpt lat="43.5837" lon="5.56663">
        <ele>439.39999389648</ele>
        <time>2013-06-01T09:03:50.000Z</time>
      </trkpt>
      <trkpt lat="43.58369" lon="5.56665">
        <ele>439.60000610352</ele>
        <time>2013-06-01T09:03:51.000Z</time>
      </trkpt>
      <trkpt lat="43.58369" lon="5.56666">
        <ele>439.60000610352</ele>
        <time>2013-06-01T09:03:52.000Z</time>
      </trkpt>
      <trkpt lat="43.58368" lon="5.56667">
        <ele>439.79998779297</ele>
        <time>2013-06-01T09:03:53.000Z</time>
      </trkpt>
      <trkpt lat="43.58368" lon="5.56669">
        <ele>440</ele>
        <time>2013-06-01T09:03:54.000Z</time>
      </trkpt>
      <trkpt lat="43.58368" lon="5.5667">
        <ele>440.20001220703</ele>
        <time>2013-06-01T09:03:55.000Z</time>
      </trkpt>
      <trkpt lat="43.58367" lon="5.56672">
        <ele>440.60000610352</ele>
        <time>2013-06-01T09:03:56.000Z</time>
      </trkpt>
      <trkpt lat="43.58367" lon="5.56674">
        <ele>440.79998779297</ele>
        <time>2013-06-01T09:03:57.000Z</time>
      </trkpt>
      <trkpt lat="43.58363" lon="5.56694">
        <ele>443.79998779297</ele>
        <time>2013-06-01T09:04:09.000Z</time>
      </trkpt>
      <trkpt lat="43.58362" lon="5.56708">
        <ele>446.20001220703</ele>
        <time>2013-06-01T09:04:19.000Z</time>
      </trkpt>
      <trkpt lat="43.5836" lon="5.56721">
        <ele>448.20001220703</ele>
        <time>2013-06-01T09:04:27.000Z</time>
      </trkpt>
      <trkpt lat="43.5836" lon="5.56722">
        <ele>448.39999389648</ele>
        <time>2013-06-01T09:04:28.000Z</time>
      </trkpt>
      <trkpt lat="43.58358" lon="5.56742">
        <ele>451.60000610352</ele>
        <time>2013-06-01T09:04:39.000Z</time>
      </trkpt>
      <trkpt lat="43.58351" lon="5.56768">
        <ele>456.20001220703</ele>
        <time>2013-06-01T09:04:53.000Z</time>
      </trkpt>
      <trkpt lat="43.58348" lon="5.56776">
        <ele>457.60000610352</ele>
        <time>2013-06-01T09:04:58.000Z</time>
      </trkpt>
      <trkpt lat="43.58348" lon="5.56778">
        <ele>457.79998779297</ele>
        <time>2013-06-01T09:04:59.000Z</time>
      </trkpt>
      <trkpt lat="43.58348" lon="5.5678">
        <ele>458.20001220703</ele>
        <time>2013-06-01T09:05:00.000Z</time>
      </trkpt>
      <trkpt lat="43.58347" lon="5.56782">
        <ele>458.39999389648</ele>
        <time>2013-06-01T09:05:01.000Z</time>
      </trkpt>
      <trkpt lat="43.58347" lon="5.56783">
        <ele>458.79998779297</ele>
        <time>2013-06-01T09:05:02.000Z</time>
      </trkpt>
      <trkpt lat="43.58347" lon="5.56785">
        <ele>459</ele>
        <time>2013-06-01T09:05:03.000Z</time>
      </trkpt>
      <trkpt lat="43.58346" lon="5.56786">
        <ele>459.20001220703</ele>
        <time>2013-06-01T09:05:04.000Z</time>
      </trkpt>
      <trkpt lat="43.58337" lon="5.56807">
        <ele>462.60000610352</ele>
        <time>2013-06-01T09:05:18.000Z</time>
      </trkpt>
      <trkpt lat="43.58336" lon="5.56808">
        <ele>462.79998779297</ele>
        <time>2013-06-01T09:05:19.000Z</time>
      </trkpt>
      <trkpt lat="43.58336" lon="5.5681">
        <ele>463</ele>
        <time>2013-06-01T09:05:20.000Z</time>
      </trkpt>
      <trkpt lat="43.58336" lon="5.56812">
        <ele>463.39999389648</ele>
        <time>2013-06-01T09:05:21.000Z</time>
      </trkpt>
      <trkpt lat="43.58335" lon="5.56813">
        <ele>463.60000610352</ele>
        <time>2013-06-01T09:05:22.000Z</time>
      </trkpt>
      <trkpt lat="43.58334" lon="5.56815">
        <ele>463.79998779297</ele>
        <time>2013-06-01T09:05:23.000Z</time>
      </trkpt>
      <trkpt lat="43.58333" lon="5.56817">
        <ele>464.20001220703</ele>
        <time>2013-06-01T09:05:24.000Z</time>
      </trkpt>
      <trkpt lat="43.58333" lon="5.56818">
        <ele>464.39999389648</ele>
        <time>2013-06-01T09:05:25.000Z</time>
      </trkpt>
      <trkpt lat="43.58332" lon="5.5682">
        <ele>464.79998779297</ele>
        <time>2013-06-01T09:05:26.000Z</time>
      </trkpt>
      <trkpt lat="43.58326" lon="5.56837">
        <ele>468.39999389648</ele>
        <time>2013-06-01T09:05:37.000Z</time>
      </trkpt>
      <trkpt lat="43.58322" lon="5.56853">
        <ele>470.79998779297</ele>
        <time>2013-06-01T09:05:48.000Z</time>
      </trkpt>
      <trkpt lat="43.58321" lon="5.56856">
        <ele>471.20001220703</ele>
        <time>2013-06-01T09:05:50.000Z</time>
      </trkpt>
      <trkpt lat="43.5832" lon="5.56858">
        <ele>471.60000610352</ele>
        <time>2013-06-01T09:05:52.000Z</time>
      </trkpt>
      <trkpt lat="43.58319" lon="5.56861">
        <ele>472</ele>
        <time>2013-06-01T09:05:54.000Z</time>
      </trkpt>
      <trkpt lat="43.58319" lon="5.56863">
        <ele>472.20001220703</ele>
        <time>2013-06-01T09:05:55.000Z</time>
      </trkpt>
      <trkpt lat="43.58318" lon="5.56865">
        <ele>472.39999389648</ele>
        <time>2013-06-01T09:05:56.000Z</time>
      </trkpt>
      <trkpt lat="43.58318" lon="5.56866">
        <ele>472.60000610352</ele>
        <time>2013-06-01T09:05:57.000Z</time>
      </trkpt>
      <trkpt lat="43.58318" lon="5.56868">
        <ele>472.79998779297</ele>
        <time>2013-06-01T09:05:58.000Z</time>
      </trkpt>
      <trkpt lat="43.58318" lon="5.56869">
        <ele>473</ele>
        <time>2013-06-01T09:05:59.000Z</time>
      </trkpt>
      <trkpt lat="43.58318" lon="5.56871">
        <ele>473.20001220703</ele>
        <time>2013-06-01T09:06:00.000Z</time>
      </trkpt>
      <trkpt lat="43.58317" lon="5.56872">
        <ele>473.39999389648</ele>
        <time>2013-06-01T09:06:01.000Z</time>
      </trkpt>
      <trkpt lat="43.58317" lon="5.56874">
        <ele>473.60000610352</ele>
        <time>2013-06-01T09:06:02.000Z</time>
      </trkpt>
      <trkpt lat="43.58316" lon="5.56876">
        <ele>473.79998779297</ele>
        <time>2013-06-01T09:06:03.000Z</time>
      </trkpt>
      <trkpt lat="43.58316" lon="5.56878">
        <ele>474</ele>
        <time>2013-06-01T09:06:04.000Z</time>
      </trkpt>
      <trkpt lat="43.58315" lon="5.5688">
        <ele>474.39999389648</ele>
        <time>2013-06-01T09:06:05.000Z</time>
      </trkpt>
      <trkpt lat="43.58315" lon="5.56882">
        <ele>474.60000610352</ele>
        <time>2013-06-01T09:06:06.000Z</time>
      </trkpt>
      <trkpt lat="43.58314" lon="5.56883">
        <ele>474.79998779297</ele>
        <time>2013-06-01T09:06:07.000Z</time>
      </trkpt>
      <trkpt lat="43.58314" lon="5.56887">
        <ele>475.20001220703</ele>
        <time>2013-06-01T09:06:09.000Z</time>
      </trkpt>
      <trkpt lat="43.58314" lon="5.56889">
        <ele>475.39999389648</ele>
        <time>2013-06-01T09:06:11.000Z</time>
      </trkpt>
      <trkpt lat="43.58313" lon="5.56891">
        <ele>475.60000610352</ele>
        <time>2013-06-01T09:06:13.000Z</time>
      </trkpt>
      <trkpt lat="43.58313" lon="5.56892">
        <ele>475.79998779297</ele>
        <time>2013-06-01T09:06:14.000Z</time>
      </trkpt>
      <trkpt lat="43.58312" lon="5.56894">
        <ele>476</ele>
        <time>2013-06-01T09:06:15.000Z</time>
      </trkpt>
      <trkpt lat="43.58312" lon="5.56896">
        <ele>476.20001220703</ele>
        <time>2013-06-01T09:06:16.000Z</time>
      </trkpt>
      <trkpt lat="43.58311" lon="5.56898">
        <ele>476.39999389648</ele>
        <time>2013-06-01T09:06:17.000Z</time>
      </trkpt>
      <trkpt lat="43.58312" lon="5.569">
        <ele>476.60000610352</ele>
        <time>2013-06-01T09:06:18.000Z</time>
      </trkpt>
      <trkpt lat="43.58312" lon="5.56902">
        <ele>476.79998779297</ele>
        <time>2013-06-01T09:06:19.000Z</time>
      </trkpt>
      <trkpt lat="43.58311" lon="5.56904">
        <ele>477</ele>
        <time>2013-06-01T09:06:20.000Z</time>
      </trkpt>
      <trkpt lat="43.5831" lon="5.56906">
        <ele>477.39999389648</ele>
        <time>2013-06-01T09:06:23.000Z</time>
      </trkpt>
      <trkpt lat="43.5831" lon="5.56909">
        <ele>477.60000610352</ele>
        <time>2013-06-01T09:06:24.000Z</time>
      </trkpt>
      <trkpt lat="43.58311" lon="5.56917">
        <ele>478.39999389648</ele>
        <time>2013-06-01T09:06:28.000Z</time>
      </trkpt>
      <trkpt lat="43.58311" lon="5.56919">
        <ele>478.60000610352</ele>
        <time>2013-06-01T09:06:29.000Z</time>
      </trkpt>
      <trkpt lat="43.58311" lon="5.56921">
        <ele>478.79998779297</ele>
        <time>2013-06-01T09:06:30.000Z</time>
      </trkpt>
      <trkpt lat="43.58311" lon="5.56923">
        <ele>479</ele>
        <time>2013-06-01T09:06:31.000Z</time>
      </trkpt>
      <trkpt lat="43.5831" lon="5.56925">
        <ele>479.20001220703</ele>
        <time>2013-06-01T09:06:32.000Z</time>
      </trkpt>
      <trkpt lat="43.58309" lon="5.56928">
        <ele>479.39999389648</ele>
        <time>2013-06-01T09:06:34.000Z</time>
      </trkpt>
      <trkpt lat="43.58309" lon="5.56934">
        <ele>480</ele>
        <time>2013-06-01T09:06:38.000Z</time>
      </trkpt>
      <trkpt lat="43.58308" lon="5.56936">
        <ele>480</ele>
        <time>2013-06-01T09:06:39.000Z</time>
      </trkpt>
      <trkpt lat="43.58308" lon="5.56938">
        <ele>480.20001220703</ele>
        <time>2013-06-01T09:06:40.000Z</time>
      </trkpt>
      <trkpt lat="43.58308" lon="5.5694">
        <ele>480.39999389648</ele>
        <time>2013-06-01T09:06:41.000Z</time>
      </trkpt>
      <trkpt lat="43.58308" lon="5.56942">
        <ele>480.60000610352</ele>
        <time>2013-06-01T09:06:42.000Z</time>
      </trkpt>
      <trkpt lat="43.58307" lon="5.56944">
        <ele>480.79998779297</ele>
        <time>2013-06-01T09:06:43.000Z</time>
      </trkpt>
      <trkpt lat="43.58306" lon="5.56945">
        <ele>480.79998779297</ele>
        <time>2013-06-01T09:06:44.000Z</time>
      </trkpt>
      <trkpt lat="43.58306" lon="5.56947">
        <ele>481</ele>
        <time>2013-06-01T09:06:45.000Z</time>
      </trkpt>
      <trkpt lat="43.58306" lon="5.56949">
        <ele>481.20001220703</ele>
        <time>2013-06-01T09:06:46.000Z</time>
      </trkpt>
      <trkpt lat="43.58306" lon="5.5695">
        <ele>481.20001220703</ele>
        <time>2013-06-01T09:06:47.000Z</time>
      </trkpt>
      <trkpt lat="43.58305" lon="5.56955">
        <ele>481.60000610352</ele>
        <time>2013-06-01T09:06:50.000Z</time>
      </trkpt>
      <trkpt lat="43.58305" lon="5.56957">
        <ele>481.79998779297</ele>
        <time>2013-06-01T09:06:51.000Z</time>
      </trkpt>
      <trkpt lat="43.58305" lon="5.56959">
        <ele>482</ele>
        <time>2013-06-01T09:06:52.000Z</time>
      </trkpt>
      <trkpt lat="43.58305" lon="5.56961">
        <ele>482</ele>
        <time>2013-06-01T09:06:53.000Z</time>
      </trkpt>
      <trkpt lat="43.58305" lon="5.56962">
        <ele>482.20001220703</ele>
        <time>2013-06-01T09:06:54.000Z</time>
      </trkpt>
      <trkpt lat="43.58305" lon="5.5698">
        <ele>483.60000610352</ele>
        <time>2013-06-01T09:07:05.000Z</time>
      </trkpt>
      <trkpt lat="43.58305" lon="5.56991">
        <ele>484.60000610352</ele>
        <time>2013-06-01T09:07:11.000Z</time>
      </trkpt>
      <trkpt lat="43.58306" lon="5.56993">
        <ele>484.60000610352</ele>
        <time>2013-06-01T09:07:12.000Z</time>
      </trkpt>
      <trkpt lat="43.58306" lon="5.56995">
        <ele>484.79998779297</ele>
        <time>2013-06-01T09:07:13.000Z</time>
      </trkpt>
      <trkpt lat="43.58306" lon="5.56996">
        <ele>485</ele>
        <time>2013-06-01T09:07:14.000Z</time>
      </trkpt>
      <trkpt lat="43.58307" lon="5.56998">
        <ele>485</ele>
        <time>2013-06-01T09:07:15.000Z</time>
      </trkpt>
      <trkpt lat="43.58307" lon="5.57">
        <ele>485.20001220703</ele>
        <time>2013-06-01T09:07:16.000Z</time>
      </trkpt>
      <trkpt lat="43.58307" lon="5.57002">
        <ele>485.39999389648</ele>
        <time>2013-06-01T09:07:17.000Z</time>
      </trkpt>
      <trkpt lat="43.58311" lon="5.57024">
        <ele>486</ele>
        <time>2013-06-01T09:07:28.000Z</time>
      </trkpt>
      <trkpt lat="43.58313" lon="5.57037">
        <ele>486.60000610352</ele>
        <time>2013-06-01T09:07:34.000Z</time>
      </trkpt>
      <trkpt lat="43.5832" lon="5.57057">
        <ele>487.39999389648</ele>
        <time>2013-06-01T09:07:44.000Z</time>
      </trkpt>
      <trkpt lat="43.58323" lon="5.57062">
        <ele>487.60000610352</ele>
        <time>2013-06-01T09:07:47.000Z</time>
      </trkpt>
      <trkpt lat="43.5833" lon="5.57085">
        <ele>488.79998779297</ele>
        <time>2013-06-01T09:07:58.000Z</time>
      </trkpt>
      <trkpt lat="43.58336" lon="5.5711">
        <ele>490.39999389648</ele>
        <time>2013-06-01T09:08:09.000Z</time>
      </trkpt>
      <trkpt lat="43.58342" lon="5.57135">
        <ele>492</ele>
        <time>2013-06-01T09:08:19.000Z</time>
      </trkpt>
      <trkpt lat="43.58353" lon="5.57163">
        <ele>494</ele>
        <time>2013-06-01T09:08:29.000Z</time>
      </trkpt>
      <trkpt lat="43.58371" lon="5.57191">
        <ele>494.79998779297</ele>
        <time>2013-06-01T09:08:40.000Z</time>
      </trkpt>
      <trkpt lat="43.58387" lon="5.57214">
        <ele>495.79998779297</ele>
        <time>2013-06-01T09:08:50.000Z</time>
      </trkpt>
      <trkpt lat="43.58405" lon="5.57246">
        <ele>497</ele>
        <time>2013-06-01T09:09:01.000Z</time>
      </trkpt>
      <trkpt lat="43.58422" lon="5.57275">
        <ele>498.39999389648</ele>
        <time>2013-06-01T09:09:11.000Z</time>
      </trkpt>
      <trkpt lat="43.58445" lon="5.57315">
        <ele>500.20001220703</ele>
        <time>2013-06-01T09:09:24.000Z</time>
      </trkpt>
      <trkpt lat="43.58466" lon="5.57351">
        <ele>502</ele>
        <time>2013-06-01T09:09:35.000Z</time>
      </trkpt>
      <trkpt lat="43.58489" lon="5.57381">
        <ele>504.20001220703</ele>
        <time>2013-06-01T09:09:46.000Z</time>
      </trkpt>
      <trkpt lat="43.58504" lon="5.57411">
        <ele>505.60000610352</ele>
        <time>2013-06-01T09:09:56.000Z</time>
      </trkpt>
      <trkpt lat="43.58521" lon="5.57447">
        <ele>506</ele>
        <time>2013-06-01T09:10:06.000Z</time>
      </trkpt>
      <trkpt lat="43.58545" lon="5.57491">
        <ele>506.60000610352</ele>
        <time>2013-06-01T09:10:18.000Z</time>
      </trkpt>
      <trkpt lat="43.58561" lon="5.57532">
        <ele>507.39999389648</ele>
        <time>2013-06-01T09:10:29.000Z</time>
      </trkpt>
      <trkpt lat="43.58562" lon="5.57535">
        <ele>507.60000610352</ele>
        <time>2013-06-01T09:10:38.000Z</time>
      </trkpt>
      <trkpt lat="43.58564" lon="5.57533">
        <ele>507.39999389648</ele>
        <time>2013-06-01T09:10:57.000Z</time>
      </trkpt>
      <trkpt lat="43.58566" lon="5.57536">
        <ele>507.60000610352</ele>
        <time>2013-06-01T09:11:09.000Z</time>
      </trkpt>
      <trkpt lat="43.58568" lon="5.57536">
        <ele>507.60000610352</ele>
        <time>2013-06-01T09:11:36.000Z</time>
      </trkpt>
      <trkpt lat="43.58566" lon="5.57535">
        <ele>507.60000610352</ele>
        <time>2013-06-01T09:12:06.000Z</time>
      </trkpt>
      <trkpt lat="43.58566" lon="5.57533">
        <ele>507.60000610352</ele>
        <time>2013-06-01T09:12:38.000Z</time>
      </trkpt>
      <trkpt lat="43.58563" lon="5.57535">
        <ele>507.60000610352</ele>
        <time>2013-06-01T09:13:09.000Z</time>
      </trkpt>
      <trkpt lat="43.58561" lon="5.57531">
        <ele>507.39999389648</ele>
        <time>2013-06-01T09:13:40.000Z</time>
      </trkpt>
      <trkpt lat="43.58563" lon="5.57531">
        <ele>507.39999389648</ele>
        <time>2013-06-01T09:14:15.000Z</time>
      </trkpt>
      <trkpt lat="43.58564" lon="5.57533">
        <ele>507.60000610352</ele>
        <time>2013-06-01T09:14:45.000Z</time>
      </trkpt>
      <trkpt lat="43.58563" lon="5.57532">
        <ele>507.39999389648</ele>
        <time>2013-06-01T09:15:12.000Z</time>
      </trkpt>
      <trkpt lat="43.58564" lon="5.57532">
        <ele>507.39999389648</ele>
        <time>2013-06-01T09:15:37.000Z</time>
      </trkpt>
      <trkpt lat="43.58565" lon="5.57531">
        <ele>507.39999389648</ele>
        <time>2013-06-01T09:15:45.000Z</time>
      </trkpt>
      <trkpt lat="43.58563" lon="5.57529">
        <ele>507.39999389648</ele>
        <time>2013-06-01T09:16:15.000Z</time>
      </trkpt>
      <trkpt lat="43.58564" lon="5.57533">
        <ele>507.60000610352</ele>
        <time>2013-06-01T09:16:46.000Z</time>
      </trkpt>
      <trkpt lat="43.58564" lon="5.57533">
        <ele>507.60000610352</ele>
        <time>2013-06-01T09:17:16.000Z</time>
      </trkpt>
      <trkpt lat="43.58564" lon="5.5753">
        <ele>507.39999389648</ele>
        <time>2013-06-01T09:17:43.000Z</time>
      </trkpt>
      <trkpt lat="43.58566" lon="5.57536">
        <ele>507.60000610352</ele>
        <time>2013-06-01T09:18:18.000Z</time>
      </trkpt>
      <trkpt lat="43.58566" lon="5.57538">
        <ele>507.60000610352</ele>
        <time>2013-06-01T09:18:40.000Z</time>
      </trkpt>
      <trkpt lat="43.58566" lon="5.57538">
        <ele>507.60000610352</ele>
        <time>2013-06-01T09:19:04.000Z</time>
      </trkpt>
      <trkpt lat="43.58571" lon="5.57556">
        <ele>508</ele>
        <time>2013-06-01T09:19:13.000Z</time>
      </trkpt>
      <trkpt lat="43.58582" lon="5.57588">
        <ele>509</ele>
        <time>2013-06-01T09:19:22.000Z</time>
      </trkpt>
      <trkpt lat="43.58584" lon="5.57591">
        <ele>509.20001220703</ele>
        <time>2013-06-01T09:19:23.000Z</time>
      </trkpt>
      <trkpt lat="43.58584" lon="5.57595">
        <ele>509.39999389648</ele>
        <time>2013-06-01T09:19:24.000Z</time>
      </trkpt>
      <trkpt lat="43.58587" lon="5.57604">
        <ele>509.60000610352</ele>
        <time>2013-06-01T09:19:27.000Z</time>
      </trkpt>
      <trkpt lat="43.58587" lon="5.57607">
        <ele>509.79998779297</ele>
        <time>2013-06-01T09:19:28.000Z</time>
      </trkpt>
      <trkpt lat="43.58589" lon="5.57614">
        <ele>510</ele>
        <time>2013-06-01T09:19:30.000Z</time>
      </trkpt>
      <trkpt lat="43.58603" lon="5.57651">
        <ele>511.60000610352</ele>
        <time>2013-06-01T09:19:40.000Z</time>
      </trkpt>
      <trkpt lat="43.5862" lon="5.5768">
        <ele>512.79998779297</ele>
        <time>2013-06-01T09:19:50.000Z</time>
      </trkpt>
      <trkpt lat="43.58631" lon="5.5771">
        <ele>514</ele>
        <time>2013-06-01T09:20:00.000Z</time>
      </trkpt>
      <trkpt lat="43.5864" lon="5.57741">
        <ele>515.20001220703</ele>
        <time>2013-06-01T09:20:10.000Z</time>
      </trkpt>
      <trkpt lat="43.58643" lon="5.57758">
        <ele>516</ele>
        <time>2013-06-01T09:20:16.000Z</time>
      </trkpt>
      <trkpt lat="43.58645" lon="5.57761">
        <ele>516.20001220703</ele>
        <time>2013-06-01T09:20:24.000Z</time>
      </trkpt>
      <trkpt lat="43.5865" lon="5.57789">
        <ele>517.20001220703</ele>
        <time>2013-06-01T09:20:31.000Z</time>
      </trkpt>
      <trkpt lat="43.58653" lon="5.57795">
        <ele>517.59997558594</ele>
        <time>2013-06-01T09:20:32.000Z</time>
      </trkpt>
      <trkpt lat="43.58659" lon="5.57807">
        <ele>518.40002441406</ele>
        <time>2013-06-01T09:20:34.000Z</time>
      </trkpt>
      <trkpt lat="43.58661" lon="5.57813">
        <ele>518.79998779297</ele>
        <time>2013-06-01T09:20:35.000Z</time>
      </trkpt>
      <trkpt lat="43.58663" lon="5.57819">
        <ele>519</ele>
        <time>2013-06-01T09:20:36.000Z</time>
      </trkpt>
      <trkpt lat="43.58668" lon="5.5784">
        <ele>520</ele>
        <time>2013-06-01T09:20:39.000Z</time>
      </trkpt>
      <trkpt lat="43.58675" lon="5.57889">
        <ele>520.79998779297</ele>
        <time>2013-06-01T09:20:46.000Z</time>
      </trkpt>
      <trkpt lat="43.58678" lon="5.57902">
        <ele>521</ele>
        <time>2013-06-01T09:20:48.000Z</time>
      </trkpt>
      <trkpt lat="43.58681" lon="5.57908">
        <ele>521.20001220703</ele>
        <time>2013-06-01T09:20:49.000Z</time>
      </trkpt>
      <trkpt lat="43.58687" lon="5.5792">
        <ele>521.59997558594</ele>
        <time>2013-06-01T09:20:51.000Z</time>
      </trkpt>
      <trkpt lat="43.58691" lon="5.57932">
        <ele>522</ele>
        <time>2013-06-01T09:20:53.000Z</time>
      </trkpt>
      <trkpt lat="43.58714" lon="5.57991">
        <ele>524</ele>
        <time>2013-06-01T09:21:04.000Z</time>
      </trkpt>
      <trkpt lat="43.58716" lon="5.57997">
        <ele>524.20001220703</ele>
        <time>2013-06-01T09:21:05.000Z</time>
      </trkpt>
      <trkpt lat="43.58717" lon="5.58003">
        <ele>524.40002441406</ele>
        <time>2013-06-01T09:21:06.000Z</time>
      </trkpt>
      <trkpt lat="43.58734" lon="5.58083">
        <ele>526.20001220703</ele>
        <time>2013-06-01T09:21:19.000Z</time>
      </trkpt>
      <trkpt lat="43.58736" lon="5.58095">
        <ele>526.20001220703</ele>
        <time>2013-06-01T09:21:21.000Z</time>
      </trkpt>
      <trkpt lat="43.58755" lon="5.58176">
        <ele>526.40002441406</ele>
        <time>2013-06-01T09:21:34.000Z</time>
      </trkpt>
      <trkpt lat="43.58759" lon="5.58189">
        <ele>527</ele>
        <time>2013-06-01T09:21:36.000Z</time>
      </trkpt>
      <trkpt lat="43.58777" lon="5.58235">
        <ele>529.59997558594</ele>
        <time>2013-06-01T09:21:44.000Z</time>
      </trkpt>
      <trkpt lat="43.58786" lon="5.58252">
        <ele>530.59997558594</ele>
        <time>2013-06-01T09:21:47.000Z</time>
      </trkpt>
      <trkpt lat="43.58788" lon="5.58257">
        <ele>530.79998779297</ele>
        <time>2013-06-01T09:21:48.000Z</time>
      </trkpt>
      <trkpt lat="43.5879" lon="5.58263">
        <ele>530.79998779297</ele>
        <time>2013-06-01T09:21:49.000Z</time>
      </trkpt>
      <trkpt lat="43.58792" lon="5.58269">
        <ele>531</ele>
        <time>2013-06-01T09:21:50.000Z</time>
      </trkpt>
      <trkpt lat="43.58793" lon="5.58274">
        <ele>531.20001220703</ele>
        <time>2013-06-01T09:21:51.000Z</time>
      </trkpt>
      <trkpt lat="43.58795" lon="5.5828">
        <ele>531.40002441406</ele>
        <time>2013-06-01T09:21:52.000Z</time>
      </trkpt>
      <trkpt lat="43.58797" lon="5.58286">
        <ele>531.59997558594</ele>
        <time>2013-06-01T09:21:53.000Z</time>
      </trkpt>
      <trkpt lat="43.58798" lon="5.58292">
        <ele>531.79998779297</ele>
        <time>2013-06-01T09:21:54.000Z</time>
      </trkpt>
      <trkpt lat="43.58803" lon="5.58315">
        <ele>532.59997558594</ele>
        <time>2013-06-01T09:21:58.000Z</time>
      </trkpt>
      <trkpt lat="43.58805" lon="5.58321">
        <ele>533</ele>
        <time>2013-06-01T09:21:59.000Z</time>
      </trkpt>
      <trkpt lat="43.58809" lon="5.58332">
        <ele>533.79998779297</ele>
        <time>2013-06-01T09:22:01.000Z</time>
      </trkpt>
      <trkpt lat="43.58819" lon="5.58361">
        <ele>535.40002441406</ele>
        <time>2013-06-01T09:22:06.000Z</time>
      </trkpt>
      <trkpt lat="43.5882" lon="5.58367">
        <ele>535.79998779297</ele>
        <time>2013-06-01T09:22:07.000Z</time>
      </trkpt>
      <trkpt lat="43.58822" lon="5.58372">
        <ele>536</ele>
        <time>2013-06-01T09:22:08.000Z</time>
      </trkpt>
      <trkpt lat="43.58824" lon="5.58377">
        <ele>536.40002441406</ele>
        <time>2013-06-01T09:22:09.000Z</time>
      </trkpt>
      <trkpt lat="43.58825" lon="5.58381">
        <ele>536.79998779297</ele>
        <time>2013-06-01T09:22:10.000Z</time>
      </trkpt>
      <trkpt lat="43.58828" lon="5.58391">
        <ele>537.40002441406</ele>
        <time>2013-06-01T09:22:12.000Z</time>
      </trkpt>
      <trkpt lat="43.58839" lon="5.58437">
        <ele>539.20001220703</ele>
        <time>2013-06-01T09:22:22.000Z</time>
      </trkpt>
      <trkpt lat="43.58841" lon="5.58446">
        <ele>539.40002441406</ele>
        <time>2013-06-01T09:22:24.000Z</time>
      </trkpt>
      <trkpt lat="43.58856" lon="5.58489">
        <ele>540.40002441406</ele>
        <time>2013-06-01T09:22:34.000Z</time>
      </trkpt>
      <trkpt lat="43.58882" lon="5.58529">
        <ele>542</ele>
        <time>2013-06-01T09:22:45.000Z</time>
      </trkpt>
      <trkpt lat="43.58904" lon="5.58569">
        <ele>544.20001220703</ele>
        <time>2013-06-01T09:22:55.000Z</time>
      </trkpt>
      <trkpt lat="43.5893" lon="5.58603">
        <ele>546</ele>
        <time>2013-06-01T09:23:05.000Z</time>
      </trkpt>
      <trkpt lat="43.58956" lon="5.58648">
        <ele>546.79998779297</ele>
        <time>2013-06-01T09:23:16.000Z</time>
      </trkpt>
      <trkpt lat="43.58979" lon="5.58684">
        <ele>548.59997558594</ele>
        <time>2013-06-01T09:23:26.000Z</time>
      </trkpt>
      <trkpt lat="43.5899" lon="5.58711">
        <ele>549</ele>
        <time>2013-06-01T09:23:32.000Z</time>
      </trkpt>
      <trkpt lat="43.58992" lon="5.58716">
        <ele>549.20001220703</ele>
        <time>2013-06-01T09:23:33.000Z</time>
      </trkpt>
      <trkpt lat="43.58995" lon="5.5872">
        <ele>549.40002441406</ele>
        <time>2013-06-01T09:23:34.000Z</time>
      </trkpt>
      <trkpt lat="43.59024" lon="5.58756">
        <ele>550</ele>
        <time>2013-06-01T09:23:45.000Z</time>
      </trkpt>
      <trkpt lat="43.59038" lon="5.58762">
        <ele>551</ele>
        <time>2013-06-01T09:23:54.000Z</time>
      </trkpt>
      <trkpt lat="43.59039" lon="5.58764">
        <ele>551</ele>
        <time>2013-06-01T09:23:55.000Z</time>
      </trkpt>
      <trkpt lat="43.5904" lon="5.58765">
        <ele>551.20001220703</ele>
        <time>2013-06-01T09:23:56.000Z</time>
      </trkpt>
      <trkpt lat="43.5904" lon="5.58766">
        <ele>551.20001220703</ele>
        <time>2013-06-01T09:23:57.000Z</time>
      </trkpt>
      <trkpt lat="43.5904" lon="5.58768">
        <ele>551.20001220703</ele>
        <time>2013-06-01T09:23:58.000Z</time>
      </trkpt>
      <trkpt lat="43.5904" lon="5.5877">
        <ele>551.40002441406</ele>
        <time>2013-06-01T09:23:59.000Z</time>
      </trkpt>
      <trkpt lat="43.59041" lon="5.58771">
        <ele>551.59997558594</ele>
        <time>2013-06-01T09:24:00.000Z</time>
      </trkpt>
      <trkpt lat="43.59042" lon="5.58773">
        <ele>551.59997558594</ele>
        <time>2013-06-01T09:24:01.000Z</time>
      </trkpt>
      <trkpt lat="43.59043" lon="5.58775">
        <ele>551.79998779297</ele>
        <time>2013-06-01T09:24:02.000Z</time>
      </trkpt>
      <trkpt lat="43.59044" lon="5.58776">
        <ele>552</ele>
        <time>2013-06-01T09:24:03.000Z</time>
      </trkpt>
      <trkpt lat="43.59045" lon="5.58778">
        <ele>552</ele>
        <time>2013-06-01T09:24:04.000Z</time>
      </trkpt>
      <trkpt lat="43.59047" lon="5.5878">
        <ele>552.20001220703</ele>
        <time>2013-06-01T09:24:05.000Z</time>
      </trkpt>
      <trkpt lat="43.59048" lon="5.58781">
        <ele>552.40002441406</ele>
        <time>2013-06-01T09:24:06.000Z</time>
      </trkpt>
      <trkpt lat="43.59048" lon="5.58783">
        <ele>552.59997558594</ele>
        <time>2013-06-01T09:24:07.000Z</time>
      </trkpt>
      <trkpt lat="43.59049" lon="5.58785">
        <ele>552.59997558594</ele>
        <time>2013-06-01T09:24:08.000Z</time>
      </trkpt>
      <trkpt lat="43.59055" lon="5.58802">
        <ele>554</ele>
        <time>2013-06-01T09:24:17.000Z</time>
      </trkpt>
      <trkpt lat="43.59056" lon="5.58803">
        <ele>554.20001220703</ele>
        <time>2013-06-01T09:24:18.000Z</time>
      </trkpt>
      <trkpt lat="43.59057" lon="5.58805">
        <ele>554.20001220703</ele>
        <time>2013-06-01T09:24:19.000Z</time>
      </trkpt>
      <trkpt lat="43.59058" lon="5.58807">
        <ele>554.40002441406</ele>
        <time>2013-06-01T09:24:20.000Z</time>
      </trkpt>
      <trkpt lat="43.59058" lon="5.58808">
        <ele>554.59997558594</ele>
        <time>2013-06-01T09:24:21.000Z</time>
      </trkpt>
      <trkpt lat="43.59059" lon="5.58811">
        <ele>554.79998779297</ele>
        <time>2013-06-01T09:24:22.000Z</time>
      </trkpt>
      <trkpt lat="43.5906" lon="5.58814">
        <ele>555</ele>
        <time>2013-06-01T09:24:23.000Z</time>
      </trkpt>
      <trkpt lat="43.5906" lon="5.58816">
        <ele>555.20001220703</ele>
        <time>2013-06-01T09:24:24.000Z</time>
      </trkpt>
      <trkpt lat="43.59061" lon="5.58823">
        <ele>555.59997558594</ele>
        <time>2013-06-01T09:24:27.000Z</time>
      </trkpt>
      <trkpt lat="43.59061" lon="5.58824">
        <ele>555.79998779297</ele>
        <time>2013-06-01T09:24:28.000Z</time>
      </trkpt>
      <trkpt lat="43.59061" lon="5.58826">
        <ele>555.79998779297</ele>
        <time>2013-06-01T09:24:29.000Z</time>
      </trkpt>
      <trkpt lat="43.59061" lon="5.58828">
        <ele>556</ele>
        <time>2013-06-01T09:24:30.000Z</time>
      </trkpt>
      <trkpt lat="43.59064" lon="5.58839">
        <ele>556.59997558594</ele>
        <time>2013-06-01T09:24:37.000Z</time>
      </trkpt>
      <trkpt lat="43.59064" lon="5.58843">
        <ele>556.79998779297</ele>
        <time>2013-06-01T09:24:39.000Z</time>
      </trkpt>
      <trkpt lat="43.59064" lon="5.58845">
        <ele>556.79998779297</ele>
        <time>2013-06-01T09:24:40.000Z</time>
      </trkpt>
      <trkpt lat="43.59064" lon="5.58847">
        <ele>557</ele>
        <time>2013-06-01T09:24:41.000Z</time>
      </trkpt>
      <trkpt lat="43.59064" lon="5.58849">
        <ele>557</ele>
        <time>2013-06-01T09:24:42.000Z</time>
      </trkpt>
      <trkpt lat="43.59065" lon="5.5885">
        <ele>557</ele>
        <time>2013-06-01T09:24:43.000Z</time>
      </trkpt>
      <trkpt lat="43.59065" lon="5.58852">
        <ele>557.20001220703</ele>
        <time>2013-06-01T09:24:44.000Z</time>
      </trkpt>
      <trkpt lat="43.59065" lon="5.58854">
        <ele>557.20001220703</ele>
        <time>2013-06-01T09:24:45.000Z</time>
      </trkpt>
      <trkpt lat="43.59065" lon="5.58878">
        <ele>558</ele>
        <time>2013-06-01T09:24:57.000Z</time>
      </trkpt>
      <trkpt lat="43.59065" lon="5.5888">
        <ele>558</ele>
        <time>2013-06-01T09:24:58.000Z</time>
      </trkpt>
      <trkpt lat="43.59065" lon="5.58883">
        <ele>558</ele>
        <time>2013-06-01T09:24:59.000Z</time>
      </trkpt>
      <trkpt lat="43.59065" lon="5.58885">
        <ele>558.20001220703</ele>
        <time>2013-06-01T09:25:00.000Z</time>
      </trkpt>
      <trkpt lat="43.59065" lon="5.58891">
        <ele>558.20001220703</ele>
        <time>2013-06-01T09:25:03.000Z</time>
      </trkpt>
      <trkpt lat="43.59066" lon="5.58892">
        <ele>558.40002441406</ele>
        <time>2013-06-01T09:25:04.000Z</time>
      </trkpt>
      <trkpt lat="43.59066" lon="5.58894">
        <ele>558.40002441406</ele>
        <time>2013-06-01T09:25:05.000Z</time>
      </trkpt>
      <trkpt lat="43.59066" lon="5.58896">
        <ele>558.40002441406</ele>
        <time>2013-06-01T09:25:06.000Z</time>
      </trkpt>
      <trkpt lat="43.59065" lon="5.58898">
        <ele>558.40002441406</ele>
        <time>2013-06-01T09:25:07.000Z</time>
      </trkpt>
      <trkpt lat="43.59065" lon="5.589">
        <ele>558.59997558594</ele>
        <time>2013-06-01T09:25:08.000Z</time>
      </trkpt>
      <trkpt lat="43.59065" lon="5.58902">
        <ele>558.59997558594</ele>
        <time>2013-06-01T09:25:09.000Z</time>
      </trkpt>
      <trkpt lat="43.59065" lon="5.58904">
        <ele>558.59997558594</ele>
        <time>2013-06-01T09:25:10.000Z</time>
      </trkpt>
      <trkpt lat="43.59065" lon="5.58906">
        <ele>558.79998779297</ele>
        <time>2013-06-01T09:25:11.000Z</time>
      </trkpt>
      <trkpt lat="43.59065" lon="5.58908">
        <ele>558.79998779297</ele>
        <time>2013-06-01T09:25:12.000Z</time>
      </trkpt>
      <trkpt lat="43.59065" lon="5.5891">
        <ele>558.79998779297</ele>
        <time>2013-06-01T09:25:13.000Z</time>
      </trkpt>
      <trkpt lat="43.59065" lon="5.58912">
        <ele>559</ele>
        <time>2013-06-01T09:25:14.000Z</time>
      </trkpt>
      <trkpt lat="43.59065" lon="5.58914">
        <ele>559</ele>
        <time>2013-06-01T09:25:15.000Z</time>
      </trkpt>
      <trkpt lat="43.59065" lon="5.58916">
        <ele>559</ele>
        <time>2013-06-01T09:25:16.000Z</time>
      </trkpt>
      <trkpt lat="43.59065" lon="5.58918">
        <ele>559</ele>
        <time>2013-06-01T09:25:17.000Z</time>
      </trkpt>
      <trkpt lat="43.59065" lon="5.58921">
        <ele>559.20001220703</ele>
        <time>2013-06-01T09:25:18.000Z</time>
      </trkpt>
      <trkpt lat="43.59065" lon="5.58923">
        <ele>559.20001220703</ele>
        <time>2013-06-01T09:25:19.000Z</time>
      </trkpt>
      <trkpt lat="43.59065" lon="5.58925">
        <ele>559.40002441406</ele>
        <time>2013-06-01T09:25:20.000Z</time>
      </trkpt>
      <trkpt lat="43.59066" lon="5.58928">
        <ele>559.40002441406</ele>
        <time>2013-06-01T09:25:21.000Z</time>
      </trkpt>
      <trkpt lat="43.59067" lon="5.58931">
        <ele>559.59997558594</ele>
        <time>2013-06-01T09:25:22.000Z</time>
      </trkpt>
      <trkpt lat="43.59067" lon="5.58933">
        <ele>559.59997558594</ele>
        <time>2013-06-01T09:25:23.000Z</time>
      </trkpt>
      <trkpt lat="43.59067" lon="5.58936">
        <ele>559.79998779297</ele>
        <time>2013-06-01T09:25:24.000Z</time>
      </trkpt>
      <trkpt lat="43.59067" lon="5.58938">
        <ele>559.79998779297</ele>
        <time>2013-06-01T09:25:25.000Z</time>
      </trkpt>
      <trkpt lat="43.59071" lon="5.58959">
        <ele>560.59997558594</ele>
        <time>2013-06-01T09:25:34.000Z</time>
      </trkpt>
      <trkpt lat="43.59071" lon="5.58962">
        <ele>560.79998779297</ele>
        <time>2013-06-01T09:25:35.000Z</time>
      </trkpt>
      <trkpt lat="43.59071" lon="5.58974">
        <ele>561</ele>
        <time>2013-06-01T09:25:41.000Z</time>
      </trkpt>
      <trkpt lat="43.5907" lon="5.58977">
        <ele>561.20001220703</ele>
        <time>2013-06-01T09:25:42.000Z</time>
      </trkpt>
      <trkpt lat="43.5907" lon="5.58979">
        <ele>561.20001220703</ele>
        <time>2013-06-01T09:25:43.000Z</time>
      </trkpt>
      <trkpt lat="43.59069" lon="5.58982">
        <ele>561.40002441406</ele>
        <time>2013-06-01T09:25:44.000Z</time>
      </trkpt>
      <trkpt lat="43.59069" lon="5.58985">
        <ele>561.40002441406</ele>
        <time>2013-06-01T09:25:45.000Z</time>
      </trkpt>
      <trkpt lat="43.59068" lon="5.58988">
        <ele>561.59997558594</ele>
        <time>2013-06-01T09:25:46.000Z</time>
      </trkpt>
      <trkpt lat="43.59067" lon="5.5903">
        <ele>563.20001220703</ele>
        <time>2013-06-01T09:26:00.000Z</time>
      </trkpt>
      <trkpt lat="43.59068" lon="5.5907">
        <ele>565</ele>
        <time>2013-06-01T09:26:15.000Z</time>
      </trkpt>
      <trkpt lat="43.59072" lon="5.591">
        <ele>566.20001220703</ele>
        <time>2013-06-01T09:26:27.000Z</time>
      </trkpt>
      <trkpt lat="43.59081" lon="5.59124">
        <ele>567.40002441406</ele>
        <time>2013-06-01T09:26:37.000Z</time>
      </trkpt>
      <trkpt lat="43.59097" lon="5.5915">
        <ele>568.40002441406</ele>
        <time>2013-06-01T09:26:49.000Z</time>
      </trkpt>
      <trkpt lat="43.59117" lon="5.59166">
        <ele>569.20001220703</ele>
        <time>2013-06-01T09:26:59.000Z</time>
      </trkpt>
      <trkpt lat="43.5915" lon="5.59175">
        <ele>570</ele>
        <time>2013-06-01T09:27:10.000Z</time>
      </trkpt>
      <trkpt lat="43.59184" lon="5.59176">
        <ele>569.20001220703</ele>
        <time>2013-06-01T09:27:23.000Z</time>
      </trkpt>
      <trkpt lat="43.59192" lon="5.59182">
        <ele>569</ele>
        <time>2013-06-01T09:27:32.000Z</time>
      </trkpt>
      <trkpt lat="43.59192" lon="5.59182">
        <ele>568.79998779297</ele>
        <time>2013-06-01T09:27:43.000Z</time>
      </trkpt>
      <trkpt lat="43.59199" lon="5.59186">
        <ele>568.59997558594</ele>
        <time>2013-06-01T09:27:53.000Z</time>
      </trkpt>
      <trkpt lat="43.592" lon="5.59189">
        <ele>568.59997558594</ele>
        <time>2013-06-01T09:27:54.000Z</time>
      </trkpt>
      <trkpt lat="43.59201" lon="5.59193">
        <ele>568.40002441406</ele>
        <time>2013-06-01T09:27:55.000Z</time>
      </trkpt>
      <trkpt lat="43.59203" lon="5.59197">
        <ele>568.40002441406</ele>
        <time>2013-06-01T09:27:56.000Z</time>
      </trkpt>
      <trkpt lat="43.59203" lon="5.59202">
        <ele>568.40002441406</ele>
        <time>2013-06-01T09:27:57.000Z</time>
      </trkpt>
      <trkpt lat="43.59204" lon="5.59207">
        <ele>568.40002441406</ele>
        <time>2013-06-01T09:27:58.000Z</time>
      </trkpt>
      <trkpt lat="43.59205" lon="5.59212">
        <ele>568.40002441406</ele>
        <time>2013-06-01T09:27:59.000Z</time>
      </trkpt>
      <trkpt lat="43.59207" lon="5.59217">
        <ele>568.20001220703</ele>
        <time>2013-06-01T09:28:00.000Z</time>
      </trkpt>
      <trkpt lat="43.59209" lon="5.59222">
        <ele>568.20001220703</ele>
        <time>2013-06-01T09:28:01.000Z</time>
      </trkpt>
      <trkpt lat="43.59211" lon="5.59227">
        <ele>568</ele>
        <time>2013-06-01T09:28:02.000Z</time>
      </trkpt>
      <trkpt lat="43.59214" lon="5.59232">
        <ele>567.79998779297</ele>
        <time>2013-06-01T09:28:03.000Z</time>
      </trkpt>
      <trkpt lat="43.59218" lon="5.59236">
        <ele>567.59997558594</ele>
        <time>2013-06-01T09:28:04.000Z</time>
      </trkpt>
      <trkpt lat="43.59223" lon="5.59238">
        <ele>567.20001220703</ele>
        <time>2013-06-01T09:28:05.000Z</time>
      </trkpt>
      <trkpt lat="43.59227" lon="5.59238">
        <ele>566.79998779297</ele>
        <time>2013-06-01T09:28:06.000Z</time>
      </trkpt>
      <trkpt lat="43.59232" lon="5.59235">
        <ele>566.40002441406</ele>
        <time>2013-06-01T09:28:07.000Z</time>
      </trkpt>
      <trkpt lat="43.59237" lon="5.59232">
        <ele>566</ele>
        <time>2013-06-01T09:28:08.000Z</time>
      </trkpt>
      <trkpt lat="43.5926" lon="5.59222">
        <ele>564</ele>
        <time>2013-06-01T09:28:11.000Z</time>
      </trkpt>
      <trkpt lat="43.59275" lon="5.59211">
        <ele>562.20001220703</ele>
        <time>2013-06-01T09:28:13.000Z</time>
      </trkpt>
      <trkpt lat="43.59292" lon="5.59185">
        <ele>560.20001220703</ele>
        <time>2013-06-01T09:28:16.000Z</time>
      </trkpt>
      <trkpt lat="43.59298" lon="5.59179">
        <ele>559.40002441406</ele>
        <time>2013-06-01T09:28:17.000Z</time>
      </trkpt>
      <trkpt lat="43.59305" lon="5.59175">
        <ele>558.59997558594</ele>
        <time>2013-06-01T09:28:18.000Z</time>
      </trkpt>
      <trkpt lat="43.59313" lon="5.59174">
        <ele>557.59997558594</ele>
        <time>2013-06-01T09:28:19.000Z</time>
      </trkpt>
      <trkpt lat="43.59322" lon="5.59176">
        <ele>556.40002441406</ele>
        <time>2013-06-01T09:28:20.000Z</time>
      </trkpt>
      <trkpt lat="43.5933" lon="5.59175">
        <ele>555.40002441406</ele>
        <time>2013-06-01T09:28:21.000Z</time>
      </trkpt>
      <trkpt lat="43.59337" lon="5.59175">
        <ele>554.59997558594</ele>
        <time>2013-06-01T09:28:22.000Z</time>
      </trkpt>
      <trkpt lat="43.59343" lon="5.59177">
        <ele>554.20001220703</ele>
        <time>2013-06-01T09:28:23.000Z</time>
      </trkpt>
      <trkpt lat="43.59348" lon="5.59183">
        <ele>553.59997558594</ele>
        <time>2013-06-01T09:28:24.000Z</time>
      </trkpt>
      <trkpt lat="43.59353" lon="5.59188">
        <ele>553.20001220703</ele>
        <time>2013-06-01T09:28:25.000Z</time>
      </trkpt>
      <trkpt lat="43.59358" lon="5.59191">
        <ele>552.59997558594</ele>
        <time>2013-06-01T09:28:26.000Z</time>
      </trkpt>
      <trkpt lat="43.59364" lon="5.59193">
        <ele>552</ele>
        <time>2013-06-01T09:28:27.000Z</time>
      </trkpt>
      <trkpt lat="43.5937" lon="5.59195">
        <ele>551.40002441406</ele>
        <time>2013-06-01T09:28:28.000Z</time>
      </trkpt>
      <trkpt lat="43.59376" lon="5.59198">
        <ele>550.59997558594</ele>
        <time>2013-06-01T09:28:29.000Z</time>
      </trkpt>
      <trkpt lat="43.59382" lon="5.59202">
        <ele>550</ele>
        <time>2013-06-01T09:28:30.000Z</time>
      </trkpt>
      <trkpt lat="43.59388" lon="5.59204">
        <ele>549.20001220703</ele>
        <time>2013-06-01T09:28:31.000Z</time>
      </trkpt>
      <trkpt lat="43.59396" lon="5.59205">
        <ele>548.40002441406</ele>
        <time>2013-06-01T09:28:32.000Z</time>
      </trkpt>
      <trkpt lat="43.59402" lon="5.59208">
        <ele>547.59997558594</ele>
        <time>2013-06-01T09:28:33.000Z</time>
      </trkpt>
      <trkpt lat="43.59407" lon="5.59215">
        <ele>546.59997558594</ele>
        <time>2013-06-01T09:28:34.000Z</time>
      </trkpt>
      <trkpt lat="43.59413" lon="5.59221">
        <ele>545.40002441406</ele>
        <time>2013-06-01T09:28:35.000Z</time>
      </trkpt>
      <trkpt lat="43.59419" lon="5.59228">
        <ele>544.40002441406</ele>
        <time>2013-06-01T09:28:36.000Z</time>
      </trkpt>
      <trkpt lat="43.59426" lon="5.59233">
        <ele>544</ele>
        <time>2013-06-01T09:28:37.000Z</time>
      </trkpt>
      <trkpt lat="43.59433" lon="5.59238">
        <ele>543.40002441406</ele>
        <time>2013-06-01T09:28:38.000Z</time>
      </trkpt>
      <trkpt lat="43.59447" lon="5.59247">
        <ele>541.79998779297</ele>
        <time>2013-06-01T09:28:40.000Z</time>
      </trkpt>
      <trkpt lat="43.59454" lon="5.59253">
        <ele>541.20001220703</ele>
        <time>2013-06-01T09:28:41.000Z</time>
      </trkpt>
      <trkpt lat="43.59461" lon="5.5926">
        <ele>540.79998779297</ele>
        <time>2013-06-01T09:28:42.000Z</time>
      </trkpt>
      <trkpt lat="43.59484" lon="5.59276">
        <ele>538.79998779297</ele>
        <time>2013-06-01T09:28:45.000Z</time>
      </trkpt>
      <trkpt lat="43.59498" lon="5.59288">
        <ele>536.79998779297</ele>
        <time>2013-06-01T09:28:47.000Z</time>
      </trkpt>
      <trkpt lat="43.59503" lon="5.59295">
        <ele>536.40002441406</ele>
        <time>2013-06-01T09:28:48.000Z</time>
      </trkpt>
      <trkpt lat="43.59507" lon="5.59303">
        <ele>536</ele>
        <time>2013-06-01T09:28:49.000Z</time>
      </trkpt>
      <trkpt lat="43.59511" lon="5.59309">
        <ele>535.59997558594</ele>
        <time>2013-06-01T09:28:50.000Z</time>
      </trkpt>
      <trkpt lat="43.59516" lon="5.59311">
        <ele>535.59997558594</ele>
        <time>2013-06-01T09:28:51.000Z</time>
      </trkpt>
      <trkpt lat="43.59522" lon="5.59312">
        <ele>535.79998779297</ele>
        <time>2013-06-01T09:28:52.000Z</time>
      </trkpt>
      <trkpt lat="43.59528" lon="5.59314">
        <ele>535.59997558594</ele>
        <time>2013-06-01T09:28:53.000Z</time>
      </trkpt>
      <trkpt lat="43.59534" lon="5.59319">
        <ele>535.20001220703</ele>
        <time>2013-06-01T09:28:54.000Z</time>
      </trkpt>
      <trkpt lat="43.59539" lon="5.59327">
        <ele>534.59997558594</ele>
        <time>2013-06-01T09:28:55.000Z</time>
      </trkpt>
      <trkpt lat="43.59558" lon="5.59348">
        <ele>531.59997558594</ele>
        <time>2013-06-01T09:28:58.000Z</time>
      </trkpt>
      <trkpt lat="43.59561" lon="5.59355">
        <ele>530.59997558594</ele>
        <time>2013-06-01T09:28:59.000Z</time>
      </trkpt>
      <trkpt lat="43.59561" lon="5.59364">
        <ele>529.20001220703</ele>
        <time>2013-06-01T09:29:00.000Z</time>
      </trkpt>
      <trkpt lat="43.59561" lon="5.59374">
        <ele>527.79998779297</ele>
        <time>2013-06-01T09:29:01.000Z</time>
      </trkpt>
      <trkpt lat="43.59559" lon="5.59384">
        <ele>526.40002441406</ele>
        <time>2013-06-01T09:29:02.000Z</time>
      </trkpt>
      <trkpt lat="43.59558" lon="5.59394">
        <ele>525</ele>
        <time>2013-06-01T09:29:03.000Z</time>
      </trkpt>
      <trkpt lat="43.59557" lon="5.59405">
        <ele>523.40002441406</ele>
        <time>2013-06-01T09:29:04.000Z</time>
      </trkpt>
      <trkpt lat="43.59559" lon="5.59416">
        <ele>521.59997558594</ele>
        <time>2013-06-01T09:29:05.000Z</time>
      </trkpt>
      <trkpt lat="43.59561" lon="5.59426">
        <ele>520.20001220703</ele>
        <time>2013-06-01T09:29:06.000Z</time>
      </trkpt>
      <trkpt lat="43.59563" lon="5.59437">
        <ele>518.59997558594</ele>
        <time>2013-06-01T09:29:07.000Z</time>
      </trkpt>
      <trkpt lat="43.59564" lon="5.59447">
        <ele>517.40002441406</ele>
        <time>2013-06-01T09:29:08.000Z</time>
      </trkpt>
      <trkpt lat="43.59567" lon="5.59468">
        <ele>514.40002441406</ele>
        <time>2013-06-01T09:29:10.000Z</time>
      </trkpt>
      <trkpt lat="43.5957" lon="5.59476">
        <ele>513.20001220703</ele>
        <time>2013-06-01T09:29:11.000Z</time>
      </trkpt>
      <trkpt lat="43.59574" lon="5.59482">
        <ele>512</ele>
        <time>2013-06-01T09:29:12.000Z</time>
      </trkpt>
      <trkpt lat="43.59579" lon="5.59488">
        <ele>510.79998779297</ele>
        <time>2013-06-01T09:29:13.000Z</time>
      </trkpt>
      <trkpt lat="43.59584" lon="5.59491">
        <ele>510</ele>
        <time>2013-06-01T09:29:14.000Z</time>
      </trkpt>
      <trkpt lat="43.59591" lon="5.59491">
        <ele>509.60000610352</ele>
        <time>2013-06-01T09:29:15.000Z</time>
      </trkpt>
      <trkpt lat="43.59597" lon="5.59489">
        <ele>509.60000610352</ele>
        <time>2013-06-01T09:29:16.000Z</time>
      </trkpt>
      <trkpt lat="43.59604" lon="5.59487">
        <ele>509.60000610352</ele>
        <time>2013-06-01T09:29:17.000Z</time>
      </trkpt>
      <trkpt lat="43.59611" lon="5.59485">
        <ele>509.60000610352</ele>
        <time>2013-06-01T09:29:18.000Z</time>
      </trkpt>
      <trkpt lat="43.59619" lon="5.59484">
        <ele>509.60000610352</ele>
        <time>2013-06-01T09:29:19.000Z</time>
      </trkpt>
      <trkpt lat="43.59627" lon="5.59484">
        <ele>509.20001220703</ele>
        <time>2013-06-01T09:29:20.000Z</time>
      </trkpt>
      <trkpt lat="43.59635" lon="5.59484">
        <ele>508.79998779297</ele>
        <time>2013-06-01T09:29:21.000Z</time>
      </trkpt>
      <trkpt lat="43.59642" lon="5.59486">
        <ele>508.39999389648</ele>
        <time>2013-06-01T09:29:22.000Z</time>
      </trkpt>
      <trkpt lat="43.59648" lon="5.5949">
        <ele>507.60000610352</ele>
        <time>2013-06-01T09:29:23.000Z</time>
      </trkpt>
      <trkpt lat="43.59653" lon="5.59496">
        <ele>506.20001220703</ele>
        <time>2013-06-01T09:29:24.000Z</time>
      </trkpt>
      <trkpt lat="43.59657" lon="5.59501">
        <ele>505.60000610352</ele>
        <time>2013-06-01T09:29:25.000Z</time>
      </trkpt>
      <trkpt lat="43.59663" lon="5.59504">
        <ele>505.79998779297</ele>
        <time>2013-06-01T09:29:26.000Z</time>
      </trkpt>
      <trkpt lat="43.5967" lon="5.59505">
        <ele>505.60000610352</ele>
        <time>2013-06-01T09:29:27.000Z</time>
      </trkpt>
      <trkpt lat="43.59677" lon="5.59504">
        <ele>505.39999389648</ele>
        <time>2013-06-01T09:29:28.000Z</time>
      </trkpt>
      <trkpt lat="43.59685" lon="5.59504">
        <ele>505</ele>
        <time>2013-06-01T09:29:29.000Z</time>
      </trkpt>
      <trkpt lat="43.597" lon="5.59502">
        <ele>503.60000610352</ele>
        <time>2013-06-01T09:29:31.000Z</time>
      </trkpt>
      <trkpt lat="43.59707" lon="5.59498">
        <ele>503.20001220703</ele>
        <time>2013-06-01T09:29:32.000Z</time>
      </trkpt>
      <trkpt lat="43.59713" lon="5.59493">
        <ele>503.79998779297</ele>
        <time>2013-06-01T09:29:33.000Z</time>
      </trkpt>
      <trkpt lat="43.59719" lon="5.59485">
        <ele>504.60000610352</ele>
        <time>2013-06-01T09:29:34.000Z</time>
      </trkpt>
      <trkpt lat="43.59722" lon="5.59476">
        <ele>505.79998779297</ele>
        <time>2013-06-01T09:29:35.000Z</time>
      </trkpt>
      <trkpt lat="43.59726" lon="5.59468">
        <ele>506.79998779297</ele>
        <time>2013-06-01T09:29:36.000Z</time>
      </trkpt>
      <trkpt lat="43.5973" lon="5.59463">
        <ele>507.20001220703</ele>
        <time>2013-06-01T09:29:37.000Z</time>
      </trkpt>
      <trkpt lat="43.59736" lon="5.5946">
        <ele>507.20001220703</ele>
        <time>2013-06-01T09:29:38.000Z</time>
      </trkpt>
      <trkpt lat="43.59742" lon="5.59459">
        <ele>507</ele>
        <time>2013-06-01T09:29:39.000Z</time>
      </trkpt>
      <trkpt lat="43.59748" lon="5.5946">
        <ele>506.39999389648</ele>
        <time>2013-06-01T09:29:40.000Z</time>
      </trkpt>
      <trkpt lat="43.5976" lon="5.59462">
        <ele>506</ele>
        <time>2013-06-01T09:29:42.000Z</time>
      </trkpt>
      <trkpt lat="43.59765" lon="5.59466">
        <ele>505.60000610352</ele>
        <time>2013-06-01T09:29:43.000Z</time>
      </trkpt>
      <trkpt lat="43.59773" lon="5.59474">
        <ele>504</ele>
        <time>2013-06-01T09:29:45.000Z</time>
      </trkpt>
      <trkpt lat="43.59777" lon="5.59479">
        <ele>503.20001220703</ele>
        <time>2013-06-01T09:29:46.000Z</time>
      </trkpt>
      <trkpt lat="43.59782" lon="5.59483">
        <ele>502.39999389648</ele>
        <time>2013-06-01T09:29:47.000Z</time>
      </trkpt>
      <trkpt lat="43.59794" lon="5.59493">
        <ele>499.79998779297</ele>
        <time>2013-06-01T09:29:49.000Z</time>
      </trkpt>
      <trkpt lat="43.598" lon="5.59499">
        <ele>498</ele>
        <time>2013-06-01T09:29:50.000Z</time>
      </trkpt>
      <trkpt lat="43.59805" lon="5.59507">
        <ele>498.39999389648</ele>
        <time>2013-06-01T09:29:51.000Z</time>
      </trkpt>
      <trkpt lat="43.59815" lon="5.59519">
        <ele>498.39999389648</ele>
        <time>2013-06-01T09:29:53.000Z</time>
      </trkpt>
      <trkpt lat="43.59819" lon="5.59521">
        <ele>498</ele>
        <time>2013-06-01T09:29:54.000Z</time>
      </trkpt>
      <trkpt lat="43.59825" lon="5.59522">
        <ele>497.39999389648</ele>
        <time>2013-06-01T09:29:55.000Z</time>
      </trkpt>
      <trkpt lat="43.59831" lon="5.59524">
        <ele>496.79998779297</ele>
        <time>2013-06-01T09:29:56.000Z</time>
      </trkpt>
      <trkpt lat="43.59836" lon="5.59529">
        <ele>496.60000610352</ele>
        <time>2013-06-01T09:29:57.000Z</time>
      </trkpt>
      <trkpt lat="43.5984" lon="5.59536">
        <ele>496.60000610352</ele>
        <time>2013-06-01T09:29:58.000Z</time>
      </trkpt>
      <trkpt lat="43.59845" lon="5.59543">
        <ele>496.20001220703</ele>
        <time>2013-06-01T09:29:59.000Z</time>
      </trkpt>
      <trkpt lat="43.5985" lon="5.59547">
        <ele>495.79998779297</ele>
        <time>2013-06-01T09:30:00.000Z</time>
      </trkpt>
      <trkpt lat="43.59857" lon="5.59551">
        <ele>495.20001220703</ele>
        <time>2013-06-01T09:30:01.000Z</time>
      </trkpt>
      <trkpt lat="43.59863" lon="5.59557">
        <ele>494.39999389648</ele>
        <time>2013-06-01T09:30:02.000Z</time>
      </trkpt>
      <trkpt lat="43.5987" lon="5.59561">
        <ele>493.20001220703</ele>
        <time>2013-06-01T09:30:03.000Z</time>
      </trkpt>
      <trkpt lat="43.59877" lon="5.59564">
        <ele>492.20001220703</ele>
        <time>2013-06-01T09:30:04.000Z</time>
      </trkpt>
      <trkpt lat="43.59892" lon="5.59569">
        <ele>489.60000610352</ele>
        <time>2013-06-01T09:30:06.000Z</time>
      </trkpt>
      <trkpt lat="43.59899" lon="5.59574">
        <ele>487.79998779297</ele>
        <time>2013-06-01T09:30:07.000Z</time>
      </trkpt>
      <trkpt lat="43.59905" lon="5.5958">
        <ele>485.60000610352</ele>
        <time>2013-06-01T09:30:08.000Z</time>
      </trkpt>
      <trkpt lat="43.5991" lon="5.59586">
        <ele>484.39999389648</ele>
        <time>2013-06-01T09:30:09.000Z</time>
      </trkpt>
      <trkpt lat="43.59916" lon="5.59588">
        <ele>483.79998779297</ele>
        <time>2013-06-01T09:30:10.000Z</time>
      </trkpt>
      <trkpt lat="43.59922" lon="5.59588">
        <ele>483.20001220703</ele>
        <time>2013-06-01T09:30:11.000Z</time>
      </trkpt>
      <trkpt lat="43.59928" lon="5.59587">
        <ele>482.39999389648</ele>
        <time>2013-06-01T09:30:12.000Z</time>
      </trkpt>
      <trkpt lat="43.59942" lon="5.59585">
        <ele>480.79998779297</ele>
        <time>2013-06-01T09:30:14.000Z</time>
      </trkpt>
      <trkpt lat="43.59948" lon="5.59586">
        <ele>480.20001220703</ele>
        <time>2013-06-01T09:30:15.000Z</time>
      </trkpt>
      <trkpt lat="43.59954" lon="5.59589">
        <ele>480</ele>
        <time>2013-06-01T09:30:16.000Z</time>
      </trkpt>
      <trkpt lat="43.5996" lon="5.59594">
        <ele>480</ele>
        <time>2013-06-01T09:30:17.000Z</time>
      </trkpt>
      <trkpt lat="43.59965" lon="5.59601">
        <ele>480</ele>
        <time>2013-06-01T09:30:18.000Z</time>
      </trkpt>
      <trkpt lat="43.5997" lon="5.59608">
        <ele>480</ele>
        <time>2013-06-01T09:30:19.000Z</time>
      </trkpt>
      <trkpt lat="43.59975" lon="5.59613">
        <ele>479.79998779297</ele>
        <time>2013-06-01T09:30:20.000Z</time>
      </trkpt>
      <trkpt lat="43.59981" lon="5.59617">
        <ele>479.20001220703</ele>
        <time>2013-06-01T09:30:21.000Z</time>
      </trkpt>
      <trkpt lat="43.59987" lon="5.59618">
        <ele>478.39999389648</ele>
        <time>2013-06-01T09:30:22.000Z</time>
      </trkpt>
      <trkpt lat="43.59993" lon="5.59617">
        <ele>477.60000610352</ele>
        <time>2013-06-01T09:30:23.000Z</time>
      </trkpt>
      <trkpt lat="43.59997" lon="5.59616">
        <ele>476.79998779297</ele>
        <time>2013-06-01T09:30:24.000Z</time>
      </trkpt>
      <trkpt lat="43.60017" lon="5.596">
        <ele>473.39999389648</ele>
        <time>2013-06-01T09:30:27.000Z</time>
      </trkpt>
      <trkpt lat="43.60019" lon="5.59594">
        <ele>472.79998779297</ele>
        <time>2013-06-01T09:30:28.000Z</time>
      </trkpt>
      <trkpt lat="43.60023" lon="5.59592">
        <ele>472.39999389648</ele>
        <time>2013-06-01T09:30:29.000Z</time>
      </trkpt>
      <trkpt lat="43.60027" lon="5.59593">
        <ele>472</ele>
        <time>2013-06-01T09:30:30.000Z</time>
      </trkpt>
      <trkpt lat="43.60031" lon="5.59596">
        <ele>471.39999389648</ele>
        <time>2013-06-01T09:30:31.000Z</time>
      </trkpt>
      <trkpt lat="43.60036" lon="5.596">
        <ele>470.79998779297</ele>
        <time>2013-06-01T09:30:32.000Z</time>
      </trkpt>
      <trkpt lat="43.6004" lon="5.59603">
        <ele>470.20001220703</ele>
        <time>2013-06-01T09:30:33.000Z</time>
      </trkpt>
      <trkpt lat="43.60049" lon="5.59611">
        <ele>469</ele>
        <time>2013-06-01T09:30:35.000Z</time>
      </trkpt>
      <trkpt lat="43.60054" lon="5.59612">
        <ele>468.20001220703</ele>
        <time>2013-06-01T09:30:36.000Z</time>
      </trkpt>
      <trkpt lat="43.60058" lon="5.59612">
        <ele>467.60000610352</ele>
        <time>2013-06-01T09:30:37.000Z</time>
      </trkpt>
      <trkpt lat="43.60063" lon="5.5961">
        <ele>466.79998779297</ele>
        <time>2013-06-01T09:30:38.000Z</time>
      </trkpt>
      <trkpt lat="43.60069" lon="5.59608">
        <ele>466</ele>
        <time>2013-06-01T09:30:39.000Z</time>
      </trkpt>
      <trkpt lat="43.60076" lon="5.59608">
        <ele>465.20001220703</ele>
        <time>2013-06-01T09:30:40.000Z</time>
      </trkpt>
      <trkpt lat="43.60082" lon="5.59609">
        <ele>464</ele>
        <time>2013-06-01T09:30:41.000Z</time>
      </trkpt>
      <trkpt lat="43.6009" lon="5.59611">
        <ele>463.20001220703</ele>
        <time>2013-06-01T09:30:42.000Z</time>
      </trkpt>
      <trkpt lat="43.60098" lon="5.59611">
        <ele>462.20001220703</ele>
        <time>2013-06-01T09:30:43.000Z</time>
      </trkpt>
      <trkpt lat="43.60138" lon="5.59616">
        <ele>457</ele>
        <time>2013-06-01T09:30:48.000Z</time>
      </trkpt>
      <trkpt lat="43.60144" lon="5.59621">
        <ele>455.79998779297</ele>
        <time>2013-06-01T09:30:49.000Z</time>
      </trkpt>
      <trkpt lat="43.60147" lon="5.59628">
        <ele>454.60000610352</ele>
        <time>2013-06-01T09:30:50.000Z</time>
      </trkpt>
      <trkpt lat="43.60151" lon="5.59635">
        <ele>453.39999389648</ele>
        <time>2013-06-01T09:30:51.000Z</time>
      </trkpt>
      <trkpt lat="43.60156" lon="5.59641">
        <ele>452</ele>
        <time>2013-06-01T09:30:52.000Z</time>
      </trkpt>
      <trkpt lat="43.60161" lon="5.59646">
        <ele>450.60000610352</ele>
        <time>2013-06-01T09:30:53.000Z</time>
      </trkpt>
      <trkpt lat="43.60173" lon="5.59657">
        <ele>448.39999389648</ele>
        <time>2013-06-01T09:30:55.000Z</time>
      </trkpt>
      <trkpt lat="43.60178" lon="5.5966">
        <ele>448.20001220703</ele>
        <time>2013-06-01T09:30:56.000Z</time>
      </trkpt>
      <trkpt lat="43.60184" lon="5.5966">
        <ele>448.20001220703</ele>
        <time>2013-06-01T09:30:57.000Z</time>
      </trkpt>
      <trkpt lat="43.6019" lon="5.59658">
        <ele>448.60000610352</ele>
        <time>2013-06-01T09:30:58.000Z</time>
      </trkpt>
      <trkpt lat="43.60197" lon="5.59652">
        <ele>449</ele>
        <time>2013-06-01T09:30:59.000Z</time>
      </trkpt>
      <trkpt lat="43.60203" lon="5.59644">
        <ele>449.39999389648</ele>
        <time>2013-06-01T09:31:00.000Z</time>
      </trkpt>
      <trkpt lat="43.60208" lon="5.59635">
        <ele>449.39999389648</ele>
        <time>2013-06-01T09:31:01.000Z</time>
      </trkpt>
      <trkpt lat="43.6021" lon="5.59626">
        <ele>449.60000610352</ele>
        <time>2013-06-01T09:31:02.000Z</time>
      </trkpt>
      <trkpt lat="43.60216" lon="5.59611">
        <ele>449.20001220703</ele>
        <time>2013-06-01T09:31:04.000Z</time>
      </trkpt>
      <trkpt lat="43.60218" lon="5.59606">
        <ele>448.79998779297</ele>
        <time>2013-06-01T09:31:05.000Z</time>
      </trkpt>
      <trkpt lat="43.60221" lon="5.59602">
        <ele>448.39999389648</ele>
        <time>2013-06-01T09:31:06.000Z</time>
      </trkpt>
      <trkpt lat="43.60226" lon="5.59601">
        <ele>447.79998779297</ele>
        <time>2013-06-01T09:31:07.000Z</time>
      </trkpt>
      <trkpt lat="43.60232" lon="5.59601">
        <ele>447</ele>
        <time>2013-06-01T09:31:08.000Z</time>
      </trkpt>
      <trkpt lat="43.60253" lon="5.59599">
        <ele>444.20001220703</ele>
        <time>2013-06-01T09:31:11.000Z</time>
      </trkpt>
      <trkpt lat="43.60259" lon="5.59596">
        <ele>443.20001220703</ele>
        <time>2013-06-01T09:31:12.000Z</time>
      </trkpt>
      <trkpt lat="43.60263" lon="5.59594">
        <ele>442.60000610352</ele>
        <time>2013-06-01T09:31:13.000Z</time>
      </trkpt>
      <trkpt lat="43.60271" lon="5.59585">
        <ele>440.60000610352</ele>
        <time>2013-06-01T09:31:14.000Z</time>
      </trkpt>
      <trkpt lat="43.60283" lon="5.59573">
        <ele>440.20001220703</ele>
        <time>2013-06-01T09:31:16.000Z</time>
      </trkpt>
      <trkpt lat="43.60293" lon="5.5956">
        <ele>440.39999389648</ele>
        <time>2013-06-01T09:31:18.000Z</time>
      </trkpt>
      <trkpt lat="43.60298" lon="5.5955">
        <ele>440.79998779297</ele>
        <time>2013-06-01T09:31:19.000Z</time>
      </trkpt>
      <trkpt lat="43.60301" lon="5.59543">
        <ele>441.20001220703</ele>
        <time>2013-06-01T09:31:20.000Z</time>
      </trkpt>
      <trkpt lat="43.60305" lon="5.59539">
        <ele>441</ele>
        <time>2013-06-01T09:31:21.000Z</time>
      </trkpt>
      <trkpt lat="43.60316" lon="5.59534">
        <ele>439.79998779297</ele>
        <time>2013-06-01T09:31:23.000Z</time>
      </trkpt>
      <trkpt lat="43.60327" lon="5.59529">
        <ele>438.39999389648</ele>
        <time>2013-06-01T09:31:25.000Z</time>
      </trkpt>
      <trkpt lat="43.60334" lon="5.5953">
        <ele>437.39999389648</ele>
        <time>2013-06-01T09:31:26.000Z</time>
      </trkpt>
      <trkpt lat="43.60342" lon="5.59531">
        <ele>437</ele>
        <time>2013-06-01T09:31:27.000Z</time>
      </trkpt>
      <trkpt lat="43.60346" lon="5.59531">
        <ele>436.79998779297</ele>
        <time>2013-06-01T09:31:28.000Z</time>
      </trkpt>
      <trkpt lat="43.60353" lon="5.59537">
        <ele>435.79998779297</ele>
        <time>2013-06-01T09:31:29.000Z</time>
      </trkpt>
      <trkpt lat="43.60359" lon="5.59546">
        <ele>434.20001220703</ele>
        <time>2013-06-01T09:31:30.000Z</time>
      </trkpt>
      <trkpt lat="43.6037" lon="5.59563">
        <ele>430.20001220703</ele>
        <time>2013-06-01T09:31:32.000Z</time>
      </trkpt>
      <trkpt lat="43.6038" lon="5.59577">
        <ele>426.39999389648</ele>
        <time>2013-06-01T09:31:34.000Z</time>
      </trkpt>
      <trkpt lat="43.60386" lon="5.59582">
        <ele>424.39999389648</ele>
        <time>2013-06-01T09:31:35.000Z</time>
      </trkpt>
      <trkpt lat="43.60392" lon="5.59586">
        <ele>423.39999389648</ele>
        <time>2013-06-01T09:31:36.000Z</time>
      </trkpt>
      <trkpt lat="43.60398" lon="5.5959">
        <ele>423.20001220703</ele>
        <time>2013-06-01T09:31:37.000Z</time>
      </trkpt>
      <trkpt lat="43.60405" lon="5.59595">
        <ele>423</ele>
        <time>2013-06-01T09:31:38.000Z</time>
      </trkpt>
      <trkpt lat="43.60412" lon="5.59599">
        <ele>422.60000610352</ele>
        <time>2013-06-01T09:31:39.000Z</time>
      </trkpt>
      <trkpt lat="43.60419" lon="5.59601">
        <ele>421.79998779297</ele>
        <time>2013-06-01T09:31:40.000Z</time>
      </trkpt>
      <trkpt lat="43.60427" lon="5.596">
        <ele>420.79998779297</ele>
        <time>2013-06-01T09:31:41.000Z</time>
      </trkpt>
      <trkpt lat="43.60436" lon="5.59598">
        <ele>419.79998779297</ele>
        <time>2013-06-01T09:31:42.000Z</time>
      </trkpt>
      <trkpt lat="43.60444" lon="5.59597">
        <ele>418.79998779297</ele>
        <time>2013-06-01T09:31:43.000Z</time>
      </trkpt>
      <trkpt lat="43.60453" lon="5.59597">
        <ele>418</ele>
        <time>2013-06-01T09:31:44.000Z</time>
      </trkpt>
      <trkpt lat="43.6046" lon="5.59597">
        <ele>417.39999389648</ele>
        <time>2013-06-01T09:31:45.000Z</time>
      </trkpt>
      <trkpt lat="43.60467" lon="5.59602">
        <ele>417.20001220703</ele>
        <time>2013-06-01T09:31:46.000Z</time>
      </trkpt>
      <trkpt lat="43.60474" lon="5.59608">
        <ele>417</ele>
        <time>2013-06-01T09:31:47.000Z</time>
      </trkpt>
      <trkpt lat="43.60481" lon="5.59613">
        <ele>416.60000610352</ele>
        <time>2013-06-01T09:31:48.000Z</time>
      </trkpt>
      <trkpt lat="43.60489" lon="5.59617">
        <ele>416</ele>
        <time>2013-06-01T09:31:49.000Z</time>
      </trkpt>
      <trkpt lat="43.60496" lon="5.59622">
        <ele>415.20001220703</ele>
        <time>2013-06-01T09:31:50.000Z</time>
      </trkpt>
      <trkpt lat="43.60503" lon="5.59625">
        <ele>414.60000610352</ele>
        <time>2013-06-01T09:31:51.000Z</time>
      </trkpt>
      <trkpt lat="43.6051" lon="5.59628">
        <ele>413.79998779297</ele>
        <time>2013-06-01T09:31:52.000Z</time>
      </trkpt>
      <trkpt lat="43.60518" lon="5.59629">
        <ele>413</ele>
        <time>2013-06-01T09:31:53.000Z</time>
      </trkpt>
      <trkpt lat="43.60526" lon="5.59628">
        <ele>412.20001220703</ele>
        <time>2013-06-01T09:31:54.000Z</time>
      </trkpt>
      <trkpt lat="43.60533" lon="5.59628">
        <ele>411.39999389648</ele>
        <time>2013-06-01T09:31:55.000Z</time>
      </trkpt>
      <trkpt lat="43.60558" lon="5.59632">
        <ele>408.60000610352</ele>
        <time>2013-06-01T09:31:58.000Z</time>
      </trkpt>
      <trkpt lat="43.60566" lon="5.59633">
        <ele>407.60000610352</ele>
        <time>2013-06-01T09:31:59.000Z</time>
      </trkpt>
      <trkpt lat="43.60584" lon="5.59635">
        <ele>405.39999389648</ele>
        <time>2013-06-01T09:32:01.000Z</time>
      </trkpt>
      <trkpt lat="43.60589" lon="5.59634">
        <ele>404.79998779297</ele>
        <time>2013-06-01T09:32:02.000Z</time>
      </trkpt>
      <trkpt lat="43.60601" lon="5.5963">
        <ele>403.79998779297</ele>
        <time>2013-06-01T09:32:03.000Z</time>
      </trkpt>
      <trkpt lat="43.60608" lon="5.59631">
        <ele>403</ele>
        <time>2013-06-01T09:32:04.000Z</time>
      </trkpt>
      <trkpt lat="43.60614" lon="5.59636">
        <ele>402</ele>
        <time>2013-06-01T09:32:05.000Z</time>
      </trkpt>
      <trkpt lat="43.60621" lon="5.59643">
        <ele>401</ele>
        <time>2013-06-01T09:32:06.000Z</time>
      </trkpt>
      <trkpt lat="43.60632" lon="5.59655">
        <ele>398.79998779297</ele>
        <time>2013-06-01T09:32:08.000Z</time>
      </trkpt>
      <trkpt lat="43.60637" lon="5.59655">
        <ele>398.20001220703</ele>
        <time>2013-06-01T09:32:09.000Z</time>
      </trkpt>
      <trkpt lat="43.60642" lon="5.59651">
        <ele>398</ele>
        <time>2013-06-01T09:32:10.000Z</time>
      </trkpt>
      <trkpt lat="43.60648" lon="5.59648">
        <ele>397.60000610352</ele>
        <time>2013-06-01T09:32:11.000Z</time>
      </trkpt>
      <trkpt lat="43.60654" lon="5.59645">
        <ele>397.20001220703</ele>
        <time>2013-06-01T09:32:12.000Z</time>
      </trkpt>
      <trkpt lat="43.6066" lon="5.5964">
        <ele>396.79998779297</ele>
        <time>2013-06-01T09:32:13.000Z</time>
      </trkpt>
      <trkpt lat="43.60673" lon="5.59631">
        <ele>396.20001220703</ele>
        <time>2013-06-01T09:32:15.000Z</time>
      </trkpt>
      <trkpt lat="43.60678" lon="5.59629">
        <ele>395.60000610352</ele>
        <time>2013-06-01T09:32:16.000Z</time>
      </trkpt>
      <trkpt lat="43.60684" lon="5.5963">
        <ele>394.79998779297</ele>
        <time>2013-06-01T09:32:17.000Z</time>
      </trkpt>
      <trkpt lat="43.60698" lon="5.59635">
        <ele>392.60000610352</ele>
        <time>2013-06-01T09:32:19.000Z</time>
      </trkpt>
      <trkpt lat="43.60706" lon="5.59637">
        <ele>391.60000610352</ele>
        <time>2013-06-01T09:32:20.000Z</time>
      </trkpt>
      <trkpt lat="43.60713" lon="5.59638">
        <ele>390.60000610352</ele>
        <time>2013-06-01T09:32:21.000Z</time>
      </trkpt>
      <trkpt lat="43.60744" lon="5.59637">
        <ele>386.79998779297</ele>
        <time>2013-06-01T09:32:25.000Z</time>
      </trkpt>
      <trkpt lat="43.60776" lon="5.59635">
        <ele>383.39999389648</ele>
        <time>2013-06-01T09:32:29.000Z</time>
      </trkpt>
      <trkpt lat="43.60785" lon="5.59638">
        <ele>382.60000610352</ele>
        <time>2013-06-01T09:32:30.000Z</time>
      </trkpt>
      <trkpt lat="43.60793" lon="5.59642">
        <ele>381.79998779297</ele>
        <time>2013-06-01T09:32:31.000Z</time>
      </trkpt>
      <trkpt lat="43.608" lon="5.59647">
        <ele>381.20001220703</ele>
        <time>2013-06-01T09:32:32.000Z</time>
      </trkpt>
      <trkpt lat="43.60806" lon="5.59649">
        <ele>380.79998779297</ele>
        <time>2013-06-01T09:32:33.000Z</time>
      </trkpt>
      <trkpt lat="43.60813" lon="5.59648">
        <ele>380.20001220703</ele>
        <time>2013-06-01T09:32:34.000Z</time>
      </trkpt>
      <trkpt lat="43.60819" lon="5.59645">
        <ele>379.60000610352</ele>
        <time>2013-06-01T09:32:35.000Z</time>
      </trkpt>
      <trkpt lat="43.60823" lon="5.59639">
        <ele>378.79998779297</ele>
        <time>2013-06-01T09:32:36.000Z</time>
      </trkpt>
      <trkpt lat="43.60827" lon="5.5963">
        <ele>378</ele>
        <time>2013-06-01T09:32:37.000Z</time>
      </trkpt>
      <trkpt lat="43.60832" lon="5.59619">
        <ele>376.60000610352</ele>
        <time>2013-06-01T09:32:38.000Z</time>
      </trkpt>
      <trkpt lat="43.60835" lon="5.59606">
        <ele>375.60000610352</ele>
        <time>2013-06-01T09:32:39.000Z</time>
      </trkpt>
      <trkpt lat="43.60838" lon="5.59592">
        <ele>374.60000610352</ele>
        <time>2013-06-01T09:32:40.000Z</time>
      </trkpt>
      <trkpt lat="43.60843" lon="5.59581">
        <ele>374.20001220703</ele>
        <time>2013-06-01T09:32:41.000Z</time>
      </trkpt>
      <trkpt lat="43.60849" lon="5.59573">
        <ele>374.60000610352</ele>
        <time>2013-06-01T09:32:42.000Z</time>
      </trkpt>
      <trkpt lat="43.60856" lon="5.59564">
        <ele>374.60000610352</ele>
        <time>2013-06-01T09:32:43.000Z</time>
      </trkpt>
      <trkpt lat="43.60867" lon="5.59544">
        <ele>374</ele>
        <time>2013-06-01T09:32:45.000Z</time>
      </trkpt>
      <trkpt lat="43.60871" lon="5.59532">
        <ele>373.39999389648</ele>
        <time>2013-06-01T09:32:46.000Z</time>
      </trkpt>
      <trkpt lat="43.60877" lon="5.5951">
        <ele>371.79998779297</ele>
        <time>2013-06-01T09:32:48.000Z</time>
      </trkpt>
      <trkpt lat="43.60886" lon="5.59491">
        <ele>370.60000610352</ele>
        <time>2013-06-01T09:32:50.000Z</time>
      </trkpt>
      <trkpt lat="43.60898" lon="5.59477">
        <ele>370</ele>
        <time>2013-06-01T09:32:52.000Z</time>
      </trkpt>
      <trkpt lat="43.60905" lon="5.59471">
        <ele>369.39999389648</ele>
        <time>2013-06-01T09:32:53.000Z</time>
      </trkpt>
      <trkpt lat="43.60912" lon="5.59468">
        <ele>368.20001220703</ele>
        <time>2013-06-01T09:32:54.000Z</time>
      </trkpt>
      <trkpt lat="43.60919" lon="5.59467">
        <ele>367</ele>
        <time>2013-06-01T09:32:55.000Z</time>
      </trkpt>
      <trkpt lat="43.60926" lon="5.5947">
        <ele>365.60000610352</ele>
        <time>2013-06-01T09:32:56.000Z</time>
      </trkpt>
      <trkpt lat="43.6094" lon="5.59477">
        <ele>363</ele>
        <time>2013-06-01T09:32:58.000Z</time>
      </trkpt>
      <trkpt lat="43.60956" lon="5.5948">
        <ele>360.79998779297</ele>
        <time>2013-06-01T09:33:00.000Z</time>
      </trkpt>
      <trkpt lat="43.60963" lon="5.59485">
        <ele>359.39999389648</ele>
        <time>2013-06-01T09:33:01.000Z</time>
      </trkpt>
      <trkpt lat="43.60971" lon="5.59491">
        <ele>358.20001220703</ele>
        <time>2013-06-01T09:33:02.000Z</time>
      </trkpt>
      <trkpt lat="43.60979" lon="5.59493">
        <ele>357.20001220703</ele>
        <time>2013-06-01T09:33:03.000Z</time>
      </trkpt>
      <trkpt lat="43.60987" lon="5.59497">
        <ele>356.20001220703</ele>
        <time>2013-06-01T09:33:04.000Z</time>
      </trkpt>
      <trkpt lat="43.60995" lon="5.59497">
        <ele>355.39999389648</ele>
        <time>2013-06-01T09:33:05.000Z</time>
      </trkpt>
      <trkpt lat="43.61004" lon="5.59497">
        <ele>354.79998779297</ele>
        <time>2013-06-01T09:33:06.000Z</time>
      </trkpt>
      <trkpt lat="43.61011" lon="5.59495">
        <ele>354.20001220703</ele>
        <time>2013-06-01T09:33:07.000Z</time>
      </trkpt>
      <trkpt lat="43.61029" lon="5.59486">
        <ele>353</ele>
        <time>2013-06-01T09:33:09.000Z</time>
      </trkpt>
      <trkpt lat="43.61038" lon="5.59481">
        <ele>352.20001220703</ele>
        <time>2013-06-01T09:33:10.000Z</time>
      </trkpt>
      <trkpt lat="43.61054" lon="5.59469">
        <ele>350.20001220703</ele>
        <time>2013-06-01T09:33:12.000Z</time>
      </trkpt>
      <trkpt lat="43.61063" lon="5.59465">
        <ele>349.20001220703</ele>
        <time>2013-06-01T09:33:13.000Z</time>
      </trkpt>
      <trkpt lat="43.61072" lon="5.59463">
        <ele>348</ele>
        <time>2013-06-01T09:33:14.000Z</time>
      </trkpt>
      <trkpt lat="43.61081" lon="5.59462">
        <ele>347</ele>
        <time>2013-06-01T09:33:15.000Z</time>
      </trkpt>
      <trkpt lat="43.61089" lon="5.59459">
        <ele>346.20001220703</ele>
        <time>2013-06-01T09:33:16.000Z</time>
      </trkpt>
      <trkpt lat="43.61098" lon="5.59457">
        <ele>345.79998779297</ele>
        <time>2013-06-01T09:33:17.000Z</time>
      </trkpt>
      <trkpt lat="43.61106" lon="5.59455">
        <ele>345.20001220703</ele>
        <time>2013-06-01T09:33:18.000Z</time>
      </trkpt>
      <trkpt lat="43.61113" lon="5.59452">
        <ele>344.79998779297</ele>
        <time>2013-06-01T09:33:19.000Z</time>
      </trkpt>
      <trkpt lat="43.61118" lon="5.59449">
        <ele>344.39999389648</ele>
        <time>2013-06-01T09:33:20.000Z</time>
      </trkpt>
      <trkpt lat="43.61123" lon="5.59444">
        <ele>343.79998779297</ele>
        <time>2013-06-01T09:33:21.000Z</time>
      </trkpt>
      <trkpt lat="43.61132" lon="5.59432">
        <ele>342.39999389648</ele>
        <time>2013-06-01T09:33:23.000Z</time>
      </trkpt>
      <trkpt lat="43.61134" lon="5.59426">
        <ele>341.79998779297</ele>
        <time>2013-06-01T09:33:24.000Z</time>
      </trkpt>
      <trkpt lat="43.61136" lon="5.59421">
        <ele>341.39999389648</ele>
        <time>2013-06-01T09:33:25.000Z</time>
      </trkpt>
      <trkpt lat="43.61137" lon="5.5942">
        <ele>341.20001220703</ele>
        <time>2013-06-01T09:33:30.000Z</time>
      </trkpt>
      <trkpt lat="43.61137" lon="5.59423">
        <ele>341.60000610352</ele>
        <time>2013-06-01T09:33:44.000Z</time>
      </trkpt>
      <trkpt lat="43.61137" lon="5.59423">
        <ele>341.60000610352</ele>
        <time>2013-06-01T09:33:46.000Z</time>
      </trkpt>
      <trkpt lat="43.61137" lon="5.59423">
        <ele>341.60000610352</ele>
        <time>2013-06-01T09:33:47.000Z</time>
      </trkpt>
      <trkpt lat="43.61138" lon="5.59422">
        <ele>341.39999389648</ele>
        <time>2013-06-01T09:34:13.000Z</time>
      </trkpt>
      <trkpt lat="43.61138" lon="5.59423">
        <ele>341.39999389648</ele>
        <time>2013-06-01T09:34:30.000Z</time>
      </trkpt>
      <trkpt lat="43.61138" lon="5.59421">
        <ele>341.20001220703</ele>
        <time>2013-06-01T09:34:47.000Z</time>
      </trkpt>
      <trkpt lat="43.61138" lon="5.5942">
        <ele>341.20001220703</ele>
        <time>2013-06-01T09:35:08.000Z</time>
      </trkpt>
      <trkpt lat="43.61138" lon="5.59421">
        <ele>341.20001220703</ele>
        <time>2013-06-01T09:35:26.000Z</time>
      </trkpt>
      <trkpt lat="43.61137" lon="5.59421">
        <ele>341.20001220703</ele>
        <time>2013-06-01T09:35:38.000Z</time>
      </trkpt>
      <trkpt lat="43.61137" lon="5.59419">
        <ele>341.20001220703</ele>
        <time>2013-06-01T09:36:00.000Z</time>
      </trkpt>
      <trkpt lat="43.61137" lon="5.59422">
        <ele>341.39999389648</ele>
        <time>2013-06-01T09:36:19.000Z</time>
      </trkpt>
      <trkpt lat="43.6114" lon="5.5942">
        <ele>341.20001220703</ele>
        <time>2013-06-01T09:36:37.000Z</time>
      </trkpt>
      <trkpt lat="43.61158" lon="5.59415">
        <ele>340.60000610352</ele>
        <time>2013-06-01T09:36:45.000Z</time>
      </trkpt>
      <trkpt lat="43.61182" lon="5.59415">
        <ele>339.79998779297</ele>
        <time>2013-06-01T09:36:54.000Z</time>
      </trkpt>
      <trkpt lat="43.61183" lon="5.59416">
        <ele>339.79998779297</ele>
        <time>2013-06-01T09:37:02.000Z</time>
      </trkpt>
      <trkpt lat="43.61206" lon="5.59417">
        <ele>339</ele>
        <time>2013-06-01T09:37:12.000Z</time>
      </trkpt>
      <trkpt lat="43.6123" lon="5.59415">
        <ele>338.79998779297</ele>
        <time>2013-06-01T09:37:18.000Z</time>
      </trkpt>
      <trkpt lat="43.61233" lon="5.59414">
        <ele>338.79998779297</ele>
        <time>2013-06-01T09:37:19.000Z</time>
      </trkpt>
      <trkpt lat="43.61249" lon="5.59409">
        <ele>339.60000610352</ele>
        <time>2013-06-01T09:37:23.000Z</time>
      </trkpt>
      <trkpt lat="43.61273" lon="5.59396">
        <ele>341.79998779297</ele>
        <time>2013-06-01T09:37:29.000Z</time>
      </trkpt>
      <trkpt lat="43.61277" lon="5.59395">
        <ele>341.79998779297</ele>
        <time>2013-06-01T09:37:30.000Z</time>
      </trkpt>
      <trkpt lat="43.61282" lon="5.59395">
        <ele>341.60000610352</ele>
        <time>2013-06-01T09:37:31.000Z</time>
      </trkpt>
      <trkpt lat="43.61286" lon="5.59395">
        <ele>341.39999389648</ele>
        <time>2013-06-01T09:37:32.000Z</time>
      </trkpt>
      <trkpt lat="43.6129" lon="5.59397">
        <ele>341</ele>
        <time>2013-06-01T09:37:33.000Z</time>
      </trkpt>
      <trkpt lat="43.61294" lon="5.59398">
        <ele>340.39999389648</ele>
        <time>2013-06-01T09:37:34.000Z</time>
      </trkpt>
      <trkpt lat="43.61297" lon="5.59401">
        <ele>339.79998779297</ele>
        <time>2013-06-01T09:37:35.000Z</time>
      </trkpt>
      <trkpt lat="43.61301" lon="5.59403">
        <ele>339.20001220703</ele>
        <time>2013-06-01T09:37:36.000Z</time>
      </trkpt>
      <trkpt lat="43.61325" lon="5.59422">
        <ele>335.79998779297</ele>
        <time>2013-06-01T09:37:43.000Z</time>
      </trkpt>
      <trkpt lat="43.61342" lon="5.59443">
        <ele>334.60000610352</ele>
        <time>2013-06-01T09:37:49.000Z</time>
      </trkpt>
      <trkpt lat="43.61344" lon="5.59448">
        <ele>334.39999389648</ele>
        <time>2013-06-01T09:37:50.000Z</time>
      </trkpt>
      <trkpt lat="43.61356" lon="5.59469">
        <ele>333.20001220703</ele>
        <time>2013-06-01T09:37:54.000Z</time>
      </trkpt>
      <trkpt lat="43.61358" lon="5.59475">
        <ele>332.79998779297</ele>
        <time>2013-06-01T09:37:55.000Z</time>
      </trkpt>
      <trkpt lat="43.61361" lon="5.5948">
        <ele>332.39999389648</ele>
        <time>2013-06-01T09:37:56.000Z</time>
      </trkpt>
      <trkpt lat="43.61364" lon="5.59484">
        <ele>332.20001220703</ele>
        <time>2013-06-01T09:37:57.000Z</time>
      </trkpt>
      <trkpt lat="43.61367" lon="5.59487">
        <ele>332</ele>
        <time>2013-06-01T09:37:58.000Z</time>
      </trkpt>
      <trkpt lat="43.61371" lon="5.5949">
        <ele>331.79998779297</ele>
        <time>2013-06-01T09:37:59.000Z</time>
      </trkpt>
      <trkpt lat="43.61376" lon="5.59492">
        <ele>331.79998779297</ele>
        <time>2013-06-01T09:38:00.000Z</time>
      </trkpt>
      <trkpt lat="43.61381" lon="5.59495">
        <ele>331.60000610352</ele>
        <time>2013-06-01T09:38:01.000Z</time>
      </trkpt>
      <trkpt lat="43.61386" lon="5.595">
        <ele>331.20001220703</ele>
        <time>2013-06-01T09:38:02.000Z</time>
      </trkpt>
      <trkpt lat="43.6139" lon="5.59504">
        <ele>331</ele>
        <time>2013-06-01T09:38:03.000Z</time>
      </trkpt>
      <trkpt lat="43.61395" lon="5.59509">
        <ele>330.60000610352</ele>
        <time>2013-06-01T09:38:04.000Z</time>
      </trkpt>
      <trkpt lat="43.61399" lon="5.59514">
        <ele>330.20001220703</ele>
        <time>2013-06-01T09:38:05.000Z</time>
      </trkpt>
      <trkpt lat="43.61405" lon="5.59524">
        <ele>329.39999389648</ele>
        <time>2013-06-01T09:38:07.000Z</time>
      </trkpt>
      <trkpt lat="43.61413" lon="5.59541">
        <ele>328</ele>
        <time>2013-06-01T09:38:10.000Z</time>
      </trkpt>
      <trkpt lat="43.61415" lon="5.59546">
        <ele>327.39999389648</ele>
        <time>2013-06-01T09:38:11.000Z</time>
      </trkpt>
      <trkpt lat="43.61418" lon="5.59552">
        <ele>327</ele>
        <time>2013-06-01T09:38:12.000Z</time>
      </trkpt>
      <trkpt lat="43.61439" lon="5.59586">
        <ele>324.20001220703</ele>
        <time>2013-06-01T09:38:18.000Z</time>
      </trkpt>
      <trkpt lat="43.61444" lon="5.5959">
        <ele>324.39999389648</ele>
        <time>2013-06-01T09:38:19.000Z</time>
      </trkpt>
      <trkpt lat="43.61453" lon="5.59595">
        <ele>324.60000610352</ele>
        <time>2013-06-01T09:38:21.000Z</time>
      </trkpt>
      <trkpt lat="43.6149" lon="5.59615">
        <ele>323</ele>
        <time>2013-06-01T09:38:28.000Z</time>
      </trkpt>
      <trkpt lat="43.61495" lon="5.59617">
        <ele>322.79998779297</ele>
        <time>2013-06-01T09:38:29.000Z</time>
      </trkpt>
      <trkpt lat="43.61502" lon="5.59618">
        <ele>322.39999389648</ele>
        <time>2013-06-01T09:38:30.000Z</time>
      </trkpt>
      <trkpt lat="43.61568" lon="5.59638">
        <ele>317.60000610352</ele>
        <time>2013-06-01T09:38:40.000Z</time>
      </trkpt>
      <trkpt lat="43.61574" lon="5.59641">
        <ele>317.20001220703</ele>
        <time>2013-06-01T09:38:41.000Z</time>
      </trkpt>
      <trkpt lat="43.61581" lon="5.59642">
        <ele>316.60000610352</ele>
        <time>2013-06-01T09:38:42.000Z</time>
      </trkpt>
      <trkpt lat="43.61621" lon="5.59643">
        <ele>314.79998779297</ele>
        <time>2013-06-01T09:38:48.000Z</time>
      </trkpt>
      <trkpt lat="43.61628" lon="5.59641">
        <ele>314.79998779297</ele>
        <time>2013-06-01T09:38:49.000Z</time>
      </trkpt>
      <trkpt lat="43.61634" lon="5.59637">
        <ele>314.79998779297</ele>
        <time>2013-06-01T09:38:50.000Z</time>
      </trkpt>
      <trkpt lat="43.6164" lon="5.59632">
        <ele>314.79998779297</ele>
        <time>2013-06-01T09:38:51.000Z</time>
      </trkpt>
      <trkpt lat="43.61645" lon="5.59626">
        <ele>315</ele>
        <time>2013-06-01T09:38:52.000Z</time>
      </trkpt>
      <trkpt lat="43.61662" lon="5.5961">
        <ele>314.79998779297</ele>
        <time>2013-06-01T09:38:55.000Z</time>
      </trkpt>
      <trkpt lat="43.61669" lon="5.59607">
        <ele>314.79998779297</ele>
        <time>2013-06-01T09:38:56.000Z</time>
      </trkpt>
      <trkpt lat="43.61676" lon="5.59604">
        <ele>315</ele>
        <time>2013-06-01T09:38:57.000Z</time>
      </trkpt>
      <trkpt lat="43.61682" lon="5.59603">
        <ele>315</ele>
        <time>2013-06-01T09:38:58.000Z</time>
      </trkpt>
      <trkpt lat="43.61689" lon="5.59605">
        <ele>315</ele>
        <time>2013-06-01T09:38:59.000Z</time>
      </trkpt>
      <trkpt lat="43.61696" lon="5.59606">
        <ele>315</ele>
        <time>2013-06-01T09:39:00.000Z</time>
      </trkpt>
      <trkpt lat="43.61746" lon="5.59619">
        <ele>313.60000610352</ele>
        <time>2013-06-01T09:39:10.000Z</time>
      </trkpt>
      <trkpt lat="43.61777" lon="5.59628">
        <ele>312</ele>
        <time>2013-06-01T09:39:16.000Z</time>
      </trkpt>
      <trkpt lat="43.61783" lon="5.5963">
        <ele>311.60000610352</ele>
        <time>2013-06-01T09:39:17.000Z</time>
      </trkpt>
      <trkpt lat="43.61821" lon="5.59659">
        <ele>305.79998779297</ele>
        <time>2013-06-01T09:39:25.000Z</time>
      </trkpt>
      <trkpt lat="43.61827" lon="5.5966">
        <ele>305.39999389648</ele>
        <time>2013-06-01T09:39:26.000Z</time>
      </trkpt>
      <trkpt lat="43.61832" lon="5.59659">
        <ele>305.39999389648</ele>
        <time>2013-06-01T09:39:27.000Z</time>
      </trkpt>
      <trkpt lat="43.61838" lon="5.59656">
        <ele>305.39999389648</ele>
        <time>2013-06-01T09:39:28.000Z</time>
      </trkpt>
      <trkpt lat="43.61843" lon="5.59653">
        <ele>305.60000610352</ele>
        <time>2013-06-01T09:39:29.000Z</time>
      </trkpt>
      <trkpt lat="43.61849" lon="5.59649">
        <ele>305.79998779297</ele>
        <time>2013-06-01T09:39:30.000Z</time>
      </trkpt>
      <trkpt lat="43.61906" lon="5.59599">
        <ele>303.79998779297</ele>
        <time>2013-06-01T09:39:41.000Z</time>
      </trkpt>
      <trkpt lat="43.61913" lon="5.59597">
        <ele>303</ele>
        <time>2013-06-01T09:39:42.000Z</time>
      </trkpt>
      <trkpt lat="43.61919" lon="5.59596">
        <ele>302.39999389648</ele>
        <time>2013-06-01T09:39:43.000Z</time>
      </trkpt>
      <trkpt lat="43.61988" lon="5.59603">
        <ele>302.20001220703</ele>
        <time>2013-06-01T09:39:53.000Z</time>
      </trkpt>
      <trkpt lat="43.62057" lon="5.59602">
        <ele>301.20001220703</ele>
        <time>2013-06-01T09:40:03.000Z</time>
      </trkpt>
      <trkpt lat="43.62083" lon="5.59607">
        <ele>300.39999389648</ele>
        <time>2013-06-01T09:40:07.000Z</time>
      </trkpt>
      <trkpt lat="43.6209" lon="5.59607">
        <ele>300.39999389648</ele>
        <time>2013-06-01T09:40:08.000Z</time>
      </trkpt>
      <trkpt lat="43.62096" lon="5.59605">
        <ele>300.39999389648</ele>
        <time>2013-06-01T09:40:09.000Z</time>
      </trkpt>
      <trkpt lat="43.62102" lon="5.59602">
        <ele>300.60000610352</ele>
        <time>2013-06-01T09:40:10.000Z</time>
      </trkpt>
      <trkpt lat="43.62109" lon="5.59599">
        <ele>300.60000610352</ele>
        <time>2013-06-01T09:40:11.000Z</time>
      </trkpt>
      <trkpt lat="43.62115" lon="5.59596">
        <ele>300.79998779297</ele>
        <time>2013-06-01T09:40:12.000Z</time>
      </trkpt>
      <trkpt lat="43.62129" lon="5.59592">
        <ele>300.79998779297</ele>
        <time>2013-06-01T09:40:14.000Z</time>
      </trkpt>
      <trkpt lat="43.62135" lon="5.59591">
        <ele>300.79998779297</ele>
        <time>2013-06-01T09:40:15.000Z</time>
      </trkpt>
      <trkpt lat="43.62142" lon="5.59591">
        <ele>300.79998779297</ele>
        <time>2013-06-01T09:40:16.000Z</time>
      </trkpt>
      <trkpt lat="43.62163" lon="5.59591">
        <ele>300.39999389648</ele>
        <time>2013-06-01T09:40:19.000Z</time>
      </trkpt>
      <trkpt lat="43.62169" lon="5.5959">
        <ele>300.60000610352</ele>
        <time>2013-06-01T09:40:20.000Z</time>
      </trkpt>
      <trkpt lat="43.62175" lon="5.59588">
        <ele>301</ele>
        <time>2013-06-01T09:40:21.000Z</time>
      </trkpt>
      <trkpt lat="43.622" lon="5.59581">
        <ele>303</ele>
        <time>2013-06-01T09:40:25.000Z</time>
      </trkpt>
      <trkpt lat="43.62206" lon="5.59581">
        <ele>303.20001220703</ele>
        <time>2013-06-01T09:40:26.000Z</time>
      </trkpt>
      <trkpt lat="43.62213" lon="5.59583">
        <ele>303</ele>
        <time>2013-06-01T09:40:27.000Z</time>
      </trkpt>
      <trkpt lat="43.62219" lon="5.59587">
        <ele>303</ele>
        <time>2013-06-01T09:40:28.000Z</time>
      </trkpt>
      <trkpt lat="43.62225" lon="5.59591">
        <ele>302.79998779297</ele>
        <time>2013-06-01T09:40:29.000Z</time>
      </trkpt>
      <trkpt lat="43.62231" lon="5.59596">
        <ele>302.39999389648</ele>
        <time>2013-06-01T09:40:30.000Z</time>
      </trkpt>
      <trkpt lat="43.6229" lon="5.59648">
        <ele>296.20001220703</ele>
        <time>2013-06-01T09:40:39.000Z</time>
      </trkpt>
      <trkpt lat="43.62297" lon="5.59654">
        <ele>295.20001220703</ele>
        <time>2013-06-01T09:40:40.000Z</time>
      </trkpt>
      <trkpt lat="43.62364" lon="5.59696">
        <ele>292.39999389648</ele>
        <time>2013-06-01T09:40:50.000Z</time>
      </trkpt>
      <trkpt lat="43.62386" lon="5.59714">
        <ele>290.79998779297</ele>
        <time>2013-06-01T09:40:54.000Z</time>
      </trkpt>
      <trkpt lat="43.62459" lon="5.59796">
        <ele>291.60000610352</ele>
        <time>2013-06-01T09:41:09.000Z</time>
      </trkpt>
      <trkpt lat="43.62467" lon="5.59803">
        <ele>292.39999389648</ele>
        <time>2013-06-01T09:41:11.000Z</time>
      </trkpt>
      <trkpt lat="43.62486" lon="5.59823">
        <ele>294.39999389648</ele>
        <time>2013-06-01T09:41:19.000Z</time>
      </trkpt>
      <trkpt lat="43.62505" lon="5.59828">
        <ele>296.20001220703</ele>
        <time>2013-06-01T09:41:25.000Z</time>
      </trkpt>
      <trkpt lat="43.62515" lon="5.59837">
        <ele>296.79998779297</ele>
        <time>2013-06-01T09:41:29.000Z</time>
      </trkpt>
      <trkpt lat="43.62516" lon="5.59841">
        <ele>297</ele>
        <time>2013-06-01T09:41:30.000Z</time>
      </trkpt>
      <trkpt lat="43.62519" lon="5.59856">
        <ele>297.20001220703</ele>
        <time>2013-06-01T09:41:34.000Z</time>
      </trkpt>
      <trkpt lat="43.62517" lon="5.5986">
        <ele>297.20001220703</ele>
        <time>2013-06-01T09:41:35.000Z</time>
      </trkpt>
      <trkpt lat="43.62516" lon="5.59863">
        <ele>297.20001220703</ele>
        <time>2013-06-01T09:41:36.000Z</time>
      </trkpt>
      <trkpt lat="43.62514" lon="5.59867">
        <ele>297</ele>
        <time>2013-06-01T09:41:37.000Z</time>
      </trkpt>
      <trkpt lat="43.62513" lon="5.5987">
        <ele>297</ele>
        <time>2013-06-01T09:41:38.000Z</time>
      </trkpt>
      <trkpt lat="43.62512" lon="5.59873">
        <ele>297</ele>
        <time>2013-06-01T09:41:39.000Z</time>
      </trkpt>
      <trkpt lat="43.625" lon="5.59911">
        <ele>296.79998779297</ele>
        <time>2013-06-01T09:41:48.000Z</time>
      </trkpt>
      <trkpt lat="43.62498" lon="5.59935">
        <ele>297</ele>
        <time>2013-06-01T09:41:52.000Z</time>
      </trkpt>
      <trkpt lat="43.62498" lon="5.59941">
        <ele>297</ele>
        <time>2013-06-01T09:41:53.000Z</time>
      </trkpt>
      <trkpt lat="43.62497" lon="5.59946">
        <ele>297</ele>
        <time>2013-06-01T09:41:54.000Z</time>
      </trkpt>
      <trkpt lat="43.62498" lon="5.59952">
        <ele>297.20001220703</ele>
        <time>2013-06-01T09:41:55.000Z</time>
      </trkpt>
      <trkpt lat="43.62498" lon="5.59957">
        <ele>297.20001220703</ele>
        <time>2013-06-01T09:41:56.000Z</time>
      </trkpt>
      <trkpt lat="43.62498" lon="5.59963">
        <ele>297.20001220703</ele>
        <time>2013-06-01T09:41:57.000Z</time>
      </trkpt>
      <trkpt lat="43.62498" lon="5.59969">
        <ele>297.39999389648</ele>
        <time>2013-06-01T09:41:58.000Z</time>
      </trkpt>
      <trkpt lat="43.62494" lon="5.59986">
        <ele>297.20001220703</ele>
        <time>2013-06-01T09:42:01.000Z</time>
      </trkpt>
      <trkpt lat="43.62492" lon="5.59991">
        <ele>297</ele>
        <time>2013-06-01T09:42:02.000Z</time>
      </trkpt>
      <trkpt lat="43.6249" lon="5.59996">
        <ele>297</ele>
        <time>2013-06-01T09:42:03.000Z</time>
      </trkpt>
      <trkpt lat="43.62486" lon="5.60006">
        <ele>296.79998779297</ele>
        <time>2013-06-01T09:42:05.000Z</time>
      </trkpt>
      <trkpt lat="43.62484" lon="5.60011">
        <ele>296.79998779297</ele>
        <time>2013-06-01T09:42:06.000Z</time>
      </trkpt>
      <trkpt lat="43.62483" lon="5.60018">
        <ele>297</ele>
        <time>2013-06-01T09:42:07.000Z</time>
      </trkpt>
      <trkpt lat="43.62484" lon="5.60025">
        <ele>297.20001220703</ele>
        <time>2013-06-01T09:42:08.000Z</time>
      </trkpt>
      <trkpt lat="43.62485" lon="5.60032">
        <ele>297.60000610352</ele>
        <time>2013-06-01T09:42:09.000Z</time>
      </trkpt>
      <trkpt lat="43.62486" lon="5.60037">
        <ele>297.79998779297</ele>
        <time>2013-06-01T09:42:10.000Z</time>
      </trkpt>
      <trkpt lat="43.6249" lon="5.60047">
        <ele>298.39999389648</ele>
        <time>2013-06-01T09:42:11.000Z</time>
      </trkpt>
      <trkpt lat="43.62491" lon="5.60055">
        <ele>298.60000610352</ele>
        <time>2013-06-01T09:42:12.000Z</time>
      </trkpt>
      <trkpt lat="43.62492" lon="5.60062">
        <ele>298.79998779297</ele>
        <time>2013-06-01T09:42:13.000Z</time>
      </trkpt>
      <trkpt lat="43.62493" lon="5.60069">
        <ele>299</ele>
        <time>2013-06-01T09:42:14.000Z</time>
      </trkpt>
      <trkpt lat="43.62494" lon="5.60075">
        <ele>299.39999389648</ele>
        <time>2013-06-01T09:42:15.000Z</time>
      </trkpt>
      <trkpt lat="43.62496" lon="5.60081">
        <ele>299.60000610352</ele>
        <time>2013-06-01T09:42:16.000Z</time>
      </trkpt>
      <trkpt lat="43.62497" lon="5.60086">
        <ele>299.60000610352</ele>
        <time>2013-06-01T09:42:17.000Z</time>
      </trkpt>
      <trkpt lat="43.62496" lon="5.60092">
        <ele>299.39999389648</ele>
        <time>2013-06-01T09:42:18.000Z</time>
      </trkpt>
      <trkpt lat="43.62495" lon="5.60097">
        <ele>299.20001220703</ele>
        <time>2013-06-01T09:42:19.000Z</time>
      </trkpt>
      <trkpt lat="43.62494" lon="5.60102">
        <ele>299</ele>
        <time>2013-06-01T09:42:20.000Z</time>
      </trkpt>
      <trkpt lat="43.62493" lon="5.60106">
        <ele>298.79998779297</ele>
        <time>2013-06-01T09:42:21.000Z</time>
      </trkpt>
      <trkpt lat="43.62489" lon="5.60137">
        <ele>297.60000610352</ele>
        <time>2013-06-01T09:42:29.000Z</time>
      </trkpt>
      <trkpt lat="43.62491" lon="5.60147">
        <ele>297.39999389648</ele>
        <time>2013-06-01T09:42:31.000Z</time>
      </trkpt>
      <trkpt lat="43.62492" lon="5.60153">
        <ele>297.20001220703</ele>
        <time>2013-06-01T09:42:32.000Z</time>
      </trkpt>
      <trkpt lat="43.62506" lon="5.60196">
        <ele>296.20001220703</ele>
        <time>2013-06-01T09:42:41.000Z</time>
      </trkpt>
      <trkpt lat="43.62527" lon="5.60223">
        <ele>295.39999389648</ele>
        <time>2013-06-01T09:42:49.000Z</time>
      </trkpt>
      <trkpt lat="43.62563" lon="5.60269">
        <ele>292.60000610352</ele>
        <time>2013-06-01T09:42:56.000Z</time>
      </trkpt>
      <trkpt lat="43.62569" lon="5.60276">
        <ele>292</ele>
        <time>2013-06-01T09:42:57.000Z</time>
      </trkpt>
      <trkpt lat="43.62576" lon="5.60281">
        <ele>291.60000610352</ele>
        <time>2013-06-01T09:42:58.000Z</time>
      </trkpt>
      <trkpt lat="43.62583" lon="5.60283">
        <ele>291.39999389648</ele>
        <time>2013-06-01T09:42:59.000Z</time>
      </trkpt>
      <trkpt lat="43.6259" lon="5.60284">
        <ele>291</ele>
        <time>2013-06-01T09:43:00.000Z</time>
      </trkpt>
      <trkpt lat="43.62597" lon="5.60288">
        <ele>290.79998779297</ele>
        <time>2013-06-01T09:43:01.000Z</time>
      </trkpt>
      <trkpt lat="43.62604" lon="5.60294">
        <ele>290.20001220703</ele>
        <time>2013-06-01T09:43:02.000Z</time>
      </trkpt>
      <trkpt lat="43.6261" lon="5.60302">
        <ele>289.79998779297</ele>
        <time>2013-06-01T09:43:03.000Z</time>
      </trkpt>
      <trkpt lat="43.62615" lon="5.60313">
        <ele>289.20001220703</ele>
        <time>2013-06-01T09:43:04.000Z</time>
      </trkpt>
      <trkpt lat="43.62618" lon="5.60323">
        <ele>288.60000610352</ele>
        <time>2013-06-01T09:43:05.000Z</time>
      </trkpt>
      <trkpt lat="43.62624" lon="5.60344">
        <ele>287.20001220703</ele>
        <time>2013-06-01T09:43:07.000Z</time>
      </trkpt>
      <trkpt lat="43.62629" lon="5.60353">
        <ele>286.60000610352</ele>
        <time>2013-06-01T09:43:08.000Z</time>
      </trkpt>
      <trkpt lat="43.62639" lon="5.6037">
        <ele>285.20001220703</ele>
        <time>2013-06-01T09:43:10.000Z</time>
      </trkpt>
      <trkpt lat="43.62643" lon="5.6038">
        <ele>284.60000610352</ele>
        <time>2013-06-01T09:43:11.000Z</time>
      </trkpt>
      <trkpt lat="43.62645" lon="5.6039">
        <ele>283.79998779297</ele>
        <time>2013-06-01T09:43:12.000Z</time>
      </trkpt>
      <trkpt lat="43.62647" lon="5.604">
        <ele>283.20001220703</ele>
        <time>2013-06-01T09:43:13.000Z</time>
      </trkpt>
      <trkpt lat="43.62647" lon="5.60411">
        <ele>282.60000610352</ele>
        <time>2013-06-01T09:43:14.000Z</time>
      </trkpt>
      <trkpt lat="43.62647" lon="5.60421">
        <ele>282</ele>
        <time>2013-06-01T09:43:15.000Z</time>
      </trkpt>
      <trkpt lat="43.62648" lon="5.60431">
        <ele>281.60000610352</ele>
        <time>2013-06-01T09:43:16.000Z</time>
      </trkpt>
      <trkpt lat="43.6265" lon="5.60442">
        <ele>281</ele>
        <time>2013-06-01T09:43:17.000Z</time>
      </trkpt>
      <trkpt lat="43.62654" lon="5.60452">
        <ele>280.60000610352</ele>
        <time>2013-06-01T09:43:18.000Z</time>
      </trkpt>
      <trkpt lat="43.62658" lon="5.60461">
        <ele>280</ele>
        <time>2013-06-01T09:43:19.000Z</time>
      </trkpt>
      <trkpt lat="43.62669" lon="5.60488">
        <ele>278.39999389648</ele>
        <time>2013-06-01T09:43:22.000Z</time>
      </trkpt>
      <trkpt lat="43.62689" lon="5.60526">
        <ele>277.39999389648</ele>
        <time>2013-06-01T09:43:28.000Z</time>
      </trkpt>
      <trkpt lat="43.62693" lon="5.6053">
        <ele>277.20001220703</ele>
        <time>2013-06-01T09:43:29.000Z</time>
      </trkpt>
      <trkpt lat="43.62697" lon="5.60533">
        <ele>277</ele>
        <time>2013-06-01T09:43:30.000Z</time>
      </trkpt>
      <trkpt lat="43.62707" lon="5.60539">
        <ele>276.79998779297</ele>
        <time>2013-06-01T09:43:32.000Z</time>
      </trkpt>
      <trkpt lat="43.62738" lon="5.60582">
        <ele>275.39999389648</ele>
        <time>2013-06-01T09:43:39.000Z</time>
      </trkpt>
      <trkpt lat="43.62799" lon="5.60647">
        <ele>272.79998779297</ele>
        <time>2013-06-01T09:43:50.000Z</time>
      </trkpt>
      <trkpt lat="43.62838" lon="5.60697">
        <ele>273</ele>
        <time>2013-06-01T09:43:58.000Z</time>
      </trkpt>
      <trkpt lat="43.62848" lon="5.60709">
        <ele>273.39999389648</ele>
        <time>2013-06-01T09:44:00.000Z</time>
      </trkpt>
      <trkpt lat="43.62852" lon="5.60718">
        <ele>273.79998779297</ele>
        <time>2013-06-01T09:44:01.000Z</time>
      </trkpt>
      <trkpt lat="43.62854" lon="5.60727">
        <ele>274.39999389648</ele>
        <time>2013-06-01T09:44:02.000Z</time>
      </trkpt>
      <trkpt lat="43.62854" lon="5.60736">
        <ele>274.79998779297</ele>
        <time>2013-06-01T09:44:03.000Z</time>
      </trkpt>
      <trkpt lat="43.62854" lon="5.60745">
        <ele>275.20001220703</ele>
        <time>2013-06-01T09:44:04.000Z</time>
      </trkpt>
      <trkpt lat="43.62854" lon="5.60754">
        <ele>275.60000610352</ele>
        <time>2013-06-01T09:44:05.000Z</time>
      </trkpt>
      <trkpt lat="43.62856" lon="5.60762">
        <ele>276</ele>
        <time>2013-06-01T09:44:06.000Z</time>
      </trkpt>
      <trkpt lat="43.62858" lon="5.6077">
        <ele>276.39999389648</ele>
        <time>2013-06-01T09:44:07.000Z</time>
      </trkpt>
      <trkpt lat="43.6286" lon="5.60779">
        <ele>276.79998779297</ele>
        <time>2013-06-01T09:44:08.000Z</time>
      </trkpt>
      <trkpt lat="43.62861" lon="5.60788">
        <ele>277.20001220703</ele>
        <time>2013-06-01T09:44:09.000Z</time>
      </trkpt>
      <trkpt lat="43.62855" lon="5.60834">
        <ele>279</ele>
        <time>2013-06-01T09:44:15.000Z</time>
      </trkpt>
      <trkpt lat="43.62854" lon="5.6084">
        <ele>278.60000610352</ele>
        <time>2013-06-01T09:44:16.000Z</time>
      </trkpt>
      <trkpt lat="43.62854" lon="5.60845">
        <ele>278.20001220703</ele>
        <time>2013-06-01T09:44:17.000Z</time>
      </trkpt>
      <trkpt lat="43.6286" lon="5.60876">
        <ele>277</ele>
        <time>2013-06-01T09:44:25.000Z</time>
      </trkpt>
      <trkpt lat="43.6288" lon="5.60903">
        <ele>276.39999389648</ele>
        <time>2013-06-01T09:44:33.000Z</time>
      </trkpt>
      <trkpt lat="43.62887" lon="5.60916">
        <ele>275.79998779297</ele>
        <time>2013-06-01T09:44:35.000Z</time>
      </trkpt>
      <trkpt lat="43.62893" lon="5.60943">
        <ele>274.39999389648</ele>
        <time>2013-06-01T09:44:38.000Z</time>
      </trkpt>
      <trkpt lat="43.62894" lon="5.60954">
        <ele>273.60000610352</ele>
        <time>2013-06-01T09:44:39.000Z</time>
      </trkpt>
      <trkpt lat="43.62895" lon="5.60966">
        <ele>273</ele>
        <time>2013-06-01T09:44:40.000Z</time>
      </trkpt>
      <trkpt lat="43.62893" lon="5.60989">
        <ele>271.39999389648</ele>
        <time>2013-06-01T09:44:42.000Z</time>
      </trkpt>
      <trkpt lat="43.62887" lon="5.61048">
        <ele>267</ele>
        <time>2013-06-01T09:44:47.000Z</time>
      </trkpt>
      <trkpt lat="43.62885" lon="5.61098">
        <ele>263.79998779297</ele>
        <time>2013-06-01T09:44:51.000Z</time>
      </trkpt>
      <trkpt lat="43.62888" lon="5.61109">
        <ele>263.39999389648</ele>
        <time>2013-06-01T09:44:52.000Z</time>
      </trkpt>
      <trkpt lat="43.62893" lon="5.61119">
        <ele>263</ele>
        <time>2013-06-01T09:44:53.000Z</time>
      </trkpt>
      <trkpt lat="43.62905" lon="5.61137">
        <ele>262.20001220703</ele>
        <time>2013-06-01T09:44:55.000Z</time>
      </trkpt>
      <trkpt lat="43.62926" lon="5.61168">
        <ele>261.60000610352</ele>
        <time>2013-06-01T09:44:59.000Z</time>
      </trkpt>
      <trkpt lat="43.62937" lon="5.61181">
        <ele>262.20001220703</ele>
        <time>2013-06-01T09:45:01.000Z</time>
      </trkpt>
      <trkpt lat="43.6297" lon="5.61207">
        <ele>262.79998779297</ele>
        <time>2013-06-01T09:45:06.000Z</time>
      </trkpt>
      <trkpt lat="43.62975" lon="5.61213">
        <ele>262.60000610352</ele>
        <time>2013-06-01T09:45:07.000Z</time>
      </trkpt>
      <trkpt lat="43.62978" lon="5.61221">
        <ele>262.20001220703</ele>
        <time>2013-06-01T09:45:08.000Z</time>
      </trkpt>
      <trkpt lat="43.62979" lon="5.61229">
        <ele>261.60000610352</ele>
        <time>2013-06-01T09:45:09.000Z</time>
      </trkpt>
      <trkpt lat="43.6298" lon="5.61236">
        <ele>261.20001220703</ele>
        <time>2013-06-01T09:45:10.000Z</time>
      </trkpt>
      <trkpt lat="43.62989" lon="5.61283">
        <ele>260.20001220703</ele>
        <time>2013-06-01T09:45:17.000Z</time>
      </trkpt>
      <trkpt lat="43.62991" lon="5.61289">
        <ele>260</ele>
        <time>2013-06-01T09:45:18.000Z</time>
      </trkpt>
      <trkpt lat="43.62994" lon="5.61295">
        <ele>259.79998779297</ele>
        <time>2013-06-01T09:45:19.000Z</time>
      </trkpt>
      <trkpt lat="43.62997" lon="5.61301">
        <ele>259.39999389648</ele>
        <time>2013-06-01T09:45:20.000Z</time>
      </trkpt>
      <trkpt lat="43.63" lon="5.61308">
        <ele>259.20001220703</ele>
        <time>2013-06-01T09:45:21.000Z</time>
      </trkpt>
      <trkpt lat="43.63001" lon="5.61312">
        <ele>259.20001220703</ele>
        <time>2013-06-01T09:45:22.000Z</time>
      </trkpt>
      <trkpt lat="43.63002" lon="5.61321">
        <ele>259.20001220703</ele>
        <time>2013-06-01T09:45:23.000Z</time>
      </trkpt>
      <trkpt lat="43.63001" lon="5.61328">
        <ele>259</ele>
        <time>2013-06-01T09:45:24.000Z</time>
      </trkpt>
      <trkpt lat="43.63001" lon="5.61335">
        <ele>259</ele>
        <time>2013-06-01T09:45:25.000Z</time>
      </trkpt>
      <trkpt lat="43.63002" lon="5.61341">
        <ele>259.60000610352</ele>
        <time>2013-06-01T09:45:26.000Z</time>
      </trkpt>
      <trkpt lat="43.63003" lon="5.61347">
        <ele>260</ele>
        <time>2013-06-01T09:45:27.000Z</time>
      </trkpt>
      <trkpt lat="43.63012" lon="5.61377">
        <ele>261.79998779297</ele>
        <time>2013-06-01T09:45:32.000Z</time>
      </trkpt>
      <trkpt lat="43.63015" lon="5.61382">
        <ele>262</ele>
        <time>2013-06-01T09:45:33.000Z</time>
      </trkpt>
      <trkpt lat="43.63018" lon="5.61386">
        <ele>262.20001220703</ele>
        <time>2013-06-01T09:45:34.000Z</time>
      </trkpt>
      <trkpt lat="43.6302" lon="5.61391">
        <ele>262.20001220703</ele>
        <time>2013-06-01T09:45:35.000Z</time>
      </trkpt>
      <trkpt lat="43.63022" lon="5.61396">
        <ele>262.39999389648</ele>
        <time>2013-06-01T09:45:36.000Z</time>
      </trkpt>
      <trkpt lat="43.63024" lon="5.61401">
        <ele>262.39999389648</ele>
        <time>2013-06-01T09:45:37.000Z</time>
      </trkpt>
      <trkpt lat="43.63025" lon="5.61411">
        <ele>262.60000610352</ele>
        <time>2013-06-01T09:45:39.000Z</time>
      </trkpt>
      <trkpt lat="43.63026" lon="5.61417">
        <ele>262.79998779297</ele>
        <time>2013-06-01T09:45:40.000Z</time>
      </trkpt>
      <trkpt lat="43.63032" lon="5.61488">
        <ele>264.20001220703</ele>
        <time>2013-06-01T09:45:52.000Z</time>
      </trkpt>
      <trkpt lat="43.63036" lon="5.61513">
        <ele>264.60000610352</ele>
        <time>2013-06-01T09:45:58.000Z</time>
      </trkpt>
      <trkpt lat="43.63045" lon="5.61549">
        <ele>265.39999389648</ele>
        <time>2013-06-01T09:46:06.000Z</time>
      </trkpt>
      <trkpt lat="43.63051" lon="5.6156">
        <ele>265.39999389648</ele>
        <time>2013-06-01T09:46:08.000Z</time>
      </trkpt>
      <trkpt lat="43.63057" lon="5.61569">
        <ele>265.39999389648</ele>
        <time>2013-06-01T09:46:10.000Z</time>
      </trkpt>
      <trkpt lat="43.63071" lon="5.61586">
        <ele>265</ele>
        <time>2013-06-01T09:46:14.000Z</time>
      </trkpt>
      <trkpt lat="43.63113" lon="5.61619">
        <ele>262.20001220703</ele>
        <time>2013-06-01T09:46:22.000Z</time>
      </trkpt>
      <trkpt lat="43.63118" lon="5.61624">
        <ele>261.79998779297</ele>
        <time>2013-06-01T09:46:23.000Z</time>
      </trkpt>
      <trkpt lat="43.63122" lon="5.6163">
        <ele>261.60000610352</ele>
        <time>2013-06-01T09:46:24.000Z</time>
      </trkpt>
      <trkpt lat="43.6315" lon="5.61672">
        <ele>259.39999389648</ele>
        <time>2013-06-01T09:46:31.000Z</time>
      </trkpt>
      <trkpt lat="43.63166" lon="5.61692">
        <ele>257</ele>
        <time>2013-06-01T09:46:35.000Z</time>
      </trkpt>
      <trkpt lat="43.63181" lon="5.61715">
        <ele>255.60000610352</ele>
        <time>2013-06-01T09:46:39.000Z</time>
      </trkpt>
      <trkpt lat="43.6318" lon="5.61728">
        <ele>255.19999694824</ele>
        <time>2013-06-01T09:46:42.000Z</time>
      </trkpt>
      <trkpt lat="43.63174" lon="5.6174">
        <ele>255</ele>
        <time>2013-06-01T09:46:45.000Z</time>
      </trkpt>
      <trkpt lat="43.63175" lon="5.61742">
        <ele>254.80000305176</ele>
        <time>2013-06-01T09:46:46.000Z</time>
      </trkpt>
      <trkpt lat="43.63176" lon="5.61744">
        <ele>254.80000305176</ele>
        <time>2013-06-01T09:46:47.000Z</time>
      </trkpt>
      <trkpt lat="43.63179" lon="5.61747">
        <ele>254.60000610352</ele>
        <time>2013-06-01T09:46:49.000Z</time>
      </trkpt>
      <trkpt lat="43.63179" lon="5.61748">
        <ele>254.60000610352</ele>
        <time>2013-06-01T09:46:50.000Z</time>
      </trkpt>
      <trkpt lat="43.63181" lon="5.61749">
        <ele>254.39999389648</ele>
        <time>2013-06-01T09:46:51.000Z</time>
      </trkpt>
      <trkpt lat="43.63182" lon="5.6175">
        <ele>254.39999389648</ele>
        <time>2013-06-01T09:46:52.000Z</time>
      </trkpt>
      <trkpt lat="43.63184" lon="5.61749">
        <ele>254.19999694824</ele>
        <time>2013-06-01T09:46:53.000Z</time>
      </trkpt>
      <trkpt lat="43.6321" lon="5.6175">
        <ele>253.39999389648</ele>
        <time>2013-06-01T09:47:01.000Z</time>
      </trkpt>
      <trkpt lat="43.63219" lon="5.61756">
        <ele>253</ele>
        <time>2013-06-01T09:47:03.000Z</time>
      </trkpt>
      <trkpt lat="43.63223" lon="5.61761">
        <ele>253</ele>
        <time>2013-06-01T09:47:04.000Z</time>
      </trkpt>
      <trkpt lat="43.63227" lon="5.61766">
        <ele>252.80000305176</ele>
        <time>2013-06-01T09:47:05.000Z</time>
      </trkpt>
      <trkpt lat="43.6323" lon="5.61773">
        <ele>252.80000305176</ele>
        <time>2013-06-01T09:47:06.000Z</time>
      </trkpt>
      <trkpt lat="43.63231" lon="5.61778">
        <ele>252.80000305176</ele>
        <time>2013-06-01T09:47:07.000Z</time>
      </trkpt>
      <trkpt lat="43.63245" lon="5.61821">
        <ele>252.80000305176</ele>
        <time>2013-06-01T09:47:13.000Z</time>
      </trkpt>
      <trkpt lat="43.63248" lon="5.61827">
        <ele>252.80000305176</ele>
        <time>2013-06-01T09:47:14.000Z</time>
      </trkpt>
      <trkpt lat="43.63252" lon="5.61833">
        <ele>252.80000305176</ele>
        <time>2013-06-01T09:47:15.000Z</time>
      </trkpt>
      <trkpt lat="43.63265" lon="5.61855">
        <ele>253.19999694824</ele>
        <time>2013-06-01T09:47:19.000Z</time>
      </trkpt>
      <trkpt lat="43.63298" lon="5.61921">
        <ele>252.80000305176</ele>
        <time>2013-06-01T09:47:29.000Z</time>
      </trkpt>
      <trkpt lat="43.63344" lon="5.62006">
        <ele>254.39999389648</ele>
        <time>2013-06-01T09:47:42.000Z</time>
      </trkpt>
      <trkpt lat="43.6335" lon="5.62038">
        <ele>255.19999694824</ele>
        <time>2013-06-01T09:47:49.000Z</time>
      </trkpt>
      <trkpt lat="43.63355" lon="5.62069">
        <ele>256.20001220703</ele>
        <time>2013-06-01T09:47:55.000Z</time>
      </trkpt>
      <trkpt lat="43.63356" lon="5.62075">
        <ele>256.39999389648</ele>
        <time>2013-06-01T09:47:56.000Z</time>
      </trkpt>
      <trkpt lat="43.63358" lon="5.6208">
        <ele>256.39999389648</ele>
        <time>2013-06-01T09:47:57.000Z</time>
      </trkpt>
      <trkpt lat="43.63361" lon="5.62086">
        <ele>256.60000610352</ele>
        <time>2013-06-01T09:47:58.000Z</time>
      </trkpt>
      <trkpt lat="43.63364" lon="5.62091">
        <ele>256.79998779297</ele>
        <time>2013-06-01T09:47:59.000Z</time>
      </trkpt>
      <trkpt lat="43.63368" lon="5.62096">
        <ele>257</ele>
        <time>2013-06-01T09:48:00.000Z</time>
      </trkpt>
      <trkpt lat="43.63372" lon="5.621">
        <ele>257</ele>
        <time>2013-06-01T09:48:01.000Z</time>
      </trkpt>
      <trkpt lat="43.63376" lon="5.62104">
        <ele>257.20001220703</ele>
        <time>2013-06-01T09:48:02.000Z</time>
      </trkpt>
      <trkpt lat="43.63381" lon="5.62107">
        <ele>257.20001220703</ele>
        <time>2013-06-01T09:48:03.000Z</time>
      </trkpt>
      <trkpt lat="43.63385" lon="5.6211">
        <ele>257.39999389648</ele>
        <time>2013-06-01T09:48:04.000Z</time>
      </trkpt>
      <trkpt lat="43.6339" lon="5.62112">
        <ele>257.39999389648</ele>
        <time>2013-06-01T09:48:05.000Z</time>
      </trkpt>
      <trkpt lat="43.63404" lon="5.62118">
        <ele>257.60000610352</ele>
        <time>2013-06-01T09:48:08.000Z</time>
      </trkpt>
      <trkpt lat="43.63408" lon="5.62119">
        <ele>257.60000610352</ele>
        <time>2013-06-01T09:48:09.000Z</time>
      </trkpt>
      <trkpt lat="43.63412" lon="5.62121">
        <ele>257.79998779297</ele>
        <time>2013-06-01T09:48:10.000Z</time>
      </trkpt>
      <trkpt lat="43.63415" lon="5.62122">
        <ele>257.79998779297</ele>
        <time>2013-06-01T09:48:11.000Z</time>
      </trkpt>
      <trkpt lat="43.63428" lon="5.62134">
        <ele>257.39999389648</ele>
        <time>2013-06-01T09:48:15.000Z</time>
      </trkpt>
      <trkpt lat="43.6343" lon="5.62139">
        <ele>257.39999389648</ele>
        <time>2013-06-01T09:48:16.000Z</time>
      </trkpt>
      <trkpt lat="43.63432" lon="5.62144">
        <ele>257.60000610352</ele>
        <time>2013-06-01T09:48:17.000Z</time>
      </trkpt>
      <trkpt lat="43.63434" lon="5.62149">
        <ele>257.60000610352</ele>
        <time>2013-06-01T09:48:18.000Z</time>
      </trkpt>
      <trkpt lat="43.63436" lon="5.62154">
        <ele>257.79998779297</ele>
        <time>2013-06-01T09:48:19.000Z</time>
      </trkpt>
      <trkpt lat="43.63438" lon="5.62159">
        <ele>257.79998779297</ele>
        <time>2013-06-01T09:48:20.000Z</time>
      </trkpt>
      <trkpt lat="43.6344" lon="5.62164">
        <ele>257.79998779297</ele>
        <time>2013-06-01T09:48:21.000Z</time>
      </trkpt>
      <trkpt lat="43.63443" lon="5.62169">
        <ele>257.60000610352</ele>
        <time>2013-06-01T09:48:22.000Z</time>
      </trkpt>
      <trkpt lat="43.63447" lon="5.62174">
        <ele>257.39999389648</ele>
        <time>2013-06-01T09:48:23.000Z</time>
      </trkpt>
      <trkpt lat="43.63451" lon="5.62177">
        <ele>257.20001220703</ele>
        <time>2013-06-01T09:48:24.000Z</time>
      </trkpt>
      <trkpt lat="43.63455" lon="5.6218">
        <ele>256.79998779297</ele>
        <time>2013-06-01T09:48:25.000Z</time>
      </trkpt>
      <trkpt lat="43.6346" lon="5.62182">
        <ele>256.60000610352</ele>
        <time>2013-06-01T09:48:26.000Z</time>
      </trkpt>
      <trkpt lat="43.63464" lon="5.62185">
        <ele>256.39999389648</ele>
        <time>2013-06-01T09:48:27.000Z</time>
      </trkpt>
      <trkpt lat="43.63469" lon="5.62188">
        <ele>256</ele>
        <time>2013-06-01T09:48:28.000Z</time>
      </trkpt>
      <trkpt lat="43.63473" lon="5.62193">
        <ele>256</ele>
        <time>2013-06-01T09:48:29.000Z</time>
      </trkpt>
      <trkpt lat="43.63476" lon="5.62199">
        <ele>256</ele>
        <time>2013-06-01T09:48:30.000Z</time>
      </trkpt>
      <trkpt lat="43.63478" lon="5.62206">
        <ele>256</ele>
        <time>2013-06-01T09:48:31.000Z</time>
      </trkpt>
      <trkpt lat="43.63479" lon="5.62212">
        <ele>256.20001220703</ele>
        <time>2013-06-01T09:48:32.000Z</time>
      </trkpt>
      <trkpt lat="43.6348" lon="5.62219">
        <ele>256.39999389648</ele>
        <time>2013-06-01T09:48:33.000Z</time>
      </trkpt>
      <trkpt lat="43.63482" lon="5.62231">
        <ele>256.79998779297</ele>
        <time>2013-06-01T09:48:35.000Z</time>
      </trkpt>
      <trkpt lat="43.63485" lon="5.62244">
        <ele>257</ele>
        <time>2013-06-01T09:48:37.000Z</time>
      </trkpt>
      <trkpt lat="43.63487" lon="5.62249">
        <ele>257.20001220703</ele>
        <time>2013-06-01T09:48:38.000Z</time>
      </trkpt>
      <trkpt lat="43.6349" lon="5.62254">
        <ele>256.79998779297</ele>
        <time>2013-06-01T09:48:39.000Z</time>
      </trkpt>
      <trkpt lat="43.63493" lon="5.62257">
        <ele>256.60000610352</ele>
        <time>2013-06-01T09:48:40.000Z</time>
      </trkpt>
      <trkpt lat="43.63498" lon="5.62259">
        <ele>256.39999389648</ele>
        <time>2013-06-01T09:48:41.000Z</time>
      </trkpt>
      <trkpt lat="43.63502" lon="5.62259">
        <ele>256</ele>
        <time>2013-06-01T09:48:42.000Z</time>
      </trkpt>
      <trkpt lat="43.63554" lon="5.62261">
        <ele>252.19999694824</ele>
        <time>2013-06-01T09:48:52.000Z</time>
      </trkpt>
      <trkpt lat="43.63577" lon="5.62264">
        <ele>250.39999389648</ele>
        <time>2013-06-01T09:48:56.000Z</time>
      </trkpt>
      <trkpt lat="43.63583" lon="5.62264">
        <ele>250</ele>
        <time>2013-06-01T09:48:57.000Z</time>
      </trkpt>
      <trkpt lat="43.63588" lon="5.62264">
        <ele>249.80000305176</ele>
        <time>2013-06-01T09:48:58.000Z</time>
      </trkpt>
      <trkpt lat="43.63592" lon="5.62265">
        <ele>249.80000305176</ele>
        <time>2013-06-01T09:48:59.000Z</time>
      </trkpt>
      <trkpt lat="43.63596" lon="5.62267">
        <ele>249.60000610352</ele>
        <time>2013-06-01T09:49:00.000Z</time>
      </trkpt>
      <trkpt lat="43.63598" lon="5.62272">
        <ele>249.60000610352</ele>
        <time>2013-06-01T09:49:01.000Z</time>
      </trkpt>
      <trkpt lat="43.63598" lon="5.62278">
        <ele>249.60000610352</ele>
        <time>2013-06-01T09:49:02.000Z</time>
      </trkpt>
      <trkpt lat="43.63598" lon="5.62285">
        <ele>249.80000305176</ele>
        <time>2013-06-01T09:49:03.000Z</time>
      </trkpt>
      <trkpt lat="43.63595" lon="5.62292">
        <ele>250</ele>
        <time>2013-06-01T09:49:04.000Z</time>
      </trkpt>
      <trkpt lat="43.63591" lon="5.62298">
        <ele>250.19999694824</ele>
        <time>2013-06-01T09:49:05.000Z</time>
      </trkpt>
      <trkpt lat="43.63587" lon="5.62306">
        <ele>250.39999389648</ele>
        <time>2013-06-01T09:49:06.000Z</time>
      </trkpt>
      <trkpt lat="43.63554" lon="5.62384">
        <ele>247.60000610352</ele>
        <time>2013-06-01T09:49:15.000Z</time>
      </trkpt>
      <trkpt lat="43.63535" lon="5.62463">
        <ele>247.19999694824</ele>
        <time>2013-06-01T09:49:25.000Z</time>
      </trkpt>
      <trkpt lat="43.63532" lon="5.62514">
        <ele>248.60000610352</ele>
        <time>2013-06-01T09:49:32.000Z</time>
      </trkpt>
      <trkpt lat="43.63531" lon="5.62519">
        <ele>248.60000610352</ele>
        <time>2013-06-01T09:49:33.000Z</time>
      </trkpt>
      <trkpt lat="43.6353" lon="5.62525">
        <ele>248.60000610352</ele>
        <time>2013-06-01T09:49:34.000Z</time>
      </trkpt>
      <trkpt lat="43.6353" lon="5.6253">
        <ele>248.80000305176</ele>
        <time>2013-06-01T09:49:35.000Z</time>
      </trkpt>
      <trkpt lat="43.6353" lon="5.62536">
        <ele>248.80000305176</ele>
        <time>2013-06-01T09:49:36.000Z</time>
      </trkpt>
      <trkpt lat="43.63523" lon="5.62616">
        <ele>250</ele>
        <time>2013-06-01T09:49:49.000Z</time>
      </trkpt>
      <trkpt lat="43.6352" lon="5.62674">
        <ele>252</ele>
        <time>2013-06-01T09:50:00.000Z</time>
      </trkpt>
      <trkpt lat="43.63522" lon="5.6269">
        <ele>252.19999694824</ele>
        <time>2013-06-01T09:50:05.000Z</time>
      </trkpt>
      <trkpt lat="43.63522" lon="5.62694">
        <ele>252.19999694824</ele>
        <time>2013-06-01T09:50:06.000Z</time>
      </trkpt>
      <trkpt lat="43.63522" lon="5.62699">
        <ele>252.19999694824</ele>
        <time>2013-06-01T09:50:07.000Z</time>
      </trkpt>
      <trkpt lat="43.63521" lon="5.62703">
        <ele>252.39999389648</ele>
        <time>2013-06-01T09:50:08.000Z</time>
      </trkpt>
      <trkpt lat="43.63521" lon="5.62708">
        <ele>252.39999389648</ele>
        <time>2013-06-01T09:50:09.000Z</time>
      </trkpt>
      <trkpt lat="43.63518" lon="5.62756">
        <ele>253.19999694824</ele>
        <time>2013-06-01T09:50:19.000Z</time>
      </trkpt>
      <trkpt lat="43.63518" lon="5.62812">
        <ele>254.39999389648</ele>
        <time>2013-06-01T09:50:30.000Z</time>
      </trkpt>
      <trkpt lat="43.63515" lon="5.62887">
        <ele>255.39999389648</ele>
        <time>2013-06-01T09:50:41.000Z</time>
      </trkpt>
      <trkpt lat="43.63506" lon="5.62967">
        <ele>254.60000610352</ele>
        <time>2013-06-01T09:50:52.000Z</time>
      </trkpt>
      <trkpt lat="43.63508" lon="5.62972">
        <ele>254.60000610352</ele>
        <time>2013-06-01T09:50:53.000Z</time>
      </trkpt>
      <trkpt lat="43.6351" lon="5.62976">
        <ele>254.39999389648</ele>
        <time>2013-06-01T09:50:54.000Z</time>
      </trkpt>
      <trkpt lat="43.63512" lon="5.6298">
        <ele>254.39999389648</ele>
        <time>2013-06-01T09:50:55.000Z</time>
      </trkpt>
      <trkpt lat="43.63512" lon="5.62984">
        <ele>254.39999389648</ele>
        <time>2013-06-01T09:50:56.000Z</time>
      </trkpt>
      <trkpt lat="43.63512" lon="5.62988">
        <ele>254.19999694824</ele>
        <time>2013-06-01T09:50:57.000Z</time>
      </trkpt>
      <trkpt lat="43.63512" lon="5.62993">
        <ele>254.19999694824</ele>
        <time>2013-06-01T09:50:58.000Z</time>
      </trkpt>
      <trkpt lat="43.63512" lon="5.62997">
        <ele>254</ele>
        <time>2013-06-01T09:50:59.000Z</time>
      </trkpt>
      <trkpt lat="43.63512" lon="5.63002">
        <ele>254.19999694824</ele>
        <time>2013-06-01T09:51:00.000Z</time>
      </trkpt>
      <trkpt lat="43.63511" lon="5.63008">
        <ele>254.39999389648</ele>
        <time>2013-06-01T09:51:01.000Z</time>
      </trkpt>
      <trkpt lat="43.63511" lon="5.63013">
        <ele>254.60000610352</ele>
        <time>2013-06-01T09:51:02.000Z</time>
      </trkpt>
      <trkpt lat="43.6351" lon="5.63062">
        <ele>256.20001220703</ele>
        <time>2013-06-01T09:51:12.000Z</time>
      </trkpt>
      <trkpt lat="43.63513" lon="5.63104">
        <ele>257</ele>
        <time>2013-06-01T09:51:19.000Z</time>
      </trkpt>
      <trkpt lat="43.63518" lon="5.63123">
        <ele>257</ele>
        <time>2013-06-01T09:51:22.000Z</time>
      </trkpt>
      <trkpt lat="43.63521" lon="5.63129">
        <ele>257</ele>
        <time>2013-06-01T09:51:23.000Z</time>
      </trkpt>
      <trkpt lat="43.63524" lon="5.63134">
        <ele>257.20001220703</ele>
        <time>2013-06-01T09:51:24.000Z</time>
      </trkpt>
      <trkpt lat="43.63527" lon="5.6314">
        <ele>257.20001220703</ele>
        <time>2013-06-01T09:51:25.000Z</time>
      </trkpt>
      <trkpt lat="43.63531" lon="5.63145">
        <ele>257.39999389648</ele>
        <time>2013-06-01T09:51:26.000Z</time>
      </trkpt>
      <trkpt lat="43.63535" lon="5.63149">
        <ele>257.60000610352</ele>
        <time>2013-06-01T09:51:27.000Z</time>
      </trkpt>
      <trkpt lat="43.63539" lon="5.63153">
        <ele>257.79998779297</ele>
        <time>2013-06-01T09:51:28.000Z</time>
      </trkpt>
      <trkpt lat="43.63543" lon="5.63156">
        <ele>257.79998779297</ele>
        <time>2013-06-01T09:51:29.000Z</time>
      </trkpt>
      <trkpt lat="43.63551" lon="5.63163">
        <ele>258.39999389648</ele>
        <time>2013-06-01T09:51:31.000Z</time>
      </trkpt>
      <trkpt lat="43.6356" lon="5.63169">
        <ele>258.79998779297</ele>
        <time>2013-06-01T09:51:33.000Z</time>
      </trkpt>
      <trkpt lat="43.63608" lon="5.63209">
        <ele>260</ele>
        <time>2013-06-01T09:51:44.000Z</time>
      </trkpt>
      <trkpt lat="43.63657" lon="5.6325">
        <ele>260.79998779297</ele>
        <time>2013-06-01T09:51:56.000Z</time>
      </trkpt>
      <trkpt lat="43.63661" lon="5.63253">
        <ele>260.79998779297</ele>
        <time>2013-06-01T09:51:57.000Z</time>
      </trkpt>
      <trkpt lat="43.63668" lon="5.6326">
        <ele>261</ele>
        <time>2013-06-01T09:51:59.000Z</time>
      </trkpt>
      <trkpt lat="43.63681" lon="5.63277">
        <ele>260.20001220703</ele>
        <time>2013-06-01T09:52:03.000Z</time>
      </trkpt>
      <trkpt lat="43.63684" lon="5.63282">
        <ele>260</ele>
        <time>2013-06-01T09:52:04.000Z</time>
      </trkpt>
      <trkpt lat="43.63701" lon="5.63309">
        <ele>258.79998779297</ele>
        <time>2013-06-01T09:52:11.000Z</time>
      </trkpt>
      <trkpt lat="43.63701" lon="5.63313">
        <ele>259</ele>
        <time>2013-06-01T09:52:12.000Z</time>
      </trkpt>
      <trkpt lat="43.63698" lon="5.63316">
        <ele>259.20001220703</ele>
        <time>2013-06-01T09:52:13.000Z</time>
      </trkpt>
      <trkpt lat="43.63684" lon="5.63349">
        <ele>260.60000610352</ele>
        <time>2013-06-01T09:52:20.000Z</time>
      </trkpt>
      <trkpt lat="43.6366" lon="5.63415">
        <ele>262.39999389648</ele>
        <time>2013-06-01T09:52:29.000Z</time>
      </trkpt>
      <trkpt lat="43.63652" lon="5.63438">
        <ele>262.39999389648</ele>
        <time>2013-06-01T09:52:32.000Z</time>
      </trkpt>
      <trkpt lat="43.6365" lon="5.63445">
        <ele>262.39999389648</ele>
        <time>2013-06-01T09:52:33.000Z</time>
      </trkpt>
      <trkpt lat="43.63649" lon="5.63453">
        <ele>262.20001220703</ele>
        <time>2013-06-01T09:52:34.000Z</time>
      </trkpt>
      <trkpt lat="43.63648" lon="5.635">
        <ele>261.20001220703</ele>
        <time>2013-06-01T09:52:40.000Z</time>
      </trkpt>
      <trkpt lat="43.63647" lon="5.63507">
        <ele>261.60000610352</ele>
        <time>2013-06-01T09:52:41.000Z</time>
      </trkpt>
      <trkpt lat="43.63645" lon="5.63513">
        <ele>261.79998779297</ele>
        <time>2013-06-01T09:52:42.000Z</time>
      </trkpt>
      <trkpt lat="43.63642" lon="5.6352">
        <ele>262.20001220703</ele>
        <time>2013-06-01T09:52:43.000Z</time>
      </trkpt>
      <trkpt lat="43.63639" lon="5.63526">
        <ele>262.39999389648</ele>
        <time>2013-06-01T09:52:44.000Z</time>
      </trkpt>
      <trkpt lat="43.63636" lon="5.63532">
        <ele>262.79998779297</ele>
        <time>2013-06-01T09:52:45.000Z</time>
      </trkpt>
      <trkpt lat="43.63631" lon="5.63545">
        <ele>263.20001220703</ele>
        <time>2013-06-01T09:52:47.000Z</time>
      </trkpt>
      <trkpt lat="43.63619" lon="5.63582">
        <ele>264</ele>
        <time>2013-06-01T09:52:53.000Z</time>
      </trkpt>
      <trkpt lat="43.63608" lon="5.63619">
        <ele>264</ele>
        <time>2013-06-01T09:53:00.000Z</time>
      </trkpt>
      <trkpt lat="43.63594" lon="5.6368">
        <ele>263.20001220703</ele>
        <time>2013-06-01T09:53:12.000Z</time>
      </trkpt>
      <trkpt lat="43.6359" lon="5.63747">
        <ele>263.20001220703</ele>
        <time>2013-06-01T09:53:24.000Z</time>
      </trkpt>
      <trkpt lat="43.63589" lon="5.6377">
        <ele>263.79998779297</ele>
        <time>2013-06-01T09:53:28.000Z</time>
      </trkpt>
      <trkpt lat="43.63586" lon="5.63846">
        <ele>266</ele>
        <time>2013-06-01T09:53:40.000Z</time>
      </trkpt>
      <trkpt lat="43.63586" lon="5.63871">
        <ele>266</ele>
        <time>2013-06-01T09:53:45.000Z</time>
      </trkpt>
      <trkpt lat="43.63588" lon="5.63874">
        <ele>266</ele>
        <time>2013-06-01T09:53:46.000Z</time>
      </trkpt>
      <trkpt lat="43.6359" lon="5.63875">
        <ele>266</ele>
        <time>2013-06-01T09:53:47.000Z</time>
      </trkpt>
      <trkpt lat="43.63592" lon="5.63879">
        <ele>266</ele>
        <time>2013-06-01T09:53:48.000Z</time>
      </trkpt>
      <trkpt lat="43.63592" lon="5.63882">
        <ele>266</ele>
        <time>2013-06-01T09:53:49.000Z</time>
      </trkpt>
      <trkpt lat="43.63591" lon="5.63885">
        <ele>266</ele>
        <time>2013-06-01T09:53:50.000Z</time>
      </trkpt>
      <trkpt lat="43.6359" lon="5.63887">
        <ele>266</ele>
        <time>2013-06-01T09:53:57.000Z</time>
      </trkpt>
      <trkpt lat="43.63591" lon="5.6389">
        <ele>266</ele>
        <time>2013-06-01T09:54:11.000Z</time>
      </trkpt>
      <trkpt lat="43.63586" lon="5.6389">
        <ele>266</ele>
        <time>2013-06-01T09:54:35.000Z</time>
      </trkpt>
      <trkpt lat="43.63587" lon="5.63892">
        <ele>266</ele>
        <time>2013-06-01T09:54:53.000Z</time>
      </trkpt>
    </trkseg>
  </trk>
</gpx>